<?xml version="1.0" encoding="UTF-8" standalone="yes"?>
<gpx
 xmlns="http://www.topografix.com/GPX/1/1"
 creator="OziExplorer Version 3956f - http://www.oziexplorer.com"
 version="1.1"
 xmlns:xsi="http://www.w3.org/2001/XMLSchema-instance"
 xsi:schemaLocation="http://www.topografix.com/GPX/1/1 http://www.topografix.com/GPX/1/1/gpx.xsd">
<metadata>
 <time>2023-11-30T11:21:20Z</time>
 <bounds minlat="32.603160" minlon="35.086330" maxlat="32.640400" maxlon="35.135090"/>
</metadata>
<wpt lat="32.6232700" lon="35.1024300">
 <time>2023-11-30T13:20:46.965Z</time>
 <name>Otv_Vlevo</name>
 <sym>Flag, Red</sym>
</wpt>
<wpt lat="32.6193000" lon="35.0970400">
 <time>2023-11-30T13:20:46.984Z</time>
 <name>Brod</name>
 <sym>Flag, Red</sym>
</wpt>
<wpt lat="32.6148600" lon="35.0929500">
 <time>2023-11-30T13:20:46.985Z</time>
 <name>Ein Almusim</name>
 <sym>Flag, Red</sym>
</wpt>
<wpt lat="32.6220600" lon="35.0865100">
 <time>2023-11-30T13:20:46.985Z</time>
 <name>Ein Rihnia</name>
 <sym>Flag, Red</sym>
</wpt>
<wpt lat="32.6366000" lon="35.1118000">
 <time>2023-11-30T13:20:46.986Z</time>
 <name>Mapal</name>
 <sym>Flag, Red</sym>
</wpt>
<wpt lat="32.6378000" lon="35.1125700">
 <time>2023-11-30T13:20:46.987Z</time>
 <name>Mapal</name>
 <sym>Flag, Red</sym>
</wpt>
<wpt lat="32.6390500" lon="35.1134400">
 <time>2023-11-30T13:20:46.987Z</time>
 <name>Peshera</name>
 <sym>Flag, Red</sym>
</wpt>
<wpt lat="32.6393600" lon="35.1149500">
 <time>2023-11-30T13:20:46.988Z</time>
 <name>Peshera</name>
 <sym>Flag, Red</sym>
</wpt>
<wpt lat="32.6397600" lon="35.1132300">
 <time>2023-11-30T13:20:46.988Z</time>
 <name>Maayan</name>
 <sym>Flag, Red</sym>
</wpt>
<wpt lat="32.6371500" lon="35.1108800">
 <time>2023-11-30T13:20:46.989Z</time>
 <name>Stoliki</name>
 <sym>Flag, Red</sym>
</wpt>
<wpt lat="32.6366000" lon="35.1118000">
 <time>2023-11-30T13:20:46.990Z</time>
 <name>Mapal</name>
 <sym>Flag, Red</sym>
</wpt>
<wpt lat="32.6378000" lon="35.1125700">
 <time>2023-11-30T13:20:46.990Z</time>
 <name>Mpapl</name>
 <sym>Flag, Red</sym>
</wpt>
<wpt lat="32.6390500" lon="35.1134400">
 <time>2023-11-30T13:20:46.991Z</time>
 <name>Peshera</name>
 <sym>Flag, Red</sym>
</wpt>
<wpt lat="32.6393600" lon="35.1149500">
 <time>2023-11-30T13:20:46.992Z</time>
 <name>Peshera</name>
 <sym>Flag, Red</sym>
</wpt>
<wpt lat="32.6397600" lon="35.1132300">
 <time>2023-11-30T13:20:46.992Z</time>
 <name>Maayan</name>
 <sym>Flag, Red</sym>
</wpt>
<wpt lat="32.6371500" lon="35.1108800">
 <time>2023-11-30T13:20:46.993Z</time>
 <name>Stoliki</name>
 <sym>Flag, Red</sym>
</wpt>
<wpt lat="32.6208200" lon="35.0910900">
 <time>2023-11-30T13:20:46.994Z</time>
 <name>Nahal Shofet</name>
 <sym>Flag, Red</sym>
</wpt>
<trk>
 <name>HaZorea_sin+Shofet_36km.750m</name>
 <desc>HaZorea_sin+Shofet_36km.750m</desc>
<trkseg>
<trkpt lat="32.6361200" lon="35.1090600">
<ele>96.440002</ele>
<time>2023-11-30T13:20:46.994Z</time>
</trkpt>
<trkpt lat="32.6361300" lon="35.1091100">
<ele>95.640007</ele>
<time>2023-11-30T13:20:46.994Z</time>
</trkpt>
<trkpt lat="32.6361600" lon="35.1091400">
<ele>94.979996</ele>
<time>2023-11-30T13:20:46.994Z</time>
</trkpt>
<trkpt lat="32.6361900" lon="35.1091700">
<ele>94.379997</ele>
<time>2023-11-30T13:20:46.994Z</time>
</trkpt>
<trkpt lat="32.6361800" lon="35.1092000">
<ele>93.990005</ele>
<time>2023-11-30T13:20:46.994Z</time>
</trkpt>
<trkpt lat="32.6361900" lon="35.1092500">
<ele>93.189995</ele>
<time>2023-11-30T13:20:46.994Z</time>
</trkpt>
<trkpt lat="32.6362200" lon="35.1092700">
<ele>92.790001</ele>
<time>2023-11-30T13:20:46.994Z</time>
</trkpt>
<trkpt lat="32.6362700" lon="35.1092700">
<ele>92.630005</ele>
<time>2023-11-30T13:20:46.994Z</time>
</trkpt>
<trkpt lat="32.6363100" lon="35.1092600">
<ele>92.610001</ele>
<time>2023-11-30T13:20:46.994Z</time>
</trkpt>
<trkpt lat="32.6363300" lon="35.1091900">
<ele>93.200005</ele>
<time>2023-11-30T13:20:46.994Z</time>
</trkpt>
<trkpt lat="32.6363400" lon="35.1091500">
<ele>93.440002</ele>
<time>2023-11-30T13:20:46.994Z</time>
</trkpt>
<trkpt lat="32.6363300" lon="35.1091000">
<ele>93.820007</ele>
<time>2023-11-30T13:20:46.994Z</time>
</trkpt>
<trkpt lat="32.6362900" lon="35.1090600">
<ele>94.510002</ele>
<time>2023-11-30T13:20:46.994Z</time>
</trkpt>
<trkpt lat="32.6361900" lon="35.1090000">
<ele>96.320000</ele>
<time>2023-11-30T13:20:46.994Z</time>
</trkpt>
<trkpt lat="32.6361600" lon="35.1090000">
<ele>96.730003</ele>
<time>2023-11-30T13:20:46.994Z</time>
</trkpt>
<trkpt lat="32.6361300" lon="35.1090100">
<ele>96.999992</ele>
<time>2023-11-30T13:20:46.994Z</time>
</trkpt>
<trkpt lat="32.6360300" lon="35.1090500">
<ele>98.850006</ele>
<time>2023-11-30T13:20:46.994Z</time>
</trkpt>
<trkpt lat="32.6359900" lon="35.1091300">
<ele>98.639999</ele>
<time>2023-11-30T13:20:46.994Z</time>
</trkpt>
<trkpt lat="32.6359500" lon="35.1091700">
<ele>98.990005</ele>
<time>2023-11-30T13:20:46.994Z</time>
</trkpt>
<trkpt lat="32.6359000" lon="35.1092700">
<ele>97.889999</ele>
<time>2023-11-30T13:20:46.994Z</time>
</trkpt>
<trkpt lat="32.6358900" lon="35.1093300">
<ele>96.700005</ele>
<time>2023-11-30T13:20:46.994Z</time>
</trkpt>
<trkpt lat="32.6358800" lon="35.1093600">
<ele>96.189995</ele>
<time>2023-11-30T13:20:46.994Z</time>
</trkpt>
<trkpt lat="32.6358700" lon="35.1094000">
<ele>95.419998</ele>
<time>2023-11-30T13:20:46.994Z</time>
</trkpt>
<trkpt lat="32.6358600" lon="35.1095200">
<ele>93.039993</ele>
<time>2023-11-30T13:20:46.994Z</time>
</trkpt>
<trkpt lat="32.6358500" lon="35.1096200">
<ele>91.139999</ele>
<time>2023-11-30T13:20:46.994Z</time>
</trkpt>
<trkpt lat="32.6358300" lon="35.1097000">
<ele>89.519997</ele>
<time>2023-11-30T13:20:46.994Z</time>
</trkpt>
<trkpt lat="32.6357700" lon="35.1098100">
<ele>88.279999</ele>
<time>2023-11-30T13:20:46.994Z</time>
</trkpt>
<trkpt lat="32.6356900" lon="35.1099400">
<ele>86.599998</ele>
<time>2023-11-30T13:20:46.994Z</time>
</trkpt>
<trkpt lat="32.6355800" lon="35.1101600">
<ele>82.610001</ele>
<time>2023-11-30T13:20:46.994Z</time>
</trkpt>
<trkpt lat="32.6351900" lon="35.1105200">
<ele>80.320000</ele>
<time>2023-11-30T13:20:46.994Z</time>
</trkpt>
<trkpt lat="32.6351100" lon="35.1105800">
<ele>80.090004</ele>
<time>2023-11-30T13:20:46.994Z</time>
</trkpt>
<trkpt lat="32.6350400" lon="35.1106200">
<ele>80.229996</ele>
<time>2023-11-30T13:20:46.994Z</time>
</trkpt>
<trkpt lat="32.6349300" lon="35.1106800">
<ele>81.400002</ele>
<time>2023-11-30T13:20:46.994Z</time>
</trkpt>
<trkpt lat="32.6348900" lon="35.1106900">
<ele>81.899994</ele>
<time>2023-11-30T13:20:46.994Z</time>
</trkpt>
<trkpt lat="32.6347900" lon="35.1106900">
<ele>83.190002</ele>
<time>2023-11-30T13:20:46.994Z</time>
</trkpt>
<trkpt lat="32.6346400" lon="35.1107000">
<ele>83.000000</ele>
<time>2023-11-30T13:20:46.994Z</time>
</trkpt>
<trkpt lat="32.6344200" lon="35.1106900">
<ele>81.020004</ele>
<time>2023-11-30T13:20:46.994Z</time>
</trkpt>
<trkpt lat="32.6343300" lon="35.1106900">
<ele>80.479996</ele>
<time>2023-11-30T13:20:46.994Z</time>
</trkpt>
<trkpt lat="32.6342800" lon="35.1106900">
<ele>80.189995</ele>
<time>2023-11-30T13:20:46.994Z</time>
</trkpt>
<trkpt lat="32.6341100" lon="35.1106800">
<ele>80.539993</ele>
<time>2023-11-30T13:20:46.994Z</time>
</trkpt>
<trkpt lat="32.6340400" lon="35.1106800">
<ele>81.770004</ele>
<time>2023-11-30T13:20:46.994Z</time>
</trkpt>
<trkpt lat="32.6339700" lon="35.1106900">
<ele>82.779999</ele>
<time>2023-11-30T13:20:46.994Z</time>
</trkpt>
<trkpt lat="32.6338400" lon="35.1107000">
<ele>84.169998</ele>
<time>2023-11-30T13:20:46.994Z</time>
</trkpt>
<trkpt lat="32.6337900" lon="35.1107100">
<ele>84.139999</ele>
<time>2023-11-30T13:20:46.994Z</time>
</trkpt>
<trkpt lat="32.6337500" lon="35.1107200">
<ele>83.989998</ele>
<time>2023-11-30T13:20:46.994Z</time>
</trkpt>
<trkpt lat="32.6336800" lon="35.1107400">
<ele>83.450005</ele>
<time>2023-11-30T13:20:46.994Z</time>
</trkpt>
<trkpt lat="32.6336300" lon="35.1107500">
<ele>83.150002</ele>
<time>2023-11-30T13:20:46.994Z</time>
</trkpt>
<trkpt lat="32.6335600" lon="35.1107700">
<ele>83.650002</ele>
<time>2023-11-30T13:20:46.994Z</time>
</trkpt>
<trkpt lat="32.6334600" lon="35.1107900">
<ele>85.859993</ele>
<time>2023-11-30T13:20:46.994Z</time>
</trkpt>
<trkpt lat="32.6334200" lon="35.1108000">
<ele>86.820000</ele>
<time>2023-11-30T13:20:46.994Z</time>
</trkpt>
<trkpt lat="32.6332200" lon="35.1108100">
<ele>91.939995</ele>
<time>2023-11-30T13:20:46.994Z</time>
</trkpt>
<trkpt lat="32.6331400" lon="35.1108300">
<ele>93.250000</ele>
<time>2023-11-30T13:20:46.994Z</time>
</trkpt>
<trkpt lat="32.6331100" lon="35.1108400">
<ele>93.660004</ele>
<time>2023-11-30T13:20:46.994Z</time>
</trkpt>
<trkpt lat="32.6330900" lon="35.1108600">
<ele>93.629997</ele>
<time>2023-11-30T13:20:46.994Z</time>
</trkpt>
<trkpt lat="32.6330000" lon="35.1109400">
<ele>94.110008</ele>
<time>2023-11-30T13:20:46.994Z</time>
</trkpt>
<trkpt lat="32.6327500" lon="35.1111100">
<ele>93.739998</ele>
<time>2023-11-30T13:20:46.994Z</time>
</trkpt>
<trkpt lat="32.6327100" lon="35.1111500">
<ele>93.589996</ele>
<time>2023-11-30T13:20:46.994Z</time>
</trkpt>
<trkpt lat="32.6326500" lon="35.1112700">
<ele>91.639999</ele>
<time>2023-11-30T13:20:46.994Z</time>
</trkpt>
<trkpt lat="32.6325500" lon="35.1113800">
<ele>91.000000</ele>
<time>2023-11-30T13:20:46.994Z</time>
</trkpt>
<trkpt lat="32.6324700" lon="35.1115000">
<ele>90.869995</ele>
<time>2023-11-30T13:20:46.994Z</time>
</trkpt>
<trkpt lat="32.6324400" lon="35.1115800">
<ele>90.229996</ele>
<time>2023-11-30T13:20:46.994Z</time>
</trkpt>
<trkpt lat="32.6324400" lon="35.1116300">
<ele>89.040001</ele>
<time>2023-11-30T13:20:46.994Z</time>
</trkpt>
<trkpt lat="32.6324300" lon="35.1117100">
<ele>87.699997</ele>
<time>2023-11-30T13:20:46.994Z</time>
</trkpt>
<trkpt lat="32.6324300" lon="35.1118500">
<ele>85.050003</ele>
<time>2023-11-30T13:20:46.994Z</time>
</trkpt>
<trkpt lat="32.6324300" lon="35.1119800">
<ele>82.880005</ele>
<time>2023-11-30T13:20:46.994Z</time>
</trkpt>
<trkpt lat="32.6324300" lon="35.1120300">
<ele>82.339996</ele>
<time>2023-11-30T13:20:46.994Z</time>
</trkpt>
<trkpt lat="32.6324300" lon="35.1121200">
<ele>81.370003</ele>
<time>2023-11-30T13:20:46.994Z</time>
</trkpt>
<trkpt lat="32.6324200" lon="35.1121500">
<ele>81.259995</ele>
<time>2023-11-30T13:20:46.994Z</time>
</trkpt>
<trkpt lat="32.6324200" lon="35.1122000">
<ele>80.689995</ele>
<time>2023-11-30T13:20:46.994Z</time>
</trkpt>
<trkpt lat="32.6324200" lon="35.1122300">
<ele>80.379997</ele>
<time>2023-11-30T13:20:46.994Z</time>
</trkpt>
<trkpt lat="32.6324100" lon="35.1122900">
<ele>80.049995</ele>
<time>2023-11-30T13:20:46.994Z</time>
</trkpt>
<trkpt lat="32.6323200" lon="35.1123800">
<ele>80.740005</ele>
<time>2023-11-30T13:20:46.994Z</time>
</trkpt>
<trkpt lat="32.6322300" lon="35.1124700">
<ele>81.209999</ele>
<time>2023-11-30T13:20:46.994Z</time>
</trkpt>
<trkpt lat="32.6320900" lon="35.1125700">
<ele>83.119995</ele>
<time>2023-11-30T13:20:46.994Z</time>
</trkpt>
<trkpt lat="32.6320300" lon="35.1126000">
<ele>83.800003</ele>
<time>2023-11-30T13:20:46.994Z</time>
</trkpt>
<trkpt lat="32.6319000" lon="35.1126600">
<ele>84.799995</ele>
<time>2023-11-30T13:20:46.994Z</time>
</trkpt>
<trkpt lat="32.6318100" lon="35.1127200">
<ele>84.789993</ele>
<time>2023-11-30T13:20:46.994Z</time>
</trkpt>
<trkpt lat="32.6317400" lon="35.1127700">
<ele>84.410004</ele>
<time>2023-11-30T13:20:46.994Z</time>
</trkpt>
<trkpt lat="32.6316200" lon="35.1128400">
<ele>85.800003</ele>
<time>2023-11-30T13:20:46.994Z</time>
</trkpt>
<trkpt lat="32.6315900" lon="35.1128600">
<ele>86.309998</ele>
<time>2023-11-30T13:20:46.994Z</time>
</trkpt>
<trkpt lat="32.6315100" lon="35.1129000">
<ele>87.519997</ele>
<time>2023-11-30T13:20:46.994Z</time>
</trkpt>
<trkpt lat="32.6314800" lon="35.1129200">
<ele>87.820000</ele>
<time>2023-11-30T13:20:46.994Z</time>
</trkpt>
<trkpt lat="32.6314300" lon="35.1129500">
<ele>88.230003</ele>
<time>2023-11-30T13:20:46.994Z</time>
</trkpt>
<trkpt lat="32.6313700" lon="35.1129800">
<ele>88.379997</ele>
<time>2023-11-30T13:20:46.994Z</time>
</trkpt>
<trkpt lat="32.6312900" lon="35.1130100">
<ele>87.880005</ele>
<time>2023-11-30T13:20:46.994Z</time>
</trkpt>
<trkpt lat="32.6308400" lon="35.1133000">
<ele>84.750000</ele>
<time>2023-11-30T13:20:46.994Z</time>
</trkpt>
<trkpt lat="32.6307800" lon="35.1133300">
<ele>84.070000</ele>
<time>2023-11-30T13:20:46.994Z</time>
</trkpt>
<trkpt lat="32.6307000" lon="35.1133500">
<ele>83.970001</ele>
<time>2023-11-30T13:20:46.994Z</time>
</trkpt>
<trkpt lat="32.6306200" lon="35.1133600">
<ele>83.979996</ele>
<time>2023-11-30T13:20:46.994Z</time>
</trkpt>
<trkpt lat="32.6305800" lon="35.1133500">
<ele>83.989998</ele>
<time>2023-11-30T13:20:46.994Z</time>
</trkpt>
<trkpt lat="32.6305400" lon="35.1133500">
<ele>83.950005</ele>
<time>2023-11-30T13:20:46.994Z</time>
</trkpt>
<trkpt lat="32.6304600" lon="35.1133200">
<ele>83.979996</ele>
<time>2023-11-30T13:20:46.994Z</time>
</trkpt>
<trkpt lat="32.6303500" lon="35.1132800">
<ele>84.459999</ele>
<time>2023-11-30T13:20:46.994Z</time>
</trkpt>
<trkpt lat="32.6302700" lon="35.1132600">
<ele>84.639999</ele>
<time>2023-11-30T13:20:46.994Z</time>
</trkpt>
<trkpt lat="32.6301900" lon="35.1132300">
<ele>85.859993</ele>
<time>2023-11-30T13:20:46.994Z</time>
</trkpt>
<trkpt lat="32.6300400" lon="35.1131900">
<ele>87.809998</ele>
<time>2023-11-30T13:20:46.994Z</time>
</trkpt>
<trkpt lat="32.6299700" lon="35.1131800">
<ele>88.370003</ele>
<time>2023-11-30T13:20:46.994Z</time>
</trkpt>
<trkpt lat="32.6298200" lon="35.1131400">
<ele>89.629997</ele>
<time>2023-11-30T13:20:46.994Z</time>
</trkpt>
<trkpt lat="32.6297900" lon="35.1131200">
<ele>90.190002</ele>
<time>2023-11-30T13:20:46.994Z</time>
</trkpt>
<trkpt lat="32.6296900" lon="35.1131100">
<ele>90.790001</ele>
<time>2023-11-30T13:20:46.994Z</time>
</trkpt>
<trkpt lat="32.6296500" lon="35.1131000">
<ele>91.169998</ele>
<time>2023-11-30T13:20:46.994Z</time>
</trkpt>
<trkpt lat="32.6295900" lon="35.1130800">
<ele>91.680000</ele>
<time>2023-11-30T13:20:46.994Z</time>
</trkpt>
<trkpt lat="32.6294700" lon="35.1130600">
<ele>91.990005</ele>
<time>2023-11-30T13:20:46.994Z</time>
</trkpt>
<trkpt lat="32.6294100" lon="35.1130500">
<ele>92.920006</ele>
<time>2023-11-30T13:20:46.994Z</time>
</trkpt>
<trkpt lat="32.6293200" lon="35.1130300">
<ele>95.340004</ele>
<time>2023-11-30T13:20:46.994Z</time>
</trkpt>
<trkpt lat="32.6289200" lon="35.1129700">
<ele>100.380005</ele>
<time>2023-11-30T13:20:46.994Z</time>
</trkpt>
<trkpt lat="32.6288400" lon="35.1129500">
<ele>101.450005</ele>
<time>2023-11-30T13:20:46.994Z</time>
</trkpt>
<trkpt lat="32.6288100" lon="35.1129300">
<ele>102.040001</ele>
<time>2023-11-30T13:20:46.994Z</time>
</trkpt>
<trkpt lat="32.6287500" lon="35.1128800">
<ele>103.079994</ele>
<time>2023-11-30T13:20:46.994Z</time>
</trkpt>
<trkpt lat="32.6286100" lon="35.1127200">
<ele>105.040001</ele>
<time>2023-11-30T13:20:46.994Z</time>
</trkpt>
<trkpt lat="32.6285400" lon="35.1126100">
<ele>106.660004</ele>
<time>2023-11-30T13:20:46.994Z</time>
</trkpt>
<trkpt lat="32.6284700" lon="35.1125100">
<ele>107.370003</ele>
<time>2023-11-30T13:20:46.994Z</time>
</trkpt>
<trkpt lat="32.6284500" lon="35.1124800">
<ele>107.590004</ele>
<time>2023-11-30T13:20:46.994Z</time>
</trkpt>
<trkpt lat="32.6283900" lon="35.1123700">
<ele>108.119995</ele>
<time>2023-11-30T13:20:46.994Z</time>
</trkpt>
<trkpt lat="32.6283700" lon="35.1123400">
<ele>108.000000</ele>
<time>2023-11-30T13:20:46.994Z</time>
</trkpt>
<trkpt lat="32.6283300" lon="35.1122800">
<ele>107.550003</ele>
<time>2023-11-30T13:20:46.994Z</time>
</trkpt>
<trkpt lat="32.6282700" lon="35.1121300">
<ele>109.179993</ele>
<time>2023-11-30T13:20:46.994Z</time>
</trkpt>
<trkpt lat="32.6281400" lon="35.1118500">
<ele>111.350006</ele>
<time>2023-11-30T13:20:46.994Z</time>
</trkpt>
<trkpt lat="32.6280300" lon="35.1116700">
<ele>110.229996</ele>
<time>2023-11-30T13:20:46.994Z</time>
</trkpt>
<trkpt lat="32.6280200" lon="35.1116400">
<ele>110.440002</ele>
<time>2023-11-30T13:20:46.994Z</time>
</trkpt>
<trkpt lat="32.6279900" lon="35.1116000">
<ele>110.259995</ele>
<time>2023-11-30T13:20:46.994Z</time>
</trkpt>
<trkpt lat="32.6279000" lon="35.1114100">
<ele>110.620003</ele>
<time>2023-11-30T13:20:46.994Z</time>
</trkpt>
<trkpt lat="32.6278800" lon="35.1113600">
<ele>110.740005</ele>
<time>2023-11-30T13:20:46.994Z</time>
</trkpt>
<trkpt lat="32.6278500" lon="35.1113300">
<ele>110.139999</ele>
<time>2023-11-30T13:20:46.994Z</time>
</trkpt>
<trkpt lat="32.6277400" lon="35.1111400">
<ele>109.019997</ele>
<time>2023-11-30T13:20:46.994Z</time>
</trkpt>
<trkpt lat="32.6275600" lon="35.1107300">
<ele>105.360001</ele>
<time>2023-11-30T13:20:46.994Z</time>
</trkpt>
<trkpt lat="32.6275500" lon="35.1106800">
<ele>104.709999</ele>
<time>2023-11-30T13:20:46.994Z</time>
</trkpt>
<trkpt lat="32.6275400" lon="35.1105800">
<ele>103.730003</ele>
<time>2023-11-30T13:20:46.994Z</time>
</trkpt>
<trkpt lat="32.6275300" lon="35.1103700">
<ele>102.520004</ele>
<time>2023-11-30T13:20:46.994Z</time>
</trkpt>
<trkpt lat="32.6275300" lon="35.1103300">
<ele>102.380005</ele>
<time>2023-11-30T13:20:46.994Z</time>
</trkpt>
<trkpt lat="32.6275300" lon="35.1102500">
<ele>101.979996</ele>
<time>2023-11-30T13:20:46.994Z</time>
</trkpt>
<trkpt lat="32.6275300" lon="35.1101700">
<ele>101.369995</ele>
<time>2023-11-30T13:20:46.994Z</time>
</trkpt>
<trkpt lat="32.6275400" lon="35.1100900">
<ele>101.130005</ele>
<time>2023-11-30T13:20:46.994Z</time>
</trkpt>
<trkpt lat="32.6275500" lon="35.1100000">
<ele>100.799995</ele>
<time>2023-11-30T13:20:46.994Z</time>
</trkpt>
<trkpt lat="32.6275800" lon="35.1099600">
<ele>101.689995</ele>
<time>2023-11-30T13:20:46.994Z</time>
</trkpt>
<trkpt lat="32.6276000" lon="35.1099200">
<ele>102.060005</ele>
<time>2023-11-30T13:20:46.994Z</time>
</trkpt>
<trkpt lat="32.6276400" lon="35.1099000">
<ele>102.950005</ele>
<time>2023-11-30T13:20:46.994Z</time>
</trkpt>
<trkpt lat="32.6276500" lon="35.1098500">
<ele>102.610001</ele>
<time>2023-11-30T13:20:46.994Z</time>
</trkpt>
<trkpt lat="32.6276700" lon="35.1097800">
<ele>102.029999</ele>
<time>2023-11-30T13:20:46.994Z</time>
</trkpt>
<trkpt lat="32.6276800" lon="35.1097400">
<ele>101.559998</ele>
<time>2023-11-30T13:20:46.994Z</time>
</trkpt>
<trkpt lat="32.6277100" lon="35.1096800">
<ele>101.020004</ele>
<time>2023-11-30T13:20:46.994Z</time>
</trkpt>
<trkpt lat="32.6277700" lon="35.1095800">
<ele>99.940002</ele>
<time>2023-11-30T13:20:46.994Z</time>
</trkpt>
<trkpt lat="32.6277600" lon="35.1097900">
<ele>103.459999</ele>
<time>2023-11-30T13:20:46.994Z</time>
</trkpt>
<trkpt lat="32.6277500" lon="35.1098300">
<ele>104.209999</ele>
<time>2023-11-30T13:20:46.994Z</time>
</trkpt>
<trkpt lat="32.6277200" lon="35.1099400">
<ele>105.769997</ele>
<time>2023-11-30T13:20:46.994Z</time>
</trkpt>
<trkpt lat="32.6277000" lon="35.1100300">
<ele>106.490005</ele>
<time>2023-11-30T13:20:46.994Z</time>
</trkpt>
<trkpt lat="32.6276900" lon="35.1100700">
<ele>106.520004</ele>
<time>2023-11-30T13:20:46.994Z</time>
</trkpt>
<trkpt lat="32.6276900" lon="35.1101100">
<ele>106.899994</ele>
<time>2023-11-30T13:20:46.994Z</time>
</trkpt>
<trkpt lat="32.6276800" lon="35.1101900">
<ele>107.290001</ele>
<time>2023-11-30T13:20:46.994Z</time>
</trkpt>
<trkpt lat="32.6276700" lon="35.1102400">
<ele>107.380005</ele>
<time>2023-11-30T13:20:46.994Z</time>
</trkpt>
<trkpt lat="32.6276700" lon="35.1103800">
<ele>108.099998</ele>
<time>2023-11-30T13:20:46.994Z</time>
</trkpt>
<trkpt lat="32.6276700" lon="35.1104600">
<ele>108.389999</ele>
<time>2023-11-30T13:20:46.994Z</time>
</trkpt>
<trkpt lat="32.6276700" lon="35.1105100">
<ele>108.570000</ele>
<time>2023-11-30T13:20:46.994Z</time>
</trkpt>
<trkpt lat="32.6276900" lon="35.1106200">
<ele>109.670006</ele>
<time>2023-11-30T13:20:46.994Z</time>
</trkpt>
<trkpt lat="32.6277000" lon="35.1106700">
<ele>110.150002</ele>
<time>2023-11-30T13:20:46.994Z</time>
</trkpt>
<trkpt lat="32.6277500" lon="35.1107700">
<ele>112.049995</ele>
<time>2023-11-30T13:20:46.994Z</time>
</trkpt>
<trkpt lat="32.6277900" lon="35.1108500">
<ele>113.310005</ele>
<time>2023-11-30T13:20:46.994Z</time>
</trkpt>
<trkpt lat="32.6278300" lon="35.1109300">
<ele>114.090004</ele>
<time>2023-11-30T13:20:46.994Z</time>
</trkpt>
<trkpt lat="32.6279100" lon="35.1110800">
<ele>115.989998</ele>
<time>2023-11-30T13:20:46.994Z</time>
</trkpt>
<trkpt lat="32.6280000" lon="35.1112800">
<ele>116.320000</ele>
<time>2023-11-30T13:20:46.994Z</time>
</trkpt>
<trkpt lat="32.6280900" lon="35.1115100">
<ele>115.010002</ele>
<time>2023-11-30T13:20:46.994Z</time>
</trkpt>
<trkpt lat="32.6281400" lon="35.1115900">
<ele>115.200005</ele>
<time>2023-11-30T13:20:46.994Z</time>
</trkpt>
<trkpt lat="32.6281800" lon="35.1116400">
<ele>115.559998</ele>
<time>2023-11-30T13:20:46.994Z</time>
</trkpt>
<trkpt lat="32.6282400" lon="35.1117600">
<ele>115.519997</ele>
<time>2023-11-30T13:20:46.994Z</time>
</trkpt>
<trkpt lat="32.6282700" lon="35.1118000">
<ele>115.770004</ele>
<time>2023-11-30T13:20:46.994Z</time>
</trkpt>
<trkpt lat="32.6283000" lon="35.1118500">
<ele>115.780006</ele>
<time>2023-11-30T13:20:46.994Z</time>
</trkpt>
<trkpt lat="32.6283600" lon="35.1119500">
<ele>115.540001</ele>
<time>2023-11-30T13:20:46.994Z</time>
</trkpt>
<trkpt lat="32.6283900" lon="35.1119600">
<ele>116.060005</ele>
<time>2023-11-30T13:20:46.994Z</time>
</trkpt>
<trkpt lat="32.6283800" lon="35.1117500">
<ele>119.680000</ele>
<time>2023-11-30T13:20:46.994Z</time>
</trkpt>
<trkpt lat="32.6283500" lon="35.1117000">
<ele>119.820000</ele>
<time>2023-11-30T13:20:46.994Z</time>
</trkpt>
<trkpt lat="32.6282900" lon="35.1116600">
<ele>118.739998</ele>
<time>2023-11-30T13:20:46.994Z</time>
</trkpt>
<trkpt lat="32.6282600" lon="35.1116100">
<ele>118.789993</ele>
<time>2023-11-30T13:20:46.994Z</time>
</trkpt>
<trkpt lat="32.6281600" lon="35.1113200">
<ele>121.059998</ele>
<time>2023-11-30T13:20:46.994Z</time>
</trkpt>
<trkpt lat="32.6280700" lon="35.1111500">
<ele>121.590004</ele>
<time>2023-11-30T13:20:46.994Z</time>
</trkpt>
<trkpt lat="32.6280400" lon="35.1110900">
<ele>121.479996</ele>
<time>2023-11-30T13:20:46.994Z</time>
</trkpt>
<trkpt lat="32.6280300" lon="35.1110600">
<ele>121.279999</ele>
<time>2023-11-30T13:20:46.994Z</time>
</trkpt>
<trkpt lat="32.6280000" lon="35.1110300">
<ele>120.239998</ele>
<time>2023-11-30T13:20:46.994Z</time>
</trkpt>
<trkpt lat="32.6279300" lon="35.1108300">
<ele>119.029999</ele>
<time>2023-11-30T13:20:46.994Z</time>
</trkpt>
<trkpt lat="32.6279000" lon="35.1108000">
<ele>117.839996</ele>
<time>2023-11-30T13:20:46.994Z</time>
</trkpt>
<trkpt lat="32.6278900" lon="35.1107100">
<ele>117.440002</ele>
<time>2023-11-30T13:20:46.994Z</time>
</trkpt>
<trkpt lat="32.6278800" lon="35.1106400">
<ele>117.050003</ele>
<time>2023-11-30T13:20:46.994Z</time>
</trkpt>
<trkpt lat="32.6278700" lon="35.1105300">
<ele>116.589996</ele>
<time>2023-11-30T13:20:46.994Z</time>
</trkpt>
<trkpt lat="32.6278600" lon="35.1104000">
<ele>115.860001</ele>
<time>2023-11-30T13:20:46.994Z</time>
</trkpt>
<trkpt lat="32.6278500" lon="35.1103100">
<ele>115.209999</ele>
<time>2023-11-30T13:20:46.994Z</time>
</trkpt>
<trkpt lat="32.6278400" lon="35.1101100">
<ele>113.419998</ele>
<time>2023-11-30T13:20:46.994Z</time>
</trkpt>
<trkpt lat="32.6278400" lon="35.1100800">
<ele>113.190002</ele>
<time>2023-11-30T13:20:46.994Z</time>
</trkpt>
<trkpt lat="32.6278400" lon="35.1100300">
<ele>112.809998</ele>
<time>2023-11-30T13:20:46.994Z</time>
</trkpt>
<trkpt lat="32.6278500" lon="35.1099900">
<ele>112.919998</ele>
<time>2023-11-30T13:20:46.994Z</time>
</trkpt>
<trkpt lat="32.6278700" lon="35.1099500">
<ele>113.110001</ele>
<time>2023-11-30T13:20:46.994Z</time>
</trkpt>
<trkpt lat="32.6279300" lon="35.1097400">
<ele>111.729996</ele>
<time>2023-11-30T13:20:46.994Z</time>
</trkpt>
<trkpt lat="32.6279500" lon="35.1096800">
<ele>111.269997</ele>
<time>2023-11-30T13:20:46.994Z</time>
</trkpt>
<trkpt lat="32.6279600" lon="35.1096400">
<ele>110.610001</ele>
<time>2023-11-30T13:20:46.994Z</time>
</trkpt>
<trkpt lat="32.6279800" lon="35.1095600">
<ele>109.060005</ele>
<time>2023-11-30T13:20:46.994Z</time>
</trkpt>
<trkpt lat="32.6280000" lon="35.1095200">
<ele>108.610001</ele>
<time>2023-11-30T13:20:46.994Z</time>
</trkpt>
<trkpt lat="32.6280800" lon="35.1093600">
<ele>106.480003</ele>
<time>2023-11-30T13:20:46.994Z</time>
</trkpt>
<trkpt lat="32.6281000" lon="35.1093300">
<ele>106.669998</ele>
<time>2023-11-30T13:20:46.994Z</time>
</trkpt>
<trkpt lat="32.6281200" lon="35.1092900">
<ele>106.510002</ele>
<time>2023-11-30T13:20:46.994Z</time>
</trkpt>
<trkpt lat="32.6281500" lon="35.1092000">
<ele>105.279999</ele>
<time>2023-11-30T13:20:46.994Z</time>
</trkpt>
<trkpt lat="32.6282000" lon="35.1091100">
<ele>105.570000</ele>
<time>2023-11-30T13:20:46.994Z</time>
</trkpt>
<trkpt lat="32.6282200" lon="35.1090700">
<ele>105.279999</ele>
<time>2023-11-30T13:20:46.994Z</time>
</trkpt>
<trkpt lat="32.6282400" lon="35.1090300">
<ele>104.720001</ele>
<time>2023-11-30T13:20:46.994Z</time>
</trkpt>
<trkpt lat="32.6283300" lon="35.1089300">
<ele>103.139999</ele>
<time>2023-11-30T13:20:46.994Z</time>
</trkpt>
<trkpt lat="32.6283800" lon="35.1088800">
<ele>102.619995</ele>
<time>2023-11-30T13:20:46.994Z</time>
</trkpt>
<trkpt lat="32.6284600" lon="35.1087700">
<ele>102.279999</ele>
<time>2023-11-30T13:20:46.994Z</time>
</trkpt>
<trkpt lat="32.6285200" lon="35.1087400">
<ele>103.010002</ele>
<time>2023-11-30T13:20:46.994Z</time>
</trkpt>
<trkpt lat="32.6286500" lon="35.1085600">
<ele>100.489998</ele>
<time>2023-11-30T13:20:46.994Z</time>
</trkpt>
<trkpt lat="32.6287200" lon="35.1085100">
<ele>101.620003</ele>
<time>2023-11-30T13:20:46.994Z</time>
</trkpt>
<trkpt lat="32.6287400" lon="35.1084800">
<ele>101.639999</ele>
<time>2023-11-30T13:20:46.994Z</time>
</trkpt>
<trkpt lat="32.6287700" lon="35.1083900">
<ele>100.820007</ele>
<time>2023-11-30T13:20:46.994Z</time>
</trkpt>
<trkpt lat="32.6288000" lon="35.1083500">
<ele>100.700005</ele>
<time>2023-11-30T13:20:46.994Z</time>
</trkpt>
<trkpt lat="32.6288400" lon="35.1083200">
<ele>100.990005</ele>
<time>2023-11-30T13:20:46.994Z</time>
</trkpt>
<trkpt lat="32.6288800" lon="35.1082800">
<ele>101.280006</ele>
<time>2023-11-30T13:20:46.994Z</time>
</trkpt>
<trkpt lat="32.6289100" lon="35.1082500">
<ele>101.630005</ele>
<time>2023-11-30T13:20:46.994Z</time>
</trkpt>
<trkpt lat="32.6290200" lon="35.1081100">
<ele>102.889999</ele>
<time>2023-11-30T13:20:46.994Z</time>
</trkpt>
<trkpt lat="32.6290700" lon="35.1080100">
<ele>103.190002</ele>
<time>2023-11-30T13:20:46.994Z</time>
</trkpt>
<trkpt lat="32.6290900" lon="35.1079600">
<ele>103.169998</ele>
<time>2023-11-30T13:20:46.994Z</time>
</trkpt>
<trkpt lat="32.6290900" lon="35.1079000">
<ele>102.599998</ele>
<time>2023-11-30T13:20:46.994Z</time>
</trkpt>
<trkpt lat="32.6290500" lon="35.1078400">
<ele>101.590004</ele>
<time>2023-11-30T13:20:46.994Z</time>
</trkpt>
<trkpt lat="32.6289900" lon="35.1077900">
<ele>100.760002</ele>
<time>2023-11-30T13:20:46.994Z</time>
</trkpt>
<trkpt lat="32.6288600" lon="35.1076600">
<ele>99.900002</ele>
<time>2023-11-30T13:20:46.994Z</time>
</trkpt>
<trkpt lat="32.6287600" lon="35.1075300">
<ele>99.540001</ele>
<time>2023-11-30T13:20:46.994Z</time>
</trkpt>
<trkpt lat="32.6286400" lon="35.1074000">
<ele>99.389999</ele>
<time>2023-11-30T13:20:46.994Z</time>
</trkpt>
<trkpt lat="32.6285500" lon="35.1073500">
<ele>99.980003</ele>
<time>2023-11-30T13:20:46.994Z</time>
</trkpt>
<trkpt lat="32.6285200" lon="35.1073500">
<ele>100.199997</ele>
<time>2023-11-30T13:20:46.994Z</time>
</trkpt>
<trkpt lat="32.6284600" lon="35.1073500">
<ele>100.629997</ele>
<time>2023-11-30T13:20:46.994Z</time>
</trkpt>
<trkpt lat="32.6283400" lon="35.1073900">
<ele>101.349998</ele>
<time>2023-11-30T13:20:46.994Z</time>
</trkpt>
<trkpt lat="32.6283100" lon="35.1074200">
<ele>101.529999</ele>
<time>2023-11-30T13:20:46.994Z</time>
</trkpt>
<trkpt lat="32.6281900" lon="35.1075900">
<ele>101.389999</ele>
<time>2023-11-30T13:20:46.994Z</time>
</trkpt>
<trkpt lat="32.6281600" lon="35.1076200">
<ele>101.489998</ele>
<time>2023-11-30T13:20:46.994Z</time>
</trkpt>
<trkpt lat="32.6281100" lon="35.1076900">
<ele>101.659996</ele>
<time>2023-11-30T13:20:46.994Z</time>
</trkpt>
<trkpt lat="32.6280600" lon="35.1077500">
<ele>102.040001</ele>
<time>2023-11-30T13:20:46.994Z</time>
</trkpt>
<trkpt lat="32.6280000" lon="35.1078200">
<ele>102.019997</ele>
<time>2023-11-30T13:20:46.994Z</time>
</trkpt>
<trkpt lat="32.6275700" lon="35.1082500">
<ele>103.420006</ele>
<time>2023-11-30T13:20:46.994Z</time>
</trkpt>
<trkpt lat="32.6275500" lon="35.1082900">
<ele>103.440002</ele>
<time>2023-11-30T13:20:46.994Z</time>
</trkpt>
<trkpt lat="32.6274400" lon="35.1084100">
<ele>103.979996</ele>
<time>2023-11-30T13:20:46.994Z</time>
</trkpt>
<trkpt lat="32.6272900" lon="35.1086100">
<ele>103.280006</ele>
<time>2023-11-30T13:20:46.994Z</time>
</trkpt>
<trkpt lat="32.6272700" lon="35.1086400">
<ele>103.000000</ele>
<time>2023-11-30T13:20:46.994Z</time>
</trkpt>
<trkpt lat="32.6271100" lon="35.1089200">
<ele>102.879997</ele>
<time>2023-11-30T13:20:46.994Z</time>
</trkpt>
<trkpt lat="32.6269000" lon="35.1093700">
<ele>106.620003</ele>
<time>2023-11-30T13:20:46.994Z</time>
</trkpt>
<trkpt lat="32.6268500" lon="35.1095000">
<ele>106.699997</ele>
<time>2023-11-30T13:20:46.994Z</time>
</trkpt>
<trkpt lat="32.6268200" lon="35.1096300">
<ele>106.419998</ele>
<time>2023-11-30T13:20:46.994Z</time>
</trkpt>
<trkpt lat="32.6268000" lon="35.1096900">
<ele>106.320000</ele>
<time>2023-11-30T13:20:46.994Z</time>
</trkpt>
<trkpt lat="32.6267900" lon="35.1097500">
<ele>106.020004</ele>
<time>2023-11-30T13:20:46.994Z</time>
</trkpt>
<trkpt lat="32.6267500" lon="35.1099600">
<ele>105.090004</ele>
<time>2023-11-30T13:20:46.994Z</time>
</trkpt>
<trkpt lat="32.6267400" lon="35.1100100">
<ele>104.820000</ele>
<time>2023-11-30T13:20:46.994Z</time>
</trkpt>
<trkpt lat="32.6267200" lon="35.1102500">
<ele>101.979996</ele>
<time>2023-11-30T13:20:46.994Z</time>
</trkpt>
<trkpt lat="32.6267100" lon="35.1104300">
<ele>101.229996</ele>
<time>2023-11-30T13:20:46.994Z</time>
</trkpt>
<trkpt lat="32.6267000" lon="35.1104700">
<ele>101.150002</ele>
<time>2023-11-30T13:20:46.994Z</time>
</trkpt>
<trkpt lat="32.6267000" lon="35.1107400">
<ele>100.959999</ele>
<time>2023-11-30T13:20:46.994Z</time>
</trkpt>
<trkpt lat="32.6266900" lon="35.1109600">
<ele>101.079994</ele>
<time>2023-11-30T13:20:46.994Z</time>
</trkpt>
<trkpt lat="32.6266900" lon="35.1110600">
<ele>101.140007</ele>
<time>2023-11-30T13:20:46.994Z</time>
</trkpt>
<trkpt lat="32.6266900" lon="35.1111100">
<ele>101.169998</ele>
<time>2023-11-30T13:20:46.994Z</time>
</trkpt>
<trkpt lat="32.6266900" lon="35.1111500">
<ele>101.699997</ele>
<time>2023-11-30T13:20:46.994Z</time>
</trkpt>
<trkpt lat="32.6266900" lon="35.1112000">
<ele>102.389999</ele>
<time>2023-11-30T13:20:46.994Z</time>
</trkpt>
<trkpt lat="32.6267000" lon="35.1112700">
<ele>103.389999</ele>
<time>2023-11-30T13:20:46.994Z</time>
</trkpt>
<trkpt lat="32.6267000" lon="35.1114100">
<ele>105.070000</ele>
<time>2023-11-30T13:20:46.994Z</time>
</trkpt>
<trkpt lat="32.6267100" lon="35.1114600">
<ele>105.219994</ele>
<time>2023-11-30T13:20:46.994Z</time>
</trkpt>
<trkpt lat="32.6267100" lon="35.1114900">
<ele>105.309998</ele>
<time>2023-11-30T13:20:46.994Z</time>
</trkpt>
<trkpt lat="32.6267200" lon="35.1115800">
<ele>105.560005</ele>
<time>2023-11-30T13:20:46.994Z</time>
</trkpt>
<trkpt lat="32.6267400" lon="35.1116600">
<ele>105.720001</ele>
<time>2023-11-30T13:20:46.994Z</time>
</trkpt>
<trkpt lat="32.6267800" lon="35.1117800">
<ele>106.720001</ele>
<time>2023-11-30T13:20:46.994Z</time>
</trkpt>
<trkpt lat="32.6268200" lon="35.1118600">
<ele>107.080002</ele>
<time>2023-11-30T13:20:46.994Z</time>
</trkpt>
<trkpt lat="32.6269200" lon="35.1121100">
<ele>108.890007</ele>
<time>2023-11-30T13:20:46.994Z</time>
</trkpt>
<trkpt lat="32.6269800" lon="35.1122000">
<ele>108.800003</ele>
<time>2023-11-30T13:20:46.994Z</time>
</trkpt>
<trkpt lat="32.6270200" lon="35.1122500">
<ele>109.139999</ele>
<time>2023-11-30T13:20:46.994Z</time>
</trkpt>
<trkpt lat="32.6270500" lon="35.1122900">
<ele>109.840004</ele>
<time>2023-11-30T13:20:46.994Z</time>
</trkpt>
<trkpt lat="32.6270700" lon="35.1123300">
<ele>110.750000</ele>
<time>2023-11-30T13:20:46.994Z</time>
</trkpt>
<trkpt lat="32.6270900" lon="35.1123800">
<ele>111.980003</ele>
<time>2023-11-30T13:20:46.994Z</time>
</trkpt>
<trkpt lat="32.6271400" lon="35.1124800">
<ele>113.970001</ele>
<time>2023-11-30T13:20:46.994Z</time>
</trkpt>
<trkpt lat="32.6271600" lon="35.1125000">
<ele>114.019997</ele>
<time>2023-11-30T13:20:46.994Z</time>
</trkpt>
<trkpt lat="32.6271800" lon="35.1125500">
<ele>114.270004</ele>
<time>2023-11-30T13:20:46.994Z</time>
</trkpt>
<trkpt lat="32.6272200" lon="35.1126000">
<ele>113.869995</ele>
<time>2023-11-30T13:20:46.994Z</time>
</trkpt>
<trkpt lat="32.6272400" lon="35.1126500">
<ele>114.410004</ele>
<time>2023-11-30T13:20:46.994Z</time>
</trkpt>
<trkpt lat="32.6272700" lon="35.1127000">
<ele>114.860001</ele>
<time>2023-11-30T13:20:46.994Z</time>
</trkpt>
<trkpt lat="32.6273000" lon="35.1127700">
<ele>115.729996</ele>
<time>2023-11-30T13:20:46.994Z</time>
</trkpt>
<trkpt lat="32.6273400" lon="35.1128100">
<ele>116.589996</ele>
<time>2023-11-30T13:20:46.994Z</time>
</trkpt>
<trkpt lat="32.6273900" lon="35.1128600">
<ele>118.139999</ele>
<time>2023-11-30T13:20:46.994Z</time>
</trkpt>
<trkpt lat="32.6274700" lon="35.1130200">
<ele>125.169998</ele>
<time>2023-11-30T13:20:46.994Z</time>
</trkpt>
<trkpt lat="32.6275800" lon="35.1132100">
<ele>123.870003</ele>
<time>2023-11-30T13:20:46.994Z</time>
</trkpt>
<trkpt lat="32.6276100" lon="35.1132500">
<ele>122.830002</ele>
<time>2023-11-30T13:20:46.994Z</time>
</trkpt>
<trkpt lat="32.6276400" lon="35.1133100">
<ele>121.639999</ele>
<time>2023-11-30T13:20:46.994Z</time>
</trkpt>
<trkpt lat="32.6276600" lon="35.1133500">
<ele>121.479996</ele>
<time>2023-11-30T13:20:46.994Z</time>
</trkpt>
<trkpt lat="32.6277500" lon="35.1134900">
<ele>123.720001</ele>
<time>2023-11-30T13:20:46.994Z</time>
</trkpt>
<trkpt lat="32.6277700" lon="35.1135100">
<ele>123.900002</ele>
<time>2023-11-30T13:20:46.994Z</time>
</trkpt>
<trkpt lat="32.6278200" lon="35.1135800">
<ele>125.570000</ele>
<time>2023-11-30T13:20:46.994Z</time>
</trkpt>
<trkpt lat="32.6278600" lon="35.1136500">
<ele>126.450005</ele>
<time>2023-11-30T13:20:46.994Z</time>
</trkpt>
<trkpt lat="32.6278700" lon="35.1137000">
<ele>126.750000</ele>
<time>2023-11-30T13:20:46.994Z</time>
</trkpt>
<trkpt lat="32.6278900" lon="35.1137400">
<ele>126.809998</ele>
<time>2023-11-30T13:20:46.994Z</time>
</trkpt>
<trkpt lat="32.6279200" lon="35.1138200">
<ele>126.949997</ele>
<time>2023-11-30T13:20:46.994Z</time>
</trkpt>
<trkpt lat="32.6279500" lon="35.1139100">
<ele>127.629997</ele>
<time>2023-11-30T13:20:46.994Z</time>
</trkpt>
<trkpt lat="32.6279600" lon="35.1139400">
<ele>128.500000</ele>
<time>2023-11-30T13:20:46.994Z</time>
</trkpt>
<trkpt lat="32.6279900" lon="35.1139500">
<ele>128.330002</ele>
<time>2023-11-30T13:20:46.994Z</time>
</trkpt>
<trkpt lat="32.6280300" lon="35.1139800">
<ele>128.710007</ele>
<time>2023-11-30T13:20:46.994Z</time>
</trkpt>
<trkpt lat="32.6280900" lon="35.1140300">
<ele>129.709991</ele>
<time>2023-11-30T13:20:46.994Z</time>
</trkpt>
<trkpt lat="32.6281900" lon="35.1140900">
<ele>131.000000</ele>
<time>2023-11-30T13:20:46.994Z</time>
</trkpt>
<trkpt lat="32.6282300" lon="35.1141300">
<ele>132.259995</ele>
<time>2023-11-30T13:20:46.994Z</time>
</trkpt>
<trkpt lat="32.6283000" lon="35.1142100">
<ele>134.720001</ele>
<time>2023-11-30T13:20:46.994Z</time>
</trkpt>
<trkpt lat="32.6284700" lon="35.1143500">
<ele>131.550003</ele>
<time>2023-11-30T13:20:46.994Z</time>
</trkpt>
<trkpt lat="32.6285500" lon="35.1144200">
<ele>130.080002</ele>
<time>2023-11-30T13:20:46.994Z</time>
</trkpt>
<trkpt lat="32.6285800" lon="35.1144500">
<ele>129.699997</ele>
<time>2023-11-30T13:20:46.994Z</time>
</trkpt>
<trkpt lat="32.6286400" lon="35.1145200">
<ele>129.050003</ele>
<time>2023-11-30T13:20:46.994Z</time>
</trkpt>
<trkpt lat="32.6288500" lon="35.1148100">
<ele>132.100006</ele>
<time>2023-11-30T13:20:46.994Z</time>
</trkpt>
<trkpt lat="32.6289000" lon="35.1148400">
<ele>132.139999</ele>
<time>2023-11-30T13:20:46.994Z</time>
</trkpt>
<trkpt lat="32.6289400" lon="35.1148400">
<ele>132.779999</ele>
<time>2023-11-30T13:20:46.994Z</time>
</trkpt>
<trkpt lat="32.6290100" lon="35.1148400">
<ele>133.900009</ele>
<time>2023-11-30T13:20:46.994Z</time>
</trkpt>
<trkpt lat="32.6290400" lon="35.1148200">
<ele>133.830002</ele>
<time>2023-11-30T13:20:46.994Z</time>
</trkpt>
<trkpt lat="32.6291700" lon="35.1147600">
<ele>134.199997</ele>
<time>2023-11-30T13:20:46.994Z</time>
</trkpt>
<trkpt lat="32.6292200" lon="35.1147300">
<ele>134.800003</ele>
<time>2023-11-30T13:20:46.994Z</time>
</trkpt>
<trkpt lat="32.6292600" lon="35.1147200">
<ele>135.600006</ele>
<time>2023-11-30T13:20:46.994Z</time>
</trkpt>
<trkpt lat="32.6293100" lon="35.1147100">
<ele>136.619995</ele>
<time>2023-11-30T13:20:46.994Z</time>
</trkpt>
<trkpt lat="32.6293600" lon="35.1146800">
<ele>136.790009</ele>
<time>2023-11-30T13:20:46.994Z</time>
</trkpt>
<trkpt lat="32.6293900" lon="35.1146700">
<ele>137.209991</ele>
<time>2023-11-30T13:20:46.994Z</time>
</trkpt>
<trkpt lat="32.6294700" lon="35.1146500">
<ele>138.330002</ele>
<time>2023-11-30T13:20:46.994Z</time>
</trkpt>
<trkpt lat="32.6295300" lon="35.1146300">
<ele>138.350006</ele>
<time>2023-11-30T13:20:46.994Z</time>
</trkpt>
<trkpt lat="32.6296800" lon="35.1146200">
<ele>140.020004</ele>
<time>2023-11-30T13:20:46.994Z</time>
</trkpt>
<trkpt lat="32.6297300" lon="35.1146200">
<ele>140.509995</ele>
<time>2023-11-30T13:20:46.994Z</time>
</trkpt>
<trkpt lat="32.6297600" lon="35.1146200">
<ele>140.000000</ele>
<time>2023-11-30T13:20:46.994Z</time>
</trkpt>
<trkpt lat="32.6298300" lon="35.1146300">
<ele>139.550003</ele>
<time>2023-11-30T13:20:46.994Z</time>
</trkpt>
<trkpt lat="32.6299200" lon="35.1146300">
<ele>138.040009</ele>
<time>2023-11-30T13:20:46.994Z</time>
</trkpt>
<trkpt lat="32.6299800" lon="35.1146500">
<ele>138.610001</ele>
<time>2023-11-30T13:20:46.994Z</time>
</trkpt>
<trkpt lat="32.6300600" lon="35.1146500">
<ele>138.110001</ele>
<time>2023-11-30T13:20:46.994Z</time>
</trkpt>
<trkpt lat="32.6301000" lon="35.1146700">
<ele>139.660004</ele>
<time>2023-11-30T13:20:46.994Z</time>
</trkpt>
<trkpt lat="32.6301400" lon="35.1146900">
<ele>141.270004</ele>
<time>2023-11-30T13:20:46.994Z</time>
</trkpt>
<trkpt lat="32.6302100" lon="35.1147200">
<ele>143.809998</ele>
<time>2023-11-30T13:20:46.994Z</time>
</trkpt>
<trkpt lat="32.6304200" lon="35.1148000">
<ele>141.259995</ele>
<time>2023-11-30T13:20:46.994Z</time>
</trkpt>
<trkpt lat="32.6304700" lon="35.1148300">
<ele>140.440002</ele>
<time>2023-11-30T13:20:46.994Z</time>
</trkpt>
<trkpt lat="32.6307300" lon="35.1150200">
<ele>141.149994</ele>
<time>2023-11-30T13:20:46.994Z</time>
</trkpt>
<trkpt lat="32.6308700" lon="35.1151700">
<ele>141.839996</ele>
<time>2023-11-30T13:20:46.994Z</time>
</trkpt>
<trkpt lat="32.6310400" lon="35.1153600">
<ele>142.479996</ele>
<time>2023-11-30T13:20:46.994Z</time>
</trkpt>
<trkpt lat="32.6311700" lon="35.1154400">
<ele>143.169998</ele>
<time>2023-11-30T13:20:46.994Z</time>
</trkpt>
<trkpt lat="32.6312100" lon="35.1154500">
<ele>143.440002</ele>
<time>2023-11-30T13:20:46.994Z</time>
</trkpt>
<trkpt lat="32.6312600" lon="35.1154500">
<ele>143.380005</ele>
<time>2023-11-30T13:20:46.994Z</time>
</trkpt>
<trkpt lat="32.6313200" lon="35.1154500">
<ele>143.289993</ele>
<time>2023-11-30T13:20:46.994Z</time>
</trkpt>
<trkpt lat="32.6313700" lon="35.1154500">
<ele>143.229996</ele>
<time>2023-11-30T13:20:46.994Z</time>
</trkpt>
<trkpt lat="32.6314200" lon="35.1154400">
<ele>143.800003</ele>
<time>2023-11-30T13:20:46.994Z</time>
</trkpt>
<trkpt lat="32.6315000" lon="35.1153700">
<ele>143.650009</ele>
<time>2023-11-30T13:20:46.994Z</time>
</trkpt>
<trkpt lat="32.6316000" lon="35.1152500">
<ele>142.300003</ele>
<time>2023-11-30T13:20:46.994Z</time>
</trkpt>
<trkpt lat="32.6316700" lon="35.1151000">
<ele>140.020004</ele>
<time>2023-11-30T13:20:46.994Z</time>
</trkpt>
<trkpt lat="32.6317600" lon="35.1149100">
<ele>137.209991</ele>
<time>2023-11-30T13:20:46.994Z</time>
</trkpt>
<trkpt lat="32.6318300" lon="35.1147900">
<ele>135.350006</ele>
<time>2023-11-30T13:20:46.994Z</time>
</trkpt>
<trkpt lat="32.6318700" lon="35.1147300">
<ele>134.389999</ele>
<time>2023-11-30T13:20:46.994Z</time>
</trkpt>
<trkpt lat="32.6319400" lon="35.1146500">
<ele>133.809998</ele>
<time>2023-11-30T13:20:46.994Z</time>
</trkpt>
<trkpt lat="32.6319900" lon="35.1145900">
<ele>132.580002</ele>
<time>2023-11-30T13:20:46.994Z</time>
</trkpt>
<trkpt lat="32.6320600" lon="35.1145300">
<ele>131.899994</ele>
<time>2023-11-30T13:20:46.994Z</time>
</trkpt>
<trkpt lat="32.6322100" lon="35.1144500">
<ele>132.839996</ele>
<time>2023-11-30T13:20:46.994Z</time>
</trkpt>
<trkpt lat="32.6325100" lon="35.1143500">
<ele>127.360001</ele>
<time>2023-11-30T13:20:46.994Z</time>
</trkpt>
<trkpt lat="32.6325700" lon="35.1143400">
<ele>127.500000</ele>
<time>2023-11-30T13:20:46.994Z</time>
</trkpt>
<trkpt lat="32.6326500" lon="35.1143400">
<ele>127.929993</ele>
<time>2023-11-30T13:20:46.994Z</time>
</trkpt>
<trkpt lat="32.6328500" lon="35.1143600">
<ele>128.660004</ele>
<time>2023-11-30T13:20:46.994Z</time>
</trkpt>
<trkpt lat="32.6329400" lon="35.1144000">
<ele>129.300003</ele>
<time>2023-11-30T13:20:46.994Z</time>
</trkpt>
<trkpt lat="32.6329900" lon="35.1144200">
<ele>129.610001</ele>
<time>2023-11-30T13:20:46.994Z</time>
</trkpt>
<trkpt lat="32.6332600" lon="35.1145700">
<ele>128.989990</ele>
<time>2023-11-30T13:20:46.994Z</time>
</trkpt>
<trkpt lat="32.6333400" lon="35.1146300">
<ele>128.830002</ele>
<time>2023-11-30T13:20:46.994Z</time>
</trkpt>
<trkpt lat="32.6334000" lon="35.1147300">
<ele>132.619995</ele>
<time>2023-11-30T13:20:46.994Z</time>
</trkpt>
<trkpt lat="32.6334400" lon="35.1147800">
<ele>134.599991</ele>
<time>2023-11-30T13:20:46.994Z</time>
</trkpt>
<trkpt lat="32.6334900" lon="35.1148100">
<ele>136.240005</ele>
<time>2023-11-30T13:20:46.994Z</time>
</trkpt>
<trkpt lat="32.6335700" lon="35.1148300">
<ele>138.169998</ele>
<time>2023-11-30T13:20:46.994Z</time>
</trkpt>
<trkpt lat="32.6336100" lon="35.1148200">
<ele>138.739990</ele>
<time>2023-11-30T13:20:46.994Z</time>
</trkpt>
<trkpt lat="32.6336500" lon="35.1148100">
<ele>140.020004</ele>
<time>2023-11-30T13:20:46.994Z</time>
</trkpt>
<trkpt lat="32.6336900" lon="35.1147800">
<ele>140.830002</ele>
<time>2023-11-30T13:20:46.994Z</time>
</trkpt>
<trkpt lat="32.6337300" lon="35.1147400">
<ele>141.279999</ele>
<time>2023-11-30T13:20:46.994Z</time>
</trkpt>
<trkpt lat="32.6337600" lon="35.1146900">
<ele>141.190002</ele>
<time>2023-11-30T13:20:46.994Z</time>
</trkpt>
<trkpt lat="32.6338700" lon="35.1145500">
<ele>142.250000</ele>
<time>2023-11-30T13:20:46.994Z</time>
</trkpt>
<trkpt lat="32.6339800" lon="35.1144400">
<ele>144.919998</ele>
<time>2023-11-30T13:20:46.994Z</time>
</trkpt>
<trkpt lat="32.6340000" lon="35.1144000">
<ele>145.539993</ele>
<time>2023-11-30T13:20:46.994Z</time>
</trkpt>
<trkpt lat="32.6340200" lon="35.1142800">
<ele>145.550003</ele>
<time>2023-11-30T13:20:46.994Z</time>
</trkpt>
<trkpt lat="32.6340300" lon="35.1142500">
<ele>145.669998</ele>
<time>2023-11-30T13:20:46.994Z</time>
</trkpt>
<trkpt lat="32.6340400" lon="35.1142200">
<ele>145.769989</ele>
<time>2023-11-30T13:20:46.994Z</time>
</trkpt>
<trkpt lat="32.6340600" lon="35.1140400">
<ele>145.650009</ele>
<time>2023-11-30T13:20:46.994Z</time>
</trkpt>
<trkpt lat="32.6340700" lon="35.1139700">
<ele>145.750000</ele>
<time>2023-11-30T13:20:46.994Z</time>
</trkpt>
<trkpt lat="32.6340800" lon="35.1139400">
<ele>145.940002</ele>
<time>2023-11-30T13:20:46.994Z</time>
</trkpt>
<trkpt lat="32.6341100" lon="35.1138600">
<ele>146.470001</ele>
<time>2023-11-30T13:20:46.994Z</time>
</trkpt>
<trkpt lat="32.6341300" lon="35.1137900">
<ele>146.720001</ele>
<time>2023-11-30T13:20:46.994Z</time>
</trkpt>
<trkpt lat="32.6341400" lon="35.1137500">
<ele>146.830002</ele>
<time>2023-11-30T13:20:46.994Z</time>
</trkpt>
<trkpt lat="32.6341600" lon="35.1137200">
<ele>147.220001</ele>
<time>2023-11-30T13:20:46.994Z</time>
</trkpt>
<trkpt lat="32.6342500" lon="35.1135900">
<ele>148.559998</ele>
<time>2023-11-30T13:20:46.994Z</time>
</trkpt>
<trkpt lat="32.6343500" lon="35.1134900">
<ele>147.429993</ele>
<time>2023-11-30T13:20:46.994Z</time>
</trkpt>
<trkpt lat="32.6345900" lon="35.1134200">
<ele>151.179993</ele>
<time>2023-11-30T13:20:46.994Z</time>
</trkpt>
<trkpt lat="32.6346600" lon="35.1134200">
<ele>153.800003</ele>
<time>2023-11-30T13:20:46.994Z</time>
</trkpt>
<trkpt lat="32.6346900" lon="35.1134100">
<ele>154.550003</ele>
<time>2023-11-30T13:20:46.994Z</time>
</trkpt>
<trkpt lat="32.6348100" lon="35.1134400">
<ele>158.060013</ele>
<time>2023-11-30T13:20:46.994Z</time>
</trkpt>
<trkpt lat="32.6348600" lon="35.1134500">
<ele>159.059998</ele>
<time>2023-11-30T13:20:46.994Z</time>
</trkpt>
<trkpt lat="32.6349400" lon="35.1134900">
<ele>161.229996</ele>
<time>2023-11-30T13:20:46.994Z</time>
</trkpt>
<trkpt lat="32.6350500" lon="35.1135300">
<ele>161.520004</ele>
<time>2023-11-30T13:20:46.994Z</time>
</trkpt>
<trkpt lat="32.6351300" lon="35.1135700">
<ele>160.220001</ele>
<time>2023-11-30T13:20:46.994Z</time>
</trkpt>
<trkpt lat="32.6353200" lon="35.1136300">
<ele>156.849991</ele>
<time>2023-11-30T13:20:46.994Z</time>
</trkpt>
<trkpt lat="32.6353600" lon="35.1136600">
<ele>157.399994</ele>
<time>2023-11-30T13:20:46.994Z</time>
</trkpt>
<trkpt lat="32.6353900" lon="35.1136800">
<ele>157.860001</ele>
<time>2023-11-30T13:20:46.994Z</time>
</trkpt>
<trkpt lat="32.6354200" lon="35.1137000">
<ele>158.440002</ele>
<time>2023-11-30T13:20:46.994Z</time>
</trkpt>
<trkpt lat="32.6355100" lon="35.1137400">
<ele>159.730011</ele>
<time>2023-11-30T13:20:46.994Z</time>
</trkpt>
<trkpt lat="32.6356700" lon="35.1138200">
<ele>163.610001</ele>
<time>2023-11-30T13:20:46.994Z</time>
</trkpt>
<trkpt lat="32.6357200" lon="35.1138400">
<ele>164.540009</ele>
<time>2023-11-30T13:20:46.994Z</time>
</trkpt>
<trkpt lat="32.6358000" lon="35.1138900">
<ele>167.279999</ele>
<time>2023-11-30T13:20:46.994Z</time>
</trkpt>
<trkpt lat="32.6358200" lon="35.1139100">
<ele>167.849991</ele>
<time>2023-11-30T13:20:46.994Z</time>
</trkpt>
<trkpt lat="32.6358600" lon="35.1139300">
<ele>167.419998</ele>
<time>2023-11-30T13:20:46.994Z</time>
</trkpt>
<trkpt lat="32.6358800" lon="35.1139500">
<ele>167.350006</ele>
<time>2023-11-30T13:20:46.994Z</time>
</trkpt>
<trkpt lat="32.6359100" lon="35.1139800">
<ele>167.240005</ele>
<time>2023-11-30T13:20:46.994Z</time>
</trkpt>
<trkpt lat="32.6361000" lon="35.1140700">
<ele>162.960007</ele>
<time>2023-11-30T13:20:46.994Z</time>
</trkpt>
<trkpt lat="32.6364200" lon="35.1141600">
<ele>159.979996</ele>
<time>2023-11-30T13:20:46.994Z</time>
</trkpt>
<trkpt lat="32.6364600" lon="35.1141800">
<ele>161.019989</ele>
<time>2023-11-30T13:20:46.994Z</time>
</trkpt>
<trkpt lat="32.6365100" lon="35.1142000">
<ele>162.179993</ele>
<time>2023-11-30T13:20:46.994Z</time>
</trkpt>
<trkpt lat="32.6365600" lon="35.1142200">
<ele>163.130005</ele>
<time>2023-11-30T13:20:46.994Z</time>
</trkpt>
<trkpt lat="32.6366600" lon="35.1142400">
<ele>163.669998</ele>
<time>2023-11-30T13:20:46.994Z</time>
</trkpt>
<trkpt lat="32.6367000" lon="35.1142600">
<ele>163.560013</ele>
<time>2023-11-30T13:20:46.994Z</time>
</trkpt>
<trkpt lat="32.6368500" lon="35.1143100">
<ele>161.520004</ele>
<time>2023-11-30T13:20:46.994Z</time>
</trkpt>
<trkpt lat="32.6368900" lon="35.1143300">
<ele>161.110001</ele>
<time>2023-11-30T13:20:46.994Z</time>
</trkpt>
<trkpt lat="32.6369200" lon="35.1143500">
<ele>160.919998</ele>
<time>2023-11-30T13:20:46.994Z</time>
</trkpt>
<trkpt lat="32.6370400" lon="35.1144000">
<ele>158.750000</ele>
<time>2023-11-30T13:20:46.994Z</time>
</trkpt>
<trkpt lat="32.6370600" lon="35.1144200">
<ele>158.819992</ele>
<time>2023-11-30T13:20:46.994Z</time>
</trkpt>
<trkpt lat="32.6370900" lon="35.1144400">
<ele>158.649994</ele>
<time>2023-11-30T13:20:46.994Z</time>
</trkpt>
<trkpt lat="32.6372500" lon="35.1145800">
<ele>158.919998</ele>
<time>2023-11-30T13:20:46.994Z</time>
</trkpt>
<trkpt lat="32.6372700" lon="35.1146000">
<ele>158.680008</ele>
<time>2023-11-30T13:20:46.994Z</time>
</trkpt>
<trkpt lat="32.6372900" lon="35.1146300">
<ele>158.850006</ele>
<time>2023-11-30T13:20:46.994Z</time>
</trkpt>
<trkpt lat="32.6373600" lon="35.1147000">
<ele>158.139999</ele>
<time>2023-11-30T13:20:46.994Z</time>
</trkpt>
<trkpt lat="32.6374900" lon="35.1150600">
<ele>164.130005</ele>
<time>2023-11-30T13:20:46.994Z</time>
</trkpt>
<trkpt lat="32.6375100" lon="35.1152200">
<ele>165.830002</ele>
<time>2023-11-30T13:20:46.994Z</time>
</trkpt>
<trkpt lat="32.6375200" lon="35.1152900">
<ele>166.620010</ele>
<time>2023-11-30T13:20:46.994Z</time>
</trkpt>
<trkpt lat="32.6375300" lon="35.1153300">
<ele>166.770004</ele>
<time>2023-11-30T13:20:46.994Z</time>
</trkpt>
<trkpt lat="32.6375400" lon="35.1153700">
<ele>166.889999</ele>
<time>2023-11-30T13:20:46.994Z</time>
</trkpt>
<trkpt lat="32.6375400" lon="35.1154500">
<ele>167.670013</ele>
<time>2023-11-30T13:20:46.994Z</time>
</trkpt>
<trkpt lat="32.6375500" lon="35.1154800">
<ele>167.660004</ele>
<time>2023-11-30T13:20:46.994Z</time>
</trkpt>
<trkpt lat="32.6375500" lon="35.1155300">
<ele>168.139999</ele>
<time>2023-11-30T13:20:46.994Z</time>
</trkpt>
<trkpt lat="32.6375600" lon="35.1157400">
<ele>167.070007</ele>
<time>2023-11-30T13:20:46.994Z</time>
</trkpt>
<trkpt lat="32.6375800" lon="35.1160000">
<ele>168.990005</ele>
<time>2023-11-30T13:20:46.994Z</time>
</trkpt>
<trkpt lat="32.6376100" lon="35.1160800">
<ele>169.429993</ele>
<time>2023-11-30T13:20:46.994Z</time>
</trkpt>
<trkpt lat="32.6376600" lon="35.1162200">
<ele>168.000000</ele>
<time>2023-11-30T13:20:46.994Z</time>
</trkpt>
<trkpt lat="32.6377200" lon="35.1163200">
<ele>165.910004</ele>
<time>2023-11-30T13:20:46.994Z</time>
</trkpt>
<trkpt lat="32.6378400" lon="35.1164800">
<ele>159.799988</ele>
<time>2023-11-30T13:20:46.994Z</time>
</trkpt>
<trkpt lat="32.6380700" lon="35.1167500">
<ele>153.149994</ele>
<time>2023-11-30T13:20:46.994Z</time>
</trkpt>
<trkpt lat="32.6381800" lon="35.1168500">
<ele>152.459991</ele>
<time>2023-11-30T13:20:46.994Z</time>
</trkpt>
<trkpt lat="32.6383500" lon="35.1170100">
<ele>153.309998</ele>
<time>2023-11-30T13:20:46.994Z</time>
</trkpt>
<trkpt lat="32.6385100" lon="35.1171100">
<ele>153.870010</ele>
<time>2023-11-30T13:20:46.994Z</time>
</trkpt>
<trkpt lat="32.6385600" lon="35.1171400">
<ele>153.759995</ele>
<time>2023-11-30T13:20:46.994Z</time>
</trkpt>
<trkpt lat="32.6388300" lon="35.1172800">
<ele>156.010010</ele>
<time>2023-11-30T13:20:46.994Z</time>
</trkpt>
<trkpt lat="32.6389300" lon="35.1173300">
<ele>156.269989</ele>
<time>2023-11-30T13:20:46.994Z</time>
</trkpt>
<trkpt lat="32.6389700" lon="35.1173600">
<ele>156.360001</ele>
<time>2023-11-30T13:20:46.994Z</time>
</trkpt>
<trkpt lat="32.6390400" lon="35.1174000">
<ele>156.199997</ele>
<time>2023-11-30T13:20:46.994Z</time>
</trkpt>
<trkpt lat="32.6390600" lon="35.1174100">
<ele>156.130005</ele>
<time>2023-11-30T13:20:46.994Z</time>
</trkpt>
<trkpt lat="32.6391100" lon="35.1174400">
<ele>156.119995</ele>
<time>2023-11-30T13:20:46.994Z</time>
</trkpt>
<trkpt lat="32.6391400" lon="35.1174600">
<ele>156.199997</ele>
<time>2023-11-30T13:20:46.994Z</time>
</trkpt>
<trkpt lat="32.6392000" lon="35.1174800">
<ele>155.970001</ele>
<time>2023-11-30T13:20:46.994Z</time>
</trkpt>
<trkpt lat="32.6394800" lon="35.1175300">
<ele>154.940002</ele>
<time>2023-11-30T13:20:46.994Z</time>
</trkpt>
<trkpt lat="32.6395800" lon="35.1175400">
<ele>154.880005</ele>
<time>2023-11-30T13:20:46.994Z</time>
</trkpt>
<trkpt lat="32.6397000" lon="35.1175800">
<ele>155.699997</ele>
<time>2023-11-30T13:20:46.994Z</time>
</trkpt>
<trkpt lat="32.6397600" lon="35.1176000">
<ele>155.000000</ele>
<time>2023-11-30T13:20:46.994Z</time>
</trkpt>
<trkpt lat="32.6400300" lon="35.1177300">
<ele>154.899994</ele>
<time>2023-11-30T13:20:46.994Z</time>
</trkpt>
<trkpt lat="32.6401800" lon="35.1178800">
<ele>158.500000</ele>
<time>2023-11-30T13:20:46.994Z</time>
</trkpt>
<trkpt lat="32.6403700" lon="35.1181000">
<ele>161.050003</ele>
<time>2023-11-30T13:20:46.994Z</time>
</trkpt>
<trkpt lat="32.6403900" lon="35.1181400">
<ele>161.050003</ele>
<time>2023-11-30T13:20:46.994Z</time>
</trkpt>
<trkpt lat="32.6404000" lon="35.1182300">
<ele>161.570007</ele>
<time>2023-11-30T13:20:46.994Z</time>
</trkpt>
<trkpt lat="32.6404000" lon="35.1182700">
<ele>161.880005</ele>
<time>2023-11-30T13:20:46.994Z</time>
</trkpt>
<trkpt lat="32.6403900" lon="35.1183200">
<ele>162.470001</ele>
<time>2023-11-30T13:20:46.994Z</time>
</trkpt>
<trkpt lat="32.6403700" lon="35.1183700">
<ele>163.139999</ele>
<time>2023-11-30T13:20:46.994Z</time>
</trkpt>
<trkpt lat="32.6403500" lon="35.1183900">
<ele>163.639999</ele>
<time>2023-11-30T13:20:46.994Z</time>
</trkpt>
<trkpt lat="32.6403200" lon="35.1184000">
<ele>164.330002</ele>
<time>2023-11-30T13:20:46.994Z</time>
</trkpt>
<trkpt lat="32.6402800" lon="35.1184000">
<ele>165.189987</ele>
<time>2023-11-30T13:20:46.994Z</time>
</trkpt>
<trkpt lat="32.6402600" lon="35.1183700">
<ele>165.039993</ele>
<time>2023-11-30T13:20:46.994Z</time>
</trkpt>
<trkpt lat="32.6402000" lon="35.1183000">
<ele>164.460007</ele>
<time>2023-11-30T13:20:46.994Z</time>
</trkpt>
<trkpt lat="32.6401800" lon="35.1182700">
<ele>164.200012</ele>
<time>2023-11-30T13:20:46.994Z</time>
</trkpt>
<trkpt lat="32.6401600" lon="35.1182200">
<ele>163.869995</ele>
<time>2023-11-30T13:20:46.994Z</time>
</trkpt>
<trkpt lat="32.6401400" lon="35.1182000">
<ele>163.779999</ele>
<time>2023-11-30T13:20:46.994Z</time>
</trkpt>
<trkpt lat="32.6401200" lon="35.1181600">
<ele>163.620010</ele>
<time>2023-11-30T13:20:46.994Z</time>
</trkpt>
<trkpt lat="32.6400900" lon="35.1181100">
<ele>163.540009</ele>
<time>2023-11-30T13:20:46.994Z</time>
</trkpt>
<trkpt lat="32.6399800" lon="35.1180300">
<ele>163.739990</ele>
<time>2023-11-30T13:20:46.994Z</time>
</trkpt>
<trkpt lat="32.6399400" lon="35.1180000">
<ele>163.660004</ele>
<time>2023-11-30T13:20:46.994Z</time>
</trkpt>
<trkpt lat="32.6399100" lon="35.1180000">
<ele>164.099991</ele>
<time>2023-11-30T13:20:46.994Z</time>
</trkpt>
<trkpt lat="32.6399200" lon="35.1180900">
<ele>165.149994</ele>
<time>2023-11-30T13:20:46.994Z</time>
</trkpt>
<trkpt lat="32.6399300" lon="35.1181400">
<ele>165.010010</ele>
<time>2023-11-30T13:20:46.994Z</time>
</trkpt>
<trkpt lat="32.6399400" lon="35.1182000">
<ele>164.860001</ele>
<time>2023-11-30T13:20:46.994Z</time>
</trkpt>
<trkpt lat="32.6399400" lon="35.1182500">
<ele>164.860001</ele>
<time>2023-11-30T13:20:46.994Z</time>
</trkpt>
<trkpt lat="32.6399400" lon="35.1183300">
<ele>164.860001</ele>
<time>2023-11-30T13:20:46.994Z</time>
</trkpt>
<trkpt lat="32.6399100" lon="35.1183600">
<ele>165.069992</ele>
<time>2023-11-30T13:20:46.994Z</time>
</trkpt>
<trkpt lat="32.6398700" lon="35.1183600">
<ele>165.639999</ele>
<time>2023-11-30T13:20:46.994Z</time>
</trkpt>
<trkpt lat="32.6398300" lon="35.1183400">
<ele>166.389999</ele>
<time>2023-11-30T13:20:46.994Z</time>
</trkpt>
<trkpt lat="32.6397800" lon="35.1183100">
<ele>167.169998</ele>
<time>2023-11-30T13:20:46.994Z</time>
</trkpt>
<trkpt lat="32.6397200" lon="35.1183100">
<ele>167.970001</ele>
<time>2023-11-30T13:20:46.994Z</time>
</trkpt>
<trkpt lat="32.6396900" lon="35.1182900">
<ele>167.619995</ele>
<time>2023-11-30T13:20:46.994Z</time>
</trkpt>
<trkpt lat="32.6396200" lon="35.1182500">
<ele>166.680008</ele>
<time>2023-11-30T13:20:46.994Z</time>
</trkpt>
<trkpt lat="32.6394600" lon="35.1181100">
<ele>163.649994</ele>
<time>2023-11-30T13:20:46.994Z</time>
</trkpt>
<trkpt lat="32.6394000" lon="35.1180300">
<ele>163.029999</ele>
<time>2023-11-30T13:20:46.994Z</time>
</trkpt>
<trkpt lat="32.6393700" lon="35.1179600">
<ele>162.980011</ele>
<time>2023-11-30T13:20:46.994Z</time>
</trkpt>
<trkpt lat="32.6393300" lon="35.1179000">
<ele>162.640015</ele>
<time>2023-11-30T13:20:46.994Z</time>
</trkpt>
<trkpt lat="32.6392200" lon="35.1178600">
<ele>161.429993</ele>
<time>2023-11-30T13:20:46.994Z</time>
</trkpt>
<trkpt lat="32.6392000" lon="35.1178400">
<ele>161.039993</ele>
<time>2023-11-30T13:20:46.994Z</time>
</trkpt>
<trkpt lat="32.6391600" lon="35.1178300">
<ele>160.589996</ele>
<time>2023-11-30T13:20:46.994Z</time>
</trkpt>
<trkpt lat="32.6391200" lon="35.1178000">
<ele>160.320007</ele>
<time>2023-11-30T13:20:46.994Z</time>
</trkpt>
<trkpt lat="32.6390800" lon="35.1177900">
<ele>160.209991</ele>
<time>2023-11-30T13:20:46.994Z</time>
</trkpt>
<trkpt lat="32.6390200" lon="35.1177800">
<ele>160.050003</ele>
<time>2023-11-30T13:20:46.994Z</time>
</trkpt>
<trkpt lat="32.6389800" lon="35.1177700">
<ele>160.009995</ele>
<time>2023-11-30T13:20:46.994Z</time>
</trkpt>
<trkpt lat="32.6389400" lon="35.1177600">
<ele>160.070007</ele>
<time>2023-11-30T13:20:46.994Z</time>
</trkpt>
<trkpt lat="32.6389000" lon="35.1177600">
<ele>160.119995</ele>
<time>2023-11-30T13:20:46.994Z</time>
</trkpt>
<trkpt lat="32.6388700" lon="35.1177600">
<ele>160.720001</ele>
<time>2023-11-30T13:20:46.994Z</time>
</trkpt>
<trkpt lat="32.6389000" lon="35.1178500">
<ele>162.279999</ele>
<time>2023-11-30T13:20:46.994Z</time>
</trkpt>
<trkpt lat="32.6389400" lon="35.1179200">
<ele>164.039993</ele>
<time>2023-11-30T13:20:46.994Z</time>
</trkpt>
<trkpt lat="32.6389600" lon="35.1179500">
<ele>164.630005</ele>
<time>2023-11-30T13:20:46.994Z</time>
</trkpt>
<trkpt lat="32.6390000" lon="35.1179900">
<ele>165.039993</ele>
<time>2023-11-30T13:20:46.994Z</time>
</trkpt>
<trkpt lat="32.6390200" lon="35.1180500">
<ele>166.040009</ele>
<time>2023-11-30T13:20:46.994Z</time>
</trkpt>
<trkpt lat="32.6390300" lon="35.1180900">
<ele>166.259995</ele>
<time>2023-11-30T13:20:46.994Z</time>
</trkpt>
<trkpt lat="32.6390200" lon="35.1181400">
<ele>166.900009</ele>
<time>2023-11-30T13:20:46.994Z</time>
</trkpt>
<trkpt lat="32.6389600" lon="35.1181700">
<ele>168.189987</ele>
<time>2023-11-30T13:20:46.994Z</time>
</trkpt>
<trkpt lat="32.6389300" lon="35.1181700">
<ele>168.710007</ele>
<time>2023-11-30T13:20:46.994Z</time>
</trkpt>
<trkpt lat="32.6388900" lon="35.1181700">
<ele>169.389999</ele>
<time>2023-11-30T13:20:46.994Z</time>
</trkpt>
<trkpt lat="32.6388600" lon="35.1181600">
<ele>169.749985</ele>
<time>2023-11-30T13:20:46.994Z</time>
</trkpt>
<trkpt lat="32.6388400" lon="35.1181500">
<ele>169.980011</ele>
<time>2023-11-30T13:20:46.994Z</time>
</trkpt>
<trkpt lat="32.6388100" lon="35.1181100">
<ele>170.279999</ele>
<time>2023-11-30T13:20:46.994Z</time>
</trkpt>
<trkpt lat="32.6387800" lon="35.1181000">
<ele>170.669998</ele>
<time>2023-11-30T13:20:46.994Z</time>
</trkpt>
<trkpt lat="32.6387600" lon="35.1180700">
<ele>170.880005</ele>
<time>2023-11-30T13:20:46.994Z</time>
</trkpt>
<trkpt lat="32.6387300" lon="35.1179800">
<ele>169.619995</ele>
<time>2023-11-30T13:20:46.994Z</time>
</trkpt>
<trkpt lat="32.6386800" lon="35.1179300">
<ele>169.640015</ele>
<time>2023-11-30T13:20:46.994Z</time>
</trkpt>
<trkpt lat="32.6386600" lon="35.1178900">
<ele>169.389999</ele>
<time>2023-11-30T13:20:46.994Z</time>
</trkpt>
<trkpt lat="32.6386000" lon="35.1178200">
<ele>169.810013</ele>
<time>2023-11-30T13:20:46.994Z</time>
</trkpt>
<trkpt lat="32.6385500" lon="35.1178200">
<ele>170.710007</ele>
<time>2023-11-30T13:20:46.994Z</time>
</trkpt>
<trkpt lat="32.6385300" lon="35.1178400">
<ele>171.360001</ele>
<time>2023-11-30T13:20:46.994Z</time>
</trkpt>
<trkpt lat="32.6385000" lon="35.1178400">
<ele>171.899994</ele>
<time>2023-11-30T13:20:46.994Z</time>
</trkpt>
<trkpt lat="32.6384500" lon="35.1177900">
<ele>172.080002</ele>
<time>2023-11-30T13:20:46.994Z</time>
</trkpt>
<trkpt lat="32.6384000" lon="35.1177700">
<ele>172.630005</ele>
<time>2023-11-30T13:20:46.994Z</time>
</trkpt>
<trkpt lat="32.6383500" lon="35.1177500">
<ele>173.020004</ele>
<time>2023-11-30T13:20:46.994Z</time>
</trkpt>
<trkpt lat="32.6383100" lon="35.1177500">
<ele>173.510010</ele>
<time>2023-11-30T13:20:46.994Z</time>
</trkpt>
<trkpt lat="32.6382800" lon="35.1179100">
<ele>175.919998</ele>
<time>2023-11-30T13:20:46.994Z</time>
</trkpt>
<trkpt lat="32.6382500" lon="35.1180800">
<ele>177.280014</ele>
<time>2023-11-30T13:20:46.994Z</time>
</trkpt>
<trkpt lat="32.6381900" lon="35.1181300">
<ele>176.709991</ele>
<time>2023-11-30T13:20:46.994Z</time>
</trkpt>
<trkpt lat="32.6381600" lon="35.1181800">
<ele>176.419998</ele>
<time>2023-11-30T13:20:46.994Z</time>
</trkpt>
<trkpt lat="32.6381200" lon="35.1182300">
<ele>176.169998</ele>
<time>2023-11-30T13:20:46.994Z</time>
</trkpt>
<trkpt lat="32.6380700" lon="35.1182800">
<ele>176.019989</ele>
<time>2023-11-30T13:20:46.994Z</time>
</trkpt>
<trkpt lat="32.6380300" lon="35.1183100">
<ele>176.199997</ele>
<time>2023-11-30T13:20:46.994Z</time>
</trkpt>
<trkpt lat="32.6380000" lon="35.1183200">
<ele>176.419998</ele>
<time>2023-11-30T13:20:46.994Z</time>
</trkpt>
<trkpt lat="32.6379700" lon="35.1183000">
<ele>176.690002</ele>
<time>2023-11-30T13:20:46.994Z</time>
</trkpt>
<trkpt lat="32.6379800" lon="35.1182500">
<ele>176.709991</ele>
<time>2023-11-30T13:20:46.994Z</time>
</trkpt>
<trkpt lat="32.6380000" lon="35.1181900">
<ele>176.610001</ele>
<time>2023-11-30T13:20:46.994Z</time>
</trkpt>
<trkpt lat="32.6380100" lon="35.1181400">
<ele>176.559998</ele>
<time>2023-11-30T13:20:46.994Z</time>
</trkpt>
<trkpt lat="32.6380100" lon="35.1180800">
<ele>176.630005</ele>
<time>2023-11-30T13:20:46.994Z</time>
</trkpt>
<trkpt lat="32.6380100" lon="35.1180200">
<ele>176.700012</ele>
<time>2023-11-30T13:20:46.994Z</time>
</trkpt>
<trkpt lat="32.6380000" lon="35.1179800">
<ele>176.910004</ele>
<time>2023-11-30T13:20:46.994Z</time>
</trkpt>
<trkpt lat="32.6380000" lon="35.1179500">
<ele>176.949997</ele>
<time>2023-11-30T13:20:46.994Z</time>
</trkpt>
<trkpt lat="32.6379800" lon="35.1178900">
<ele>177.410004</ele>
<time>2023-11-30T13:20:46.994Z</time>
</trkpt>
<trkpt lat="32.6379600" lon="35.1178500">
<ele>177.889999</ele>
<time>2023-11-30T13:20:46.994Z</time>
</trkpt>
<trkpt lat="32.6379400" lon="35.1178200">
<ele>178.370010</ele>
<time>2023-11-30T13:20:46.994Z</time>
</trkpt>
<trkpt lat="32.6378900" lon="35.1177600">
<ele>179.449997</ele>
<time>2023-11-30T13:20:46.994Z</time>
</trkpt>
<trkpt lat="32.6378200" lon="35.1176900">
<ele>180.459991</ele>
<time>2023-11-30T13:20:46.994Z</time>
</trkpt>
<trkpt lat="32.6378000" lon="35.1176800">
<ele>180.819992</ele>
<time>2023-11-30T13:20:46.994Z</time>
</trkpt>
<trkpt lat="32.6377300" lon="35.1176000">
<ele>182.540009</ele>
<time>2023-11-30T13:20:46.994Z</time>
</trkpt>
<trkpt lat="32.6377100" lon="35.1175700">
<ele>183.190002</ele>
<time>2023-11-30T13:20:46.994Z</time>
</trkpt>
<trkpt lat="32.6376000" lon="35.1174700">
<ele>187.729996</ele>
<time>2023-11-30T13:20:46.994Z</time>
</trkpt>
<trkpt lat="32.6375500" lon="35.1174200">
<ele>190.339996</ele>
<time>2023-11-30T13:20:46.994Z</time>
</trkpt>
<trkpt lat="32.6375200" lon="35.1174000">
<ele>192.030014</ele>
<time>2023-11-30T13:20:46.994Z</time>
</trkpt>
<trkpt lat="32.6374300" lon="35.1173400">
<ele>194.190002</ele>
<time>2023-11-30T13:20:46.994Z</time>
</trkpt>
<trkpt lat="32.6373800" lon="35.1173200">
<ele>194.680008</ele>
<time>2023-11-30T13:20:46.994Z</time>
</trkpt>
<trkpt lat="32.6373400" lon="35.1173000">
<ele>195.059998</ele>
<time>2023-11-30T13:20:46.994Z</time>
</trkpt>
<trkpt lat="32.6373000" lon="35.1172800">
<ele>195.399994</ele>
<time>2023-11-30T13:20:46.994Z</time>
</trkpt>
<trkpt lat="32.6371800" lon="35.1172200">
<ele>196.419998</ele>
<time>2023-11-30T13:20:46.994Z</time>
</trkpt>
<trkpt lat="32.6371400" lon="35.1172100">
<ele>196.750000</ele>
<time>2023-11-30T13:20:46.994Z</time>
</trkpt>
<trkpt lat="32.6371000" lon="35.1171900">
<ele>197.050003</ele>
<time>2023-11-30T13:20:46.994Z</time>
</trkpt>
<trkpt lat="32.6370700" lon="35.1171900">
<ele>197.449997</ele>
<time>2023-11-30T13:20:46.994Z</time>
</trkpt>
<trkpt lat="32.6370200" lon="35.1171800">
<ele>198.089996</ele>
<time>2023-11-30T13:20:46.994Z</time>
</trkpt>
<trkpt lat="32.6369900" lon="35.1171800">
<ele>198.510010</ele>
<time>2023-11-30T13:20:46.994Z</time>
</trkpt>
<trkpt lat="32.6369600" lon="35.1171500">
<ele>199.000000</ele>
<time>2023-11-30T13:20:46.994Z</time>
</trkpt>
<trkpt lat="32.6369700" lon="35.1172000">
<ele>198.759995</ele>
<time>2023-11-30T13:20:46.994Z</time>
</trkpt>
<trkpt lat="32.6369200" lon="35.1172000">
<ele>199.159988</ele>
<time>2023-11-30T13:20:46.994Z</time>
</trkpt>
<trkpt lat="32.6368800" lon="35.1171400">
<ele>199.459991</ele>
<time>2023-11-30T13:20:46.994Z</time>
</trkpt>
<trkpt lat="32.6368300" lon="35.1171000">
<ele>199.670013</ele>
<time>2023-11-30T13:20:46.994Z</time>
</trkpt>
<trkpt lat="32.6367900" lon="35.1170700">
<ele>199.800003</ele>
<time>2023-11-30T13:20:46.994Z</time>
</trkpt>
<trkpt lat="32.6367500" lon="35.1170100">
<ele>199.929993</ele>
<time>2023-11-30T13:20:46.994Z</time>
</trkpt>
<trkpt lat="32.6366800" lon="35.1169700">
<ele>200.000000</ele>
<time>2023-11-30T13:20:46.994Z</time>
</trkpt>
<trkpt lat="32.6366600" lon="35.1169500">
<ele>200.050003</ele>
<time>2023-11-30T13:20:46.994Z</time>
</trkpt>
<trkpt lat="32.6366100" lon="35.1169300">
<ele>200.580002</ele>
<time>2023-11-30T13:20:46.994Z</time>
</trkpt>
<trkpt lat="32.6365400" lon="35.1169200">
<ele>201.139999</ele>
<time>2023-11-30T13:20:46.994Z</time>
</trkpt>
<trkpt lat="32.6364700" lon="35.1169000">
<ele>201.720001</ele>
<time>2023-11-30T13:20:46.994Z</time>
</trkpt>
<trkpt lat="32.6364100" lon="35.1168600">
<ele>202.219986</ele>
<time>2023-11-30T13:20:46.994Z</time>
</trkpt>
<trkpt lat="32.6363800" lon="35.1168300">
<ele>202.430008</ele>
<time>2023-11-30T13:20:46.994Z</time>
</trkpt>
<trkpt lat="32.6363000" lon="35.1167800">
<ele>202.779999</ele>
<time>2023-11-30T13:20:46.994Z</time>
</trkpt>
<trkpt lat="32.6362700" lon="35.1167700">
<ele>202.900009</ele>
<time>2023-11-30T13:20:46.994Z</time>
</trkpt>
<trkpt lat="32.6361900" lon="35.1167200">
<ele>203.389999</ele>
<time>2023-11-30T13:20:46.994Z</time>
</trkpt>
<trkpt lat="32.6361600" lon="35.1167000">
<ele>203.610016</ele>
<time>2023-11-30T13:20:46.994Z</time>
</trkpt>
<trkpt lat="32.6360800" lon="35.1166800">
<ele>203.130005</ele>
<time>2023-11-30T13:20:46.994Z</time>
</trkpt>
<trkpt lat="32.6359900" lon="35.1166500">
<ele>201.160004</ele>
<time>2023-11-30T13:20:46.994Z</time>
</trkpt>
<trkpt lat="32.6359100" lon="35.1166000">
<ele>199.720001</ele>
<time>2023-11-30T13:20:46.994Z</time>
</trkpt>
<trkpt lat="32.6358500" lon="35.1165700">
<ele>198.479996</ele>
<time>2023-11-30T13:20:46.994Z</time>
</trkpt>
<trkpt lat="32.6357600" lon="35.1165500">
<ele>197.509995</ele>
<time>2023-11-30T13:20:46.994Z</time>
</trkpt>
<trkpt lat="32.6356700" lon="35.1165400">
<ele>196.660004</ele>
<time>2023-11-30T13:20:46.994Z</time>
</trkpt>
<trkpt lat="32.6356000" lon="35.1165600">
<ele>195.830002</ele>
<time>2023-11-30T13:20:46.994Z</time>
</trkpt>
<trkpt lat="32.6355400" lon="35.1165800">
<ele>195.440002</ele>
<time>2023-11-30T13:20:46.994Z</time>
</trkpt>
<trkpt lat="32.6355000" lon="35.1165900">
<ele>195.730011</ele>
<time>2023-11-30T13:20:46.994Z</time>
</trkpt>
<trkpt lat="32.6354700" lon="35.1166100">
<ele>195.880005</ele>
<time>2023-11-30T13:20:46.994Z</time>
</trkpt>
<trkpt lat="32.6354100" lon="35.1166700">
<ele>195.979996</ele>
<time>2023-11-30T13:20:46.994Z</time>
</trkpt>
<trkpt lat="32.6353300" lon="35.1167600">
<ele>194.669998</ele>
<time>2023-11-30T13:20:46.994Z</time>
</trkpt>
<trkpt lat="32.6352900" lon="35.1168100">
<ele>193.839996</ele>
<time>2023-11-30T13:20:46.994Z</time>
</trkpt>
<trkpt lat="32.6352300" lon="35.1169000">
<ele>193.539993</ele>
<time>2023-11-30T13:20:46.994Z</time>
</trkpt>
<trkpt lat="32.6351900" lon="35.1169200">
<ele>194.550003</ele>
<time>2023-11-30T13:20:46.994Z</time>
</trkpt>
<trkpt lat="32.6351600" lon="35.1169400">
<ele>195.300003</ele>
<time>2023-11-30T13:20:46.994Z</time>
</trkpt>
<trkpt lat="32.6351000" lon="35.1169500">
<ele>197.290009</ele>
<time>2023-11-30T13:20:46.994Z</time>
</trkpt>
<trkpt lat="32.6350500" lon="35.1169700">
<ele>198.720001</ele>
<time>2023-11-30T13:20:46.994Z</time>
</trkpt>
<trkpt lat="32.6349500" lon="35.1170300">
<ele>200.330002</ele>
<time>2023-11-30T13:20:46.994Z</time>
</trkpt>
<trkpt lat="32.6349300" lon="35.1170500">
<ele>200.429993</ele>
<time>2023-11-30T13:20:46.994Z</time>
</trkpt>
<trkpt lat="32.6349200" lon="35.1170800">
<ele>200.270004</ele>
<time>2023-11-30T13:20:46.994Z</time>
</trkpt>
<trkpt lat="32.6348900" lon="35.1171200">
<ele>200.529999</ele>
<time>2023-11-30T13:20:46.994Z</time>
</trkpt>
<trkpt lat="32.6348700" lon="35.1171700">
<ele>200.619995</ele>
<time>2023-11-30T13:20:46.994Z</time>
</trkpt>
<trkpt lat="32.6348400" lon="35.1172100">
<ele>201.250000</ele>
<time>2023-11-30T13:20:46.994Z</time>
</trkpt>
<trkpt lat="32.6348000" lon="35.1173000">
<ele>200.999985</ele>
<time>2023-11-30T13:20:46.994Z</time>
</trkpt>
<trkpt lat="32.6347800" lon="35.1173500">
<ele>200.729996</ele>
<time>2023-11-30T13:20:46.994Z</time>
</trkpt>
<trkpt lat="32.6347400" lon="35.1174600">
<ele>200.089996</ele>
<time>2023-11-30T13:20:46.994Z</time>
</trkpt>
<trkpt lat="32.6347100" lon="35.1175400">
<ele>200.029999</ele>
<time>2023-11-30T13:20:46.994Z</time>
</trkpt>
<trkpt lat="32.6346900" lon="35.1176200">
<ele>200.029999</ele>
<time>2023-11-30T13:20:46.994Z</time>
</trkpt>
<trkpt lat="32.6346800" lon="35.1176500">
<ele>200.070007</ele>
<time>2023-11-30T13:20:46.994Z</time>
</trkpt>
<trkpt lat="32.6346700" lon="35.1177200">
<ele>199.960007</ele>
<time>2023-11-30T13:20:46.994Z</time>
</trkpt>
<trkpt lat="32.6346500" lon="35.1177600">
<ele>200.099991</ele>
<time>2023-11-30T13:20:46.994Z</time>
</trkpt>
<trkpt lat="32.6346000" lon="35.1178400">
<ele>200.979996</ele>
<time>2023-11-30T13:20:46.994Z</time>
</trkpt>
<trkpt lat="32.6345800" lon="35.1178600">
<ele>201.340012</ele>
<time>2023-11-30T13:20:46.994Z</time>
</trkpt>
<trkpt lat="32.6345500" lon="35.1178900">
<ele>201.879990</ele>
<time>2023-11-30T13:20:46.994Z</time>
</trkpt>
<trkpt lat="32.6345200" lon="35.1179100">
<ele>202.390015</ele>
<time>2023-11-30T13:20:46.994Z</time>
</trkpt>
<trkpt lat="32.6345100" lon="35.1179400">
<ele>202.639999</ele>
<time>2023-11-30T13:20:46.994Z</time>
</trkpt>
<trkpt lat="32.6345000" lon="35.1181200">
<ele>203.149994</ele>
<time>2023-11-30T13:20:46.994Z</time>
</trkpt>
<trkpt lat="32.6344900" lon="35.1182700">
<ele>203.220001</ele>
<time>2023-11-30T13:20:46.994Z</time>
</trkpt>
<trkpt lat="32.6345000" lon="35.1184600">
<ele>201.810013</ele>
<time>2023-11-30T13:20:46.994Z</time>
</trkpt>
<trkpt lat="32.6344900" lon="35.1185700">
<ele>201.060013</ele>
<time>2023-11-30T13:20:46.994Z</time>
</trkpt>
<trkpt lat="32.6344700" lon="35.1186500">
<ele>200.279999</ele>
<time>2023-11-30T13:20:46.994Z</time>
</trkpt>
<trkpt lat="32.6344300" lon="35.1187000">
<ele>199.960007</ele>
<time>2023-11-30T13:20:46.994Z</time>
</trkpt>
<trkpt lat="32.6344000" lon="35.1187100">
<ele>200.169998</ele>
<time>2023-11-30T13:20:46.994Z</time>
</trkpt>
<trkpt lat="32.6343600" lon="35.1187200">
<ele>200.580002</ele>
<time>2023-11-30T13:20:46.994Z</time>
</trkpt>
<trkpt lat="32.6343000" lon="35.1187100">
<ele>201.660004</ele>
<time>2023-11-30T13:20:46.994Z</time>
</trkpt>
<trkpt lat="32.6342300" lon="35.1186300">
<ele>203.379990</ele>
<time>2023-11-30T13:20:46.994Z</time>
</trkpt>
<trkpt lat="32.6342000" lon="35.1186000">
<ele>203.840012</ele>
<time>2023-11-30T13:20:46.994Z</time>
</trkpt>
<trkpt lat="32.6341800" lon="35.1185300">
<ele>204.489990</ele>
<time>2023-11-30T13:20:46.994Z</time>
</trkpt>
<trkpt lat="32.6341700" lon="35.1185000">
<ele>204.779999</ele>
<time>2023-11-30T13:20:46.994Z</time>
</trkpt>
<trkpt lat="32.6341700" lon="35.1184500">
<ele>205.139999</ele>
<time>2023-11-30T13:20:46.994Z</time>
</trkpt>
<trkpt lat="32.6341700" lon="35.1184000">
<ele>205.500000</ele>
<time>2023-11-30T13:20:46.994Z</time>
</trkpt>
<trkpt lat="32.6341700" lon="35.1183600">
<ele>205.779999</ele>
<time>2023-11-30T13:20:46.994Z</time>
</trkpt>
<trkpt lat="32.6341600" lon="35.1183300">
<ele>206.050003</ele>
<time>2023-11-30T13:20:46.994Z</time>
</trkpt>
<trkpt lat="32.6341500" lon="35.1182900">
<ele>206.370010</ele>
<time>2023-11-30T13:20:46.994Z</time>
</trkpt>
<trkpt lat="32.6341500" lon="35.1182500">
<ele>206.660004</ele>
<time>2023-11-30T13:20:46.994Z</time>
</trkpt>
<trkpt lat="32.6341600" lon="35.1181900">
<ele>207.059998</ele>
<time>2023-11-30T13:20:46.994Z</time>
</trkpt>
<trkpt lat="32.6341700" lon="35.1181400">
<ele>207.350006</ele>
<time>2023-11-30T13:20:46.994Z</time>
</trkpt>
<trkpt lat="32.6341700" lon="35.1181000">
<ele>207.639999</ele>
<time>2023-11-30T13:20:46.994Z</time>
</trkpt>
<trkpt lat="32.6341600" lon="35.1180600">
<ele>207.990005</ele>
<time>2023-11-30T13:20:46.994Z</time>
</trkpt>
<trkpt lat="32.6341200" lon="35.1180000">
<ele>208.330002</ele>
<time>2023-11-30T13:20:46.994Z</time>
</trkpt>
<trkpt lat="32.6340900" lon="35.1180000">
<ele>208.419998</ele>
<time>2023-11-30T13:20:46.994Z</time>
</trkpt>
<trkpt lat="32.6340100" lon="35.1180100">
<ele>208.640015</ele>
<time>2023-11-30T13:20:46.994Z</time>
</trkpt>
<trkpt lat="32.6338900" lon="35.1180300">
<ele>209.000000</ele>
<time>2023-11-30T13:20:46.994Z</time>
</trkpt>
<trkpt lat="32.6338400" lon="35.1180600">
<ele>209.320007</ele>
<time>2023-11-30T13:20:46.994Z</time>
</trkpt>
<trkpt lat="32.6337800" lon="35.1181000">
<ele>209.459991</ele>
<time>2023-11-30T13:20:46.994Z</time>
</trkpt>
<trkpt lat="32.6337600" lon="35.1181300">
<ele>209.389984</ele>
<time>2023-11-30T13:20:46.994Z</time>
</trkpt>
<trkpt lat="32.6337100" lon="35.1181900">
<ele>209.320007</ele>
<time>2023-11-30T13:20:46.994Z</time>
</trkpt>
<trkpt lat="32.6336400" lon="35.1182600">
<ele>209.320007</ele>
<time>2023-11-30T13:20:46.994Z</time>
</trkpt>
<trkpt lat="32.6336000" lon="35.1182900">
<ele>209.300003</ele>
<time>2023-11-30T13:20:46.994Z</time>
</trkpt>
<trkpt lat="32.6335700" lon="35.1183100">
<ele>209.139999</ele>
<time>2023-11-30T13:20:46.994Z</time>
</trkpt>
<trkpt lat="32.6335400" lon="35.1183300">
<ele>209.020004</ele>
<time>2023-11-30T13:20:46.994Z</time>
</trkpt>
<trkpt lat="32.6334900" lon="35.1183300">
<ele>209.009995</ele>
<time>2023-11-30T13:20:46.994Z</time>
</trkpt>
<trkpt lat="32.6333100" lon="35.1183300">
<ele>208.660004</ele>
<time>2023-11-30T13:20:46.994Z</time>
</trkpt>
<trkpt lat="32.6332700" lon="35.1183300">
<ele>208.089996</ele>
<time>2023-11-30T13:20:46.994Z</time>
</trkpt>
<trkpt lat="32.6332400" lon="35.1183300">
<ele>207.659988</ele>
<time>2023-11-30T13:20:46.994Z</time>
</trkpt>
<trkpt lat="32.6331500" lon="35.1183300">
<ele>206.360001</ele>
<time>2023-11-30T13:20:46.994Z</time>
</trkpt>
<trkpt lat="32.6331100" lon="35.1183400">
<ele>205.689987</ele>
<time>2023-11-30T13:20:46.994Z</time>
</trkpt>
<trkpt lat="32.6330200" lon="35.1183400">
<ele>204.639999</ele>
<time>2023-11-30T13:20:46.994Z</time>
</trkpt>
<trkpt lat="32.6329900" lon="35.1183500">
<ele>204.250000</ele>
<time>2023-11-30T13:20:46.994Z</time>
</trkpt>
<trkpt lat="32.6329200" lon="35.1183700">
<ele>203.300003</ele>
<time>2023-11-30T13:20:46.994Z</time>
</trkpt>
<trkpt lat="32.6328600" lon="35.1183800">
<ele>202.569992</ele>
<time>2023-11-30T13:20:46.994Z</time>
</trkpt>
<trkpt lat="32.6328300" lon="35.1183800">
<ele>202.289993</ele>
<time>2023-11-30T13:20:46.994Z</time>
</trkpt>
<trkpt lat="32.6327900" lon="35.1183600">
<ele>202.430008</ele>
<time>2023-11-30T13:20:46.994Z</time>
</trkpt>
<trkpt lat="32.6327300" lon="35.1183300">
<ele>203.540009</ele>
<time>2023-11-30T13:20:46.994Z</time>
</trkpt>
<trkpt lat="32.6326600" lon="35.1182900">
<ele>204.580002</ele>
<time>2023-11-30T13:20:46.994Z</time>
</trkpt>
<trkpt lat="32.6325600" lon="35.1182700">
<ele>205.809998</ele>
<time>2023-11-30T13:20:46.994Z</time>
</trkpt>
<trkpt lat="32.6325300" lon="35.1182400">
<ele>206.350006</ele>
<time>2023-11-30T13:20:46.994Z</time>
</trkpt>
<trkpt lat="32.6325100" lon="35.1182200">
<ele>206.710007</ele>
<time>2023-11-30T13:20:46.994Z</time>
</trkpt>
<trkpt lat="32.6324700" lon="35.1181900">
<ele>207.470001</ele>
<time>2023-11-30T13:20:46.994Z</time>
</trkpt>
<trkpt lat="32.6324400" lon="35.1181800">
<ele>207.990005</ele>
<time>2023-11-30T13:20:46.994Z</time>
</trkpt>
<trkpt lat="32.6324000" lon="35.1181600">
<ele>208.779999</ele>
<time>2023-11-30T13:20:46.994Z</time>
</trkpt>
<trkpt lat="32.6323900" lon="35.1181200">
<ele>209.330002</ele>
<time>2023-11-30T13:20:46.994Z</time>
</trkpt>
<trkpt lat="32.6323900" lon="35.1180500">
<ele>210.030014</ele>
<time>2023-11-30T13:20:46.994Z</time>
</trkpt>
<trkpt lat="32.6323800" lon="35.1180100">
<ele>210.559998</ele>
<time>2023-11-30T13:20:46.994Z</time>
</trkpt>
<trkpt lat="32.6323700" lon="35.1179500">
<ele>211.279999</ele>
<time>2023-11-30T13:20:46.994Z</time>
</trkpt>
<trkpt lat="32.6323600" lon="35.1179200">
<ele>211.740005</ele>
<time>2023-11-30T13:20:46.994Z</time>
</trkpt>
<trkpt lat="32.6323300" lon="35.1178600">
<ele>212.899994</ele>
<time>2023-11-30T13:20:46.994Z</time>
</trkpt>
<trkpt lat="32.6322300" lon="35.1177400">
<ele>215.700012</ele>
<time>2023-11-30T13:20:46.994Z</time>
</trkpt>
<trkpt lat="32.6322100" lon="35.1177200">
<ele>215.879990</ele>
<time>2023-11-30T13:20:46.994Z</time>
</trkpt>
<trkpt lat="32.6321900" lon="35.1176500">
<ele>215.769989</ele>
<time>2023-11-30T13:20:46.994Z</time>
</trkpt>
<trkpt lat="32.6322000" lon="35.1175700">
<ele>215.409988</ele>
<time>2023-11-30T13:20:46.994Z</time>
</trkpt>
<trkpt lat="32.6322200" lon="35.1175400">
<ele>215.160004</ele>
<time>2023-11-30T13:20:46.994Z</time>
</trkpt>
<trkpt lat="32.6322500" lon="35.1175100">
<ele>214.630005</ele>
<time>2023-11-30T13:20:46.994Z</time>
</trkpt>
<trkpt lat="32.6324900" lon="35.1174900">
<ele>211.110001</ele>
<time>2023-11-30T13:20:46.994Z</time>
</trkpt>
<trkpt lat="32.6325300" lon="35.1174700">
<ele>210.090012</ele>
<time>2023-11-30T13:20:46.994Z</time>
</trkpt>
<trkpt lat="32.6326400" lon="35.1173400">
<ele>205.729996</ele>
<time>2023-11-30T13:20:46.994Z</time>
</trkpt>
<trkpt lat="32.6326500" lon="35.1173000">
<ele>204.939987</ele>
<time>2023-11-30T13:20:46.994Z</time>
</trkpt>
<trkpt lat="32.6326500" lon="35.1171900">
<ele>204.189987</ele>
<time>2023-11-30T13:20:46.994Z</time>
</trkpt>
<trkpt lat="32.6326400" lon="35.1169200">
<ele>205.289993</ele>
<time>2023-11-30T13:20:46.994Z</time>
</trkpt>
<trkpt lat="32.6326400" lon="35.1168800">
<ele>205.000015</ele>
<time>2023-11-30T13:20:46.994Z</time>
</trkpt>
<trkpt lat="32.6326500" lon="35.1168500">
<ele>204.489990</ele>
<time>2023-11-30T13:20:46.994Z</time>
</trkpt>
<trkpt lat="32.6326600" lon="35.1168200">
<ele>203.940002</ele>
<time>2023-11-30T13:20:46.994Z</time>
</trkpt>
<trkpt lat="32.6326900" lon="35.1168000">
<ele>202.790009</ele>
<time>2023-11-30T13:20:46.994Z</time>
</trkpt>
<trkpt lat="32.6327300" lon="35.1167800">
<ele>201.239990</ele>
<time>2023-11-30T13:20:46.994Z</time>
</trkpt>
<trkpt lat="32.6328500" lon="35.1167700">
<ele>197.669998</ele>
<time>2023-11-30T13:20:46.994Z</time>
</trkpt>
<trkpt lat="32.6328800" lon="35.1167500">
<ele>196.619995</ele>
<time>2023-11-30T13:20:46.994Z</time>
</trkpt>
<trkpt lat="32.6328900" lon="35.1167200">
<ele>195.940002</ele>
<time>2023-11-30T13:20:46.994Z</time>
</trkpt>
<trkpt lat="32.6329000" lon="35.1166300">
<ele>193.999985</ele>
<time>2023-11-30T13:20:46.994Z</time>
</trkpt>
<trkpt lat="32.6329000" lon="35.1165300">
<ele>191.479996</ele>
<time>2023-11-30T13:20:46.994Z</time>
</trkpt>
<trkpt lat="32.6328900" lon="35.1164900">
<ele>190.720001</ele>
<time>2023-11-30T13:20:46.994Z</time>
</trkpt>
<trkpt lat="32.6328500" lon="35.1164500">
<ele>190.720001</ele>
<time>2023-11-30T13:20:46.994Z</time>
</trkpt>
<trkpt lat="32.6327700" lon="35.1164400">
<ele>192.619995</ele>
<time>2023-11-30T13:20:46.994Z</time>
</trkpt>
<trkpt lat="32.6327400" lon="35.1164300">
<ele>193.650009</ele>
<time>2023-11-30T13:20:46.994Z</time>
</trkpt>
<trkpt lat="32.6326400" lon="35.1163200">
<ele>195.090012</ele>
<time>2023-11-30T13:20:46.994Z</time>
</trkpt>
<trkpt lat="32.6326200" lon="35.1162800">
<ele>194.850006</ele>
<time>2023-11-30T13:20:46.994Z</time>
</trkpt>
<trkpt lat="32.6325500" lon="35.1162600">
<ele>197.210007</ele>
<time>2023-11-30T13:20:46.994Z</time>
</trkpt>
<trkpt lat="32.6325200" lon="35.1162600">
<ele>198.459991</ele>
<time>2023-11-30T13:20:46.994Z</time>
</trkpt>
<trkpt lat="32.6324600" lon="35.1162700">
<ele>199.779999</ele>
<time>2023-11-30T13:20:46.994Z</time>
</trkpt>
<trkpt lat="32.6323900" lon="35.1162900">
<ele>200.690002</ele>
<time>2023-11-30T13:20:46.994Z</time>
</trkpt>
<trkpt lat="32.6323300" lon="35.1163000">
<ele>201.250000</ele>
<time>2023-11-30T13:20:46.994Z</time>
</trkpt>
<trkpt lat="32.6322300" lon="35.1163200">
<ele>202.229996</ele>
<time>2023-11-30T13:20:46.994Z</time>
</trkpt>
<trkpt lat="32.6321600" lon="35.1163600">
<ele>201.029999</ele>
<time>2023-11-30T13:20:46.994Z</time>
</trkpt>
<trkpt lat="32.6321000" lon="35.1164100">
<ele>200.160004</ele>
<time>2023-11-30T13:20:46.994Z</time>
</trkpt>
<trkpt lat="32.6320700" lon="35.1164300">
<ele>199.650009</ele>
<time>2023-11-30T13:20:46.994Z</time>
</trkpt>
<trkpt lat="32.6319900" lon="35.1165400">
<ele>200.270004</ele>
<time>2023-11-30T13:20:46.994Z</time>
</trkpt>
<trkpt lat="32.6319000" lon="35.1166100">
<ele>200.229996</ele>
<time>2023-11-30T13:20:46.994Z</time>
</trkpt>
<trkpt lat="32.6318100" lon="35.1167200">
<ele>202.479996</ele>
<time>2023-11-30T13:20:46.994Z</time>
</trkpt>
<trkpt lat="32.6317700" lon="35.1167700">
<ele>203.869995</ele>
<time>2023-11-30T13:20:46.994Z</time>
</trkpt>
<trkpt lat="32.6317200" lon="35.1168200">
<ele>205.500000</ele>
<time>2023-11-30T13:20:46.994Z</time>
</trkpt>
<trkpt lat="32.6316800" lon="35.1168300">
<ele>205.709991</ele>
<time>2023-11-30T13:20:46.994Z</time>
</trkpt>
<trkpt lat="32.6316000" lon="35.1168200">
<ele>205.660004</ele>
<time>2023-11-30T13:20:46.994Z</time>
</trkpt>
<trkpt lat="32.6315500" lon="35.1168000">
<ele>205.080002</ele>
<time>2023-11-30T13:20:46.994Z</time>
</trkpt>
<trkpt lat="32.6315100" lon="35.1167700">
<ele>203.959991</ele>
<time>2023-11-30T13:20:46.994Z</time>
</trkpt>
<trkpt lat="32.6313100" lon="35.1166500">
<ele>200.779999</ele>
<time>2023-11-30T13:20:46.994Z</time>
</trkpt>
<trkpt lat="32.6312300" lon="35.1166200">
<ele>200.940002</ele>
<time>2023-11-30T13:20:46.994Z</time>
</trkpt>
<trkpt lat="32.6310800" lon="35.1165900">
<ele>203.160004</ele>
<time>2023-11-30T13:20:46.994Z</time>
</trkpt>
<trkpt lat="32.6310200" lon="35.1165800">
<ele>204.669998</ele>
<time>2023-11-30T13:20:46.994Z</time>
</trkpt>
<trkpt lat="32.6309900" lon="35.1165700">
<ele>205.220001</ele>
<time>2023-11-30T13:20:46.994Z</time>
</trkpt>
<trkpt lat="32.6309200" lon="35.1165600">
<ele>207.180008</ele>
<time>2023-11-30T13:20:46.994Z</time>
</trkpt>
<trkpt lat="32.6308500" lon="35.1165100">
<ele>207.740005</ele>
<time>2023-11-30T13:20:46.994Z</time>
</trkpt>
<trkpt lat="32.6307900" lon="35.1164500">
<ele>207.360001</ele>
<time>2023-11-30T13:20:46.994Z</time>
</trkpt>
<trkpt lat="32.6307200" lon="35.1164200">
<ele>208.469986</ele>
<time>2023-11-30T13:20:46.994Z</time>
</trkpt>
<trkpt lat="32.6306400" lon="35.1163600">
<ele>209.069992</ele>
<time>2023-11-30T13:20:46.994Z</time>
</trkpt>
<trkpt lat="32.6305400" lon="35.1162700">
<ele>208.669998</ele>
<time>2023-11-30T13:20:46.994Z</time>
</trkpt>
<trkpt lat="32.6304400" lon="35.1161900">
<ele>206.080002</ele>
<time>2023-11-30T13:20:46.994Z</time>
</trkpt>
<trkpt lat="32.6303800" lon="35.1161600">
<ele>205.470001</ele>
<time>2023-11-30T13:20:46.994Z</time>
</trkpt>
<trkpt lat="32.6303400" lon="35.1161500">
<ele>205.409988</ele>
<time>2023-11-30T13:20:46.994Z</time>
</trkpt>
<trkpt lat="32.6302600" lon="35.1161200">
<ele>204.839996</ele>
<time>2023-11-30T13:20:46.994Z</time>
</trkpt>
<trkpt lat="32.6302200" lon="35.1161100">
<ele>203.919998</ele>
<time>2023-11-30T13:20:46.994Z</time>
</trkpt>
<trkpt lat="32.6301400" lon="35.1161000">
<ele>202.139999</ele>
<time>2023-11-30T13:20:46.994Z</time>
</trkpt>
<trkpt lat="32.6300400" lon="35.1161000">
<ele>200.330002</ele>
<time>2023-11-30T13:20:46.994Z</time>
</trkpt>
<trkpt lat="32.6300000" lon="35.1161000">
<ele>199.600006</ele>
<time>2023-11-30T13:20:46.994Z</time>
</trkpt>
<trkpt lat="32.6299600" lon="35.1161100">
<ele>199.380005</ele>
<time>2023-11-30T13:20:46.994Z</time>
</trkpt>
<trkpt lat="32.6299300" lon="35.1161300">
<ele>199.320007</ele>
<time>2023-11-30T13:20:46.994Z</time>
</trkpt>
<trkpt lat="32.6298800" lon="35.1161500">
<ele>199.009995</ele>
<time>2023-11-30T13:20:46.994Z</time>
</trkpt>
<trkpt lat="32.6298300" lon="35.1161400">
<ele>198.160004</ele>
<time>2023-11-30T13:20:46.994Z</time>
</trkpt>
<trkpt lat="32.6298000" lon="35.1161200">
<ele>197.319992</ele>
<time>2023-11-30T13:20:46.994Z</time>
</trkpt>
<trkpt lat="32.6297700" lon="35.1161100">
<ele>196.639999</ele>
<time>2023-11-30T13:20:46.994Z</time>
</trkpt>
<trkpt lat="32.6297300" lon="35.1161000">
<ele>195.669998</ele>
<time>2023-11-30T13:20:46.994Z</time>
</trkpt>
<trkpt lat="32.6296600" lon="35.1161000">
<ele>195.739990</ele>
<time>2023-11-30T13:20:46.994Z</time>
</trkpt>
<trkpt lat="32.6295000" lon="35.1161200">
<ele>197.050003</ele>
<time>2023-11-30T13:20:46.994Z</time>
</trkpt>
<trkpt lat="32.6294300" lon="35.1161500">
<ele>197.990005</ele>
<time>2023-11-30T13:20:46.994Z</time>
</trkpt>
<trkpt lat="32.6294000" lon="35.1161700">
<ele>198.349991</ele>
<time>2023-11-30T13:20:46.994Z</time>
</trkpt>
<trkpt lat="32.6293700" lon="35.1161800">
<ele>198.450012</ele>
<time>2023-11-30T13:20:46.994Z</time>
</trkpt>
<trkpt lat="32.6293400" lon="35.1162000">
<ele>198.910004</ele>
<time>2023-11-30T13:20:46.994Z</time>
</trkpt>
<trkpt lat="32.6291800" lon="35.1162000">
<ele>197.919998</ele>
<time>2023-11-30T13:20:46.994Z</time>
</trkpt>
<trkpt lat="32.6291300" lon="35.1162000">
<ele>197.180008</ele>
<time>2023-11-30T13:20:46.994Z</time>
</trkpt>
<trkpt lat="32.6290400" lon="35.1162100">
<ele>195.990005</ele>
<time>2023-11-30T13:20:46.994Z</time>
</trkpt>
<trkpt lat="32.6290000" lon="35.1162000">
<ele>194.839996</ele>
<time>2023-11-30T13:20:46.994Z</time>
</trkpt>
<trkpt lat="32.6289200" lon="35.1162000">
<ele>193.400009</ele>
<time>2023-11-30T13:20:46.994Z</time>
</trkpt>
<trkpt lat="32.6288300" lon="35.1162000">
<ele>192.559998</ele>
<time>2023-11-30T13:20:46.994Z</time>
</trkpt>
<trkpt lat="32.6288000" lon="35.1161900">
<ele>192.000000</ele>
<time>2023-11-30T13:20:46.994Z</time>
</trkpt>
<trkpt lat="32.6286900" lon="35.1161800">
<ele>191.080002</ele>
<time>2023-11-30T13:20:46.994Z</time>
</trkpt>
<trkpt lat="32.6286500" lon="35.1161700">
<ele>190.500000</ele>
<time>2023-11-30T13:20:46.994Z</time>
</trkpt>
<trkpt lat="32.6286200" lon="35.1161700">
<ele>190.369995</ele>
<time>2023-11-30T13:20:46.994Z</time>
</trkpt>
<trkpt lat="32.6285600" lon="35.1161500">
<ele>190.700012</ele>
<time>2023-11-30T13:20:46.994Z</time>
</trkpt>
<trkpt lat="32.6284200" lon="35.1160200">
<ele>191.750000</ele>
<time>2023-11-30T13:20:46.994Z</time>
</trkpt>
<trkpt lat="32.6283500" lon="35.1159700">
<ele>193.440002</ele>
<time>2023-11-30T13:20:46.994Z</time>
</trkpt>
<trkpt lat="32.6282400" lon="35.1159500">
<ele>195.380005</ele>
<time>2023-11-30T13:20:46.994Z</time>
</trkpt>
<trkpt lat="32.6281500" lon="35.1159000">
<ele>196.619995</ele>
<time>2023-11-30T13:20:46.994Z</time>
</trkpt>
<trkpt lat="32.6281200" lon="35.1158800">
<ele>197.050003</ele>
<time>2023-11-30T13:20:46.994Z</time>
</trkpt>
<trkpt lat="32.6280700" lon="35.1158700">
<ele>197.879990</ele>
<time>2023-11-30T13:20:46.994Z</time>
</trkpt>
<trkpt lat="32.6280400" lon="35.1158700">
<ele>198.119995</ele>
<time>2023-11-30T13:20:46.994Z</time>
</trkpt>
<trkpt lat="32.6279700" lon="35.1158700">
<ele>198.089996</ele>
<time>2023-11-30T13:20:46.994Z</time>
</trkpt>
<trkpt lat="32.6279000" lon="35.1158800">
<ele>198.069992</ele>
<time>2023-11-30T13:20:46.994Z</time>
</trkpt>
<trkpt lat="32.6278100" lon="35.1158800">
<ele>198.020004</ele>
<time>2023-11-30T13:20:46.994Z</time>
</trkpt>
<trkpt lat="32.6277600" lon="35.1158700">
<ele>197.949997</ele>
<time>2023-11-30T13:20:46.994Z</time>
</trkpt>
<trkpt lat="32.6277000" lon="35.1158200">
<ele>197.789993</ele>
<time>2023-11-30T13:20:46.994Z</time>
</trkpt>
<trkpt lat="32.6276000" lon="35.1156400">
<ele>198.949997</ele>
<time>2023-11-30T13:20:46.994Z</time>
</trkpt>
<trkpt lat="32.6275100" lon="35.1155300">
<ele>199.950012</ele>
<time>2023-11-30T13:20:46.994Z</time>
</trkpt>
<trkpt lat="32.6274700" lon="35.1155000">
<ele>200.149994</ele>
<time>2023-11-30T13:20:46.994Z</time>
</trkpt>
<trkpt lat="32.6274300" lon="35.1154800">
<ele>200.300003</ele>
<time>2023-11-30T13:20:46.994Z</time>
</trkpt>
<trkpt lat="32.6273500" lon="35.1154400">
<ele>200.410004</ele>
<time>2023-11-30T13:20:46.994Z</time>
</trkpt>
<trkpt lat="32.6272700" lon="35.1154200">
<ele>200.440002</ele>
<time>2023-11-30T13:20:46.994Z</time>
</trkpt>
<trkpt lat="32.6272400" lon="35.1153800">
<ele>200.099991</ele>
<time>2023-11-30T13:20:46.994Z</time>
</trkpt>
<trkpt lat="32.6272400" lon="35.1153400">
<ele>199.690002</ele>
<time>2023-11-30T13:20:46.994Z</time>
</trkpt>
<trkpt lat="32.6272400" lon="35.1152400">
<ele>198.779999</ele>
<time>2023-11-30T13:20:46.994Z</time>
</trkpt>
<trkpt lat="32.6272400" lon="35.1151900">
<ele>198.409988</ele>
<time>2023-11-30T13:20:46.994Z</time>
</trkpt>
<trkpt lat="32.6272700" lon="35.1151700">
<ele>198.330002</ele>
<time>2023-11-30T13:20:46.994Z</time>
</trkpt>
<trkpt lat="32.6273100" lon="35.1151600">
<ele>198.330002</ele>
<time>2023-11-30T13:20:46.994Z</time>
</trkpt>
<trkpt lat="32.6273400" lon="35.1151600">
<ele>198.399994</ele>
<time>2023-11-30T13:20:46.994Z</time>
</trkpt>
<trkpt lat="32.6274000" lon="35.1151600">
<ele>198.519989</ele>
<time>2023-11-30T13:20:46.994Z</time>
</trkpt>
<trkpt lat="32.6274200" lon="35.1151400">
<ele>198.369995</ele>
<time>2023-11-30T13:20:46.994Z</time>
</trkpt>
<trkpt lat="32.6274200" lon="35.1151000">
<ele>197.980011</ele>
<time>2023-11-30T13:20:46.994Z</time>
</trkpt>
<trkpt lat="32.6274100" lon="35.1150600">
<ele>197.580002</ele>
<time>2023-11-30T13:20:46.994Z</time>
</trkpt>
<trkpt lat="32.6273100" lon="35.1149500">
<ele>196.770004</ele>
<time>2023-11-30T13:20:46.994Z</time>
</trkpt>
<trkpt lat="32.6272700" lon="35.1148700">
<ele>196.679993</ele>
<time>2023-11-30T13:20:46.994Z</time>
</trkpt>
<trkpt lat="32.6272500" lon="35.1148300">
<ele>196.760010</ele>
<time>2023-11-30T13:20:46.994Z</time>
</trkpt>
<trkpt lat="32.6272200" lon="35.1148000">
<ele>197.010010</ele>
<time>2023-11-30T13:20:46.994Z</time>
</trkpt>
<trkpt lat="32.6271500" lon="35.1147700">
<ele>197.129990</ele>
<time>2023-11-30T13:20:46.994Z</time>
</trkpt>
<trkpt lat="32.6270300" lon="35.1146500">
<ele>195.040009</ele>
<time>2023-11-30T13:20:46.994Z</time>
</trkpt>
<trkpt lat="32.6269900" lon="35.1146400">
<ele>194.980011</ele>
<time>2023-11-30T13:20:46.994Z</time>
</trkpt>
<trkpt lat="32.6269500" lon="35.1146300">
<ele>194.970001</ele>
<time>2023-11-30T13:20:46.994Z</time>
</trkpt>
<trkpt lat="32.6268300" lon="35.1145900">
<ele>196.600006</ele>
<time>2023-11-30T13:20:46.994Z</time>
</trkpt>
<trkpt lat="32.6267500" lon="35.1145500">
<ele>197.649994</ele>
<time>2023-11-30T13:20:46.994Z</time>
</trkpt>
<trkpt lat="32.6267100" lon="35.1145200">
<ele>198.080002</ele>
<time>2023-11-30T13:20:46.994Z</time>
</trkpt>
<trkpt lat="32.6266700" lon="35.1144600">
<ele>198.139999</ele>
<time>2023-11-30T13:20:46.994Z</time>
</trkpt>
<trkpt lat="32.6266100" lon="35.1143800">
<ele>199.070007</ele>
<time>2023-11-30T13:20:46.994Z</time>
</trkpt>
<trkpt lat="32.6265200" lon="35.1142900">
<ele>199.609985</ele>
<time>2023-11-30T13:20:46.994Z</time>
</trkpt>
<trkpt lat="32.6264800" lon="35.1142200">
<ele>198.770004</ele>
<time>2023-11-30T13:20:46.994Z</time>
</trkpt>
<trkpt lat="32.6264600" lon="35.1141900">
<ele>198.270004</ele>
<time>2023-11-30T13:20:46.994Z</time>
</trkpt>
<trkpt lat="32.6264300" lon="35.1141100">
<ele>196.690002</ele>
<time>2023-11-30T13:20:46.994Z</time>
</trkpt>
<trkpt lat="32.6264200" lon="35.1140200">
<ele>194.839996</ele>
<time>2023-11-30T13:20:46.994Z</time>
</trkpt>
<trkpt lat="32.6264100" lon="35.1139200">
<ele>192.730011</ele>
<time>2023-11-30T13:20:46.994Z</time>
</trkpt>
<trkpt lat="32.6264200" lon="35.1138900">
<ele>192.139999</ele>
<time>2023-11-30T13:20:46.994Z</time>
</trkpt>
<trkpt lat="32.6264600" lon="35.1138700">
<ele>191.949997</ele>
<time>2023-11-30T13:20:46.994Z</time>
</trkpt>
<trkpt lat="32.6265300" lon="35.1138600">
<ele>191.880005</ele>
<time>2023-11-30T13:20:46.994Z</time>
</trkpt>
<trkpt lat="32.6265400" lon="35.1138200">
<ele>190.990005</ele>
<time>2023-11-30T13:20:46.994Z</time>
</trkpt>
<trkpt lat="32.6265200" lon="35.1137700">
<ele>189.979996</ele>
<time>2023-11-30T13:20:46.994Z</time>
</trkpt>
<trkpt lat="32.6264900" lon="35.1137500">
<ele>189.770004</ele>
<time>2023-11-30T13:20:46.994Z</time>
</trkpt>
<trkpt lat="32.6264100" lon="35.1136600">
<ele>189.229996</ele>
<time>2023-11-30T13:20:46.994Z</time>
</trkpt>
<trkpt lat="32.6263700" lon="35.1136300">
<ele>189.130005</ele>
<time>2023-11-30T13:20:46.994Z</time>
</trkpt>
<trkpt lat="32.6262200" lon="35.1134800">
<ele>185.849991</ele>
<time>2023-11-30T13:20:46.994Z</time>
</trkpt>
<trkpt lat="32.6260500" lon="35.1134000">
<ele>183.810013</ele>
<time>2023-11-30T13:20:46.994Z</time>
</trkpt>
<trkpt lat="32.6259100" lon="35.1132900">
<ele>180.550003</ele>
<time>2023-11-30T13:20:46.994Z</time>
</trkpt>
<trkpt lat="32.6258800" lon="35.1132800">
<ele>180.059998</ele>
<time>2023-11-30T13:20:46.994Z</time>
</trkpt>
<trkpt lat="32.6258400" lon="35.1132700">
<ele>179.460007</ele>
<time>2023-11-30T13:20:46.994Z</time>
</trkpt>
<trkpt lat="32.6257500" lon="35.1132600">
<ele>178.569992</ele>
<time>2023-11-30T13:20:46.994Z</time>
</trkpt>
<trkpt lat="32.6257300" lon="35.1132500">
<ele>178.229996</ele>
<time>2023-11-30T13:20:46.994Z</time>
</trkpt>
<trkpt lat="32.6256700" lon="35.1132400">
<ele>177.669998</ele>
<time>2023-11-30T13:20:46.994Z</time>
</trkpt>
<trkpt lat="32.6255900" lon="35.1132100">
<ele>176.819992</ele>
<time>2023-11-30T13:20:46.994Z</time>
</trkpt>
<trkpt lat="32.6254900" lon="35.1132100">
<ele>175.039993</ele>
<time>2023-11-30T13:20:46.994Z</time>
</trkpt>
<trkpt lat="32.6253700" lon="35.1132200">
<ele>172.220001</ele>
<time>2023-11-30T13:20:46.994Z</time>
</trkpt>
<trkpt lat="32.6253300" lon="35.1132200">
<ele>171.240005</ele>
<time>2023-11-30T13:20:46.994Z</time>
</trkpt>
<trkpt lat="32.6252500" lon="35.1132400">
<ele>170.190002</ele>
<time>2023-11-30T13:20:46.994Z</time>
</trkpt>
<trkpt lat="32.6252000" lon="35.1132500">
<ele>170.139999</ele>
<time>2023-11-30T13:20:46.994Z</time>
</trkpt>
<trkpt lat="32.6251500" lon="35.1132600">
<ele>170.100006</ele>
<time>2023-11-30T13:20:46.994Z</time>
</trkpt>
<trkpt lat="32.6251000" lon="35.1132800">
<ele>170.279999</ele>
<time>2023-11-30T13:20:46.994Z</time>
</trkpt>
<trkpt lat="32.6250500" lon="35.1132900">
<ele>170.270004</ele>
<time>2023-11-30T13:20:46.994Z</time>
</trkpt>
<trkpt lat="32.6250100" lon="35.1133200">
<ele>170.750000</ele>
<time>2023-11-30T13:20:46.994Z</time>
</trkpt>
<trkpt lat="32.6249400" lon="35.1133800">
<ele>172.489990</ele>
<time>2023-11-30T13:20:46.994Z</time>
</trkpt>
<trkpt lat="32.6248700" lon="35.1134500">
<ele>174.430008</ele>
<time>2023-11-30T13:20:46.994Z</time>
</trkpt>
<trkpt lat="32.6245200" lon="35.1138400">
<ele>174.710007</ele>
<time>2023-11-30T13:20:46.994Z</time>
</trkpt>
<trkpt lat="32.6243300" lon="35.1140600">
<ele>175.460007</ele>
<time>2023-11-30T13:20:46.994Z</time>
</trkpt>
<trkpt lat="32.6243000" lon="35.1140800">
<ele>175.570007</ele>
<time>2023-11-30T13:20:46.994Z</time>
</trkpt>
<trkpt lat="32.6242800" lon="35.1141000">
<ele>175.779999</ele>
<time>2023-11-30T13:20:46.994Z</time>
</trkpt>
<trkpt lat="32.6242600" lon="35.1141300">
<ele>176.220001</ele>
<time>2023-11-30T13:20:46.994Z</time>
</trkpt>
<trkpt lat="32.6242200" lon="35.1141600">
<ele>176.429993</ele>
<time>2023-11-30T13:20:46.994Z</time>
</trkpt>
<trkpt lat="32.6240100" lon="35.1145200">
<ele>184.940002</ele>
<time>2023-11-30T13:20:46.994Z</time>
</trkpt>
<trkpt lat="32.6239700" lon="35.1145700">
<ele>185.540009</ele>
<time>2023-11-30T13:20:46.994Z</time>
</trkpt>
<trkpt lat="32.6239000" lon="35.1148100">
<ele>186.559998</ele>
<time>2023-11-30T13:20:46.994Z</time>
</trkpt>
<trkpt lat="32.6238600" lon="35.1149000">
<ele>186.429993</ele>
<time>2023-11-30T13:20:46.994Z</time>
</trkpt>
<trkpt lat="32.6238500" lon="35.1149300">
<ele>186.470001</ele>
<time>2023-11-30T13:20:46.994Z</time>
</trkpt>
<trkpt lat="32.6238200" lon="35.1149900">
<ele>186.470001</ele>
<time>2023-11-30T13:20:46.994Z</time>
</trkpt>
<trkpt lat="32.6238000" lon="35.1150400">
<ele>186.839996</ele>
<time>2023-11-30T13:20:46.994Z</time>
</trkpt>
<trkpt lat="32.6237800" lon="35.1150900">
<ele>187.259995</ele>
<time>2023-11-30T13:20:46.994Z</time>
</trkpt>
<trkpt lat="32.6237200" lon="35.1151700">
<ele>187.490005</ele>
<time>2023-11-30T13:20:46.994Z</time>
</trkpt>
<trkpt lat="32.6236600" lon="35.1152100">
<ele>187.129990</ele>
<time>2023-11-30T13:20:46.994Z</time>
</trkpt>
<trkpt lat="32.6235200" lon="35.1153100">
<ele>186.189987</ele>
<time>2023-11-30T13:20:46.994Z</time>
</trkpt>
<trkpt lat="32.6234900" lon="35.1153300">
<ele>186.029999</ele>
<time>2023-11-30T13:20:46.994Z</time>
</trkpt>
<trkpt lat="32.6234000" lon="35.1154100">
<ele>185.619995</ele>
<time>2023-11-30T13:20:46.994Z</time>
</trkpt>
<trkpt lat="32.6233600" lon="35.1154300">
<ele>185.130005</ele>
<time>2023-11-30T13:20:46.994Z</time>
</trkpt>
<trkpt lat="32.6233100" lon="35.1154500">
<ele>185.139999</ele>
<time>2023-11-30T13:20:46.994Z</time>
</trkpt>
<trkpt lat="32.6232700" lon="35.1154600">
<ele>185.729996</ele>
<time>2023-11-30T13:20:46.994Z</time>
</trkpt>
<trkpt lat="32.6231900" lon="35.1154600">
<ele>186.690002</ele>
<time>2023-11-30T13:20:46.994Z</time>
</trkpt>
<trkpt lat="32.6231600" lon="35.1154600">
<ele>187.050003</ele>
<time>2023-11-30T13:20:46.994Z</time>
</trkpt>
<trkpt lat="32.6231100" lon="35.1154300">
<ele>187.419998</ele>
<time>2023-11-30T13:20:46.994Z</time>
</trkpt>
<trkpt lat="32.6230800" lon="35.1153800">
<ele>187.419998</ele>
<time>2023-11-30T13:20:46.994Z</time>
</trkpt>
<trkpt lat="32.6230300" lon="35.1153400">
<ele>187.279999</ele>
<time>2023-11-30T13:20:46.994Z</time>
</trkpt>
<trkpt lat="32.6230000" lon="35.1152700">
<ele>186.500000</ele>
<time>2023-11-30T13:20:46.994Z</time>
</trkpt>
<trkpt lat="32.6229700" lon="35.1152200">
<ele>185.679993</ele>
<time>2023-11-30T13:20:46.994Z</time>
</trkpt>
<trkpt lat="32.6230100" lon="35.1152900">
<ele>186.769989</ele>
<time>2023-11-30T13:20:46.994Z</time>
</trkpt>
<trkpt lat="32.6230400" lon="35.1153300">
<ele>187.270004</ele>
<time>2023-11-30T13:20:46.994Z</time>
</trkpt>
<trkpt lat="32.6231100" lon="35.1154000">
<ele>187.179993</ele>
<time>2023-11-30T13:20:46.994Z</time>
</trkpt>
<trkpt lat="32.6231400" lon="35.1154400">
<ele>187.129990</ele>
<time>2023-11-30T13:20:46.994Z</time>
</trkpt>
<trkpt lat="32.6231100" lon="35.1154400">
<ele>187.500000</ele>
<time>2023-11-30T13:20:46.994Z</time>
</trkpt>
<trkpt lat="32.6230200" lon="35.1152100">
<ele>185.830002</ele>
<time>2023-11-30T13:20:46.994Z</time>
</trkpt>
<trkpt lat="32.6229300" lon="35.1149800">
<ele>182.740005</ele>
<time>2023-11-30T13:20:46.994Z</time>
</trkpt>
<trkpt lat="32.6228100" lon="35.1147300">
<ele>179.970001</ele>
<time>2023-11-30T13:20:46.994Z</time>
</trkpt>
<trkpt lat="32.6227200" lon="35.1146200">
<ele>178.310013</ele>
<time>2023-11-30T13:20:46.994Z</time>
</trkpt>
<trkpt lat="32.6226100" lon="35.1145200">
<ele>177.239990</ele>
<time>2023-11-30T13:20:46.994Z</time>
</trkpt>
<trkpt lat="32.6224400" lon="35.1144100">
<ele>177.949997</ele>
<time>2023-11-30T13:20:46.994Z</time>
</trkpt>
<trkpt lat="32.6223900" lon="35.1143800">
<ele>178.800003</ele>
<time>2023-11-30T13:20:46.994Z</time>
</trkpt>
<trkpt lat="32.6222600" lon="35.1143600">
<ele>182.050003</ele>
<time>2023-11-30T13:20:46.994Z</time>
</trkpt>
<trkpt lat="32.6221700" lon="35.1143400">
<ele>184.190002</ele>
<time>2023-11-30T13:20:46.994Z</time>
</trkpt>
<trkpt lat="32.6221200" lon="35.1143300">
<ele>185.339996</ele>
<time>2023-11-30T13:20:46.994Z</time>
</trkpt>
<trkpt lat="32.6219900" lon="35.1143000">
<ele>188.289993</ele>
<time>2023-11-30T13:20:46.994Z</time>
</trkpt>
<trkpt lat="32.6217900" lon="35.1142800">
<ele>189.020004</ele>
<time>2023-11-30T13:20:46.994Z</time>
</trkpt>
<trkpt lat="32.6217500" lon="35.1142700">
<ele>188.759995</ele>
<time>2023-11-30T13:20:46.994Z</time>
</trkpt>
<trkpt lat="32.6217000" lon="35.1142500">
<ele>188.199997</ele>
<time>2023-11-30T13:20:46.994Z</time>
</trkpt>
<trkpt lat="32.6216000" lon="35.1142300">
<ele>186.949997</ele>
<time>2023-11-30T13:20:46.994Z</time>
</trkpt>
<trkpt lat="32.6213700" lon="35.1141900">
<ele>184.320007</ele>
<time>2023-11-30T13:20:46.994Z</time>
</trkpt>
<trkpt lat="32.6213300" lon="35.1141900">
<ele>184.280014</ele>
<time>2023-11-30T13:20:46.994Z</time>
</trkpt>
<trkpt lat="32.6212900" lon="35.1142000">
<ele>184.349991</ele>
<time>2023-11-30T13:20:46.994Z</time>
</trkpt>
<trkpt lat="32.6212400" lon="35.1142100">
<ele>184.369995</ele>
<time>2023-11-30T13:20:46.994Z</time>
</trkpt>
<trkpt lat="32.6211300" lon="35.1143600">
<ele>184.839996</ele>
<time>2023-11-30T13:20:46.994Z</time>
</trkpt>
<trkpt lat="32.6211200" lon="35.1144100">
<ele>184.960007</ele>
<time>2023-11-30T13:20:46.994Z</time>
</trkpt>
<trkpt lat="32.6211400" lon="35.1143000">
<ele>184.629990</ele>
<time>2023-11-30T13:20:46.994Z</time>
</trkpt>
<trkpt lat="32.6211400" lon="35.1142400">
<ele>184.349991</ele>
<time>2023-11-30T13:20:46.994Z</time>
</trkpt>
<trkpt lat="32.6211300" lon="35.1141400">
<ele>184.169998</ele>
<time>2023-11-30T13:20:46.994Z</time>
</trkpt>
<trkpt lat="32.6210800" lon="35.1140300">
<ele>185.430008</ele>
<time>2023-11-30T13:20:46.994Z</time>
</trkpt>
<trkpt lat="32.6210600" lon="35.1140100">
<ele>185.889999</ele>
<time>2023-11-30T13:20:46.994Z</time>
</trkpt>
<trkpt lat="32.6210100" lon="35.1139900">
<ele>186.829987</ele>
<time>2023-11-30T13:20:46.994Z</time>
</trkpt>
<trkpt lat="32.6209500" lon="35.1139500">
<ele>188.199997</ele>
<time>2023-11-30T13:20:46.994Z</time>
</trkpt>
<trkpt lat="32.6208400" lon="35.1138400">
<ele>191.759995</ele>
<time>2023-11-30T13:20:46.994Z</time>
</trkpt>
<trkpt lat="32.6207900" lon="35.1137900">
<ele>192.509995</ele>
<time>2023-11-30T13:20:46.994Z</time>
</trkpt>
<trkpt lat="32.6207400" lon="35.1137700">
<ele>192.520004</ele>
<time>2023-11-30T13:20:46.994Z</time>
</trkpt>
<trkpt lat="32.6207000" lon="35.1137400">
<ele>192.690002</ele>
<time>2023-11-30T13:20:46.994Z</time>
</trkpt>
<trkpt lat="32.6206800" lon="35.1137000">
<ele>193.100006</ele>
<time>2023-11-30T13:20:46.994Z</time>
</trkpt>
<trkpt lat="32.6206600" lon="35.1136500">
<ele>193.599991</ele>
<time>2023-11-30T13:20:46.994Z</time>
</trkpt>
<trkpt lat="32.6206500" lon="35.1136200">
<ele>193.899994</ele>
<time>2023-11-30T13:20:46.994Z</time>
</trkpt>
<trkpt lat="32.6206200" lon="35.1135700">
<ele>194.139999</ele>
<time>2023-11-30T13:20:46.994Z</time>
</trkpt>
<trkpt lat="32.6206200" lon="35.1135300">
<ele>194.570007</ele>
<time>2023-11-30T13:20:46.994Z</time>
</trkpt>
<trkpt lat="32.6206200" lon="35.1134900">
<ele>195.000000</ele>
<time>2023-11-30T13:20:46.994Z</time>
</trkpt>
<trkpt lat="32.6206400" lon="35.1134600">
<ele>195.540009</ele>
<time>2023-11-30T13:20:46.994Z</time>
</trkpt>
<trkpt lat="32.6206600" lon="35.1134300">
<ele>196.080002</ele>
<time>2023-11-30T13:20:46.994Z</time>
</trkpt>
<trkpt lat="32.6207100" lon="35.1134200">
<ele>196.729996</ele>
<time>2023-11-30T13:20:46.994Z</time>
</trkpt>
<trkpt lat="32.6208100" lon="35.1134100">
<ele>197.919998</ele>
<time>2023-11-30T13:20:46.994Z</time>
</trkpt>
<trkpt lat="32.6208500" lon="35.1133900">
<ele>197.939987</ele>
<time>2023-11-30T13:20:46.994Z</time>
</trkpt>
<trkpt lat="32.6209100" lon="35.1133500">
<ele>196.660004</ele>
<time>2023-11-30T13:20:46.994Z</time>
</trkpt>
<trkpt lat="32.6209400" lon="35.1133400">
<ele>195.880005</ele>
<time>2023-11-30T13:20:46.994Z</time>
</trkpt>
<trkpt lat="32.6210100" lon="35.1133000">
<ele>193.959991</ele>
<time>2023-11-30T13:20:46.994Z</time>
</trkpt>
<trkpt lat="32.6210600" lon="35.1132700">
<ele>192.509995</ele>
<time>2023-11-30T13:20:46.994Z</time>
</trkpt>
<trkpt lat="32.6211900" lon="35.1131800">
<ele>189.300003</ele>
<time>2023-11-30T13:20:46.994Z</time>
</trkpt>
<trkpt lat="32.6213200" lon="35.1131100">
<ele>186.489990</ele>
<time>2023-11-30T13:20:46.994Z</time>
</trkpt>
<trkpt lat="32.6214400" lon="35.1130300">
<ele>184.720001</ele>
<time>2023-11-30T13:20:46.994Z</time>
</trkpt>
<trkpt lat="32.6214700" lon="35.1130000">
<ele>184.720001</ele>
<time>2023-11-30T13:20:46.994Z</time>
</trkpt>
<trkpt lat="32.6215100" lon="35.1128900">
<ele>185.480011</ele>
<time>2023-11-30T13:20:46.994Z</time>
</trkpt>
<trkpt lat="32.6215400" lon="35.1128600">
<ele>185.480011</ele>
<time>2023-11-30T13:20:46.994Z</time>
</trkpt>
<trkpt lat="32.6215700" lon="35.1128400">
<ele>185.370010</ele>
<time>2023-11-30T13:20:46.994Z</time>
</trkpt>
<trkpt lat="32.6217600" lon="35.1126300">
<ele>188.000000</ele>
<time>2023-11-30T13:20:46.994Z</time>
</trkpt>
<trkpt lat="32.6217600" lon="35.1125700">
<ele>189.079987</ele>
<time>2023-11-30T13:20:46.994Z</time>
</trkpt>
<trkpt lat="32.6217500" lon="35.1125400">
<ele>189.580002</ele>
<time>2023-11-30T13:20:46.994Z</time>
</trkpt>
<trkpt lat="32.6217200" lon="35.1125300">
<ele>189.650009</ele>
<time>2023-11-30T13:20:46.994Z</time>
</trkpt>
<trkpt lat="32.6216900" lon="35.1125300">
<ele>189.540009</ele>
<time>2023-11-30T13:20:46.994Z</time>
</trkpt>
<trkpt lat="32.6216600" lon="35.1125400">
<ele>189.449997</ele>
<time>2023-11-30T13:20:46.994Z</time>
</trkpt>
<trkpt lat="32.6215600" lon="35.1125800">
<ele>191.080002</ele>
<time>2023-11-30T13:20:46.994Z</time>
</trkpt>
<trkpt lat="32.6214900" lon="35.1126300">
<ele>191.259995</ele>
<time>2023-11-30T13:20:46.994Z</time>
</trkpt>
<trkpt lat="32.6214400" lon="35.1126600">
<ele>191.300003</ele>
<time>2023-11-30T13:20:46.994Z</time>
</trkpt>
<trkpt lat="32.6214000" lon="35.1127000">
<ele>190.619995</ele>
<time>2023-11-30T13:20:46.994Z</time>
</trkpt>
<trkpt lat="32.6213600" lon="35.1127200">
<ele>190.800003</ele>
<time>2023-11-30T13:20:46.994Z</time>
</trkpt>
<trkpt lat="32.6213300" lon="35.1127200">
<ele>191.559998</ele>
<time>2023-11-30T13:20:46.994Z</time>
</trkpt>
<trkpt lat="32.6213200" lon="35.1126900">
<ele>192.750000</ele>
<time>2023-11-30T13:20:46.994Z</time>
</trkpt>
<trkpt lat="32.6213500" lon="35.1126000">
<ele>195.069992</ele>
<time>2023-11-30T13:20:46.994Z</time>
</trkpt>
<trkpt lat="32.6213600" lon="35.1125600">
<ele>196.259995</ele>
<time>2023-11-30T13:20:46.994Z</time>
</trkpt>
<trkpt lat="32.6213900" lon="35.1124100">
<ele>199.589996</ele>
<time>2023-11-30T13:20:46.994Z</time>
</trkpt>
<trkpt lat="32.6214300" lon="35.1123600">
<ele>199.490005</ele>
<time>2023-11-30T13:20:46.994Z</time>
</trkpt>
<trkpt lat="32.6214600" lon="35.1122900">
<ele>200.120010</ele>
<time>2023-11-30T13:20:46.994Z</time>
</trkpt>
<trkpt lat="32.6214900" lon="35.1122000">
<ele>201.040009</ele>
<time>2023-11-30T13:20:46.994Z</time>
</trkpt>
<trkpt lat="32.6215100" lon="35.1121800">
<ele>200.870010</ele>
<time>2023-11-30T13:20:46.994Z</time>
</trkpt>
<trkpt lat="32.6215400" lon="35.1121700">
<ele>200.440002</ele>
<time>2023-11-30T13:20:46.994Z</time>
</trkpt>
<trkpt lat="32.6216000" lon="35.1121700">
<ele>199.339996</ele>
<time>2023-11-30T13:20:46.994Z</time>
</trkpt>
<trkpt lat="32.6216300" lon="35.1121700">
<ele>198.800003</ele>
<time>2023-11-30T13:20:46.994Z</time>
</trkpt>
<trkpt lat="32.6216500" lon="35.1121900">
<ele>198.020004</ele>
<time>2023-11-30T13:20:46.994Z</time>
</trkpt>
<trkpt lat="32.6216600" lon="35.1122200">
<ele>197.189987</ele>
<time>2023-11-30T13:20:46.994Z</time>
</trkpt>
<trkpt lat="32.6216800" lon="35.1123100">
<ele>194.800003</ele>
<time>2023-11-30T13:20:46.994Z</time>
</trkpt>
<trkpt lat="32.6217000" lon="35.1123500">
<ele>193.839996</ele>
<time>2023-11-30T13:20:46.994Z</time>
</trkpt>
<trkpt lat="32.6217500" lon="35.1123900">
<ele>192.950012</ele>
<time>2023-11-30T13:20:46.994Z</time>
</trkpt>
<trkpt lat="32.6217800" lon="35.1124100">
<ele>192.540009</ele>
<time>2023-11-30T13:20:46.994Z</time>
</trkpt>
<trkpt lat="32.6218100" lon="35.1124300">
<ele>192.150009</ele>
<time>2023-11-30T13:20:46.994Z</time>
</trkpt>
<trkpt lat="32.6218300" lon="35.1124400">
<ele>191.970001</ele>
<time>2023-11-30T13:20:46.994Z</time>
</trkpt>
<trkpt lat="32.6219000" lon="35.1124500">
<ele>191.949997</ele>
<time>2023-11-30T13:20:46.994Z</time>
</trkpt>
<trkpt lat="32.6219500" lon="35.1124500">
<ele>192.119995</ele>
<time>2023-11-30T13:20:46.994Z</time>
</trkpt>
<trkpt lat="32.6220200" lon="35.1124500">
<ele>192.650009</ele>
<time>2023-11-30T13:20:46.994Z</time>
</trkpt>
<trkpt lat="32.6221100" lon="35.1124400">
<ele>193.440002</ele>
<time>2023-11-30T13:20:46.994Z</time>
</trkpt>
<trkpt lat="32.6221300" lon="35.1124200">
<ele>193.769989</ele>
<time>2023-11-30T13:20:46.994Z</time>
</trkpt>
<trkpt lat="32.6220800" lon="35.1122900">
<ele>195.159988</ele>
<time>2023-11-30T13:20:46.994Z</time>
</trkpt>
<trkpt lat="32.6220600" lon="35.1122600">
<ele>195.629990</ele>
<time>2023-11-30T13:20:46.994Z</time>
</trkpt>
<trkpt lat="32.6219900" lon="35.1122000">
<ele>197.120010</ele>
<time>2023-11-30T13:20:46.994Z</time>
</trkpt>
<trkpt lat="32.6219600" lon="35.1121800">
<ele>197.680008</ele>
<time>2023-11-30T13:20:46.994Z</time>
</trkpt>
<trkpt lat="32.6219100" lon="35.1121300">
<ele>198.699997</ele>
<time>2023-11-30T13:20:46.994Z</time>
</trkpt>
<trkpt lat="32.6218400" lon="35.1120700">
<ele>199.950012</ele>
<time>2023-11-30T13:20:46.994Z</time>
</trkpt>
<trkpt lat="32.6217100" lon="35.1120200">
<ele>201.250000</ele>
<time>2023-11-30T13:20:46.994Z</time>
</trkpt>
<trkpt lat="32.6216300" lon="35.1119700">
<ele>202.639999</ele>
<time>2023-11-30T13:20:46.994Z</time>
</trkpt>
<trkpt lat="32.6215600" lon="35.1119000">
<ele>203.840012</ele>
<time>2023-11-30T13:20:46.994Z</time>
</trkpt>
<trkpt lat="32.6215400" lon="35.1118200">
<ele>204.639999</ele>
<time>2023-11-30T13:20:46.994Z</time>
</trkpt>
<trkpt lat="32.6215400" lon="35.1117800">
<ele>205.009995</ele>
<time>2023-11-30T13:20:46.994Z</time>
</trkpt>
<trkpt lat="32.6215800" lon="35.1117400">
<ele>205.570007</ele>
<time>2023-11-30T13:20:46.994Z</time>
</trkpt>
<trkpt lat="32.6216400" lon="35.1117100">
<ele>206.229996</ele>
<time>2023-11-30T13:20:46.994Z</time>
</trkpt>
<trkpt lat="32.6216700" lon="35.1117000">
<ele>206.540009</ele>
<time>2023-11-30T13:20:46.994Z</time>
</trkpt>
<trkpt lat="32.6216800" lon="35.1116600">
<ele>207.209991</ele>
<time>2023-11-30T13:20:46.994Z</time>
</trkpt>
<trkpt lat="32.6216100" lon="35.1115300">
<ele>208.850006</ele>
<time>2023-11-30T13:20:46.994Z</time>
</trkpt>
<trkpt lat="32.6215400" lon="35.1114800">
<ele>208.839996</ele>
<time>2023-11-30T13:20:46.994Z</time>
</trkpt>
<trkpt lat="32.6214600" lon="35.1114400">
<ele>208.380005</ele>
<time>2023-11-30T13:20:46.994Z</time>
</trkpt>
<trkpt lat="32.6214100" lon="35.1114200">
<ele>207.950012</ele>
<time>2023-11-30T13:20:46.994Z</time>
</trkpt>
<trkpt lat="32.6213100" lon="35.1113700">
<ele>209.159988</ele>
<time>2023-11-30T13:20:46.994Z</time>
</trkpt>
<trkpt lat="32.6212900" lon="35.1113500">
<ele>209.660004</ele>
<time>2023-11-30T13:20:46.994Z</time>
</trkpt>
<trkpt lat="32.6212400" lon="35.1112600">
<ele>211.149994</ele>
<time>2023-11-30T13:20:46.994Z</time>
</trkpt>
<trkpt lat="32.6212200" lon="35.1112300">
<ele>211.520004</ele>
<time>2023-11-30T13:20:46.994Z</time>
</trkpt>
<trkpt lat="32.6211500" lon="35.1112100">
<ele>211.669998</ele>
<time>2023-11-30T13:20:46.994Z</time>
</trkpt>
<trkpt lat="32.6210600" lon="35.1112100">
<ele>211.420013</ele>
<time>2023-11-30T13:20:46.994Z</time>
</trkpt>
<trkpt lat="32.6210300" lon="35.1112100">
<ele>211.290009</ele>
<time>2023-11-30T13:20:46.994Z</time>
</trkpt>
<trkpt lat="32.6209800" lon="35.1112100">
<ele>211.070007</ele>
<time>2023-11-30T13:20:46.994Z</time>
</trkpt>
<trkpt lat="32.6208700" lon="35.1112100">
<ele>210.589996</ele>
<time>2023-11-30T13:20:46.994Z</time>
</trkpt>
<trkpt lat="32.6208200" lon="35.1112100">
<ele>210.289993</ele>
<time>2023-11-30T13:20:46.994Z</time>
</trkpt>
<trkpt lat="32.6207700" lon="35.1112100">
<ele>209.809998</ele>
<time>2023-11-30T13:20:46.994Z</time>
</trkpt>
<trkpt lat="32.6207100" lon="35.1112200">
<ele>209.330002</ele>
<time>2023-11-30T13:20:46.994Z</time>
</trkpt>
<trkpt lat="32.6206600" lon="35.1112300">
<ele>208.930008</ele>
<time>2023-11-30T13:20:46.994Z</time>
</trkpt>
<trkpt lat="32.6205700" lon="35.1112800">
<ele>208.380005</ele>
<time>2023-11-30T13:20:46.994Z</time>
</trkpt>
<trkpt lat="32.6204800" lon="35.1113000">
<ele>205.440002</ele>
<time>2023-11-30T13:20:46.994Z</time>
</trkpt>
<trkpt lat="32.6204200" lon="35.1113100">
<ele>203.130005</ele>
<time>2023-11-30T13:20:46.994Z</time>
</trkpt>
<trkpt lat="32.6203400" lon="35.1113200">
<ele>199.960007</ele>
<time>2023-11-30T13:20:46.994Z</time>
</trkpt>
<trkpt lat="32.6202500" lon="35.1113200">
<ele>197.250000</ele>
<time>2023-11-30T13:20:46.994Z</time>
</trkpt>
<trkpt lat="32.6202100" lon="35.1113300">
<ele>196.800003</ele>
<time>2023-11-30T13:20:46.994Z</time>
</trkpt>
<trkpt lat="32.6201500" lon="35.1113500">
<ele>196.030014</ele>
<time>2023-11-30T13:20:46.994Z</time>
</trkpt>
<trkpt lat="32.6200400" lon="35.1113900">
<ele>194.419998</ele>
<time>2023-11-30T13:20:46.994Z</time>
</trkpt>
<trkpt lat="32.6199900" lon="35.1114100">
<ele>193.949997</ele>
<time>2023-11-30T13:20:46.994Z</time>
</trkpt>
<trkpt lat="32.6198400" lon="35.1114300">
<ele>195.349991</ele>
<time>2023-11-30T13:20:46.994Z</time>
</trkpt>
<trkpt lat="32.6198000" lon="35.1114500">
<ele>195.560013</ele>
<time>2023-11-30T13:20:46.994Z</time>
</trkpt>
<trkpt lat="32.6197300" lon="35.1115000">
<ele>195.730011</ele>
<time>2023-11-30T13:20:46.994Z</time>
</trkpt>
<trkpt lat="32.6197100" lon="35.1115400">
<ele>195.099991</ele>
<time>2023-11-30T13:20:46.994Z</time>
</trkpt>
<trkpt lat="32.6197100" lon="35.1115700">
<ele>194.770004</ele>
<time>2023-11-30T13:20:46.994Z</time>
</trkpt>
<trkpt lat="32.6197200" lon="35.1116200">
<ele>194.449997</ele>
<time>2023-11-30T13:20:46.994Z</time>
</trkpt>
<trkpt lat="32.6197500" lon="35.1116500">
<ele>193.970001</ele>
<time>2023-11-30T13:20:46.994Z</time>
</trkpt>
<trkpt lat="32.6197900" lon="35.1116700">
<ele>193.449997</ele>
<time>2023-11-30T13:20:46.994Z</time>
</trkpt>
<trkpt lat="32.6198200" lon="35.1117000">
<ele>192.710007</ele>
<time>2023-11-30T13:20:46.994Z</time>
</trkpt>
<trkpt lat="32.6198400" lon="35.1117300">
<ele>192.139999</ele>
<time>2023-11-30T13:20:46.994Z</time>
</trkpt>
<trkpt lat="32.6198500" lon="35.1117700">
<ele>191.500000</ele>
<time>2023-11-30T13:20:46.994Z</time>
</trkpt>
<trkpt lat="32.6198500" lon="35.1118000">
<ele>191.040009</ele>
<time>2023-11-30T13:20:46.994Z</time>
</trkpt>
<trkpt lat="32.6198400" lon="35.1118500">
<ele>190.210007</ele>
<time>2023-11-30T13:20:46.994Z</time>
</trkpt>
<trkpt lat="32.6198100" lon="35.1118700">
<ele>189.630005</ele>
<time>2023-11-30T13:20:46.994Z</time>
</trkpt>
<trkpt lat="32.6197700" lon="35.1118900">
<ele>188.860001</ele>
<time>2023-11-30T13:20:46.994Z</time>
</trkpt>
<trkpt lat="32.6197200" lon="35.1119100">
<ele>187.830002</ele>
<time>2023-11-30T13:20:46.994Z</time>
</trkpt>
<trkpt lat="32.6196000" lon="35.1119200">
<ele>185.339996</ele>
<time>2023-11-30T13:20:46.994Z</time>
</trkpt>
<trkpt lat="32.6195700" lon="35.1119300">
<ele>184.569992</ele>
<time>2023-11-30T13:20:46.994Z</time>
</trkpt>
<trkpt lat="32.6194700" lon="35.1119700">
<ele>182.160004</ele>
<time>2023-11-30T13:20:46.994Z</time>
</trkpt>
<trkpt lat="32.6194300" lon="35.1120000">
<ele>181.289993</ele>
<time>2023-11-30T13:20:46.994Z</time>
</trkpt>
<trkpt lat="32.6193400" lon="35.1120700">
<ele>179.720001</ele>
<time>2023-11-30T13:20:46.994Z</time>
</trkpt>
<trkpt lat="32.6193000" lon="35.1120700">
<ele>179.369995</ele>
<time>2023-11-30T13:20:46.994Z</time>
</trkpt>
<trkpt lat="32.6191800" lon="35.1120700">
<ele>178.310013</ele>
<time>2023-11-30T13:20:46.994Z</time>
</trkpt>
<trkpt lat="32.6190900" lon="35.1120600">
<ele>179.000000</ele>
<time>2023-11-30T13:20:46.994Z</time>
</trkpt>
<trkpt lat="32.6189900" lon="35.1119800">
<ele>180.839996</ele>
<time>2023-11-30T13:20:46.994Z</time>
</trkpt>
<trkpt lat="32.6189600" lon="35.1119500">
<ele>181.419998</ele>
<time>2023-11-30T13:20:46.994Z</time>
</trkpt>
<trkpt lat="32.6188800" lon="35.1118100">
<ele>184.880005</ele>
<time>2023-11-30T13:20:46.994Z</time>
</trkpt>
<trkpt lat="32.6188600" lon="35.1117600">
<ele>185.780014</ele>
<time>2023-11-30T13:20:46.994Z</time>
</trkpt>
<trkpt lat="32.6188500" lon="35.1117100">
<ele>186.639999</ele>
<time>2023-11-30T13:20:46.994Z</time>
</trkpt>
<trkpt lat="32.6188400" lon="35.1115300">
<ele>189.500000</ele>
<time>2023-11-30T13:20:46.994Z</time>
</trkpt>
<trkpt lat="32.6188300" lon="35.1114900">
<ele>189.930008</ele>
<time>2023-11-30T13:20:46.994Z</time>
</trkpt>
<trkpt lat="32.6188200" lon="35.1114400">
<ele>190.479996</ele>
<time>2023-11-30T13:20:46.994Z</time>
</trkpt>
<trkpt lat="32.6188100" lon="35.1113900">
<ele>191.000000</ele>
<time>2023-11-30T13:20:46.994Z</time>
</trkpt>
<trkpt lat="32.6187900" lon="35.1112300">
<ele>191.819992</ele>
<time>2023-11-30T13:20:46.994Z</time>
</trkpt>
<trkpt lat="32.6187400" lon="35.1109700">
<ele>190.630005</ele>
<time>2023-11-30T13:20:46.994Z</time>
</trkpt>
<trkpt lat="32.6187200" lon="35.1108100">
<ele>189.050003</ele>
<time>2023-11-30T13:20:46.994Z</time>
</trkpt>
<trkpt lat="32.6187000" lon="35.1107600">
<ele>187.740005</ele>
<time>2023-11-30T13:20:46.994Z</time>
</trkpt>
<trkpt lat="32.6186800" lon="35.1107000">
<ele>186.410004</ele>
<time>2023-11-30T13:20:46.994Z</time>
</trkpt>
<trkpt lat="32.6186700" lon="35.1106300">
<ele>185.399994</ele>
<time>2023-11-30T13:20:46.994Z</time>
</trkpt>
<trkpt lat="32.6186600" lon="35.1105700">
<ele>184.539993</ele>
<time>2023-11-30T13:20:46.994Z</time>
</trkpt>
<trkpt lat="32.6186500" lon="35.1105100">
<ele>183.810013</ele>
<time>2023-11-30T13:20:46.994Z</time>
</trkpt>
<trkpt lat="32.6186200" lon="35.1104100">
<ele>182.220001</ele>
<time>2023-11-30T13:20:46.994Z</time>
</trkpt>
<trkpt lat="32.6185900" lon="35.1104000">
<ele>181.540009</ele>
<time>2023-11-30T13:20:46.994Z</time>
</trkpt>
<trkpt lat="32.6185200" lon="35.1103800">
<ele>180.300003</ele>
<time>2023-11-30T13:20:46.994Z</time>
</trkpt>
<trkpt lat="32.6184700" lon="35.1103800">
<ele>179.520004</ele>
<time>2023-11-30T13:20:46.994Z</time>
</trkpt>
<trkpt lat="32.6183900" lon="35.1104500">
<ele>178.559998</ele>
<time>2023-11-30T13:20:46.994Z</time>
</trkpt>
<trkpt lat="32.6183700" lon="35.1105000">
<ele>178.430008</ele>
<time>2023-11-30T13:20:46.994Z</time>
</trkpt>
<trkpt lat="32.6183500" lon="35.1105400">
<ele>178.240005</ele>
<time>2023-11-30T13:20:46.994Z</time>
</trkpt>
<trkpt lat="32.6183300" lon="35.1105800">
<ele>177.919998</ele>
<time>2023-11-30T13:20:46.994Z</time>
</trkpt>
<trkpt lat="32.6183200" lon="35.1106100">
<ele>177.660004</ele>
<time>2023-11-30T13:20:46.994Z</time>
</trkpt>
<trkpt lat="32.6182600" lon="35.1107100">
<ele>176.149994</ele>
<time>2023-11-30T13:20:46.994Z</time>
</trkpt>
<trkpt lat="32.6182300" lon="35.1108200">
<ele>175.399994</ele>
<time>2023-11-30T13:20:46.994Z</time>
</trkpt>
<trkpt lat="32.6181900" lon="35.1109200">
<ele>173.920013</ele>
<time>2023-11-30T13:20:46.994Z</time>
</trkpt>
<trkpt lat="32.6181800" lon="35.1109800">
<ele>173.320007</ele>
<time>2023-11-30T13:20:46.994Z</time>
</trkpt>
<trkpt lat="32.6181500" lon="35.1111100">
<ele>171.729996</ele>
<time>2023-11-30T13:20:46.994Z</time>
</trkpt>
<trkpt lat="32.6181400" lon="35.1111600">
<ele>171.310013</ele>
<time>2023-11-30T13:20:46.994Z</time>
</trkpt>
<trkpt lat="32.6181100" lon="35.1112900">
<ele>170.049988</ele>
<time>2023-11-30T13:20:46.994Z</time>
</trkpt>
<trkpt lat="32.6180600" lon="35.1113400">
<ele>168.319992</ele>
<time>2023-11-30T13:20:46.994Z</time>
</trkpt>
<trkpt lat="32.6178400" lon="35.1113900">
<ele>167.220001</ele>
<time>2023-11-30T13:20:46.994Z</time>
</trkpt>
<trkpt lat="32.6177800" lon="35.1114200">
<ele>167.009995</ele>
<time>2023-11-30T13:20:46.994Z</time>
</trkpt>
<trkpt lat="32.6177400" lon="35.1114600">
<ele>167.889999</ele>
<time>2023-11-30T13:20:46.994Z</time>
</trkpt>
<trkpt lat="32.6176900" lon="35.1115100">
<ele>169.170013</ele>
<time>2023-11-30T13:20:46.994Z</time>
</trkpt>
<trkpt lat="32.6176600" lon="35.1115500">
<ele>170.040009</ele>
<time>2023-11-30T13:20:46.994Z</time>
</trkpt>
<trkpt lat="32.6176200" lon="35.1116100">
<ele>171.310013</ele>
<time>2023-11-30T13:20:46.994Z</time>
</trkpt>
<trkpt lat="32.6175700" lon="35.1116800">
<ele>173.089996</ele>
<time>2023-11-30T13:20:46.994Z</time>
</trkpt>
<trkpt lat="32.6175400" lon="35.1116800">
<ele>173.970001</ele>
<time>2023-11-30T13:20:46.994Z</time>
</trkpt>
<trkpt lat="32.6175100" lon="35.1116600">
<ele>174.670013</ele>
<time>2023-11-30T13:20:46.994Z</time>
</trkpt>
<trkpt lat="32.6174800" lon="35.1116400">
<ele>176.029999</ele>
<time>2023-11-30T13:20:46.994Z</time>
</trkpt>
<trkpt lat="32.6174700" lon="35.1115900">
<ele>176.250000</ele>
<time>2023-11-30T13:20:46.994Z</time>
</trkpt>
<trkpt lat="32.6174500" lon="35.1115300">
<ele>176.989990</ele>
<time>2023-11-30T13:20:46.994Z</time>
</trkpt>
<trkpt lat="32.6174400" lon="35.1114700">
<ele>177.100006</ele>
<time>2023-11-30T13:20:46.994Z</time>
</trkpt>
<trkpt lat="32.6174300" lon="35.1113800">
<ele>177.020004</ele>
<time>2023-11-30T13:20:46.994Z</time>
</trkpt>
<trkpt lat="32.6174200" lon="35.1113400">
<ele>177.560013</ele>
<time>2023-11-30T13:20:46.994Z</time>
</trkpt>
<trkpt lat="32.6174000" lon="35.1113400">
<ele>178.699997</ele>
<time>2023-11-30T13:20:46.994Z</time>
</trkpt>
<trkpt lat="32.6173900" lon="35.1113900">
<ele>179.350006</ele>
<time>2023-11-30T13:20:46.994Z</time>
</trkpt>
<trkpt lat="32.6173800" lon="35.1114400">
<ele>180.360001</ele>
<time>2023-11-30T13:20:46.994Z</time>
</trkpt>
<trkpt lat="32.6173700" lon="35.1114700">
<ele>181.210007</ele>
<time>2023-11-30T13:20:46.994Z</time>
</trkpt>
<trkpt lat="32.6173400" lon="35.1114700">
<ele>182.970001</ele>
<time>2023-11-30T13:20:46.994Z</time>
</trkpt>
<trkpt lat="32.6173200" lon="35.1114600">
<ele>184.049988</ele>
<time>2023-11-30T13:20:46.994Z</time>
</trkpt>
<trkpt lat="32.6173000" lon="35.1114100">
<ele>184.730011</ele>
<time>2023-11-30T13:20:46.994Z</time>
</trkpt>
<trkpt lat="32.6172800" lon="35.1113700">
<ele>185.619995</ele>
<time>2023-11-30T13:20:46.994Z</time>
</trkpt>
<trkpt lat="32.6172800" lon="35.1113300">
<ele>185.500000</ele>
<time>2023-11-30T13:20:46.994Z</time>
</trkpt>
<trkpt lat="32.6172600" lon="35.1113000">
<ele>186.550003</ele>
<time>2023-11-30T13:20:46.994Z</time>
</trkpt>
<trkpt lat="32.6172300" lon="35.1112600">
<ele>188.099991</ele>
<time>2023-11-30T13:20:46.994Z</time>
</trkpt>
<trkpt lat="32.6172000" lon="35.1112100">
<ele>189.500000</ele>
<time>2023-11-30T13:20:46.994Z</time>
</trkpt>
<trkpt lat="32.6171500" lon="35.1111700">
<ele>191.910004</ele>
<time>2023-11-30T13:20:46.994Z</time>
</trkpt>
<trkpt lat="32.6171100" lon="35.1111200">
<ele>193.699997</ele>
<time>2023-11-30T13:20:46.994Z</time>
</trkpt>
<trkpt lat="32.6170900" lon="35.1110700">
<ele>194.589996</ele>
<time>2023-11-30T13:20:46.994Z</time>
</trkpt>
<trkpt lat="32.6170700" lon="35.1110500">
<ele>195.569992</ele>
<time>2023-11-30T13:20:46.994Z</time>
</trkpt>
<trkpt lat="32.6170400" lon="35.1110100">
<ele>197.060013</ele>
<time>2023-11-30T13:20:46.994Z</time>
</trkpt>
<trkpt lat="32.6170100" lon="35.1109900">
<ele>198.589996</ele>
<time>2023-11-30T13:20:46.994Z</time>
</trkpt>
<trkpt lat="32.6169800" lon="35.1109800">
<ele>200.149994</ele>
<time>2023-11-30T13:20:46.994Z</time>
</trkpt>
<trkpt lat="32.6169500" lon="35.1109500">
<ele>201.709991</ele>
<time>2023-11-30T13:20:46.994Z</time>
</trkpt>
<trkpt lat="32.6169200" lon="35.1109200">
<ele>202.680008</ele>
<time>2023-11-30T13:20:46.994Z</time>
</trkpt>
<trkpt lat="32.6168900" lon="35.1108900">
<ele>203.529999</ele>
<time>2023-11-30T13:20:46.994Z</time>
</trkpt>
<trkpt lat="32.6168700" lon="35.1108700">
<ele>204.110001</ele>
<time>2023-11-30T13:20:46.994Z</time>
</trkpt>
<trkpt lat="32.6168600" lon="35.1108300">
<ele>204.339996</ele>
<time>2023-11-30T13:20:46.994Z</time>
</trkpt>
<trkpt lat="32.6168300" lon="35.1107800">
<ele>203.789993</ele>
<time>2023-11-30T13:20:46.994Z</time>
</trkpt>
<trkpt lat="32.6168000" lon="35.1107300">
<ele>203.169998</ele>
<time>2023-11-30T13:20:46.994Z</time>
</trkpt>
<trkpt lat="32.6167600" lon="35.1106700">
<ele>202.419998</ele>
<time>2023-11-30T13:20:46.994Z</time>
</trkpt>
<trkpt lat="32.6167200" lon="35.1106100">
<ele>201.539993</ele>
<time>2023-11-30T13:20:46.994Z</time>
</trkpt>
<trkpt lat="32.6166900" lon="35.1105900">
<ele>201.589996</ele>
<time>2023-11-30T13:20:46.994Z</time>
</trkpt>
<trkpt lat="32.6166600" lon="35.1105400">
<ele>200.910004</ele>
<time>2023-11-30T13:20:46.994Z</time>
</trkpt>
<trkpt lat="32.6166300" lon="35.1104900">
<ele>200.880005</ele>
<time>2023-11-30T13:20:46.994Z</time>
</trkpt>
<trkpt lat="32.6165900" lon="35.1104200">
<ele>200.769989</ele>
<time>2023-11-30T13:20:46.994Z</time>
</trkpt>
<trkpt lat="32.6165500" lon="35.1103700">
<ele>201.020004</ele>
<time>2023-11-30T13:20:46.994Z</time>
</trkpt>
<trkpt lat="32.6165300" lon="35.1103200">
<ele>200.699997</ele>
<time>2023-11-30T13:20:46.994Z</time>
</trkpt>
<trkpt lat="32.6164900" lon="35.1102600">
<ele>200.789993</ele>
<time>2023-11-30T13:20:46.994Z</time>
</trkpt>
<trkpt lat="32.6164700" lon="35.1102300">
<ele>200.849991</ele>
<time>2023-11-30T13:20:46.994Z</time>
</trkpt>
<trkpt lat="32.6164500" lon="35.1101900">
<ele>200.729996</ele>
<time>2023-11-30T13:20:46.994Z</time>
</trkpt>
<trkpt lat="32.6163800" lon="35.1101000">
<ele>200.949997</ele>
<time>2023-11-30T13:20:46.994Z</time>
</trkpt>
<trkpt lat="32.6162400" lon="35.1099900">
<ele>200.870010</ele>
<time>2023-11-30T13:20:46.994Z</time>
</trkpt>
<trkpt lat="32.6162100" lon="35.1099800">
<ele>200.999985</ele>
<time>2023-11-30T13:20:46.994Z</time>
</trkpt>
<trkpt lat="32.6162200" lon="35.1100700">
<ele>203.000000</ele>
<time>2023-11-30T13:20:46.994Z</time>
</trkpt>
<trkpt lat="32.6162300" lon="35.1101100">
<ele>203.719986</ele>
<time>2023-11-30T13:20:46.994Z</time>
</trkpt>
<trkpt lat="32.6163100" lon="35.1102300">
<ele>204.750000</ele>
<time>2023-11-30T13:20:46.994Z</time>
</trkpt>
<trkpt lat="32.6163900" lon="35.1104300">
<ele>206.710007</ele>
<time>2023-11-30T13:20:46.994Z</time>
</trkpt>
<trkpt lat="32.6164000" lon="35.1104700">
<ele>207.140015</ele>
<time>2023-11-30T13:20:46.994Z</time>
</trkpt>
<trkpt lat="32.6163700" lon="35.1104800">
<ele>208.149994</ele>
<time>2023-11-30T13:20:46.994Z</time>
</trkpt>
<trkpt lat="32.6163400" lon="35.1104500">
<ele>208.369995</ele>
<time>2023-11-30T13:20:46.994Z</time>
</trkpt>
<trkpt lat="32.6163000" lon="35.1103700">
<ele>207.789993</ele>
<time>2023-11-30T13:20:46.994Z</time>
</trkpt>
<trkpt lat="32.6162700" lon="35.1103300">
<ele>207.669998</ele>
<time>2023-11-30T13:20:46.994Z</time>
</trkpt>
<trkpt lat="32.6161800" lon="35.1102400">
<ele>207.630005</ele>
<time>2023-11-30T13:20:46.994Z</time>
</trkpt>
<trkpt lat="32.6161500" lon="35.1102200">
<ele>207.760010</ele>
<time>2023-11-30T13:20:46.994Z</time>
</trkpt>
<trkpt lat="32.6161000" lon="35.1101600">
<ele>207.140015</ele>
<time>2023-11-30T13:20:46.994Z</time>
</trkpt>
<trkpt lat="32.6158800" lon="35.1100200">
<ele>204.520004</ele>
<time>2023-11-30T13:20:46.994Z</time>
</trkpt>
<trkpt lat="32.6157500" lon="35.1099200">
<ele>200.590012</ele>
<time>2023-11-30T13:20:46.994Z</time>
</trkpt>
<trkpt lat="32.6157100" lon="35.1099000">
<ele>199.589996</ele>
<time>2023-11-30T13:20:46.994Z</time>
</trkpt>
<trkpt lat="32.6155200" lon="35.1097200">
<ele>192.970001</ele>
<time>2023-11-30T13:20:46.994Z</time>
</trkpt>
<trkpt lat="32.6154900" lon="35.1097000">
<ele>192.739990</ele>
<time>2023-11-30T13:20:46.994Z</time>
</trkpt>
<trkpt lat="32.6154200" lon="35.1096800">
<ele>192.470001</ele>
<time>2023-11-30T13:20:46.994Z</time>
</trkpt>
<trkpt lat="32.6153400" lon="35.1096700">
<ele>192.289993</ele>
<time>2023-11-30T13:20:46.994Z</time>
</trkpt>
<trkpt lat="32.6153000" lon="35.1096600">
<ele>192.119995</ele>
<time>2023-11-30T13:20:46.994Z</time>
</trkpt>
<trkpt lat="32.6152600" lon="35.1096400">
<ele>191.989990</ele>
<time>2023-11-30T13:20:46.994Z</time>
</trkpt>
<trkpt lat="32.6151700" lon="35.1095800">
<ele>191.920013</ele>
<time>2023-11-30T13:20:46.994Z</time>
</trkpt>
<trkpt lat="32.6150000" lon="35.1094400">
<ele>190.980011</ele>
<time>2023-11-30T13:20:46.994Z</time>
</trkpt>
<trkpt lat="32.6149700" lon="35.1094100">
<ele>191.610001</ele>
<time>2023-11-30T13:20:46.994Z</time>
</trkpt>
<trkpt lat="32.6149500" lon="35.1093700">
<ele>191.900009</ele>
<time>2023-11-30T13:20:46.994Z</time>
</trkpt>
<trkpt lat="32.6149300" lon="35.1093200">
<ele>192.090012</ele>
<time>2023-11-30T13:20:46.994Z</time>
</trkpt>
<trkpt lat="32.6148900" lon="35.1090700">
<ele>191.490005</ele>
<time>2023-11-30T13:20:46.994Z</time>
</trkpt>
<trkpt lat="32.6148700" lon="35.1088600">
<ele>190.970001</ele>
<time>2023-11-30T13:20:46.994Z</time>
</trkpt>
<trkpt lat="32.6148700" lon="35.1087400">
<ele>191.369995</ele>
<time>2023-11-30T13:20:46.994Z</time>
</trkpt>
<trkpt lat="32.6148600" lon="35.1086100">
<ele>192.039993</ele>
<time>2023-11-30T13:20:46.994Z</time>
</trkpt>
<trkpt lat="32.6148600" lon="35.1084900">
<ele>193.760010</ele>
<time>2023-11-30T13:20:46.994Z</time>
</trkpt>
<trkpt lat="32.6148700" lon="35.1083900">
<ele>195.040009</ele>
<time>2023-11-30T13:20:46.994Z</time>
</trkpt>
<trkpt lat="32.6148700" lon="35.1082300">
<ele>196.240005</ele>
<time>2023-11-30T13:20:46.994Z</time>
</trkpt>
<trkpt lat="32.6148700" lon="35.1081800">
<ele>196.419998</ele>
<time>2023-11-30T13:20:46.994Z</time>
</trkpt>
<trkpt lat="32.6148700" lon="35.1080400">
<ele>196.839996</ele>
<time>2023-11-30T13:20:46.994Z</time>
</trkpt>
<trkpt lat="32.6148700" lon="35.1080000">
<ele>196.770004</ele>
<time>2023-11-30T13:20:46.994Z</time>
</trkpt>
<trkpt lat="32.6148600" lon="35.1079000">
<ele>196.739990</ele>
<time>2023-11-30T13:20:46.994Z</time>
</trkpt>
<trkpt lat="32.6148600" lon="35.1078600">
<ele>196.669998</ele>
<time>2023-11-30T13:20:46.994Z</time>
</trkpt>
<trkpt lat="32.6148500" lon="35.1077700">
<ele>196.719986</ele>
<time>2023-11-30T13:20:46.994Z</time>
</trkpt>
<trkpt lat="32.6148500" lon="35.1077300">
<ele>196.809998</ele>
<time>2023-11-30T13:20:46.994Z</time>
</trkpt>
<trkpt lat="32.6148400" lon="35.1076800">
<ele>197.139999</ele>
<time>2023-11-30T13:20:46.994Z</time>
</trkpt>
<trkpt lat="32.6148300" lon="35.1076500">
<ele>197.440002</ele>
<time>2023-11-30T13:20:46.994Z</time>
</trkpt>
<trkpt lat="32.6148100" lon="35.1076100">
<ele>198.059998</ele>
<time>2023-11-30T13:20:46.994Z</time>
</trkpt>
<trkpt lat="32.6147900" lon="35.1075400">
<ele>198.869995</ele>
<time>2023-11-30T13:20:46.994Z</time>
</trkpt>
<trkpt lat="32.6147600" lon="35.1074300">
<ele>198.900009</ele>
<time>2023-11-30T13:20:46.994Z</time>
</trkpt>
<trkpt lat="32.6147500" lon="35.1073900">
<ele>198.620010</ele>
<time>2023-11-30T13:20:46.994Z</time>
</trkpt>
<trkpt lat="32.6147200" lon="35.1073600">
<ele>198.979996</ele>
<time>2023-11-30T13:20:46.994Z</time>
</trkpt>
<trkpt lat="32.6145800" lon="35.1072200">
<ele>197.000000</ele>
<time>2023-11-30T13:20:46.994Z</time>
</trkpt>
<trkpt lat="32.6143600" lon="35.1071000">
<ele>196.760010</ele>
<time>2023-11-30T13:20:46.994Z</time>
</trkpt>
<trkpt lat="32.6142400" lon="35.1070200">
<ele>196.930008</ele>
<time>2023-11-30T13:20:46.994Z</time>
</trkpt>
<trkpt lat="32.6139500" lon="35.1068900">
<ele>190.039993</ele>
<time>2023-11-30T13:20:46.994Z</time>
</trkpt>
<trkpt lat="32.6139000" lon="35.1068700">
<ele>187.589996</ele>
<time>2023-11-30T13:20:46.994Z</time>
</trkpt>
<trkpt lat="32.6135900" lon="35.1068400">
<ele>180.150009</ele>
<time>2023-11-30T13:20:46.994Z</time>
</trkpt>
<trkpt lat="32.6135300" lon="35.1068300">
<ele>177.949997</ele>
<time>2023-11-30T13:20:46.994Z</time>
</trkpt>
<trkpt lat="32.6134200" lon="35.1068200">
<ele>173.920013</ele>
<time>2023-11-30T13:20:46.994Z</time>
</trkpt>
<trkpt lat="32.6133600" lon="35.1068200">
<ele>171.800003</ele>
<time>2023-11-30T13:20:46.994Z</time>
</trkpt>
<trkpt lat="32.6133000" lon="35.1068200">
<ele>170.960007</ele>
<time>2023-11-30T13:20:46.994Z</time>
</trkpt>
<trkpt lat="32.6131700" lon="35.1068300">
<ele>171.500000</ele>
<time>2023-11-30T13:20:46.994Z</time>
</trkpt>
<trkpt lat="32.6131200" lon="35.1068500">
<ele>171.899994</ele>
<time>2023-11-30T13:20:46.994Z</time>
</trkpt>
<trkpt lat="32.6130300" lon="35.1068600">
<ele>172.580002</ele>
<time>2023-11-30T13:20:46.994Z</time>
</trkpt>
<trkpt lat="32.6129900" lon="35.1068700">
<ele>173.490005</ele>
<time>2023-11-30T13:20:46.994Z</time>
</trkpt>
<trkpt lat="32.6129000" lon="35.1068700">
<ele>175.259995</ele>
<time>2023-11-30T13:20:46.994Z</time>
</trkpt>
<trkpt lat="32.6128500" lon="35.1068800">
<ele>176.400009</ele>
<time>2023-11-30T13:20:46.994Z</time>
</trkpt>
<trkpt lat="32.6128000" lon="35.1068900">
<ele>177.569992</ele>
<time>2023-11-30T13:20:46.994Z</time>
</trkpt>
<trkpt lat="32.6127600" lon="35.1069100">
<ele>178.540009</ele>
<time>2023-11-30T13:20:46.994Z</time>
</trkpt>
<trkpt lat="32.6126500" lon="35.1069400">
<ele>179.870010</ele>
<time>2023-11-30T13:20:46.994Z</time>
</trkpt>
<trkpt lat="32.6124200" lon="35.1069900">
<ele>186.580002</ele>
<time>2023-11-30T13:20:46.994Z</time>
</trkpt>
<trkpt lat="32.6123700" lon="35.1070100">
<ele>188.979996</ele>
<time>2023-11-30T13:20:46.994Z</time>
</trkpt>
<trkpt lat="32.6121800" lon="35.1070900">
<ele>193.669998</ele>
<time>2023-11-30T13:20:46.994Z</time>
</trkpt>
<trkpt lat="32.6119000" lon="35.1071600">
<ele>194.009995</ele>
<time>2023-11-30T13:20:46.994Z</time>
</trkpt>
<trkpt lat="32.6118600" lon="35.1071800">
<ele>194.500000</ele>
<time>2023-11-30T13:20:46.994Z</time>
</trkpt>
<trkpt lat="32.6117900" lon="35.1072100">
<ele>194.929993</ele>
<time>2023-11-30T13:20:46.994Z</time>
</trkpt>
<trkpt lat="32.6117600" lon="35.1072200">
<ele>194.940002</ele>
<time>2023-11-30T13:20:46.994Z</time>
</trkpt>
<trkpt lat="32.6117200" lon="35.1072400">
<ele>195.009995</ele>
<time>2023-11-30T13:20:46.994Z</time>
</trkpt>
<trkpt lat="32.6116800" lon="35.1072600">
<ele>195.090012</ele>
<time>2023-11-30T13:20:46.994Z</time>
</trkpt>
<trkpt lat="32.6116000" lon="35.1072900">
<ele>195.099991</ele>
<time>2023-11-30T13:20:46.994Z</time>
</trkpt>
<trkpt lat="32.6115300" lon="35.1073200">
<ele>195.540009</ele>
<time>2023-11-30T13:20:46.994Z</time>
</trkpt>
<trkpt lat="32.6115000" lon="35.1073400">
<ele>196.089996</ele>
<time>2023-11-30T13:20:46.994Z</time>
</trkpt>
<trkpt lat="32.6113600" lon="35.1073900">
<ele>198.020004</ele>
<time>2023-11-30T13:20:46.994Z</time>
</trkpt>
<trkpt lat="32.6111700" lon="35.1074100">
<ele>200.110001</ele>
<time>2023-11-30T13:20:46.994Z</time>
</trkpt>
<trkpt lat="32.6108500" lon="35.1074300">
<ele>198.889999</ele>
<time>2023-11-30T13:20:46.994Z</time>
</trkpt>
<trkpt lat="32.6108100" lon="35.1074400">
<ele>199.909988</ele>
<time>2023-11-30T13:20:46.994Z</time>
</trkpt>
<trkpt lat="32.6107700" lon="35.1074500">
<ele>201.539993</ele>
<time>2023-11-30T13:20:46.994Z</time>
</trkpt>
<trkpt lat="32.6106600" lon="35.1074700">
<ele>205.440002</ele>
<time>2023-11-30T13:20:46.994Z</time>
</trkpt>
<trkpt lat="32.6106300" lon="35.1074800">
<ele>206.560013</ele>
<time>2023-11-30T13:20:46.994Z</time>
</trkpt>
<trkpt lat="32.6105800" lon="35.1075000">
<ele>208.380005</ele>
<time>2023-11-30T13:20:46.994Z</time>
</trkpt>
<trkpt lat="32.6104000" lon="35.1075200">
<ele>207.470001</ele>
<time>2023-11-30T13:20:46.994Z</time>
</trkpt>
<trkpt lat="32.6103500" lon="35.1075400">
<ele>206.860001</ele>
<time>2023-11-30T13:20:46.994Z</time>
</trkpt>
<trkpt lat="32.6103500" lon="35.1075800">
<ele>206.210007</ele>
<time>2023-11-30T13:20:46.994Z</time>
</trkpt>
<trkpt lat="32.6104400" lon="35.1076500">
<ele>204.659988</ele>
<time>2023-11-30T13:20:46.994Z</time>
</trkpt>
<trkpt lat="32.6105400" lon="35.1077200">
<ele>202.029999</ele>
<time>2023-11-30T13:20:46.994Z</time>
</trkpt>
<trkpt lat="32.6106000" lon="35.1077500">
<ele>201.800003</ele>
<time>2023-11-30T13:20:46.994Z</time>
</trkpt>
<trkpt lat="32.6106800" lon="35.1077700">
<ele>203.209991</ele>
<time>2023-11-30T13:20:46.994Z</time>
</trkpt>
<trkpt lat="32.6107100" lon="35.1077800">
<ele>203.959991</ele>
<time>2023-11-30T13:20:46.994Z</time>
</trkpt>
<trkpt lat="32.6108200" lon="35.1078000">
<ele>207.160004</ele>
<time>2023-11-30T13:20:46.994Z</time>
</trkpt>
<trkpt lat="32.6108800" lon="35.1078200">
<ele>207.770004</ele>
<time>2023-11-30T13:20:46.994Z</time>
</trkpt>
<trkpt lat="32.6109100" lon="35.1078400">
<ele>208.129990</ele>
<time>2023-11-30T13:20:46.994Z</time>
</trkpt>
<trkpt lat="32.6110000" lon="35.1078500">
<ele>208.120010</ele>
<time>2023-11-30T13:20:46.994Z</time>
</trkpt>
<trkpt lat="32.6110800" lon="35.1078600">
<ele>208.149994</ele>
<time>2023-11-30T13:20:46.994Z</time>
</trkpt>
<trkpt lat="32.6111900" lon="35.1078800">
<ele>208.369995</ele>
<time>2023-11-30T13:20:46.994Z</time>
</trkpt>
<trkpt lat="32.6113400" lon="35.1078800">
<ele>207.970001</ele>
<time>2023-11-30T13:20:46.994Z</time>
</trkpt>
<trkpt lat="32.6113800" lon="35.1078900">
<ele>208.050003</ele>
<time>2023-11-30T13:20:46.994Z</time>
</trkpt>
<trkpt lat="32.6114500" lon="35.1079100">
<ele>209.250000</ele>
<time>2023-11-30T13:20:46.994Z</time>
</trkpt>
<trkpt lat="32.6115100" lon="35.1079100">
<ele>210.099991</ele>
<time>2023-11-30T13:20:46.994Z</time>
</trkpt>
<trkpt lat="32.6115400" lon="35.1079200">
<ele>210.750000</ele>
<time>2023-11-30T13:20:46.994Z</time>
</trkpt>
<trkpt lat="32.6116200" lon="35.1079200">
<ele>211.910004</ele>
<time>2023-11-30T13:20:46.994Z</time>
</trkpt>
<trkpt lat="32.6116900" lon="35.1079100">
<ele>212.460007</ele>
<time>2023-11-30T13:20:46.994Z</time>
</trkpt>
<trkpt lat="32.6117600" lon="35.1079000">
<ele>212.639999</ele>
<time>2023-11-30T13:20:46.994Z</time>
</trkpt>
<trkpt lat="32.6118400" lon="35.1078600">
<ele>212.389999</ele>
<time>2023-11-30T13:20:46.994Z</time>
</trkpt>
<trkpt lat="32.6118900" lon="35.1078400">
<ele>212.440002</ele>
<time>2023-11-30T13:20:46.994Z</time>
</trkpt>
<trkpt lat="32.6119500" lon="35.1078300">
<ele>212.749985</ele>
<time>2023-11-30T13:20:46.994Z</time>
</trkpt>
<trkpt lat="32.6120000" lon="35.1078100">
<ele>212.440002</ele>
<time>2023-11-30T13:20:46.994Z</time>
</trkpt>
<trkpt lat="32.6121000" lon="35.1078000">
<ele>212.279999</ele>
<time>2023-11-30T13:20:46.994Z</time>
</trkpt>
<trkpt lat="32.6121600" lon="35.1078000">
<ele>212.259995</ele>
<time>2023-11-30T13:20:46.994Z</time>
</trkpt>
<trkpt lat="32.6122400" lon="35.1078100">
<ele>211.910004</ele>
<time>2023-11-30T13:20:46.994Z</time>
</trkpt>
<trkpt lat="32.6123200" lon="35.1078100">
<ele>209.969986</ele>
<time>2023-11-30T13:20:46.994Z</time>
</trkpt>
<trkpt lat="32.6123400" lon="35.1078100">
<ele>209.479996</ele>
<time>2023-11-30T13:20:46.994Z</time>
</trkpt>
<trkpt lat="32.6124500" lon="35.1078200">
<ele>206.970001</ele>
<time>2023-11-30T13:20:46.994Z</time>
</trkpt>
<trkpt lat="32.6124900" lon="35.1078200">
<ele>206.000000</ele>
<time>2023-11-30T13:20:46.994Z</time>
</trkpt>
<trkpt lat="32.6125200" lon="35.1078200">
<ele>205.419998</ele>
<time>2023-11-30T13:20:46.994Z</time>
</trkpt>
<trkpt lat="32.6125800" lon="35.1078200">
<ele>204.410004</ele>
<time>2023-11-30T13:20:46.994Z</time>
</trkpt>
<trkpt lat="32.6126400" lon="35.1078200">
<ele>203.389999</ele>
<time>2023-11-30T13:20:46.994Z</time>
</trkpt>
<trkpt lat="32.6126700" lon="35.1078200">
<ele>202.889999</ele>
<time>2023-11-30T13:20:46.994Z</time>
</trkpt>
<trkpt lat="32.6127400" lon="35.1078100">
<ele>201.460007</ele>
<time>2023-11-30T13:20:46.994Z</time>
</trkpt>
<trkpt lat="32.6128200" lon="35.1078100">
<ele>201.230011</ele>
<time>2023-11-30T13:20:46.994Z</time>
</trkpt>
<trkpt lat="32.6129200" lon="35.1078100">
<ele>202.229996</ele>
<time>2023-11-30T13:20:46.994Z</time>
</trkpt>
<trkpt lat="32.6129800" lon="35.1078200">
<ele>203.030014</ele>
<time>2023-11-30T13:20:46.994Z</time>
</trkpt>
<trkpt lat="32.6131800" lon="35.1078400">
<ele>201.929993</ele>
<time>2023-11-30T13:20:46.994Z</time>
</trkpt>
<trkpt lat="32.6132800" lon="35.1078500">
<ele>200.500000</ele>
<time>2023-11-30T13:20:46.994Z</time>
</trkpt>
<trkpt lat="32.6133000" lon="35.1078700">
<ele>200.839996</ele>
<time>2023-11-30T13:20:46.994Z</time>
</trkpt>
<trkpt lat="32.6133900" lon="35.1079000">
<ele>201.110001</ele>
<time>2023-11-30T13:20:46.994Z</time>
</trkpt>
<trkpt lat="32.6135600" lon="35.1079200">
<ele>200.890015</ele>
<time>2023-11-30T13:20:46.994Z</time>
</trkpt>
<trkpt lat="32.6136000" lon="35.1079300">
<ele>200.990005</ele>
<time>2023-11-30T13:20:46.994Z</time>
</trkpt>
<trkpt lat="32.6136500" lon="35.1079600">
<ele>201.960007</ele>
<time>2023-11-30T13:20:46.994Z</time>
</trkpt>
<trkpt lat="32.6139400" lon="35.1080400">
<ele>204.089996</ele>
<time>2023-11-30T13:20:46.994Z</time>
</trkpt>
<trkpt lat="32.6139800" lon="35.1080700">
<ele>204.919998</ele>
<time>2023-11-30T13:20:46.994Z</time>
</trkpt>
<trkpt lat="32.6140100" lon="35.1081000">
<ele>205.620010</ele>
<time>2023-11-30T13:20:46.994Z</time>
</trkpt>
<trkpt lat="32.6140500" lon="35.1081800">
<ele>207.070007</ele>
<time>2023-11-30T13:20:46.994Z</time>
</trkpt>
<trkpt lat="32.6140600" lon="35.1082500">
<ele>208.139999</ele>
<time>2023-11-30T13:20:46.994Z</time>
</trkpt>
<trkpt lat="32.6140600" lon="35.1082900">
<ele>208.740005</ele>
<time>2023-11-30T13:20:46.994Z</time>
</trkpt>
<trkpt lat="32.6140300" lon="35.1083300">
<ele>209.440002</ele>
<time>2023-11-30T13:20:46.994Z</time>
</trkpt>
<trkpt lat="32.6139200" lon="35.1083400">
<ele>209.940002</ele>
<time>2023-11-30T13:20:46.994Z</time>
</trkpt>
<trkpt lat="32.6138800" lon="35.1083800">
<ele>210.419998</ele>
<time>2023-11-30T13:20:46.994Z</time>
</trkpt>
<trkpt lat="32.6138700" lon="35.1084300">
<ele>210.899994</ele>
<time>2023-11-30T13:20:46.994Z</time>
</trkpt>
<trkpt lat="32.6138700" lon="35.1085000">
<ele>211.460007</ele>
<time>2023-11-30T13:20:46.994Z</time>
</trkpt>
<trkpt lat="32.6138500" lon="35.1085500">
<ele>212.170013</ele>
<time>2023-11-30T13:20:46.994Z</time>
</trkpt>
<trkpt lat="32.6138200" lon="35.1086200">
<ele>213.269989</ele>
<time>2023-11-30T13:20:46.994Z</time>
</trkpt>
<trkpt lat="32.6138100" lon="35.1086700">
<ele>213.629990</ele>
<time>2023-11-30T13:20:46.994Z</time>
</trkpt>
<trkpt lat="32.6138100" lon="35.1087200">
<ele>213.809998</ele>
<time>2023-11-30T13:20:46.994Z</time>
</trkpt>
<trkpt lat="32.6138300" lon="35.1087600">
<ele>213.600006</ele>
<time>2023-11-30T13:20:46.994Z</time>
</trkpt>
<trkpt lat="32.6138600" lon="35.1088400">
<ele>213.339996</ele>
<time>2023-11-30T13:20:46.994Z</time>
</trkpt>
<trkpt lat="32.6138800" lon="35.1088700">
<ele>213.090012</ele>
<time>2023-11-30T13:20:46.994Z</time>
</trkpt>
<trkpt lat="32.6138900" lon="35.1089300">
<ele>212.839996</ele>
<time>2023-11-30T13:20:46.994Z</time>
</trkpt>
<trkpt lat="32.6138900" lon="35.1089800">
<ele>212.660004</ele>
<time>2023-11-30T13:20:46.994Z</time>
</trkpt>
<trkpt lat="32.6138900" lon="35.1090600">
<ele>212.369995</ele>
<time>2023-11-30T13:20:46.994Z</time>
</trkpt>
<trkpt lat="32.6138800" lon="35.1093100">
<ele>214.789993</ele>
<time>2023-11-30T13:20:46.994Z</time>
</trkpt>
<trkpt lat="32.6138700" lon="35.1093700">
<ele>216.049988</ele>
<time>2023-11-30T13:20:46.994Z</time>
</trkpt>
<trkpt lat="32.6138500" lon="35.1094500">
<ele>217.770004</ele>
<time>2023-11-30T13:20:46.994Z</time>
</trkpt>
<trkpt lat="32.6137900" lon="35.1094600">
<ele>218.939987</ele>
<time>2023-11-30T13:20:46.994Z</time>
</trkpt>
<trkpt lat="32.6137700" lon="35.1094600">
<ele>219.289993</ele>
<time>2023-11-30T13:20:46.994Z</time>
</trkpt>
<trkpt lat="32.6137400" lon="35.1094300">
<ele>219.500000</ele>
<time>2023-11-30T13:20:46.994Z</time>
</trkpt>
<trkpt lat="32.6137300" lon="35.1094000">
<ele>219.330002</ele>
<time>2023-11-30T13:20:46.994Z</time>
</trkpt>
<trkpt lat="32.6137100" lon="35.1093300">
<ele>218.959991</ele>
<time>2023-11-30T13:20:46.994Z</time>
</trkpt>
<trkpt lat="32.6136800" lon="35.1092700">
<ele>219.040009</ele>
<time>2023-11-30T13:20:46.994Z</time>
</trkpt>
<trkpt lat="32.6136600" lon="35.1092600">
<ele>219.440002</ele>
<time>2023-11-30T13:20:46.994Z</time>
</trkpt>
<trkpt lat="32.6135900" lon="35.1092200">
<ele>220.919998</ele>
<time>2023-11-30T13:20:46.994Z</time>
</trkpt>
<trkpt lat="32.6135200" lon="35.1091600">
<ele>222.220001</ele>
<time>2023-11-30T13:20:46.994Z</time>
</trkpt>
<trkpt lat="32.6134400" lon="35.1090900">
<ele>223.250000</ele>
<time>2023-11-30T13:20:46.994Z</time>
</trkpt>
<trkpt lat="32.6134000" lon="35.1090500">
<ele>223.519989</ele>
<time>2023-11-30T13:20:46.994Z</time>
</trkpt>
<trkpt lat="32.6133700" lon="35.1090000">
<ele>223.309998</ele>
<time>2023-11-30T13:20:46.994Z</time>
</trkpt>
<trkpt lat="32.6133300" lon="35.1089700">
<ele>223.479996</ele>
<time>2023-11-30T13:20:46.994Z</time>
</trkpt>
<trkpt lat="32.6132500" lon="35.1089600">
<ele>223.940002</ele>
<time>2023-11-30T13:20:46.994Z</time>
</trkpt>
<trkpt lat="32.6131900" lon="35.1089500">
<ele>224.370010</ele>
<time>2023-11-30T13:20:46.994Z</time>
</trkpt>
<trkpt lat="32.6131600" lon="35.1089400">
<ele>224.609985</ele>
<time>2023-11-30T13:20:46.994Z</time>
</trkpt>
<trkpt lat="32.6131300" lon="35.1089200">
<ele>224.909988</ele>
<time>2023-11-30T13:20:46.994Z</time>
</trkpt>
<trkpt lat="32.6129800" lon="35.1087800">
<ele>222.949997</ele>
<time>2023-11-30T13:20:46.994Z</time>
</trkpt>
<trkpt lat="32.6129400" lon="35.1087600">
<ele>222.019989</ele>
<time>2023-11-30T13:20:46.994Z</time>
</trkpt>
<trkpt lat="32.6127600" lon="35.1087600">
<ele>220.040009</ele>
<time>2023-11-30T13:20:46.994Z</time>
</trkpt>
<trkpt lat="32.6127200" lon="35.1087400">
<ele>220.440002</ele>
<time>2023-11-30T13:20:46.994Z</time>
</trkpt>
<trkpt lat="32.6126100" lon="35.1086800">
<ele>221.110001</ele>
<time>2023-11-30T13:20:46.994Z</time>
</trkpt>
<trkpt lat="32.6125200" lon="35.1086600">
<ele>222.080002</ele>
<time>2023-11-30T13:20:46.994Z</time>
</trkpt>
<trkpt lat="32.6123800" lon="35.1086400">
<ele>222.610001</ele>
<time>2023-11-30T13:20:46.994Z</time>
</trkpt>
<trkpt lat="32.6123100" lon="35.1086200">
<ele>222.580002</ele>
<time>2023-11-30T13:20:46.994Z</time>
</trkpt>
<trkpt lat="32.6122000" lon="35.1085600">
<ele>222.369995</ele>
<time>2023-11-30T13:20:46.994Z</time>
</trkpt>
<trkpt lat="32.6121600" lon="35.1085600">
<ele>222.570007</ele>
<time>2023-11-30T13:20:46.994Z</time>
</trkpt>
<trkpt lat="32.6120900" lon="35.1085500">
<ele>222.810013</ele>
<time>2023-11-30T13:20:46.994Z</time>
</trkpt>
<trkpt lat="32.6120300" lon="35.1085800">
<ele>223.399994</ele>
<time>2023-11-30T13:20:46.994Z</time>
</trkpt>
<trkpt lat="32.6117300" lon="35.1089200">
<ele>220.900009</ele>
<time>2023-11-30T13:20:46.994Z</time>
</trkpt>
<trkpt lat="32.6117000" lon="35.1089600">
<ele>221.029999</ele>
<time>2023-11-30T13:20:46.994Z</time>
</trkpt>
<trkpt lat="32.6116500" lon="35.1091100">
<ele>220.569992</ele>
<time>2023-11-30T13:20:46.994Z</time>
</trkpt>
<trkpt lat="32.6115700" lon="35.1093000">
<ele>215.660004</ele>
<time>2023-11-30T13:20:46.994Z</time>
</trkpt>
<trkpt lat="32.6115000" lon="35.1094000">
<ele>212.579987</ele>
<time>2023-11-30T13:20:46.994Z</time>
</trkpt>
<trkpt lat="32.6114400" lon="35.1094400">
<ele>210.959991</ele>
<time>2023-11-30T13:20:46.994Z</time>
</trkpt>
<trkpt lat="32.6113800" lon="35.1095000">
<ele>210.200012</ele>
<time>2023-11-30T13:20:46.994Z</time>
</trkpt>
<trkpt lat="32.6113600" lon="35.1095400">
<ele>210.580002</ele>
<time>2023-11-30T13:20:46.994Z</time>
</trkpt>
<trkpt lat="32.6113200" lon="35.1096300">
<ele>211.070007</ele>
<time>2023-11-30T13:20:46.994Z</time>
</trkpt>
<trkpt lat="32.6112900" lon="35.1096900">
<ele>211.230011</ele>
<time>2023-11-30T13:20:46.994Z</time>
</trkpt>
<trkpt lat="32.6112400" lon="35.1097500">
<ele>211.100006</ele>
<time>2023-11-30T13:20:46.994Z</time>
</trkpt>
<trkpt lat="32.6111800" lon="35.1098700">
<ele>209.330002</ele>
<time>2023-11-30T13:20:46.994Z</time>
</trkpt>
<trkpt lat="32.6111600" lon="35.1099100">
<ele>208.649994</ele>
<time>2023-11-30T13:20:46.994Z</time>
</trkpt>
<trkpt lat="32.6110500" lon="35.1101500">
<ele>204.019989</ele>
<time>2023-11-30T13:20:46.994Z</time>
</trkpt>
<trkpt lat="32.6110300" lon="35.1101900">
<ele>203.399994</ele>
<time>2023-11-30T13:20:46.994Z</time>
</trkpt>
<trkpt lat="32.6109800" lon="35.1102600">
<ele>202.720001</ele>
<time>2023-11-30T13:20:46.994Z</time>
</trkpt>
<trkpt lat="32.6108800" lon="35.1103600">
<ele>201.009995</ele>
<time>2023-11-30T13:20:46.994Z</time>
</trkpt>
<trkpt lat="32.6108200" lon="35.1104700">
<ele>197.039993</ele>
<time>2023-11-30T13:20:46.994Z</time>
</trkpt>
<trkpt lat="32.6106600" lon="35.1105900">
<ele>199.020004</ele>
<time>2023-11-30T13:20:46.994Z</time>
</trkpt>
<trkpt lat="32.6106000" lon="35.1106100">
<ele>200.800003</ele>
<time>2023-11-30T13:20:46.994Z</time>
</trkpt>
<trkpt lat="32.6105300" lon="35.1106200">
<ele>202.900009</ele>
<time>2023-11-30T13:20:46.994Z</time>
</trkpt>
<trkpt lat="32.6104400" lon="35.1107000">
<ele>204.659988</ele>
<time>2023-11-30T13:20:46.994Z</time>
</trkpt>
<trkpt lat="32.6103700" lon="35.1107600">
<ele>206.070007</ele>
<time>2023-11-30T13:20:46.994Z</time>
</trkpt>
<trkpt lat="32.6103000" lon="35.1107800">
<ele>208.050003</ele>
<time>2023-11-30T13:20:46.994Z</time>
</trkpt>
<trkpt lat="32.6102200" lon="35.1107900">
<ele>208.919998</ele>
<time>2023-11-30T13:20:46.994Z</time>
</trkpt>
<trkpt lat="32.6101600" lon="35.1108200">
<ele>208.380005</ele>
<time>2023-11-30T13:20:46.994Z</time>
</trkpt>
<trkpt lat="32.6100600" lon="35.1108600">
<ele>207.770004</ele>
<time>2023-11-30T13:20:46.994Z</time>
</trkpt>
<trkpt lat="32.6099800" lon="35.1108900">
<ele>207.990005</ele>
<time>2023-11-30T13:20:46.994Z</time>
</trkpt>
<trkpt lat="32.6099500" lon="35.1109000">
<ele>208.510010</ele>
<time>2023-11-30T13:20:46.994Z</time>
</trkpt>
<trkpt lat="32.6098700" lon="35.1109100">
<ele>210.000000</ele>
<time>2023-11-30T13:20:46.994Z</time>
</trkpt>
<trkpt lat="32.6097900" lon="35.1109000">
<ele>211.690002</ele>
<time>2023-11-30T13:20:46.994Z</time>
</trkpt>
<trkpt lat="32.6097400" lon="35.1109000">
<ele>212.689987</ele>
<time>2023-11-30T13:20:46.994Z</time>
</trkpt>
<trkpt lat="32.6096800" lon="35.1109000">
<ele>214.379990</ele>
<time>2023-11-30T13:20:46.994Z</time>
</trkpt>
<trkpt lat="32.6096200" lon="35.1108900">
<ele>216.490005</ele>
<time>2023-11-30T13:20:46.994Z</time>
</trkpt>
<trkpt lat="32.6094800" lon="35.1108800">
<ele>221.319992</ele>
<time>2023-11-30T13:20:46.994Z</time>
</trkpt>
<trkpt lat="32.6094300" lon="35.1108700">
<ele>222.830002</ele>
<time>2023-11-30T13:20:46.994Z</time>
</trkpt>
<trkpt lat="32.6093900" lon="35.1108200">
<ele>224.350006</ele>
<time>2023-11-30T13:20:46.994Z</time>
</trkpt>
<trkpt lat="32.6093900" lon="35.1107800">
<ele>225.379990</ele>
<time>2023-11-30T13:20:46.994Z</time>
</trkpt>
<trkpt lat="32.6094700" lon="35.1107600">
<ele>225.000000</ele>
<time>2023-11-30T13:20:46.994Z</time>
</trkpt>
<trkpt lat="32.6095100" lon="35.1107400">
<ele>224.229996</ele>
<time>2023-11-30T13:20:46.994Z</time>
</trkpt>
<trkpt lat="32.6096800" lon="35.1107400">
<ele>218.729996</ele>
<time>2023-11-30T13:20:46.994Z</time>
</trkpt>
<trkpt lat="32.6097100" lon="35.1107200">
<ele>218.470001</ele>
<time>2023-11-30T13:20:46.994Z</time>
</trkpt>
<trkpt lat="32.6097600" lon="35.1106900">
<ele>218.550003</ele>
<time>2023-11-30T13:20:46.994Z</time>
</trkpt>
<trkpt lat="32.6098000" lon="35.1106500">
<ele>219.470001</ele>
<time>2023-11-30T13:20:46.994Z</time>
</trkpt>
<trkpt lat="32.6098200" lon="35.1106300">
<ele>219.980011</ele>
<time>2023-11-30T13:20:46.994Z</time>
</trkpt>
<trkpt lat="32.6099000" lon="35.1106100">
<ele>219.740005</ele>
<time>2023-11-30T13:20:46.994Z</time>
</trkpt>
<trkpt lat="32.6099400" lon="35.1105700">
<ele>221.010010</ele>
<time>2023-11-30T13:20:46.994Z</time>
</trkpt>
<trkpt lat="32.6099600" lon="35.1105400">
<ele>221.430008</ele>
<time>2023-11-30T13:20:46.994Z</time>
</trkpt>
<trkpt lat="32.6099800" lon="35.1105200">
<ele>221.220001</ele>
<time>2023-11-30T13:20:46.994Z</time>
</trkpt>
<trkpt lat="32.6101000" lon="35.1104700">
<ele>219.089996</ele>
<time>2023-11-30T13:20:46.994Z</time>
</trkpt>
<trkpt lat="32.6101600" lon="35.1104400">
<ele>218.690002</ele>
<time>2023-11-30T13:20:46.994Z</time>
</trkpt>
<trkpt lat="32.6102200" lon="35.1104100">
<ele>218.850006</ele>
<time>2023-11-30T13:20:46.994Z</time>
</trkpt>
<trkpt lat="32.6103100" lon="35.1103100">
<ele>220.639999</ele>
<time>2023-11-30T13:20:46.994Z</time>
</trkpt>
<trkpt lat="32.6103300" lon="35.1102900">
<ele>220.159988</ele>
<time>2023-11-30T13:20:46.994Z</time>
</trkpt>
<trkpt lat="32.6103700" lon="35.1102300">
<ele>217.509995</ele>
<time>2023-11-30T13:20:46.994Z</time>
</trkpt>
<trkpt lat="32.6104500" lon="35.1101700">
<ele>212.680008</ele>
<time>2023-11-30T13:20:46.994Z</time>
</trkpt>
<trkpt lat="32.6104900" lon="35.1101300">
<ele>210.710007</ele>
<time>2023-11-30T13:20:46.994Z</time>
</trkpt>
<trkpt lat="32.6105400" lon="35.1100600">
<ele>208.960007</ele>
<time>2023-11-30T13:20:46.994Z</time>
</trkpt>
<trkpt lat="32.6105700" lon="35.1099700">
<ele>209.830002</ele>
<time>2023-11-30T13:20:46.994Z</time>
</trkpt>
<trkpt lat="32.6106300" lon="35.1099100">
<ele>211.070007</ele>
<time>2023-11-30T13:20:46.994Z</time>
</trkpt>
<trkpt lat="32.6106700" lon="35.1098500">
<ele>211.990005</ele>
<time>2023-11-30T13:20:46.994Z</time>
</trkpt>
<trkpt lat="32.6106900" lon="35.1097500">
<ele>213.589996</ele>
<time>2023-11-30T13:20:46.994Z</time>
</trkpt>
<trkpt lat="32.6107000" lon="35.1096900">
<ele>214.419998</ele>
<time>2023-11-30T13:20:46.994Z</time>
</trkpt>
<trkpt lat="32.6107000" lon="35.1096500">
<ele>215.100006</ele>
<time>2023-11-30T13:20:46.994Z</time>
</trkpt>
<trkpt lat="32.6106700" lon="35.1096500">
<ele>215.489990</ele>
<time>2023-11-30T13:20:46.994Z</time>
</trkpt>
<trkpt lat="32.6106400" lon="35.1097100">
<ele>215.299988</ele>
<time>2023-11-30T13:20:46.994Z</time>
</trkpt>
<trkpt lat="32.6105900" lon="35.1098000">
<ele>214.220001</ele>
<time>2023-11-30T13:20:46.994Z</time>
</trkpt>
<trkpt lat="32.6105800" lon="35.1098300">
<ele>213.569992</ele>
<time>2023-11-30T13:20:46.994Z</time>
</trkpt>
<trkpt lat="32.6105400" lon="35.1098800">
<ele>212.669998</ele>
<time>2023-11-30T13:20:46.994Z</time>
</trkpt>
<trkpt lat="32.6105000" lon="35.1099100">
<ele>212.610001</ele>
<time>2023-11-30T13:20:46.994Z</time>
</trkpt>
<trkpt lat="32.6104700" lon="35.1099600">
<ele>212.389999</ele>
<time>2023-11-30T13:20:46.994Z</time>
</trkpt>
<trkpt lat="32.6104500" lon="35.1100100">
<ele>212.440002</ele>
<time>2023-11-30T13:20:46.994Z</time>
</trkpt>
<trkpt lat="32.6103900" lon="35.1100900">
<ele>215.129990</ele>
<time>2023-11-30T13:20:46.994Z</time>
</trkpt>
<trkpt lat="32.6102600" lon="35.1101500">
<ele>221.200012</ele>
<time>2023-11-30T13:20:46.994Z</time>
</trkpt>
<trkpt lat="32.6101900" lon="35.1102100">
<ele>221.970001</ele>
<time>2023-11-30T13:20:46.994Z</time>
</trkpt>
<trkpt lat="32.6100900" lon="35.1102700">
<ele>221.899994</ele>
<time>2023-11-30T13:20:46.994Z</time>
</trkpt>
<trkpt lat="32.6100500" lon="35.1102800">
<ele>221.520004</ele>
<time>2023-11-30T13:20:46.994Z</time>
</trkpt>
<trkpt lat="32.6099800" lon="35.1102900">
<ele>221.220001</ele>
<time>2023-11-30T13:20:46.994Z</time>
</trkpt>
<trkpt lat="32.6099300" lon="35.1103100">
<ele>221.760010</ele>
<time>2023-11-30T13:20:46.994Z</time>
</trkpt>
<trkpt lat="32.6097800" lon="35.1103200">
<ele>223.380005</ele>
<time>2023-11-30T13:20:46.994Z</time>
</trkpt>
<trkpt lat="32.6097400" lon="35.1103200">
<ele>223.809998</ele>
<time>2023-11-30T13:20:46.994Z</time>
</trkpt>
<trkpt lat="32.6097100" lon="35.1103200">
<ele>224.419998</ele>
<time>2023-11-30T13:20:46.994Z</time>
</trkpt>
<trkpt lat="32.6096100" lon="35.1103000">
<ele>227.940002</ele>
<time>2023-11-30T13:20:46.994Z</time>
</trkpt>
<trkpt lat="32.6095700" lon="35.1102800">
<ele>229.469986</ele>
<time>2023-11-30T13:20:46.994Z</time>
</trkpt>
<trkpt lat="32.6095400" lon="35.1102500">
<ele>230.160004</ele>
<time>2023-11-30T13:20:46.994Z</time>
</trkpt>
<trkpt lat="32.6094600" lon="35.1102000">
<ele>232.319992</ele>
<time>2023-11-30T13:20:46.994Z</time>
</trkpt>
<trkpt lat="32.6094300" lon="35.1101700">
<ele>232.509995</ele>
<time>2023-11-30T13:20:46.994Z</time>
</trkpt>
<trkpt lat="32.6093400" lon="35.1101300">
<ele>232.470001</ele>
<time>2023-11-30T13:20:46.994Z</time>
</trkpt>
<trkpt lat="32.6093100" lon="35.1101000">
<ele>232.369995</ele>
<time>2023-11-30T13:20:46.994Z</time>
</trkpt>
<trkpt lat="32.6092400" lon="35.1099800">
<ele>232.140015</ele>
<time>2023-11-30T13:20:46.994Z</time>
</trkpt>
<trkpt lat="32.6092200" lon="35.1099300">
<ele>232.169998</ele>
<time>2023-11-30T13:20:46.994Z</time>
</trkpt>
<trkpt lat="32.6092000" lon="35.1098900">
<ele>232.240005</ele>
<time>2023-11-30T13:20:46.994Z</time>
</trkpt>
<trkpt lat="32.6091700" lon="35.1098600">
<ele>232.460007</ele>
<time>2023-11-30T13:20:46.994Z</time>
</trkpt>
<trkpt lat="32.6090500" lon="35.1098100">
<ele>232.429993</ele>
<time>2023-11-30T13:20:46.994Z</time>
</trkpt>
<trkpt lat="32.6089800" lon="35.1097500">
<ele>231.699997</ele>
<time>2023-11-30T13:20:46.994Z</time>
</trkpt>
<trkpt lat="32.6088600" lon="35.1096500">
<ele>230.170013</ele>
<time>2023-11-30T13:20:46.994Z</time>
</trkpt>
<trkpt lat="32.6088200" lon="35.1096100">
<ele>229.449997</ele>
<time>2023-11-30T13:20:46.994Z</time>
</trkpt>
<trkpt lat="32.6087600" lon="35.1094600">
<ele>227.720001</ele>
<time>2023-11-30T13:20:46.994Z</time>
</trkpt>
<trkpt lat="32.6087400" lon="35.1094100">
<ele>227.450012</ele>
<time>2023-11-30T13:20:46.994Z</time>
</trkpt>
<trkpt lat="32.6087100" lon="35.1093300">
<ele>227.210007</ele>
<time>2023-11-30T13:20:46.994Z</time>
</trkpt>
<trkpt lat="32.6087000" lon="35.1093000">
<ele>227.130005</ele>
<time>2023-11-30T13:20:46.994Z</time>
</trkpt>
<trkpt lat="32.6086700" lon="35.1092600">
<ele>226.779999</ele>
<time>2023-11-30T13:20:46.994Z</time>
</trkpt>
<trkpt lat="32.6086500" lon="35.1092300">
<ele>226.529999</ele>
<time>2023-11-30T13:20:46.994Z</time>
</trkpt>
<trkpt lat="32.6086400" lon="35.1091900">
<ele>226.409988</ele>
<time>2023-11-30T13:20:46.994Z</time>
</trkpt>
<trkpt lat="32.6086400" lon="35.1091500">
<ele>226.429993</ele>
<time>2023-11-30T13:20:46.994Z</time>
</trkpt>
<trkpt lat="32.6086300" lon="35.1090800">
<ele>226.340012</ele>
<time>2023-11-30T13:20:46.994Z</time>
</trkpt>
<trkpt lat="32.6086300" lon="35.1090500">
<ele>226.360001</ele>
<time>2023-11-30T13:20:46.994Z</time>
</trkpt>
<trkpt lat="32.6086200" lon="35.1090100">
<ele>226.179993</ele>
<time>2023-11-30T13:20:46.994Z</time>
</trkpt>
<trkpt lat="32.6086200" lon="35.1089800">
<ele>226.190002</ele>
<time>2023-11-30T13:20:46.994Z</time>
</trkpt>
<trkpt lat="32.6086000" lon="35.1088600">
<ele>225.619995</ele>
<time>2023-11-30T13:20:46.994Z</time>
</trkpt>
<trkpt lat="32.6085900" lon="35.1087300">
<ele>224.900009</ele>
<time>2023-11-30T13:20:46.994Z</time>
</trkpt>
<trkpt lat="32.6085800" lon="35.1087000">
<ele>224.540009</ele>
<time>2023-11-30T13:20:46.994Z</time>
</trkpt>
<trkpt lat="32.6085700" lon="35.1086600">
<ele>224.139999</ele>
<time>2023-11-30T13:20:46.994Z</time>
</trkpt>
<trkpt lat="32.6085600" lon="35.1086200">
<ele>223.740005</ele>
<time>2023-11-30T13:20:46.994Z</time>
</trkpt>
<trkpt lat="32.6085500" lon="35.1085500">
<ele>222.239990</ele>
<time>2023-11-30T13:20:46.994Z</time>
</trkpt>
<trkpt lat="32.6085300" lon="35.1084600">
<ele>220.009995</ele>
<time>2023-11-30T13:20:46.994Z</time>
</trkpt>
<trkpt lat="32.6085100" lon="35.1083600">
<ele>217.690002</ele>
<time>2023-11-30T13:20:46.994Z</time>
</trkpt>
<trkpt lat="32.6085100" lon="35.1082700">
<ele>217.549988</ele>
<time>2023-11-30T13:20:46.994Z</time>
</trkpt>
<trkpt lat="32.6085100" lon="35.1082200">
<ele>217.849991</ele>
<time>2023-11-30T13:20:46.994Z</time>
</trkpt>
<trkpt lat="32.6085000" lon="35.1081800">
<ele>217.880005</ele>
<time>2023-11-30T13:20:46.994Z</time>
</trkpt>
<trkpt lat="32.6085000" lon="35.1081300">
<ele>218.169998</ele>
<time>2023-11-30T13:20:46.994Z</time>
</trkpt>
<trkpt lat="32.6084800" lon="35.1081100">
<ele>217.869995</ele>
<time>2023-11-30T13:20:46.994Z</time>
</trkpt>
<trkpt lat="32.6084200" lon="35.1081200">
<ele>216.569992</ele>
<time>2023-11-30T13:20:46.994Z</time>
</trkpt>
<trkpt lat="32.6083900" lon="35.1081800">
<ele>215.680008</ele>
<time>2023-11-30T13:20:46.994Z</time>
</trkpt>
<trkpt lat="32.6083700" lon="35.1082500">
<ele>215.000000</ele>
<time>2023-11-30T13:20:46.994Z</time>
</trkpt>
<trkpt lat="32.6083300" lon="35.1083600">
<ele>214.370010</ele>
<time>2023-11-30T13:20:46.994Z</time>
</trkpt>
<trkpt lat="32.6083100" lon="35.1084600">
<ele>215.510010</ele>
<time>2023-11-30T13:20:46.994Z</time>
</trkpt>
<trkpt lat="32.6083100" lon="35.1086100">
<ele>217.399994</ele>
<time>2023-11-30T13:20:46.994Z</time>
</trkpt>
<trkpt lat="32.6083100" lon="35.1086600">
<ele>217.600006</ele>
<time>2023-11-30T13:20:46.994Z</time>
</trkpt>
<trkpt lat="32.6083100" lon="35.1087100">
<ele>217.800003</ele>
<time>2023-11-30T13:20:46.994Z</time>
</trkpt>
<trkpt lat="32.6083200" lon="35.1087600">
<ele>218.229996</ele>
<time>2023-11-30T13:20:46.994Z</time>
</trkpt>
<trkpt lat="32.6083400" lon="35.1088500">
<ele>219.029999</ele>
<time>2023-11-30T13:20:46.994Z</time>
</trkpt>
<trkpt lat="32.6083600" lon="35.1089500">
<ele>219.869995</ele>
<time>2023-11-30T13:20:46.994Z</time>
</trkpt>
<trkpt lat="32.6083700" lon="35.1090000">
<ele>220.270004</ele>
<time>2023-11-30T13:20:46.994Z</time>
</trkpt>
<trkpt lat="32.6083900" lon="35.1091200">
<ele>221.089996</ele>
<time>2023-11-30T13:20:46.994Z</time>
</trkpt>
<trkpt lat="32.6084100" lon="35.1091600">
<ele>221.639999</ele>
<time>2023-11-30T13:20:46.994Z</time>
</trkpt>
<trkpt lat="32.6085100" lon="35.1094300">
<ele>224.159988</ele>
<time>2023-11-30T13:20:46.994Z</time>
</trkpt>
<trkpt lat="32.6086000" lon="35.1096100">
<ele>227.020004</ele>
<time>2023-11-30T13:20:46.994Z</time>
</trkpt>
<trkpt lat="32.6086900" lon="35.1097900">
<ele>229.550003</ele>
<time>2023-11-30T13:20:46.994Z</time>
</trkpt>
<trkpt lat="32.6088000" lon="35.1099600">
<ele>233.500000</ele>
<time>2023-11-30T13:20:46.994Z</time>
</trkpt>
<trkpt lat="32.6089400" lon="35.1102400">
<ele>231.380005</ele>
<time>2023-11-30T13:20:46.994Z</time>
</trkpt>
<trkpt lat="32.6089900" lon="35.1104100">
<ele>231.110001</ele>
<time>2023-11-30T13:20:46.994Z</time>
</trkpt>
<trkpt lat="32.6090100" lon="35.1104400">
<ele>231.229996</ele>
<time>2023-11-30T13:20:46.994Z</time>
</trkpt>
<trkpt lat="32.6090200" lon="35.1104700">
<ele>231.229996</ele>
<time>2023-11-30T13:20:46.994Z</time>
</trkpt>
<trkpt lat="32.6090400" lon="35.1105400">
<ele>231.150009</ele>
<time>2023-11-30T13:20:46.994Z</time>
</trkpt>
<trkpt lat="32.6090400" lon="35.1107300">
<ele>225.489990</ele>
<time>2023-11-30T13:20:46.994Z</time>
</trkpt>
<trkpt lat="32.6090400" lon="35.1107700">
<ele>224.209991</ele>
<time>2023-11-30T13:20:46.994Z</time>
</trkpt>
<trkpt lat="32.6089900" lon="35.1107700">
<ele>223.570007</ele>
<time>2023-11-30T13:20:46.994Z</time>
</trkpt>
<trkpt lat="32.6089500" lon="35.1107700">
<ele>223.059998</ele>
<time>2023-11-30T13:20:46.994Z</time>
</trkpt>
<trkpt lat="32.6089100" lon="35.1107800">
<ele>222.189987</ele>
<time>2023-11-30T13:20:46.994Z</time>
</trkpt>
<trkpt lat="32.6089000" lon="35.1108500">
<ele>219.740005</ele>
<time>2023-11-30T13:20:46.994Z</time>
</trkpt>
<trkpt lat="32.6089000" lon="35.1109500">
<ele>217.220001</ele>
<time>2023-11-30T13:20:46.994Z</time>
</trkpt>
<trkpt lat="32.6089100" lon="35.1110100">
<ele>215.850006</ele>
<time>2023-11-30T13:20:46.994Z</time>
</trkpt>
<trkpt lat="32.6089300" lon="35.1110500">
<ele>215.129990</ele>
<time>2023-11-30T13:20:46.994Z</time>
</trkpt>
<trkpt lat="32.6089600" lon="35.1111700">
<ele>214.020004</ele>
<time>2023-11-30T13:20:46.994Z</time>
</trkpt>
<trkpt lat="32.6089700" lon="35.1112000">
<ele>214.110001</ele>
<time>2023-11-30T13:20:46.994Z</time>
</trkpt>
<trkpt lat="32.6089700" lon="35.1112400">
<ele>214.089996</ele>
<time>2023-11-30T13:20:46.994Z</time>
</trkpt>
<trkpt lat="32.6089300" lon="35.1112500">
<ele>213.799988</ele>
<time>2023-11-30T13:20:46.994Z</time>
</trkpt>
<trkpt lat="32.6088800" lon="35.1112500">
<ele>213.470001</ele>
<time>2023-11-30T13:20:46.994Z</time>
</trkpt>
<trkpt lat="32.6087500" lon="35.1111800">
<ele>212.749985</ele>
<time>2023-11-30T13:20:46.994Z</time>
</trkpt>
<trkpt lat="32.6086500" lon="35.1111100">
<ele>212.160004</ele>
<time>2023-11-30T13:20:46.994Z</time>
</trkpt>
<trkpt lat="32.6086300" lon="35.1110900">
<ele>212.389999</ele>
<time>2023-11-30T13:20:46.994Z</time>
</trkpt>
<trkpt lat="32.6085700" lon="35.1110500">
<ele>212.960007</ele>
<time>2023-11-30T13:20:46.994Z</time>
</trkpt>
<trkpt lat="32.6084800" lon="35.1109300">
<ele>214.460007</ele>
<time>2023-11-30T13:20:46.994Z</time>
</trkpt>
<trkpt lat="32.6084500" lon="35.1109000">
<ele>214.740005</ele>
<time>2023-11-30T13:20:46.994Z</time>
</trkpt>
<trkpt lat="32.6084000" lon="35.1108800">
<ele>214.820007</ele>
<time>2023-11-30T13:20:46.994Z</time>
</trkpt>
<trkpt lat="32.6083600" lon="35.1108700">
<ele>214.809998</ele>
<time>2023-11-30T13:20:46.994Z</time>
</trkpt>
<trkpt lat="32.6082900" lon="35.1108300">
<ele>214.220001</ele>
<time>2023-11-30T13:20:46.994Z</time>
</trkpt>
<trkpt lat="32.6081600" lon="35.1106300">
<ele>211.880005</ele>
<time>2023-11-30T13:20:46.994Z</time>
</trkpt>
<trkpt lat="32.6081400" lon="35.1106000">
<ele>211.520004</ele>
<time>2023-11-30T13:20:46.994Z</time>
</trkpt>
<trkpt lat="32.6080700" lon="35.1105000">
<ele>210.279999</ele>
<time>2023-11-30T13:20:46.994Z</time>
</trkpt>
<trkpt lat="32.6079400" lon="35.1102400">
<ele>208.599991</ele>
<time>2023-11-30T13:20:46.994Z</time>
</trkpt>
<trkpt lat="32.6079200" lon="35.1102100">
<ele>208.779999</ele>
<time>2023-11-30T13:20:46.994Z</time>
</trkpt>
<trkpt lat="32.6078700" lon="35.1101300">
<ele>209.320007</ele>
<time>2023-11-30T13:20:46.994Z</time>
</trkpt>
<trkpt lat="32.6078200" lon="35.1100300">
<ele>210.220001</ele>
<time>2023-11-30T13:20:46.994Z</time>
</trkpt>
<trkpt lat="32.6077700" lon="35.1098900">
<ele>209.669998</ele>
<time>2023-11-30T13:20:46.994Z</time>
</trkpt>
<trkpt lat="32.6077400" lon="35.1098500">
<ele>208.360001</ele>
<time>2023-11-30T13:20:46.994Z</time>
</trkpt>
<trkpt lat="32.6077100" lon="35.1098100">
<ele>206.979996</ele>
<time>2023-11-30T13:20:46.994Z</time>
</trkpt>
<trkpt lat="32.6076700" lon="35.1097400">
<ele>205.009995</ele>
<time>2023-11-30T13:20:46.994Z</time>
</trkpt>
<trkpt lat="32.6076200" lon="35.1096100">
<ele>202.730011</ele>
<time>2023-11-30T13:20:46.994Z</time>
</trkpt>
<trkpt lat="32.6075800" lon="35.1095600">
<ele>201.239990</ele>
<time>2023-11-30T13:20:46.994Z</time>
</trkpt>
<trkpt lat="32.6075400" lon="35.1095100">
<ele>199.960007</ele>
<time>2023-11-30T13:20:46.994Z</time>
</trkpt>
<trkpt lat="32.6074800" lon="35.1094200">
<ele>198.349991</ele>
<time>2023-11-30T13:20:46.994Z</time>
</trkpt>
<trkpt lat="32.6074400" lon="35.1093600">
<ele>196.950012</ele>
<time>2023-11-30T13:20:46.994Z</time>
</trkpt>
<trkpt lat="32.6074100" lon="35.1093300">
<ele>195.770004</ele>
<time>2023-11-30T13:20:46.994Z</time>
</trkpt>
<trkpt lat="32.6073900" lon="35.1093100">
<ele>194.949997</ele>
<time>2023-11-30T13:20:46.994Z</time>
</trkpt>
<trkpt lat="32.6072900" lon="35.1089900">
<ele>193.520004</ele>
<time>2023-11-30T13:20:46.994Z</time>
</trkpt>
<trkpt lat="32.6072800" lon="35.1089200">
<ele>194.479996</ele>
<time>2023-11-30T13:20:46.994Z</time>
</trkpt>
<trkpt lat="32.6072800" lon="35.1088100">
<ele>194.529999</ele>
<time>2023-11-30T13:20:46.994Z</time>
</trkpt>
<trkpt lat="32.6072800" lon="35.1086900">
<ele>193.710007</ele>
<time>2023-11-30T13:20:46.994Z</time>
</trkpt>
<trkpt lat="32.6072800" lon="35.1086300">
<ele>193.290009</ele>
<time>2023-11-30T13:20:46.994Z</time>
</trkpt>
<trkpt lat="32.6072700" lon="35.1085500">
<ele>191.989990</ele>
<time>2023-11-30T13:20:46.994Z</time>
</trkpt>
<trkpt lat="32.6072600" lon="35.1085200">
<ele>191.119995</ele>
<time>2023-11-30T13:20:46.994Z</time>
</trkpt>
<trkpt lat="32.6072600" lon="35.1084800">
<ele>190.860001</ele>
<time>2023-11-30T13:20:46.994Z</time>
</trkpt>
<trkpt lat="32.6072300" lon="35.1084500">
<ele>188.880005</ele>
<time>2023-11-30T13:20:46.994Z</time>
</trkpt>
<trkpt lat="32.6072000" lon="35.1084400">
<ele>187.729996</ele>
<time>2023-11-30T13:20:46.994Z</time>
</trkpt>
<trkpt lat="32.6071600" lon="35.1084500">
<ele>186.570007</ele>
<time>2023-11-30T13:20:46.994Z</time>
</trkpt>
<trkpt lat="32.6071400" lon="35.1084800">
<ele>185.990005</ele>
<time>2023-11-30T13:20:46.994Z</time>
</trkpt>
<trkpt lat="32.6071400" lon="35.1086000">
<ele>186.039993</ele>
<time>2023-11-30T13:20:46.994Z</time>
</trkpt>
<trkpt lat="32.6071400" lon="35.1086700">
<ele>186.639999</ele>
<time>2023-11-30T13:20:46.994Z</time>
</trkpt>
<trkpt lat="32.6071500" lon="35.1087500">
<ele>187.879990</ele>
<time>2023-11-30T13:20:46.994Z</time>
</trkpt>
<trkpt lat="32.6071600" lon="35.1088100">
<ele>188.979996</ele>
<time>2023-11-30T13:20:46.994Z</time>
</trkpt>
<trkpt lat="32.6071700" lon="35.1089000">
<ele>190.169998</ele>
<time>2023-11-30T13:20:46.994Z</time>
</trkpt>
<trkpt lat="32.6071800" lon="35.1089400">
<ele>189.940002</ele>
<time>2023-11-30T13:20:46.994Z</time>
</trkpt>
<trkpt lat="32.6071900" lon="35.1089700">
<ele>189.830002</ele>
<time>2023-11-30T13:20:46.994Z</time>
</trkpt>
<trkpt lat="32.6072000" lon="35.1090400">
<ele>188.880005</ele>
<time>2023-11-30T13:20:46.994Z</time>
</trkpt>
<trkpt lat="32.6072100" lon="35.1090800">
<ele>188.440002</ele>
<time>2023-11-30T13:20:46.994Z</time>
</trkpt>
<trkpt lat="32.6072200" lon="35.1091900">
<ele>187.100006</ele>
<time>2023-11-30T13:20:46.994Z</time>
</trkpt>
<trkpt lat="32.6072200" lon="35.1092400">
<ele>187.460007</ele>
<time>2023-11-30T13:20:46.994Z</time>
</trkpt>
<trkpt lat="32.6071900" lon="35.1092600">
<ele>186.669998</ele>
<time>2023-11-30T13:20:46.994Z</time>
</trkpt>
<trkpt lat="32.6071500" lon="35.1092600">
<ele>185.419998</ele>
<time>2023-11-30T13:20:46.994Z</time>
</trkpt>
<trkpt lat="32.6071300" lon="35.1092100">
<ele>184.550003</ele>
<time>2023-11-30T13:20:46.994Z</time>
</trkpt>
<trkpt lat="32.6071200" lon="35.1091700">
<ele>184.069992</ele>
<time>2023-11-30T13:20:46.994Z</time>
</trkpt>
<trkpt lat="32.6070900" lon="35.1091000">
<ele>183.949997</ele>
<time>2023-11-30T13:20:46.994Z</time>
</trkpt>
<trkpt lat="32.6070300" lon="35.1090300">
<ele>182.370010</ele>
<time>2023-11-30T13:20:46.994Z</time>
</trkpt>
<trkpt lat="32.6069400" lon="35.1089300">
<ele>178.959991</ele>
<time>2023-11-30T13:20:46.994Z</time>
</trkpt>
<trkpt lat="32.6069200" lon="35.1089100">
<ele>178.750000</ele>
<time>2023-11-30T13:20:46.994Z</time>
</trkpt>
<trkpt lat="32.6068900" lon="35.1089000">
<ele>178.430008</ele>
<time>2023-11-30T13:20:46.994Z</time>
</trkpt>
<trkpt lat="32.6068900" lon="35.1089700">
<ele>178.529999</ele>
<time>2023-11-30T13:20:46.994Z</time>
</trkpt>
<trkpt lat="32.6068900" lon="35.1090400">
<ele>178.630005</ele>
<time>2023-11-30T13:20:46.994Z</time>
</trkpt>
<trkpt lat="32.6068900" lon="35.1091500">
<ele>178.780014</ele>
<time>2023-11-30T13:20:46.994Z</time>
</trkpt>
<trkpt lat="32.6068700" lon="35.1092000">
<ele>178.600006</ele>
<time>2023-11-30T13:20:46.994Z</time>
</trkpt>
<trkpt lat="32.6068000" lon="35.1092100">
<ele>178.160004</ele>
<time>2023-11-30T13:20:46.994Z</time>
</trkpt>
<trkpt lat="32.6067400" lon="35.1091900">
<ele>178.020004</ele>
<time>2023-11-30T13:20:46.994Z</time>
</trkpt>
<trkpt lat="32.6067100" lon="35.1091100">
<ele>177.809998</ele>
<time>2023-11-30T13:20:46.994Z</time>
</trkpt>
<trkpt lat="32.6066800" lon="35.1090600">
<ele>177.320007</ele>
<time>2023-11-30T13:20:46.994Z</time>
</trkpt>
<trkpt lat="32.6066600" lon="35.1090200">
<ele>177.040009</ele>
<time>2023-11-30T13:20:46.994Z</time>
</trkpt>
<trkpt lat="32.6067100" lon="35.1090900">
<ele>177.689987</ele>
<time>2023-11-30T13:20:46.994Z</time>
</trkpt>
<trkpt lat="32.6067500" lon="35.1091900">
<ele>178.059998</ele>
<time>2023-11-30T13:20:46.994Z</time>
</trkpt>
<trkpt lat="32.6067900" lon="35.1092100">
<ele>178.099991</ele>
<time>2023-11-30T13:20:46.994Z</time>
</trkpt>
<trkpt lat="32.6068700" lon="35.1092200">
<ele>178.529999</ele>
<time>2023-11-30T13:20:46.994Z</time>
</trkpt>
<trkpt lat="32.6069000" lon="35.1092200">
<ele>178.719986</ele>
<time>2023-11-30T13:20:46.994Z</time>
</trkpt>
<trkpt lat="32.6069000" lon="35.1091200">
<ele>178.789993</ele>
<time>2023-11-30T13:20:46.994Z</time>
</trkpt>
<trkpt lat="32.6069000" lon="35.1089700">
<ele>178.609985</ele>
<time>2023-11-30T13:20:46.994Z</time>
</trkpt>
<trkpt lat="32.6068800" lon="35.1088900">
<ele>178.310013</ele>
<time>2023-11-30T13:20:46.994Z</time>
</trkpt>
<trkpt lat="32.6068500" lon="35.1088500">
<ele>178.030014</ele>
<time>2023-11-30T13:20:46.994Z</time>
</trkpt>
<trkpt lat="32.6067900" lon="35.1087500">
<ele>177.610001</ele>
<time>2023-11-30T13:20:46.994Z</time>
</trkpt>
<trkpt lat="32.6067000" lon="35.1084500">
<ele>178.909988</ele>
<time>2023-11-30T13:20:46.994Z</time>
</trkpt>
<trkpt lat="32.6066800" lon="35.1084200">
<ele>179.129990</ele>
<time>2023-11-30T13:20:46.994Z</time>
</trkpt>
<trkpt lat="32.6066600" lon="35.1083300">
<ele>180.119995</ele>
<time>2023-11-30T13:20:46.994Z</time>
</trkpt>
<trkpt lat="32.6066000" lon="35.1081900">
<ele>182.410004</ele>
<time>2023-11-30T13:20:46.994Z</time>
</trkpt>
<trkpt lat="32.6065100" lon="35.1080500">
<ele>183.970001</ele>
<time>2023-11-30T13:20:46.994Z</time>
</trkpt>
<trkpt lat="32.6064500" lon="35.1079300">
<ele>183.599991</ele>
<time>2023-11-30T13:20:46.994Z</time>
</trkpt>
<trkpt lat="32.6064300" lon="35.1079100">
<ele>183.690002</ele>
<time>2023-11-30T13:20:46.994Z</time>
</trkpt>
<trkpt lat="32.6064100" lon="35.1078800">
<ele>183.810013</ele>
<time>2023-11-30T13:20:46.994Z</time>
</trkpt>
<trkpt lat="32.6063800" lon="35.1078600">
<ele>184.139999</ele>
<time>2023-11-30T13:20:46.994Z</time>
</trkpt>
<trkpt lat="32.6063500" lon="35.1078200">
<ele>184.660004</ele>
<time>2023-11-30T13:20:46.994Z</time>
</trkpt>
<trkpt lat="32.6062500" lon="35.1077400">
<ele>186.429993</ele>
<time>2023-11-30T13:20:46.994Z</time>
</trkpt>
<trkpt lat="32.6061800" lon="35.1077000">
<ele>187.830002</ele>
<time>2023-11-30T13:20:46.994Z</time>
</trkpt>
<trkpt lat="32.6061100" lon="35.1076600">
<ele>189.470001</ele>
<time>2023-11-30T13:20:46.994Z</time>
</trkpt>
<trkpt lat="32.6060600" lon="35.1076300">
<ele>191.740005</ele>
<time>2023-11-30T13:20:46.994Z</time>
</trkpt>
<trkpt lat="32.6060200" lon="35.1076100">
<ele>193.539993</ele>
<time>2023-11-30T13:20:46.994Z</time>
</trkpt>
<trkpt lat="32.6059900" lon="35.1076000">
<ele>194.870010</ele>
<time>2023-11-30T13:20:46.994Z</time>
</trkpt>
<trkpt lat="32.6059400" lon="35.1075600">
<ele>197.180008</ele>
<time>2023-11-30T13:20:46.994Z</time>
</trkpt>
<trkpt lat="32.6058800" lon="35.1075200">
<ele>199.909988</ele>
<time>2023-11-30T13:20:46.994Z</time>
</trkpt>
<trkpt lat="32.6058300" lon="35.1074700">
<ele>202.000000</ele>
<time>2023-11-30T13:20:46.994Z</time>
</trkpt>
<trkpt lat="32.6055900" lon="35.1072200">
<ele>199.419998</ele>
<time>2023-11-30T13:20:46.994Z</time>
</trkpt>
<trkpt lat="32.6054300" lon="35.1071100">
<ele>201.989990</ele>
<time>2023-11-30T13:20:46.994Z</time>
</trkpt>
<trkpt lat="32.6053900" lon="35.1070800">
<ele>202.219986</ele>
<time>2023-11-30T13:20:46.994Z</time>
</trkpt>
<trkpt lat="32.6053300" lon="35.1070500">
<ele>202.059998</ele>
<time>2023-11-30T13:20:46.994Z</time>
</trkpt>
<trkpt lat="32.6053100" lon="35.1070300">
<ele>201.870010</ele>
<time>2023-11-30T13:20:46.994Z</time>
</trkpt>
<trkpt lat="32.6051000" lon="35.1069200">
<ele>204.139999</ele>
<time>2023-11-30T13:20:46.994Z</time>
</trkpt>
<trkpt lat="32.6050800" lon="35.1069000">
<ele>204.449997</ele>
<time>2023-11-30T13:20:46.994Z</time>
</trkpt>
<trkpt lat="32.6050400" lon="35.1068700">
<ele>205.050003</ele>
<time>2023-11-30T13:20:46.994Z</time>
</trkpt>
<trkpt lat="32.6049500" lon="35.1068100">
<ele>204.700012</ele>
<time>2023-11-30T13:20:46.994Z</time>
</trkpt>
<trkpt lat="32.6049100" lon="35.1067900">
<ele>204.000000</ele>
<time>2023-11-30T13:20:46.994Z</time>
</trkpt>
<trkpt lat="32.6048600" lon="35.1067600">
<ele>203.149994</ele>
<time>2023-11-30T13:20:46.994Z</time>
</trkpt>
<trkpt lat="32.6048300" lon="35.1067400">
<ele>202.649994</ele>
<time>2023-11-30T13:20:46.994Z</time>
</trkpt>
<trkpt lat="32.6047900" lon="35.1067200">
<ele>202.020004</ele>
<time>2023-11-30T13:20:46.994Z</time>
</trkpt>
<trkpt lat="32.6047700" lon="35.1067000">
<ele>201.709991</ele>
<time>2023-11-30T13:20:46.994Z</time>
</trkpt>
<trkpt lat="32.6047200" lon="35.1066900">
<ele>200.979996</ele>
<time>2023-11-30T13:20:46.994Z</time>
</trkpt>
<trkpt lat="32.6046600" lon="35.1066800">
<ele>200.330002</ele>
<time>2023-11-30T13:20:46.994Z</time>
</trkpt>
<trkpt lat="32.6046000" lon="35.1066700">
<ele>199.679993</ele>
<time>2023-11-30T13:20:46.994Z</time>
</trkpt>
<trkpt lat="32.6045200" lon="35.1066700">
<ele>198.819992</ele>
<time>2023-11-30T13:20:46.994Z</time>
</trkpt>
<trkpt lat="32.6044900" lon="35.1066700">
<ele>198.490005</ele>
<time>2023-11-30T13:20:46.994Z</time>
</trkpt>
<trkpt lat="32.6044400" lon="35.1066600">
<ele>197.980011</ele>
<time>2023-11-30T13:20:46.994Z</time>
</trkpt>
<trkpt lat="32.6044100" lon="35.1066600">
<ele>197.649994</ele>
<time>2023-11-30T13:20:46.994Z</time>
</trkpt>
<trkpt lat="32.6043800" lon="35.1066600">
<ele>197.319992</ele>
<time>2023-11-30T13:20:46.994Z</time>
</trkpt>
<trkpt lat="32.6043300" lon="35.1066600">
<ele>196.780014</ele>
<time>2023-11-30T13:20:46.994Z</time>
</trkpt>
<trkpt lat="32.6042800" lon="35.1066500">
<ele>196.250000</ele>
<time>2023-11-30T13:20:46.994Z</time>
</trkpt>
<trkpt lat="32.6042200" lon="35.1066400">
<ele>195.589996</ele>
<time>2023-11-30T13:20:46.994Z</time>
</trkpt>
<trkpt lat="32.6041600" lon="35.1066400">
<ele>194.970001</ele>
<time>2023-11-30T13:20:46.994Z</time>
</trkpt>
<trkpt lat="32.6041200" lon="35.1066400">
<ele>194.779999</ele>
<time>2023-11-30T13:20:46.994Z</time>
</trkpt>
<trkpt lat="32.6039700" lon="35.1066700">
<ele>194.340012</ele>
<time>2023-11-30T13:20:46.994Z</time>
</trkpt>
<trkpt lat="32.6039400" lon="35.1066800">
<ele>194.409988</ele>
<time>2023-11-30T13:20:46.994Z</time>
</trkpt>
<trkpt lat="32.6038600" lon="35.1067200">
<ele>195.119995</ele>
<time>2023-11-30T13:20:46.994Z</time>
</trkpt>
<trkpt lat="32.6038300" lon="35.1067400">
<ele>195.699997</ele>
<time>2023-11-30T13:20:46.994Z</time>
</trkpt>
<trkpt lat="32.6037700" lon="35.1067700">
<ele>196.770004</ele>
<time>2023-11-30T13:20:46.994Z</time>
</trkpt>
<trkpt lat="32.6037300" lon="35.1068000">
<ele>197.800003</ele>
<time>2023-11-30T13:20:46.994Z</time>
</trkpt>
<trkpt lat="32.6036800" lon="35.1068300">
<ele>199.020004</ele>
<time>2023-11-30T13:20:46.994Z</time>
</trkpt>
<trkpt lat="32.6036600" lon="35.1068600">
<ele>200.019989</ele>
<time>2023-11-30T13:20:46.994Z</time>
</trkpt>
<trkpt lat="32.6036800" lon="35.1068900">
<ele>200.590012</ele>
<time>2023-11-30T13:20:46.994Z</time>
</trkpt>
<trkpt lat="32.6037300" lon="35.1069300">
<ele>200.940002</ele>
<time>2023-11-30T13:20:46.994Z</time>
</trkpt>
<trkpt lat="32.6037800" lon="35.1069600">
<ele>201.060013</ele>
<time>2023-11-30T13:20:46.994Z</time>
</trkpt>
<trkpt lat="32.6039000" lon="35.1070000">
<ele>200.940002</ele>
<time>2023-11-30T13:20:46.994Z</time>
</trkpt>
<trkpt lat="32.6039200" lon="35.1070200">
<ele>201.520004</ele>
<time>2023-11-30T13:20:46.994Z</time>
</trkpt>
<trkpt lat="32.6039500" lon="35.1070300">
<ele>201.660004</ele>
<time>2023-11-30T13:20:46.994Z</time>
</trkpt>
<trkpt lat="32.6040100" lon="35.1070600">
<ele>202.179993</ele>
<time>2023-11-30T13:20:46.994Z</time>
</trkpt>
<trkpt lat="32.6040400" lon="35.1070700">
<ele>202.240005</ele>
<time>2023-11-30T13:20:46.994Z</time>
</trkpt>
<trkpt lat="32.6041500" lon="35.1071000">
<ele>202.080002</ele>
<time>2023-11-30T13:20:46.994Z</time>
</trkpt>
<trkpt lat="32.6042300" lon="35.1071300">
<ele>202.219986</ele>
<time>2023-11-30T13:20:46.994Z</time>
</trkpt>
<trkpt lat="32.6042800" lon="35.1071600">
<ele>202.479996</ele>
<time>2023-11-30T13:20:46.994Z</time>
</trkpt>
<trkpt lat="32.6044400" lon="35.1072300">
<ele>202.240005</ele>
<time>2023-11-30T13:20:46.994Z</time>
</trkpt>
<trkpt lat="32.6044700" lon="35.1072400">
<ele>202.589996</ele>
<time>2023-11-30T13:20:46.994Z</time>
</trkpt>
<trkpt lat="32.6045500" lon="35.1072500">
<ele>203.190002</ele>
<time>2023-11-30T13:20:46.994Z</time>
</trkpt>
<trkpt lat="32.6046200" lon="35.1072700">
<ele>203.710007</ele>
<time>2023-11-30T13:20:46.994Z</time>
</trkpt>
<trkpt lat="32.6046800" lon="35.1072800">
<ele>203.919998</ele>
<time>2023-11-30T13:20:46.994Z</time>
</trkpt>
<trkpt lat="32.6047500" lon="35.1073000">
<ele>204.160004</ele>
<time>2023-11-30T13:20:46.994Z</time>
</trkpt>
<trkpt lat="32.6048400" lon="35.1073400">
<ele>204.779999</ele>
<time>2023-11-30T13:20:46.994Z</time>
</trkpt>
<trkpt lat="32.6050400" lon="35.1074000">
<ele>205.900009</ele>
<time>2023-11-30T13:20:46.994Z</time>
</trkpt>
<trkpt lat="32.6051900" lon="35.1074700">
<ele>204.809998</ele>
<time>2023-11-30T13:20:46.994Z</time>
</trkpt>
<trkpt lat="32.6053600" lon="35.1076000">
<ele>204.420013</ele>
<time>2023-11-30T13:20:46.994Z</time>
</trkpt>
<trkpt lat="32.6054900" lon="35.1076700">
<ele>203.050003</ele>
<time>2023-11-30T13:20:46.994Z</time>
</trkpt>
<trkpt lat="32.6055700" lon="35.1077400">
<ele>201.960007</ele>
<time>2023-11-30T13:20:46.994Z</time>
</trkpt>
<trkpt lat="32.6058600" lon="35.1079200">
<ele>197.899994</ele>
<time>2023-11-30T13:20:46.994Z</time>
</trkpt>
<trkpt lat="32.6059600" lon="35.1079600">
<ele>193.500000</ele>
<time>2023-11-30T13:20:46.994Z</time>
</trkpt>
<trkpt lat="32.6060300" lon="35.1080200">
<ele>190.250000</ele>
<time>2023-11-30T13:20:46.994Z</time>
</trkpt>
<trkpt lat="32.6061200" lon="35.1080800">
<ele>186.820007</ele>
<time>2023-11-30T13:20:46.994Z</time>
</trkpt>
<trkpt lat="32.6062800" lon="35.1083000">
<ele>184.300003</ele>
<time>2023-11-30T13:20:46.994Z</time>
</trkpt>
<trkpt lat="32.6063400" lon="35.1084200">
<ele>182.760010</ele>
<time>2023-11-30T13:20:46.994Z</time>
</trkpt>
<trkpt lat="32.6063900" lon="35.1085300">
<ele>180.860001</ele>
<time>2023-11-30T13:20:46.994Z</time>
</trkpt>
<trkpt lat="32.6064400" lon="35.1086300">
<ele>179.440002</ele>
<time>2023-11-30T13:20:46.994Z</time>
</trkpt>
<trkpt lat="32.6064500" lon="35.1086800">
<ele>179.290009</ele>
<time>2023-11-30T13:20:46.994Z</time>
</trkpt>
<trkpt lat="32.6064900" lon="35.1087800">
<ele>178.690002</ele>
<time>2023-11-30T13:20:46.994Z</time>
</trkpt>
<trkpt lat="32.6065400" lon="35.1088800">
<ele>177.839996</ele>
<time>2023-11-30T13:20:46.994Z</time>
</trkpt>
<trkpt lat="32.6066100" lon="35.1090000">
<ele>177.620010</ele>
<time>2023-11-30T13:20:46.994Z</time>
</trkpt>
<trkpt lat="32.6066400" lon="35.1090700">
<ele>177.689987</ele>
<time>2023-11-30T13:20:46.994Z</time>
</trkpt>
<trkpt lat="32.6066800" lon="35.1092300">
<ele>177.179993</ele>
<time>2023-11-30T13:20:46.994Z</time>
</trkpt>
<trkpt lat="32.6066900" lon="35.1094400">
<ele>174.479996</ele>
<time>2023-11-30T13:20:46.994Z</time>
</trkpt>
<trkpt lat="32.6066900" lon="35.1095700">
<ele>173.179993</ele>
<time>2023-11-30T13:20:46.994Z</time>
</trkpt>
<trkpt lat="32.6066800" lon="35.1096600">
<ele>172.019989</ele>
<time>2023-11-30T13:20:46.994Z</time>
</trkpt>
<trkpt lat="32.6066600" lon="35.1097700">
<ele>170.809998</ele>
<time>2023-11-30T13:20:46.994Z</time>
</trkpt>
<trkpt lat="32.6066400" lon="35.1098200">
<ele>170.869995</ele>
<time>2023-11-30T13:20:46.994Z</time>
</trkpt>
<trkpt lat="32.6066100" lon="35.1099000">
<ele>170.759995</ele>
<time>2023-11-30T13:20:46.994Z</time>
</trkpt>
<trkpt lat="32.6065900" lon="35.1099300">
<ele>170.819992</ele>
<time>2023-11-30T13:20:46.994Z</time>
</trkpt>
<trkpt lat="32.6065800" lon="35.1099600">
<ele>170.669998</ele>
<time>2023-11-30T13:20:46.994Z</time>
</trkpt>
<trkpt lat="32.6065500" lon="35.1100200">
<ele>170.479996</ele>
<time>2023-11-30T13:20:46.994Z</time>
</trkpt>
<trkpt lat="32.6065300" lon="35.1101600">
<ele>169.250000</ele>
<time>2023-11-30T13:20:46.994Z</time>
</trkpt>
<trkpt lat="32.6064900" lon="35.1102700">
<ele>168.360001</ele>
<time>2023-11-30T13:20:46.994Z</time>
</trkpt>
<trkpt lat="32.6064300" lon="35.1103700">
<ele>167.759995</ele>
<time>2023-11-30T13:20:46.994Z</time>
</trkpt>
<trkpt lat="32.6064000" lon="35.1105200">
<ele>166.340012</ele>
<time>2023-11-30T13:20:46.994Z</time>
</trkpt>
<trkpt lat="32.6063900" lon="35.1105500">
<ele>166.059998</ele>
<time>2023-11-30T13:20:46.994Z</time>
</trkpt>
<trkpt lat="32.6063500" lon="35.1106100">
<ele>166.979996</ele>
<time>2023-11-30T13:20:46.994Z</time>
</trkpt>
<trkpt lat="32.6062900" lon="35.1106800">
<ele>168.059998</ele>
<time>2023-11-30T13:20:46.994Z</time>
</trkpt>
<trkpt lat="32.6062500" lon="35.1107400">
<ele>168.180008</ele>
<time>2023-11-30T13:20:46.994Z</time>
</trkpt>
<trkpt lat="32.6061700" lon="35.1108300">
<ele>168.019989</ele>
<time>2023-11-30T13:20:46.994Z</time>
</trkpt>
<trkpt lat="32.6061500" lon="35.1108700">
<ele>167.449997</ele>
<time>2023-11-30T13:20:46.994Z</time>
</trkpt>
<trkpt lat="32.6061200" lon="35.1109600">
<ele>165.709991</ele>
<time>2023-11-30T13:20:46.994Z</time>
</trkpt>
<trkpt lat="32.6061000" lon="35.1110100">
<ele>164.739990</ele>
<time>2023-11-30T13:20:46.994Z</time>
</trkpt>
<trkpt lat="32.6060600" lon="35.1110800">
<ele>163.560013</ele>
<time>2023-11-30T13:20:46.994Z</time>
</trkpt>
<trkpt lat="32.6060100" lon="35.1111200">
<ele>163.339996</ele>
<time>2023-11-30T13:20:46.994Z</time>
</trkpt>
<trkpt lat="32.6059700" lon="35.1111500">
<ele>163.540009</ele>
<time>2023-11-30T13:20:46.994Z</time>
</trkpt>
<trkpt lat="32.6059300" lon="35.1111600">
<ele>164.020004</ele>
<time>2023-11-30T13:20:46.994Z</time>
</trkpt>
<trkpt lat="32.6058800" lon="35.1111900">
<ele>164.430008</ele>
<time>2023-11-30T13:20:46.994Z</time>
</trkpt>
<trkpt lat="32.6058500" lon="35.1112200">
<ele>164.559998</ele>
<time>2023-11-30T13:20:46.994Z</time>
</trkpt>
<trkpt lat="32.6058300" lon="35.1112600">
<ele>164.520004</ele>
<time>2023-11-30T13:20:46.994Z</time>
</trkpt>
<trkpt lat="32.6058100" lon="35.1112800">
<ele>165.060013</ele>
<time>2023-11-30T13:20:46.994Z</time>
</trkpt>
<trkpt lat="32.6057700" lon="35.1113000">
<ele>166.300003</ele>
<time>2023-11-30T13:20:46.994Z</time>
</trkpt>
<trkpt lat="32.6057300" lon="35.1113200">
<ele>167.459991</ele>
<time>2023-11-30T13:20:46.994Z</time>
</trkpt>
<trkpt lat="32.6057100" lon="35.1113300">
<ele>168.010010</ele>
<time>2023-11-30T13:20:46.994Z</time>
</trkpt>
<trkpt lat="32.6056600" lon="35.1113500">
<ele>169.389999</ele>
<time>2023-11-30T13:20:46.994Z</time>
</trkpt>
<trkpt lat="32.6056300" lon="35.1113600">
<ele>170.199997</ele>
<time>2023-11-30T13:20:46.994Z</time>
</trkpt>
<trkpt lat="32.6055600" lon="35.1114200">
<ele>170.860001</ele>
<time>2023-11-30T13:20:46.994Z</time>
</trkpt>
<trkpt lat="32.6055200" lon="35.1114400">
<ele>171.899994</ele>
<time>2023-11-30T13:20:46.994Z</time>
</trkpt>
<trkpt lat="32.6054600" lon="35.1114600">
<ele>173.910004</ele>
<time>2023-11-30T13:20:46.994Z</time>
</trkpt>
<trkpt lat="32.6054200" lon="35.1114700">
<ele>175.369995</ele>
<time>2023-11-30T13:20:46.994Z</time>
</trkpt>
<trkpt lat="32.6053500" lon="35.1114900">
<ele>177.869995</ele>
<time>2023-11-30T13:20:46.994Z</time>
</trkpt>
<trkpt lat="32.6053200" lon="35.1115300">
<ele>178.030014</ele>
<time>2023-11-30T13:20:46.994Z</time>
</trkpt>
<trkpt lat="32.6052900" lon="35.1115600">
<ele>178.520004</ele>
<time>2023-11-30T13:20:46.994Z</time>
</trkpt>
<trkpt lat="32.6052500" lon="35.1115800">
<ele>179.970001</ele>
<time>2023-11-30T13:20:46.994Z</time>
</trkpt>
<trkpt lat="32.6051600" lon="35.1116600">
<ele>182.940002</ele>
<time>2023-11-30T13:20:46.994Z</time>
</trkpt>
<trkpt lat="32.6051400" lon="35.1116900">
<ele>183.639984</ele>
<time>2023-11-30T13:20:46.994Z</time>
</trkpt>
<trkpt lat="32.6051100" lon="35.1117500">
<ele>184.710007</ele>
<time>2023-11-30T13:20:46.994Z</time>
</trkpt>
<trkpt lat="32.6050900" lon="35.1118400">
<ele>184.960007</ele>
<time>2023-11-30T13:20:46.994Z</time>
</trkpt>
<trkpt lat="32.6050700" lon="35.1118800">
<ele>185.849991</ele>
<time>2023-11-30T13:20:46.994Z</time>
</trkpt>
<trkpt lat="32.6050400" lon="35.1120500">
<ele>184.330002</ele>
<time>2023-11-30T13:20:46.994Z</time>
</trkpt>
<trkpt lat="32.6050300" lon="35.1121000">
<ele>183.589996</ele>
<time>2023-11-30T13:20:46.994Z</time>
</trkpt>
<trkpt lat="32.6050100" lon="35.1121600">
<ele>183.160004</ele>
<time>2023-11-30T13:20:46.994Z</time>
</trkpt>
<trkpt lat="32.6049800" lon="35.1125600">
<ele>177.620010</ele>
<time>2023-11-30T13:20:46.994Z</time>
</trkpt>
<trkpt lat="32.6049700" lon="35.1126000">
<ele>177.239990</ele>
<time>2023-11-30T13:20:46.994Z</time>
</trkpt>
<trkpt lat="32.6049700" lon="35.1127400">
<ele>174.670013</ele>
<time>2023-11-30T13:20:46.994Z</time>
</trkpt>
<trkpt lat="32.6049700" lon="35.1128900">
<ele>172.949997</ele>
<time>2023-11-30T13:20:46.994Z</time>
</trkpt>
<trkpt lat="32.6049700" lon="35.1131000">
<ele>170.839996</ele>
<time>2023-11-30T13:20:46.994Z</time>
</trkpt>
<trkpt lat="32.6049700" lon="35.1131400">
<ele>170.309998</ele>
<time>2023-11-30T13:20:46.994Z</time>
</trkpt>
<trkpt lat="32.6049800" lon="35.1131800">
<ele>169.589996</ele>
<time>2023-11-30T13:20:46.994Z</time>
</trkpt>
<trkpt lat="32.6049800" lon="35.1132600">
<ele>168.500000</ele>
<time>2023-11-30T13:20:46.994Z</time>
</trkpt>
<trkpt lat="32.6049800" lon="35.1134300">
<ele>165.789993</ele>
<time>2023-11-30T13:20:46.994Z</time>
</trkpt>
<trkpt lat="32.6049800" lon="35.1135400">
<ele>163.840012</ele>
<time>2023-11-30T13:20:46.994Z</time>
</trkpt>
<trkpt lat="32.6049700" lon="35.1136300">
<ele>162.649994</ele>
<time>2023-11-30T13:20:46.994Z</time>
</trkpt>
<trkpt lat="32.6049600" lon="35.1137400">
<ele>161.690002</ele>
<time>2023-11-30T13:20:46.994Z</time>
</trkpt>
<trkpt lat="32.6049500" lon="35.1138100">
<ele>161.160004</ele>
<time>2023-11-30T13:20:46.994Z</time>
</trkpt>
<trkpt lat="32.6049300" lon="35.1139600">
<ele>160.119995</ele>
<time>2023-11-30T13:20:46.994Z</time>
</trkpt>
<trkpt lat="32.6049200" lon="35.1140700">
<ele>159.340012</ele>
<time>2023-11-30T13:20:46.994Z</time>
</trkpt>
<trkpt lat="32.6049100" lon="35.1141600">
<ele>158.680008</ele>
<time>2023-11-30T13:20:46.994Z</time>
</trkpt>
<trkpt lat="32.6048800" lon="35.1142500">
<ele>158.899994</ele>
<time>2023-11-30T13:20:46.994Z</time>
</trkpt>
<trkpt lat="32.6048500" lon="35.1144800">
<ele>158.419998</ele>
<time>2023-11-30T13:20:46.994Z</time>
</trkpt>
<trkpt lat="32.6048100" lon="35.1145700">
<ele>158.290009</ele>
<time>2023-11-30T13:20:46.994Z</time>
</trkpt>
<trkpt lat="32.6047400" lon="35.1146500">
<ele>158.380005</ele>
<time>2023-11-30T13:20:46.994Z</time>
</trkpt>
<trkpt lat="32.6046500" lon="35.1147700">
<ele>158.680008</ele>
<time>2023-11-30T13:20:46.994Z</time>
</trkpt>
<trkpt lat="32.6045700" lon="35.1148500">
<ele>158.180008</ele>
<time>2023-11-30T13:20:46.994Z</time>
</trkpt>
<trkpt lat="32.6044600" lon="35.1149300">
<ele>156.130005</ele>
<time>2023-11-30T13:20:46.994Z</time>
</trkpt>
<trkpt lat="32.6044300" lon="35.1149600">
<ele>155.529999</ele>
<time>2023-11-30T13:20:46.994Z</time>
</trkpt>
<trkpt lat="32.6043500" lon="35.1150100">
<ele>156.370010</ele>
<time>2023-11-30T13:20:46.994Z</time>
</trkpt>
<trkpt lat="32.6043100" lon="35.1150200">
<ele>157.290009</ele>
<time>2023-11-30T13:20:46.994Z</time>
</trkpt>
<trkpt lat="32.6041800" lon="35.1150600">
<ele>159.660004</ele>
<time>2023-11-30T13:20:46.994Z</time>
</trkpt>
<trkpt lat="32.6041400" lon="35.1150600">
<ele>160.800003</ele>
<time>2023-11-30T13:20:46.994Z</time>
</trkpt>
<trkpt lat="32.6041000" lon="35.1150700">
<ele>161.899994</ele>
<time>2023-11-30T13:20:46.994Z</time>
</trkpt>
<trkpt lat="32.6040100" lon="35.1150700">
<ele>164.809998</ele>
<time>2023-11-30T13:20:46.994Z</time>
</trkpt>
<trkpt lat="32.6039700" lon="35.1150600">
<ele>166.389999</ele>
<time>2023-11-30T13:20:46.994Z</time>
</trkpt>
<trkpt lat="32.6038900" lon="35.1150600">
<ele>169.020004</ele>
<time>2023-11-30T13:20:46.994Z</time>
</trkpt>
<trkpt lat="32.6038600" lon="35.1150600">
<ele>169.149994</ele>
<time>2023-11-30T13:20:46.994Z</time>
</trkpt>
<trkpt lat="32.6037700" lon="35.1150700">
<ele>169.160004</ele>
<time>2023-11-30T13:20:46.994Z</time>
</trkpt>
<trkpt lat="32.6035600" lon="35.1150900">
<ele>169.680008</ele>
<time>2023-11-30T13:20:46.994Z</time>
</trkpt>
<trkpt lat="32.6035000" lon="35.1150900">
<ele>170.040009</ele>
<time>2023-11-30T13:20:46.994Z</time>
</trkpt>
<trkpt lat="32.6034000" lon="35.1151000">
<ele>170.509995</ele>
<time>2023-11-30T13:20:46.994Z</time>
</trkpt>
<trkpt lat="32.6033700" lon="35.1151200">
<ele>170.459991</ele>
<time>2023-11-30T13:20:46.994Z</time>
</trkpt>
<trkpt lat="32.6033500" lon="35.1151300">
<ele>170.479996</ele>
<time>2023-11-30T13:20:46.994Z</time>
</trkpt>
<trkpt lat="32.6033200" lon="35.1151600">
<ele>170.289993</ele>
<time>2023-11-30T13:20:46.994Z</time>
</trkpt>
<trkpt lat="32.6032600" lon="35.1152300">
<ele>169.559998</ele>
<time>2023-11-30T13:20:46.994Z</time>
</trkpt>
<trkpt lat="32.6032400" lon="35.1152700">
<ele>169.089996</ele>
<time>2023-11-30T13:20:46.994Z</time>
</trkpt>
<trkpt lat="32.6032200" lon="35.1153100">
<ele>168.890015</ele>
<time>2023-11-30T13:20:46.994Z</time>
</trkpt>
<trkpt lat="32.6031900" lon="35.1153900">
<ele>168.829987</ele>
<time>2023-11-30T13:20:46.994Z</time>
</trkpt>
<trkpt lat="32.6031700" lon="35.1154300">
<ele>168.970001</ele>
<time>2023-11-30T13:20:46.994Z</time>
</trkpt>
<trkpt lat="32.6031600" lon="35.1154900">
<ele>169.089996</ele>
<time>2023-11-30T13:20:46.994Z</time>
</trkpt>
<trkpt lat="32.6031700" lon="35.1156200">
<ele>169.360001</ele>
<time>2023-11-30T13:20:46.994Z</time>
</trkpt>
<trkpt lat="32.6031700" lon="35.1156500">
<ele>169.559998</ele>
<time>2023-11-30T13:20:46.994Z</time>
</trkpt>
<trkpt lat="32.6031900" lon="35.1157600">
<ele>170.029999</ele>
<time>2023-11-30T13:20:46.994Z</time>
</trkpt>
<trkpt lat="32.6032400" lon="35.1157800">
<ele>169.559998</ele>
<time>2023-11-30T13:20:46.994Z</time>
</trkpt>
<trkpt lat="32.6032900" lon="35.1158000">
<ele>169.149994</ele>
<time>2023-11-30T13:20:46.994Z</time>
</trkpt>
<trkpt lat="32.6033700" lon="35.1158000">
<ele>168.890015</ele>
<time>2023-11-30T13:20:46.994Z</time>
</trkpt>
<trkpt lat="32.6034300" lon="35.1157900">
<ele>169.170013</ele>
<time>2023-11-30T13:20:46.994Z</time>
</trkpt>
<trkpt lat="32.6034600" lon="35.1157700">
<ele>169.119995</ele>
<time>2023-11-30T13:20:46.994Z</time>
</trkpt>
<trkpt lat="32.6036800" lon="35.1157500">
<ele>168.559998</ele>
<time>2023-11-30T13:20:46.994Z</time>
</trkpt>
<trkpt lat="32.6038200" lon="35.1157400">
<ele>165.630005</ele>
<time>2023-11-30T13:20:46.994Z</time>
</trkpt>
<trkpt lat="32.6038600" lon="35.1157400">
<ele>164.849991</ele>
<time>2023-11-30T13:20:46.994Z</time>
</trkpt>
<trkpt lat="32.6041300" lon="35.1157400">
<ele>158.830002</ele>
<time>2023-11-30T13:20:46.994Z</time>
</trkpt>
<trkpt lat="32.6043100" lon="35.1157400">
<ele>158.700012</ele>
<time>2023-11-30T13:20:46.994Z</time>
</trkpt>
<trkpt lat="32.6043600" lon="35.1157400">
<ele>158.939987</ele>
<time>2023-11-30T13:20:46.994Z</time>
</trkpt>
<trkpt lat="32.6044400" lon="35.1157400">
<ele>159.330002</ele>
<time>2023-11-30T13:20:46.994Z</time>
</trkpt>
<trkpt lat="32.6045000" lon="35.1157500">
<ele>159.440002</ele>
<time>2023-11-30T13:20:46.994Z</time>
</trkpt>
<trkpt lat="32.6046700" lon="35.1157600">
<ele>160.260010</ele>
<time>2023-11-30T13:20:46.994Z</time>
</trkpt>
<trkpt lat="32.6048200" lon="35.1157600">
<ele>165.250000</ele>
<time>2023-11-30T13:20:46.994Z</time>
</trkpt>
<trkpt lat="32.6048800" lon="35.1157700">
<ele>168.259995</ele>
<time>2023-11-30T13:20:46.994Z</time>
</trkpt>
<trkpt lat="32.6051100" lon="35.1157800">
<ele>173.190002</ele>
<time>2023-11-30T13:20:46.994Z</time>
</trkpt>
<trkpt lat="32.6052800" lon="35.1158100">
<ele>172.069992</ele>
<time>2023-11-30T13:20:46.994Z</time>
</trkpt>
<trkpt lat="32.6053400" lon="35.1158200">
<ele>172.290009</ele>
<time>2023-11-30T13:20:46.994Z</time>
</trkpt>
<trkpt lat="32.6054600" lon="35.1158400">
<ele>172.509995</ele>
<time>2023-11-30T13:20:46.994Z</time>
</trkpt>
<trkpt lat="32.6055800" lon="35.1159200">
<ele>173.689987</ele>
<time>2023-11-30T13:20:46.994Z</time>
</trkpt>
<trkpt lat="32.6057300" lon="35.1159700">
<ele>174.799988</ele>
<time>2023-11-30T13:20:46.994Z</time>
</trkpt>
<trkpt lat="32.6057800" lon="35.1159900">
<ele>174.970001</ele>
<time>2023-11-30T13:20:46.994Z</time>
</trkpt>
<trkpt lat="32.6058600" lon="35.1160300">
<ele>174.970001</ele>
<time>2023-11-30T13:20:46.994Z</time>
</trkpt>
<trkpt lat="32.6058900" lon="35.1160500">
<ele>174.960007</ele>
<time>2023-11-30T13:20:46.994Z</time>
</trkpt>
<trkpt lat="32.6059200" lon="35.1160700">
<ele>174.949997</ele>
<time>2023-11-30T13:20:46.994Z</time>
</trkpt>
<trkpt lat="32.6059400" lon="35.1160900">
<ele>174.970001</ele>
<time>2023-11-30T13:20:46.994Z</time>
</trkpt>
<trkpt lat="32.6059700" lon="35.1161100">
<ele>175.000000</ele>
<time>2023-11-30T13:20:46.994Z</time>
</trkpt>
<trkpt lat="32.6060100" lon="35.1161400">
<ele>174.840012</ele>
<time>2023-11-30T13:20:46.994Z</time>
</trkpt>
<trkpt lat="32.6060300" lon="35.1161600">
<ele>174.679993</ele>
<time>2023-11-30T13:20:46.994Z</time>
</trkpt>
<trkpt lat="32.6060000" lon="35.1161200">
<ele>174.960007</ele>
<time>2023-11-30T13:20:46.994Z</time>
</trkpt>
<trkpt lat="32.6059500" lon="35.1160800">
<ele>174.949997</ele>
<time>2023-11-30T13:20:46.994Z</time>
</trkpt>
<trkpt lat="32.6058200" lon="35.1160200">
<ele>175.019989</ele>
<time>2023-11-30T13:20:46.994Z</time>
</trkpt>
<trkpt lat="32.6057700" lon="35.1159900">
<ele>174.960007</ele>
<time>2023-11-30T13:20:46.994Z</time>
</trkpt>
<trkpt lat="32.6057400" lon="35.1159800">
<ele>174.880005</ele>
<time>2023-11-30T13:20:46.994Z</time>
</trkpt>
<trkpt lat="32.6057200" lon="35.1159600">
<ele>174.710007</ele>
<time>2023-11-30T13:20:46.994Z</time>
</trkpt>
<trkpt lat="32.6056500" lon="35.1159200">
<ele>174.050003</ele>
<time>2023-11-30T13:20:46.994Z</time>
</trkpt>
<trkpt lat="32.6055600" lon="35.1159100">
<ele>173.409988</ele>
<time>2023-11-30T13:20:46.994Z</time>
</trkpt>
<trkpt lat="32.6055400" lon="35.1159000">
<ele>173.320007</ele>
<time>2023-11-30T13:20:46.994Z</time>
</trkpt>
<trkpt lat="32.6054800" lon="35.1158800">
<ele>173.340012</ele>
<time>2023-11-30T13:20:46.994Z</time>
</trkpt>
<trkpt lat="32.6054500" lon="35.1158700">
<ele>173.289993</ele>
<time>2023-11-30T13:20:46.994Z</time>
</trkpt>
<trkpt lat="32.6053700" lon="35.1158500">
<ele>173.170013</ele>
<time>2023-11-30T13:20:46.994Z</time>
</trkpt>
<trkpt lat="32.6053400" lon="35.1158400">
<ele>172.990005</ele>
<time>2023-11-30T13:20:46.994Z</time>
</trkpt>
<trkpt lat="32.6052800" lon="35.1158300">
<ele>172.860001</ele>
<time>2023-11-30T13:20:46.994Z</time>
</trkpt>
<trkpt lat="32.6052500" lon="35.1158200">
<ele>172.870010</ele>
<time>2023-11-30T13:20:46.994Z</time>
</trkpt>
<trkpt lat="32.6052200" lon="35.1158200">
<ele>173.289993</ele>
<time>2023-11-30T13:20:46.994Z</time>
</trkpt>
<trkpt lat="32.6050600" lon="35.1158200">
<ele>175.570007</ele>
<time>2023-11-30T13:20:46.994Z</time>
</trkpt>
<trkpt lat="32.6050400" lon="35.1158800">
<ele>176.669998</ele>
<time>2023-11-30T13:20:46.994Z</time>
</trkpt>
<trkpt lat="32.6050500" lon="35.1159200">
<ele>176.839996</ele>
<time>2023-11-30T13:20:46.994Z</time>
</trkpt>
<trkpt lat="32.6050700" lon="35.1159400">
<ele>176.960007</ele>
<time>2023-11-30T13:20:46.994Z</time>
</trkpt>
<trkpt lat="32.6051000" lon="35.1159700">
<ele>177.330002</ele>
<time>2023-11-30T13:20:46.994Z</time>
</trkpt>
<trkpt lat="32.6051400" lon="35.1160000">
<ele>178.010010</ele>
<time>2023-11-30T13:20:46.994Z</time>
</trkpt>
<trkpt lat="32.6051900" lon="35.1160400">
<ele>179.350006</ele>
<time>2023-11-30T13:20:46.994Z</time>
</trkpt>
<trkpt lat="32.6052600" lon="35.1160600">
<ele>180.889999</ele>
<time>2023-11-30T13:20:46.994Z</time>
</trkpt>
<trkpt lat="32.6053500" lon="35.1161100">
<ele>181.410004</ele>
<time>2023-11-30T13:20:46.994Z</time>
</trkpt>
<trkpt lat="32.6053800" lon="35.1161200">
<ele>180.709991</ele>
<time>2023-11-30T13:20:46.994Z</time>
</trkpt>
<trkpt lat="32.6054400" lon="35.1161500">
<ele>179.160004</ele>
<time>2023-11-30T13:20:46.994Z</time>
</trkpt>
<trkpt lat="32.6054700" lon="35.1161700">
<ele>178.360001</ele>
<time>2023-11-30T13:20:46.994Z</time>
</trkpt>
<trkpt lat="32.6055300" lon="35.1161900">
<ele>176.960007</ele>
<time>2023-11-30T13:20:46.994Z</time>
</trkpt>
<trkpt lat="32.6055500" lon="35.1162100">
<ele>176.400009</ele>
<time>2023-11-30T13:20:46.994Z</time>
</trkpt>
<trkpt lat="32.6056600" lon="35.1162400">
<ele>175.839996</ele>
<time>2023-11-30T13:20:46.994Z</time>
</trkpt>
<trkpt lat="32.6056800" lon="35.1162600">
<ele>175.750000</ele>
<time>2023-11-30T13:20:46.994Z</time>
</trkpt>
<trkpt lat="32.6057100" lon="35.1162700">
<ele>175.699997</ele>
<time>2023-11-30T13:20:46.994Z</time>
</trkpt>
<trkpt lat="32.6057500" lon="35.1162900">
<ele>175.659988</ele>
<time>2023-11-30T13:20:46.994Z</time>
</trkpt>
<trkpt lat="32.6058000" lon="35.1163200">
<ele>175.720016</ele>
<time>2023-11-30T13:20:46.994Z</time>
</trkpt>
<trkpt lat="32.6058400" lon="35.1163500">
<ele>175.779999</ele>
<time>2023-11-30T13:20:46.994Z</time>
</trkpt>
<trkpt lat="32.6058800" lon="35.1163800">
<ele>175.319992</ele>
<time>2023-11-30T13:20:46.994Z</time>
</trkpt>
<trkpt lat="32.6059300" lon="35.1164000">
<ele>174.619995</ele>
<time>2023-11-30T13:20:46.994Z</time>
</trkpt>
<trkpt lat="32.6059500" lon="35.1164200">
<ele>174.370010</ele>
<time>2023-11-30T13:20:46.994Z</time>
</trkpt>
<trkpt lat="32.6060600" lon="35.1164500">
<ele>172.919998</ele>
<time>2023-11-30T13:20:46.994Z</time>
</trkpt>
<trkpt lat="32.6061500" lon="35.1165100">
<ele>172.180008</ele>
<time>2023-11-30T13:20:46.994Z</time>
</trkpt>
<trkpt lat="32.6061700" lon="35.1165300">
<ele>172.199997</ele>
<time>2023-11-30T13:20:46.994Z</time>
</trkpt>
<trkpt lat="32.6062400" lon="35.1165700">
<ele>172.309998</ele>
<time>2023-11-30T13:20:46.994Z</time>
</trkpt>
<trkpt lat="32.6064300" lon="35.1166800">
<ele>174.949997</ele>
<time>2023-11-30T13:20:46.994Z</time>
</trkpt>
<trkpt lat="32.6065200" lon="35.1167400">
<ele>178.110001</ele>
<time>2023-11-30T13:20:46.994Z</time>
</trkpt>
<trkpt lat="32.6065900" lon="35.1167800">
<ele>180.639999</ele>
<time>2023-11-30T13:20:46.994Z</time>
</trkpt>
<trkpt lat="32.6066700" lon="35.1168200">
<ele>183.490005</ele>
<time>2023-11-30T13:20:46.994Z</time>
</trkpt>
<trkpt lat="32.6067800" lon="35.1169300">
<ele>185.909988</ele>
<time>2023-11-30T13:20:46.994Z</time>
</trkpt>
<trkpt lat="32.6068100" lon="35.1169500">
<ele>186.100006</ele>
<time>2023-11-30T13:20:46.994Z</time>
</trkpt>
<trkpt lat="32.6068600" lon="35.1170000">
<ele>186.720001</ele>
<time>2023-11-30T13:20:46.994Z</time>
</trkpt>
<trkpt lat="32.6068800" lon="35.1170200">
<ele>186.880005</ele>
<time>2023-11-30T13:20:46.994Z</time>
</trkpt>
<trkpt lat="32.6069900" lon="35.1171100">
<ele>186.359985</ele>
<time>2023-11-30T13:20:46.994Z</time>
</trkpt>
<trkpt lat="32.6070600" lon="35.1171900">
<ele>186.339996</ele>
<time>2023-11-30T13:20:46.994Z</time>
</trkpt>
<trkpt lat="32.6071200" lon="35.1172900">
<ele>186.509995</ele>
<time>2023-11-30T13:20:46.994Z</time>
</trkpt>
<trkpt lat="32.6071500" lon="35.1173300">
<ele>186.100006</ele>
<time>2023-11-30T13:20:46.994Z</time>
</trkpt>
<trkpt lat="32.6072200" lon="35.1174500">
<ele>184.730011</ele>
<time>2023-11-30T13:20:46.994Z</time>
</trkpt>
<trkpt lat="32.6072400" lon="35.1174800">
<ele>183.879990</ele>
<time>2023-11-30T13:20:46.994Z</time>
</trkpt>
<trkpt lat="32.6073000" lon="35.1175700">
<ele>182.809998</ele>
<time>2023-11-30T13:20:46.994Z</time>
</trkpt>
<trkpt lat="32.6073400" lon="35.1176000">
<ele>181.869995</ele>
<time>2023-11-30T13:20:46.994Z</time>
</trkpt>
<trkpt lat="32.6073600" lon="35.1176100">
<ele>181.309998</ele>
<time>2023-11-30T13:20:46.994Z</time>
</trkpt>
<trkpt lat="32.6074100" lon="35.1176300">
<ele>179.879990</ele>
<time>2023-11-30T13:20:46.994Z</time>
</trkpt>
<trkpt lat="32.6074700" lon="35.1176500">
<ele>178.229996</ele>
<time>2023-11-30T13:20:46.994Z</time>
</trkpt>
<trkpt lat="32.6074900" lon="35.1176600">
<ele>177.880005</ele>
<time>2023-11-30T13:20:46.994Z</time>
</trkpt>
<trkpt lat="32.6075600" lon="35.1176800">
<ele>176.769989</ele>
<time>2023-11-30T13:20:46.994Z</time>
</trkpt>
<trkpt lat="32.6075900" lon="35.1176800">
<ele>175.949997</ele>
<time>2023-11-30T13:20:46.994Z</time>
</trkpt>
<trkpt lat="32.6076500" lon="35.1176900">
<ele>174.739990</ele>
<time>2023-11-30T13:20:46.994Z</time>
</trkpt>
<trkpt lat="32.6077700" lon="35.1177000">
<ele>171.860001</ele>
<time>2023-11-30T13:20:46.994Z</time>
</trkpt>
<trkpt lat="32.6078000" lon="35.1177000">
<ele>171.110001</ele>
<time>2023-11-30T13:20:46.994Z</time>
</trkpt>
<trkpt lat="32.6078700" lon="35.1177000">
<ele>169.419998</ele>
<time>2023-11-30T13:20:46.994Z</time>
</trkpt>
<trkpt lat="32.6079200" lon="35.1177000">
<ele>168.220001</ele>
<time>2023-11-30T13:20:46.994Z</time>
</trkpt>
<trkpt lat="32.6079700" lon="35.1177000">
<ele>167.020004</ele>
<time>2023-11-30T13:20:46.994Z</time>
</trkpt>
<trkpt lat="32.6080100" lon="35.1176900">
<ele>165.440002</ele>
<time>2023-11-30T13:20:46.994Z</time>
</trkpt>
<trkpt lat="32.6081000" lon="35.1176800">
<ele>163.309998</ele>
<time>2023-11-30T13:20:46.994Z</time>
</trkpt>
<trkpt lat="32.6081600" lon="35.1176700">
<ele>162.239990</ele>
<time>2023-11-30T13:20:46.994Z</time>
</trkpt>
<trkpt lat="32.6082700" lon="35.1176600">
<ele>160.919998</ele>
<time>2023-11-30T13:20:46.994Z</time>
</trkpt>
<trkpt lat="32.6083400" lon="35.1176600">
<ele>160.320007</ele>
<time>2023-11-30T13:20:46.994Z</time>
</trkpt>
<trkpt lat="32.6087000" lon="35.1176600">
<ele>151.979996</ele>
<time>2023-11-30T13:20:46.994Z</time>
</trkpt>
<trkpt lat="32.6087600" lon="35.1176600">
<ele>151.080002</ele>
<time>2023-11-30T13:20:46.994Z</time>
</trkpt>
<trkpt lat="32.6089100" lon="35.1176600">
<ele>149.290009</ele>
<time>2023-11-30T13:20:46.994Z</time>
</trkpt>
<trkpt lat="32.6090400" lon="35.1176800">
<ele>150.510010</ele>
<time>2023-11-30T13:20:46.994Z</time>
</trkpt>
<trkpt lat="32.6091700" lon="35.1177200">
<ele>152.569992</ele>
<time>2023-11-30T13:20:46.994Z</time>
</trkpt>
<trkpt lat="32.6092000" lon="35.1177200">
<ele>152.809998</ele>
<time>2023-11-30T13:20:46.994Z</time>
</trkpt>
<trkpt lat="32.6096700" lon="35.1177300">
<ele>162.759995</ele>
<time>2023-11-30T13:20:46.994Z</time>
</trkpt>
<trkpt lat="32.6097900" lon="35.1177300">
<ele>164.200012</ele>
<time>2023-11-30T13:20:46.994Z</time>
</trkpt>
<trkpt lat="32.6098500" lon="35.1177300">
<ele>163.880005</ele>
<time>2023-11-30T13:20:46.994Z</time>
</trkpt>
<trkpt lat="32.6099600" lon="35.1177400">
<ele>163.919998</ele>
<time>2023-11-30T13:20:46.994Z</time>
</trkpt>
<trkpt lat="32.6101400" lon="35.1177400">
<ele>160.410004</ele>
<time>2023-11-30T13:20:46.994Z</time>
</trkpt>
<trkpt lat="32.6103000" lon="35.1177800">
<ele>157.930008</ele>
<time>2023-11-30T13:20:46.994Z</time>
</trkpt>
<trkpt lat="32.6104300" lon="35.1178400">
<ele>159.119995</ele>
<time>2023-11-30T13:20:46.994Z</time>
</trkpt>
<trkpt lat="32.6106000" lon="35.1179500">
<ele>161.800003</ele>
<time>2023-11-30T13:20:46.994Z</time>
</trkpt>
<trkpt lat="32.6107300" lon="35.1180500">
<ele>165.460007</ele>
<time>2023-11-30T13:20:46.994Z</time>
</trkpt>
<trkpt lat="32.6111500" lon="35.1185200">
<ele>169.470016</ele>
<time>2023-11-30T13:20:46.994Z</time>
</trkpt>
<trkpt lat="32.6111900" lon="35.1185700">
<ele>169.819992</ele>
<time>2023-11-30T13:20:46.994Z</time>
</trkpt>
<trkpt lat="32.6113400" lon="35.1188400">
<ele>172.149994</ele>
<time>2023-11-30T13:20:46.994Z</time>
</trkpt>
<trkpt lat="32.6114200" lon="35.1190600">
<ele>174.130005</ele>
<time>2023-11-30T13:20:46.994Z</time>
</trkpt>
<trkpt lat="32.6114500" lon="35.1191900">
<ele>174.849991</ele>
<time>2023-11-30T13:20:46.994Z</time>
</trkpt>
<trkpt lat="32.6114500" lon="35.1194400">
<ele>175.350006</ele>
<time>2023-11-30T13:20:46.994Z</time>
</trkpt>
<trkpt lat="32.6114500" lon="35.1195300">
<ele>174.880005</ele>
<time>2023-11-30T13:20:46.994Z</time>
</trkpt>
<trkpt lat="32.6114400" lon="35.1195700">
<ele>175.050003</ele>
<time>2023-11-30T13:20:46.994Z</time>
</trkpt>
<trkpt lat="32.6114000" lon="35.1196900">
<ele>175.820007</ele>
<time>2023-11-30T13:20:46.994Z</time>
</trkpt>
<trkpt lat="32.6113800" lon="35.1197200">
<ele>176.299988</ele>
<time>2023-11-30T13:20:46.994Z</time>
</trkpt>
<trkpt lat="32.6113200" lon="35.1198300">
<ele>176.190002</ele>
<time>2023-11-30T13:20:46.994Z</time>
</trkpt>
<trkpt lat="32.6112700" lon="35.1198900">
<ele>177.000000</ele>
<time>2023-11-30T13:20:46.994Z</time>
</trkpt>
<trkpt lat="32.6112200" lon="35.1199400">
<ele>178.200012</ele>
<time>2023-11-30T13:20:46.994Z</time>
</trkpt>
<trkpt lat="32.6111900" lon="35.1199700">
<ele>179.010010</ele>
<time>2023-11-30T13:20:46.994Z</time>
</trkpt>
<trkpt lat="32.6111700" lon="35.1199800">
<ele>179.720001</ele>
<time>2023-11-30T13:20:46.994Z</time>
</trkpt>
<trkpt lat="32.6111300" lon="35.1200200">
<ele>180.810013</ele>
<time>2023-11-30T13:20:46.994Z</time>
</trkpt>
<trkpt lat="32.6111000" lon="35.1200400">
<ele>181.679993</ele>
<time>2023-11-30T13:20:46.994Z</time>
</trkpt>
<trkpt lat="32.6110600" lon="35.1200700">
<ele>182.719986</ele>
<time>2023-11-30T13:20:46.994Z</time>
</trkpt>
<trkpt lat="32.6110300" lon="35.1200900">
<ele>183.669998</ele>
<time>2023-11-30T13:20:46.994Z</time>
</trkpt>
<trkpt lat="32.6110000" lon="35.1201200">
<ele>184.649994</ele>
<time>2023-11-30T13:20:46.994Z</time>
</trkpt>
<trkpt lat="32.6109300" lon="35.1201700">
<ele>187.599991</ele>
<time>2023-11-30T13:20:46.994Z</time>
</trkpt>
<trkpt lat="32.6108900" lon="35.1202000">
<ele>189.580002</ele>
<time>2023-11-30T13:20:46.994Z</time>
</trkpt>
<trkpt lat="32.6108500" lon="35.1202400">
<ele>191.830002</ele>
<time>2023-11-30T13:20:46.994Z</time>
</trkpt>
<trkpt lat="32.6108100" lon="35.1202600">
<ele>193.220001</ele>
<time>2023-11-30T13:20:46.994Z</time>
</trkpt>
<trkpt lat="32.6107900" lon="35.1202800">
<ele>193.580002</ele>
<time>2023-11-30T13:20:46.994Z</time>
</trkpt>
<trkpt lat="32.6107700" lon="35.1203100">
<ele>193.369995</ele>
<time>2023-11-30T13:20:46.994Z</time>
</trkpt>
<trkpt lat="32.6107600" lon="35.1204100">
<ele>191.949997</ele>
<time>2023-11-30T13:20:46.994Z</time>
</trkpt>
<trkpt lat="32.6107500" lon="35.1204400">
<ele>191.750000</ele>
<time>2023-11-30T13:20:46.994Z</time>
</trkpt>
<trkpt lat="32.6107300" lon="35.1205300">
<ele>191.069992</ele>
<time>2023-11-30T13:20:46.994Z</time>
</trkpt>
<trkpt lat="32.6107200" lon="35.1206000">
<ele>191.589996</ele>
<time>2023-11-30T13:20:46.994Z</time>
</trkpt>
<trkpt lat="32.6107000" lon="35.1206800">
<ele>193.160004</ele>
<time>2023-11-30T13:20:46.994Z</time>
</trkpt>
<trkpt lat="32.6107000" lon="35.1207400">
<ele>193.820007</ele>
<time>2023-11-30T13:20:46.994Z</time>
</trkpt>
<trkpt lat="32.6107000" lon="35.1208000">
<ele>194.479996</ele>
<time>2023-11-30T13:20:46.994Z</time>
</trkpt>
<trkpt lat="32.6107600" lon="35.1209600">
<ele>195.270004</ele>
<time>2023-11-30T13:20:46.994Z</time>
</trkpt>
<trkpt lat="32.6108000" lon="35.1210100">
<ele>195.059998</ele>
<time>2023-11-30T13:20:46.994Z</time>
</trkpt>
<trkpt lat="32.6108400" lon="35.1210400">
<ele>194.409988</ele>
<time>2023-11-30T13:20:46.994Z</time>
</trkpt>
<trkpt lat="32.6109300" lon="35.1210700">
<ele>190.789993</ele>
<time>2023-11-30T13:20:46.994Z</time>
</trkpt>
<trkpt lat="32.6109800" lon="35.1210700">
<ele>188.470001</ele>
<time>2023-11-30T13:20:46.994Z</time>
</trkpt>
<trkpt lat="32.6110500" lon="35.1210800">
<ele>185.389999</ele>
<time>2023-11-30T13:20:46.994Z</time>
</trkpt>
<trkpt lat="32.6111200" lon="35.1210900">
<ele>182.300003</ele>
<time>2023-11-30T13:20:46.994Z</time>
</trkpt>
<trkpt lat="32.6111500" lon="35.1211100">
<ele>181.300003</ele>
<time>2023-11-30T13:20:46.994Z</time>
</trkpt>
<trkpt lat="32.6112300" lon="35.1211400">
<ele>178.410004</ele>
<time>2023-11-30T13:20:46.994Z</time>
</trkpt>
<trkpt lat="32.6112800" lon="35.1211700">
<ele>176.940002</ele>
<time>2023-11-30T13:20:46.994Z</time>
</trkpt>
<trkpt lat="32.6113100" lon="35.1212100">
<ele>176.599991</ele>
<time>2023-11-30T13:20:46.994Z</time>
</trkpt>
<trkpt lat="32.6113500" lon="35.1212700">
<ele>176.440002</ele>
<time>2023-11-30T13:20:46.994Z</time>
</trkpt>
<trkpt lat="32.6114400" lon="35.1213500">
<ele>175.149994</ele>
<time>2023-11-30T13:20:46.994Z</time>
</trkpt>
<trkpt lat="32.6115200" lon="35.1215100">
<ele>178.330002</ele>
<time>2023-11-30T13:20:46.994Z</time>
</trkpt>
<trkpt lat="32.6115900" lon="35.1216100">
<ele>179.380005</ele>
<time>2023-11-30T13:20:46.994Z</time>
</trkpt>
<trkpt lat="32.6116200" lon="35.1216700">
<ele>180.300003</ele>
<time>2023-11-30T13:20:46.994Z</time>
</trkpt>
<trkpt lat="32.6116400" lon="35.1217200">
<ele>181.110001</ele>
<time>2023-11-30T13:20:46.994Z</time>
</trkpt>
<trkpt lat="32.6116500" lon="35.1217600">
<ele>182.079987</ele>
<time>2023-11-30T13:20:46.994Z</time>
</trkpt>
<trkpt lat="32.6116500" lon="35.1218000">
<ele>183.490005</ele>
<time>2023-11-30T13:20:46.994Z</time>
</trkpt>
<trkpt lat="32.6116000" lon="35.1218000">
<ele>185.569992</ele>
<time>2023-11-30T13:20:46.994Z</time>
</trkpt>
<trkpt lat="32.6115900" lon="35.1217700">
<ele>185.000000</ele>
<time>2023-11-30T13:20:46.994Z</time>
</trkpt>
<trkpt lat="32.6115100" lon="35.1215900">
<ele>182.110001</ele>
<time>2023-11-30T13:20:46.994Z</time>
</trkpt>
<trkpt lat="32.6114600" lon="35.1215400">
<ele>182.089996</ele>
<time>2023-11-30T13:20:46.994Z</time>
</trkpt>
<trkpt lat="32.6114400" lon="35.1215200">
<ele>182.039993</ele>
<time>2023-11-30T13:20:46.994Z</time>
</trkpt>
<trkpt lat="32.6114200" lon="35.1214800">
<ele>181.029999</ele>
<time>2023-11-30T13:20:46.994Z</time>
</trkpt>
<trkpt lat="32.6113400" lon="35.1214100">
<ele>180.479996</ele>
<time>2023-11-30T13:20:46.994Z</time>
</trkpt>
<trkpt lat="32.6112400" lon="35.1213800">
<ele>182.650009</ele>
<time>2023-11-30T13:20:46.994Z</time>
</trkpt>
<trkpt lat="32.6112000" lon="35.1213600">
<ele>183.599991</ele>
<time>2023-11-30T13:20:46.994Z</time>
</trkpt>
<trkpt lat="32.6111500" lon="35.1213600">
<ele>185.279999</ele>
<time>2023-11-30T13:20:46.994Z</time>
</trkpt>
<trkpt lat="32.6111100" lon="35.1213500">
<ele>186.470001</ele>
<time>2023-11-30T13:20:46.994Z</time>
</trkpt>
<trkpt lat="32.6110300" lon="35.1213000">
<ele>188.130005</ele>
<time>2023-11-30T13:20:46.994Z</time>
</trkpt>
<trkpt lat="32.6109700" lon="35.1212900">
<ele>189.889984</ele>
<time>2023-11-30T13:20:46.994Z</time>
</trkpt>
<trkpt lat="32.6109400" lon="35.1212900">
<ele>190.810013</ele>
<time>2023-11-30T13:20:46.994Z</time>
</trkpt>
<trkpt lat="32.6109100" lon="35.1212900">
<ele>191.720001</ele>
<time>2023-11-30T13:20:46.994Z</time>
</trkpt>
<trkpt lat="32.6108200" lon="35.1213000">
<ele>194.299988</ele>
<time>2023-11-30T13:20:46.994Z</time>
</trkpt>
<trkpt lat="32.6107900" lon="35.1213200">
<ele>194.839996</ele>
<time>2023-11-30T13:20:46.994Z</time>
</trkpt>
<trkpt lat="32.6107100" lon="35.1213400">
<ele>196.639999</ele>
<time>2023-11-30T13:20:46.994Z</time>
</trkpt>
<trkpt lat="32.6107000" lon="35.1213700">
<ele>196.559998</ele>
<time>2023-11-30T13:20:46.994Z</time>
</trkpt>
<trkpt lat="32.6107300" lon="35.1213900">
<ele>195.600006</ele>
<time>2023-11-30T13:20:46.994Z</time>
</trkpt>
<trkpt lat="32.6107800" lon="35.1213700">
<ele>194.550003</ele>
<time>2023-11-30T13:20:46.994Z</time>
</trkpt>
<trkpt lat="32.6107500" lon="35.1213900">
<ele>195.099991</ele>
<time>2023-11-30T13:20:46.994Z</time>
</trkpt>
<trkpt lat="32.6107300" lon="35.1213600">
<ele>195.919998</ele>
<time>2023-11-30T13:20:46.994Z</time>
</trkpt>
<trkpt lat="32.6107000" lon="35.1213500">
<ele>196.780014</ele>
<time>2023-11-30T13:20:46.994Z</time>
</trkpt>
<trkpt lat="32.6106300" lon="35.1213500">
<ele>198.539993</ele>
<time>2023-11-30T13:20:46.994Z</time>
</trkpt>
<trkpt lat="32.6106000" lon="35.1213600">
<ele>199.190002</ele>
<time>2023-11-30T13:20:46.994Z</time>
</trkpt>
<trkpt lat="32.6106000" lon="35.1213900">
<ele>198.869995</ele>
<time>2023-11-30T13:20:46.994Z</time>
</trkpt>
<trkpt lat="32.6106100" lon="35.1214400">
<ele>198.220001</ele>
<time>2023-11-30T13:20:46.994Z</time>
</trkpt>
<trkpt lat="32.6107100" lon="35.1214900">
<ele>195.830002</ele>
<time>2023-11-30T13:20:46.994Z</time>
</trkpt>
<trkpt lat="32.6108000" lon="35.1215200">
<ele>194.089996</ele>
<time>2023-11-30T13:20:46.994Z</time>
</trkpt>
<trkpt lat="32.6108200" lon="35.1215400">
<ele>193.779999</ele>
<time>2023-11-30T13:20:46.994Z</time>
</trkpt>
<trkpt lat="32.6108600" lon="35.1215600">
<ele>193.339996</ele>
<time>2023-11-30T13:20:46.994Z</time>
</trkpt>
<trkpt lat="32.6109900" lon="35.1216300">
<ele>192.929993</ele>
<time>2023-11-30T13:20:46.994Z</time>
</trkpt>
<trkpt lat="32.6111100" lon="35.1217300">
<ele>195.049988</ele>
<time>2023-11-30T13:20:46.994Z</time>
</trkpt>
<trkpt lat="32.6111300" lon="35.1217500">
<ele>195.519989</ele>
<time>2023-11-30T13:20:46.994Z</time>
</trkpt>
<trkpt lat="32.6111600" lon="35.1217700">
<ele>195.869995</ele>
<time>2023-11-30T13:20:46.994Z</time>
</trkpt>
<trkpt lat="32.6112700" lon="35.1218900">
<ele>198.170013</ele>
<time>2023-11-30T13:20:46.994Z</time>
</trkpt>
<trkpt lat="32.6113100" lon="35.1219600">
<ele>199.240005</ele>
<time>2023-11-30T13:20:46.994Z</time>
</trkpt>
<trkpt lat="32.6113400" lon="35.1220000">
<ele>199.159988</ele>
<time>2023-11-30T13:20:46.994Z</time>
</trkpt>
<trkpt lat="32.6115300" lon="35.1223400">
<ele>199.609985</ele>
<time>2023-11-30T13:20:46.994Z</time>
</trkpt>
<trkpt lat="32.6116200" lon="35.1224500">
<ele>199.720001</ele>
<time>2023-11-30T13:20:46.994Z</time>
</trkpt>
<trkpt lat="32.6116800" lon="35.1225200">
<ele>199.500015</ele>
<time>2023-11-30T13:20:46.994Z</time>
</trkpt>
<trkpt lat="32.6117300" lon="35.1225800">
<ele>197.729996</ele>
<time>2023-11-30T13:20:46.994Z</time>
</trkpt>
<trkpt lat="32.6117500" lon="35.1226000">
<ele>197.050003</ele>
<time>2023-11-30T13:20:46.994Z</time>
</trkpt>
<trkpt lat="32.6117900" lon="35.1226200">
<ele>195.759995</ele>
<time>2023-11-30T13:20:46.994Z</time>
</trkpt>
<trkpt lat="32.6118900" lon="35.1226300">
<ele>192.670013</ele>
<time>2023-11-30T13:20:46.994Z</time>
</trkpt>
<trkpt lat="32.6119200" lon="35.1226400">
<ele>191.750000</ele>
<time>2023-11-30T13:20:46.994Z</time>
</trkpt>
<trkpt lat="32.6120700" lon="35.1226500">
<ele>192.260010</ele>
<time>2023-11-30T13:20:46.994Z</time>
</trkpt>
<trkpt lat="32.6121100" lon="35.1226500">
<ele>192.660004</ele>
<time>2023-11-30T13:20:46.994Z</time>
</trkpt>
<trkpt lat="32.6121900" lon="35.1226600">
<ele>193.679993</ele>
<time>2023-11-30T13:20:46.994Z</time>
</trkpt>
<trkpt lat="32.6122300" lon="35.1226600">
<ele>194.139999</ele>
<time>2023-11-30T13:20:46.994Z</time>
</trkpt>
<trkpt lat="32.6123100" lon="35.1226600">
<ele>195.250000</ele>
<time>2023-11-30T13:20:46.994Z</time>
</trkpt>
<trkpt lat="32.6124200" lon="35.1226600">
<ele>196.770004</ele>
<time>2023-11-30T13:20:46.994Z</time>
</trkpt>
<trkpt lat="32.6124500" lon="35.1226700">
<ele>197.380005</ele>
<time>2023-11-30T13:20:46.994Z</time>
</trkpt>
<trkpt lat="32.6124800" lon="35.1226800">
<ele>197.970001</ele>
<time>2023-11-30T13:20:46.994Z</time>
</trkpt>
<trkpt lat="32.6126500" lon="35.1227100">
<ele>199.029984</ele>
<time>2023-11-30T13:20:46.994Z</time>
</trkpt>
<trkpt lat="32.6128300" lon="35.1228100">
<ele>198.529999</ele>
<time>2023-11-30T13:20:46.994Z</time>
</trkpt>
<trkpt lat="32.6129500" lon="35.1228600">
<ele>197.649994</ele>
<time>2023-11-30T13:20:46.994Z</time>
</trkpt>
<trkpt lat="32.6130100" lon="35.1228700">
<ele>197.270004</ele>
<time>2023-11-30T13:20:46.994Z</time>
</trkpt>
<trkpt lat="32.6130600" lon="35.1228700">
<ele>197.029999</ele>
<time>2023-11-30T13:20:46.994Z</time>
</trkpt>
<trkpt lat="32.6130900" lon="35.1228700">
<ele>197.250000</ele>
<time>2023-11-30T13:20:46.994Z</time>
</trkpt>
<trkpt lat="32.6131300" lon="35.1228600">
<ele>197.539993</ele>
<time>2023-11-30T13:20:46.994Z</time>
</trkpt>
<trkpt lat="32.6131900" lon="35.1228100">
<ele>197.970001</ele>
<time>2023-11-30T13:20:46.994Z</time>
</trkpt>
<trkpt lat="32.6133700" lon="35.1225800">
<ele>198.419998</ele>
<time>2023-11-30T13:20:46.994Z</time>
</trkpt>
<trkpt lat="32.6135100" lon="35.1225000">
<ele>201.449997</ele>
<time>2023-11-30T13:20:46.994Z</time>
</trkpt>
<trkpt lat="32.6135700" lon="35.1224900">
<ele>202.929993</ele>
<time>2023-11-30T13:20:46.994Z</time>
</trkpt>
<trkpt lat="32.6136100" lon="35.1224900">
<ele>203.940002</ele>
<time>2023-11-30T13:20:46.994Z</time>
</trkpt>
<trkpt lat="32.6136500" lon="35.1224900">
<ele>203.959991</ele>
<time>2023-11-30T13:20:46.994Z</time>
</trkpt>
<trkpt lat="32.6136800" lon="35.1225000">
<ele>204.000000</ele>
<time>2023-11-30T13:20:46.994Z</time>
</trkpt>
<trkpt lat="32.6138300" lon="35.1225700">
<ele>203.800003</ele>
<time>2023-11-30T13:20:46.994Z</time>
</trkpt>
<trkpt lat="32.6141100" lon="35.1227200">
<ele>200.019989</ele>
<time>2023-11-30T13:20:46.994Z</time>
</trkpt>
<trkpt lat="32.6142000" lon="35.1227500">
<ele>198.199997</ele>
<time>2023-11-30T13:20:46.994Z</time>
</trkpt>
<trkpt lat="32.6142900" lon="35.1228300">
<ele>196.020004</ele>
<time>2023-11-30T13:20:46.994Z</time>
</trkpt>
<trkpt lat="32.6143300" lon="35.1228700">
<ele>195.390015</ele>
<time>2023-11-30T13:20:46.994Z</time>
</trkpt>
<trkpt lat="32.6143800" lon="35.1229600">
<ele>195.329987</ele>
<time>2023-11-30T13:20:46.994Z</time>
</trkpt>
<trkpt lat="32.6144000" lon="35.1230200">
<ele>195.770004</ele>
<time>2023-11-30T13:20:46.994Z</time>
</trkpt>
<trkpt lat="32.6144300" lon="35.1232600">
<ele>197.410004</ele>
<time>2023-11-30T13:20:46.994Z</time>
</trkpt>
<trkpt lat="32.6144500" lon="35.1233200">
<ele>197.899994</ele>
<time>2023-11-30T13:20:46.994Z</time>
</trkpt>
<trkpt lat="32.6144700" lon="35.1234000">
<ele>198.479996</ele>
<time>2023-11-30T13:20:46.994Z</time>
</trkpt>
<trkpt lat="32.6144800" lon="35.1234500">
<ele>198.839996</ele>
<time>2023-11-30T13:20:46.994Z</time>
</trkpt>
<trkpt lat="32.6145000" lon="35.1234900">
<ele>199.130005</ele>
<time>2023-11-30T13:20:46.994Z</time>
</trkpt>
<trkpt lat="32.6146700" lon="35.1236700">
<ele>199.580002</ele>
<time>2023-11-30T13:20:46.994Z</time>
</trkpt>
<trkpt lat="32.6147300" lon="35.1237100">
<ele>199.229996</ele>
<time>2023-11-30T13:20:46.994Z</time>
</trkpt>
<trkpt lat="32.6147900" lon="35.1237600">
<ele>198.610001</ele>
<time>2023-11-30T13:20:46.994Z</time>
</trkpt>
<trkpt lat="32.6148400" lon="35.1238200">
<ele>198.389999</ele>
<time>2023-11-30T13:20:46.994Z</time>
</trkpt>
<trkpt lat="32.6148600" lon="35.1238400">
<ele>198.409988</ele>
<time>2023-11-30T13:20:46.994Z</time>
</trkpt>
<trkpt lat="32.6148800" lon="35.1238600">
<ele>198.479996</ele>
<time>2023-11-30T13:20:46.994Z</time>
</trkpt>
<trkpt lat="32.6149400" lon="35.1238800">
<ele>198.720001</ele>
<time>2023-11-30T13:20:46.994Z</time>
</trkpt>
<trkpt lat="32.6149800" lon="35.1239200">
<ele>198.479996</ele>
<time>2023-11-30T13:20:46.994Z</time>
</trkpt>
<trkpt lat="32.6150100" lon="35.1239300">
<ele>198.349991</ele>
<time>2023-11-30T13:20:46.994Z</time>
</trkpt>
<trkpt lat="32.6150700" lon="35.1239300">
<ele>197.980011</ele>
<time>2023-11-30T13:20:46.994Z</time>
</trkpt>
<trkpt lat="32.6151300" lon="35.1239200">
<ele>197.720001</ele>
<time>2023-11-30T13:20:46.994Z</time>
</trkpt>
<trkpt lat="32.6151600" lon="35.1239100">
<ele>197.630005</ele>
<time>2023-11-30T13:20:46.994Z</time>
</trkpt>
<trkpt lat="32.6153000" lon="35.1238200">
<ele>195.450012</ele>
<time>2023-11-30T13:20:46.994Z</time>
</trkpt>
<trkpt lat="32.6153500" lon="35.1237800">
<ele>194.640015</ele>
<time>2023-11-30T13:20:46.994Z</time>
</trkpt>
<trkpt lat="32.6154200" lon="35.1236600">
<ele>193.139999</ele>
<time>2023-11-30T13:20:46.994Z</time>
</trkpt>
<trkpt lat="32.6154500" lon="35.1236500">
<ele>193.270004</ele>
<time>2023-11-30T13:20:46.994Z</time>
</trkpt>
<trkpt lat="32.6155000" lon="35.1236600">
<ele>193.750000</ele>
<time>2023-11-30T13:20:46.994Z</time>
</trkpt>
<trkpt lat="32.6155200" lon="35.1237600">
<ele>194.500000</ele>
<time>2023-11-30T13:20:46.994Z</time>
</trkpt>
<trkpt lat="32.6155200" lon="35.1237900">
<ele>194.669998</ele>
<time>2023-11-30T13:20:46.994Z</time>
</trkpt>
<trkpt lat="32.6155100" lon="35.1238300">
<ele>194.940002</ele>
<time>2023-11-30T13:20:46.994Z</time>
</trkpt>
<trkpt lat="32.6154100" lon="35.1240300">
<ele>195.029999</ele>
<time>2023-11-30T13:20:46.994Z</time>
</trkpt>
<trkpt lat="32.6153900" lon="35.1240700">
<ele>194.889999</ele>
<time>2023-11-30T13:20:46.994Z</time>
</trkpt>
<trkpt lat="32.6153500" lon="35.1241100">
<ele>194.889999</ele>
<time>2023-11-30T13:20:46.994Z</time>
</trkpt>
<trkpt lat="32.6152500" lon="35.1241600">
<ele>195.049988</ele>
<time>2023-11-30T13:20:46.994Z</time>
</trkpt>
<trkpt lat="32.6152200" lon="35.1241800">
<ele>194.819992</ele>
<time>2023-11-30T13:20:46.994Z</time>
</trkpt>
<trkpt lat="32.6152000" lon="35.1242100">
<ele>194.419998</ele>
<time>2023-11-30T13:20:46.994Z</time>
</trkpt>
<trkpt lat="32.6151900" lon="35.1242400">
<ele>194.029999</ele>
<time>2023-11-30T13:20:46.994Z</time>
</trkpt>
<trkpt lat="32.6151900" lon="35.1243200">
<ele>192.970001</ele>
<time>2023-11-30T13:20:46.994Z</time>
</trkpt>
<trkpt lat="32.6151900" lon="35.1243500">
<ele>192.569992</ele>
<time>2023-11-30T13:20:46.994Z</time>
</trkpt>
<trkpt lat="32.6152300" lon="35.1243600">
<ele>192.339996</ele>
<time>2023-11-30T13:20:46.994Z</time>
</trkpt>
<trkpt lat="32.6152900" lon="35.1243500">
<ele>192.159988</ele>
<time>2023-11-30T13:20:46.994Z</time>
</trkpt>
<trkpt lat="32.6153500" lon="35.1243300">
<ele>191.519989</ele>
<time>2023-11-30T13:20:46.994Z</time>
</trkpt>
<trkpt lat="32.6153800" lon="35.1243100">
<ele>191.440002</ele>
<time>2023-11-30T13:20:46.994Z</time>
</trkpt>
<trkpt lat="32.6154100" lon="35.1242900">
<ele>191.430008</ele>
<time>2023-11-30T13:20:46.994Z</time>
</trkpt>
<trkpt lat="32.6154900" lon="35.1242700">
<ele>190.850006</ele>
<time>2023-11-30T13:20:46.994Z</time>
</trkpt>
<trkpt lat="32.6155300" lon="35.1242400">
<ele>191.169998</ele>
<time>2023-11-30T13:20:46.994Z</time>
</trkpt>
<trkpt lat="32.6156300" lon="35.1241600">
<ele>190.669998</ele>
<time>2023-11-30T13:20:46.994Z</time>
</trkpt>
<trkpt lat="32.6156600" lon="35.1241300">
<ele>190.180008</ele>
<time>2023-11-30T13:20:46.994Z</time>
</trkpt>
<trkpt lat="32.6157100" lon="35.1241200">
<ele>188.889999</ele>
<time>2023-11-30T13:20:46.994Z</time>
</trkpt>
<trkpt lat="32.6157600" lon="35.1240900">
<ele>188.150009</ele>
<time>2023-11-30T13:20:46.994Z</time>
</trkpt>
<trkpt lat="32.6157700" lon="35.1240300">
<ele>189.310013</ele>
<time>2023-11-30T13:20:46.994Z</time>
</trkpt>
<trkpt lat="32.6157700" lon="35.1239800">
<ele>190.510010</ele>
<time>2023-11-30T13:20:46.994Z</time>
</trkpt>
<trkpt lat="32.6157600" lon="35.1239100">
<ele>192.300003</ele>
<time>2023-11-30T13:20:46.994Z</time>
</trkpt>
<trkpt lat="32.6157600" lon="35.1238800">
<ele>192.809998</ele>
<time>2023-11-30T13:20:46.994Z</time>
</trkpt>
<trkpt lat="32.6158500" lon="35.1238500">
<ele>191.920013</ele>
<time>2023-11-30T13:20:46.994Z</time>
</trkpt>
<trkpt lat="32.6159800" lon="35.1238700">
<ele>190.029999</ele>
<time>2023-11-30T13:20:46.994Z</time>
</trkpt>
<trkpt lat="32.6160200" lon="35.1238700">
<ele>189.470001</ele>
<time>2023-11-30T13:20:46.994Z</time>
</trkpt>
<trkpt lat="32.6160700" lon="35.1238700">
<ele>188.779999</ele>
<time>2023-11-30T13:20:46.994Z</time>
</trkpt>
<trkpt lat="32.6161300" lon="35.1238800">
<ele>188.300003</ele>
<time>2023-11-30T13:20:46.994Z</time>
</trkpt>
<trkpt lat="32.6161600" lon="35.1238800">
<ele>188.629990</ele>
<time>2023-11-30T13:20:46.994Z</time>
</trkpt>
<trkpt lat="32.6162100" lon="35.1239000">
<ele>188.770004</ele>
<time>2023-11-30T13:20:46.994Z</time>
</trkpt>
<trkpt lat="32.6162800" lon="35.1239100">
<ele>189.250000</ele>
<time>2023-11-30T13:20:46.994Z</time>
</trkpt>
<trkpt lat="32.6163200" lon="35.1239300">
<ele>189.110001</ele>
<time>2023-11-30T13:20:46.994Z</time>
</trkpt>
<trkpt lat="32.6164100" lon="35.1239400">
<ele>190.160004</ele>
<time>2023-11-30T13:20:46.994Z</time>
</trkpt>
<trkpt lat="32.6164800" lon="35.1239500">
<ele>192.009995</ele>
<time>2023-11-30T13:20:46.994Z</time>
</trkpt>
<trkpt lat="32.6165300" lon="35.1239700">
<ele>193.019989</ele>
<time>2023-11-30T13:20:46.994Z</time>
</trkpt>
<trkpt lat="32.6165700" lon="35.1239900">
<ele>193.779999</ele>
<time>2023-11-30T13:20:46.994Z</time>
</trkpt>
<trkpt lat="32.6166200" lon="35.1240200">
<ele>194.669998</ele>
<time>2023-11-30T13:20:46.994Z</time>
</trkpt>
<trkpt lat="32.6167000" lon="35.1241200">
<ele>195.169998</ele>
<time>2023-11-30T13:20:46.994Z</time>
</trkpt>
<trkpt lat="32.6167200" lon="35.1241600">
<ele>195.049988</ele>
<time>2023-11-30T13:20:46.994Z</time>
</trkpt>
<trkpt lat="32.6167400" lon="35.1241800">
<ele>195.529999</ele>
<time>2023-11-30T13:20:46.994Z</time>
</trkpt>
<trkpt lat="32.6167700" lon="35.1242800">
<ele>195.750000</ele>
<time>2023-11-30T13:20:46.994Z</time>
</trkpt>
<trkpt lat="32.6168100" lon="35.1243000">
<ele>196.950012</ele>
<time>2023-11-30T13:20:46.994Z</time>
</trkpt>
<trkpt lat="32.6168900" lon="35.1243000">
<ele>199.690002</ele>
<time>2023-11-30T13:20:46.994Z</time>
</trkpt>
<trkpt lat="32.6169100" lon="35.1242700">
<ele>200.690002</ele>
<time>2023-11-30T13:20:46.994Z</time>
</trkpt>
<trkpt lat="32.6169300" lon="35.1242300">
<ele>201.810013</ele>
<time>2023-11-30T13:20:46.994Z</time>
</trkpt>
<trkpt lat="32.6169500" lon="35.1241600">
<ele>203.240005</ele>
<time>2023-11-30T13:20:46.994Z</time>
</trkpt>
<trkpt lat="32.6169800" lon="35.1241200">
<ele>204.610001</ele>
<time>2023-11-30T13:20:46.994Z</time>
</trkpt>
<trkpt lat="32.6170100" lon="35.1240700">
<ele>206.210007</ele>
<time>2023-11-30T13:20:46.994Z</time>
</trkpt>
<trkpt lat="32.6170400" lon="35.1240200">
<ele>207.880005</ele>
<time>2023-11-30T13:20:46.994Z</time>
</trkpt>
<trkpt lat="32.6170900" lon="35.1239600">
<ele>210.419998</ele>
<time>2023-11-30T13:20:46.994Z</time>
</trkpt>
<trkpt lat="32.6171300" lon="35.1239200">
<ele>212.409988</ele>
<time>2023-11-30T13:20:46.994Z</time>
</trkpt>
<trkpt lat="32.6172100" lon="35.1238300">
<ele>214.199997</ele>
<time>2023-11-30T13:20:46.994Z</time>
</trkpt>
<trkpt lat="32.6172600" lon="35.1237600">
<ele>213.479996</ele>
<time>2023-11-30T13:20:46.994Z</time>
</trkpt>
<trkpt lat="32.6172900" lon="35.1236900">
<ele>212.589996</ele>
<time>2023-11-30T13:20:46.994Z</time>
</trkpt>
<trkpt lat="32.6173200" lon="35.1236600">
<ele>212.740005</ele>
<time>2023-11-30T13:20:46.994Z</time>
</trkpt>
<trkpt lat="32.6173500" lon="35.1235800">
<ele>212.300003</ele>
<time>2023-11-30T13:20:46.994Z</time>
</trkpt>
<trkpt lat="32.6173700" lon="35.1235600">
<ele>212.589996</ele>
<time>2023-11-30T13:20:46.994Z</time>
</trkpt>
<trkpt lat="32.6173900" lon="35.1235300">
<ele>212.720001</ele>
<time>2023-11-30T13:20:46.994Z</time>
</trkpt>
<trkpt lat="32.6174300" lon="35.1234800">
<ele>212.980011</ele>
<time>2023-11-30T13:20:46.994Z</time>
</trkpt>
<trkpt lat="32.6175100" lon="35.1234300">
<ele>213.889999</ele>
<time>2023-11-30T13:20:46.994Z</time>
</trkpt>
<trkpt lat="32.6175900" lon="35.1233500">
<ele>214.149994</ele>
<time>2023-11-30T13:20:46.994Z</time>
</trkpt>
<trkpt lat="32.6176100" lon="35.1233300">
<ele>214.370010</ele>
<time>2023-11-30T13:20:46.994Z</time>
</trkpt>
<trkpt lat="32.6176800" lon="35.1233100">
<ele>215.860001</ele>
<time>2023-11-30T13:20:46.994Z</time>
</trkpt>
<trkpt lat="32.6177400" lon="35.1233100">
<ele>217.169998</ele>
<time>2023-11-30T13:20:46.994Z</time>
</trkpt>
<trkpt lat="32.6177700" lon="35.1233100">
<ele>217.830002</ele>
<time>2023-11-30T13:20:46.994Z</time>
</trkpt>
<trkpt lat="32.6177900" lon="35.1233300">
<ele>217.869995</ele>
<time>2023-11-30T13:20:46.994Z</time>
</trkpt>
<trkpt lat="32.6178000" lon="35.1233800">
<ele>217.759995</ele>
<time>2023-11-30T13:20:46.994Z</time>
</trkpt>
<trkpt lat="32.6178000" lon="35.1234400">
<ele>217.759995</ele>
<time>2023-11-30T13:20:46.994Z</time>
</trkpt>
<trkpt lat="32.6178000" lon="35.1235400">
<ele>217.759995</ele>
<time>2023-11-30T13:20:46.994Z</time>
</trkpt>
<trkpt lat="32.6177700" lon="35.1235800">
<ele>217.959991</ele>
<time>2023-11-30T13:20:46.994Z</time>
</trkpt>
<trkpt lat="32.6177400" lon="35.1236500">
<ele>217.900009</ele>
<time>2023-11-30T13:20:46.994Z</time>
</trkpt>
<trkpt lat="32.6176900" lon="35.1237000">
<ele>217.889999</ele>
<time>2023-11-30T13:20:46.994Z</time>
</trkpt>
<trkpt lat="32.6176000" lon="35.1238100">
<ele>218.279999</ele>
<time>2023-11-30T13:20:46.994Z</time>
</trkpt>
<trkpt lat="32.6175800" lon="35.1238500">
<ele>218.509995</ele>
<time>2023-11-30T13:20:46.994Z</time>
</trkpt>
<trkpt lat="32.6175200" lon="35.1239300">
<ele>219.220001</ele>
<time>2023-11-30T13:20:46.994Z</time>
</trkpt>
<trkpt lat="32.6175000" lon="35.1239800">
<ele>219.660004</ele>
<time>2023-11-30T13:20:46.994Z</time>
</trkpt>
<trkpt lat="32.6174900" lon="35.1240300">
<ele>219.759995</ele>
<time>2023-11-30T13:20:46.994Z</time>
</trkpt>
<trkpt lat="32.6174900" lon="35.1240700">
<ele>220.009995</ele>
<time>2023-11-30T13:20:46.994Z</time>
</trkpt>
<trkpt lat="32.6174900" lon="35.1241400">
<ele>220.440002</ele>
<time>2023-11-30T13:20:46.994Z</time>
</trkpt>
<trkpt lat="32.6175100" lon="35.1241800">
<ele>220.639999</ele>
<time>2023-11-30T13:20:46.994Z</time>
</trkpt>
<trkpt lat="32.6175300" lon="35.1242100">
<ele>219.899994</ele>
<time>2023-11-30T13:20:46.994Z</time>
</trkpt>
<trkpt lat="32.6175400" lon="35.1243200">
<ele>217.470001</ele>
<time>2023-11-30T13:20:46.994Z</time>
</trkpt>
<trkpt lat="32.6175500" lon="35.1243700">
<ele>216.490005</ele>
<time>2023-11-30T13:20:46.994Z</time>
</trkpt>
<trkpt lat="32.6175800" lon="35.1244100">
<ele>216.089996</ele>
<time>2023-11-30T13:20:46.994Z</time>
</trkpt>
<trkpt lat="32.6175900" lon="35.1244400">
<ele>215.700012</ele>
<time>2023-11-30T13:20:46.994Z</time>
</trkpt>
<trkpt lat="32.6176300" lon="35.1246400">
<ele>216.709991</ele>
<time>2023-11-30T13:20:46.994Z</time>
</trkpt>
<trkpt lat="32.6176200" lon="35.1246800">
<ele>216.639999</ele>
<time>2023-11-30T13:20:46.994Z</time>
</trkpt>
<trkpt lat="32.6175900" lon="35.1247800">
<ele>216.089996</ele>
<time>2023-11-30T13:20:46.994Z</time>
</trkpt>
<trkpt lat="32.6175800" lon="35.1248200">
<ele>215.850006</ele>
<time>2023-11-30T13:20:46.994Z</time>
</trkpt>
<trkpt lat="32.6175700" lon="35.1248700">
<ele>215.610001</ele>
<time>2023-11-30T13:20:46.994Z</time>
</trkpt>
<trkpt lat="32.6175700" lon="35.1249200">
<ele>215.469986</ele>
<time>2023-11-30T13:20:46.994Z</time>
</trkpt>
<trkpt lat="32.6175600" lon="35.1250100">
<ele>215.239990</ele>
<time>2023-11-30T13:20:46.994Z</time>
</trkpt>
<trkpt lat="32.6175600" lon="35.1251400">
<ele>215.500000</ele>
<time>2023-11-30T13:20:46.994Z</time>
</trkpt>
<trkpt lat="32.6175500" lon="35.1252400">
<ele>215.729996</ele>
<time>2023-11-30T13:20:46.994Z</time>
</trkpt>
<trkpt lat="32.6175300" lon="35.1252800">
<ele>215.870010</ele>
<time>2023-11-30T13:20:46.994Z</time>
</trkpt>
<trkpt lat="32.6175000" lon="35.1253500">
<ele>215.220001</ele>
<time>2023-11-30T13:20:46.994Z</time>
</trkpt>
<trkpt lat="32.6174800" lon="35.1254000">
<ele>214.269989</ele>
<time>2023-11-30T13:20:46.994Z</time>
</trkpt>
<trkpt lat="32.6174700" lon="35.1254400">
<ele>213.679993</ele>
<time>2023-11-30T13:20:46.994Z</time>
</trkpt>
<trkpt lat="32.6174500" lon="35.1256000">
<ele>212.150009</ele>
<time>2023-11-30T13:20:46.994Z</time>
</trkpt>
<trkpt lat="32.6174300" lon="35.1256300">
<ele>211.789993</ele>
<time>2023-11-30T13:20:46.994Z</time>
</trkpt>
<trkpt lat="32.6174000" lon="35.1256500">
<ele>211.339996</ele>
<time>2023-11-30T13:20:46.994Z</time>
</trkpt>
<trkpt lat="32.6173400" lon="35.1256600">
<ele>210.540009</ele>
<time>2023-11-30T13:20:46.994Z</time>
</trkpt>
<trkpt lat="32.6173200" lon="35.1257200">
<ele>210.200012</ele>
<time>2023-11-30T13:20:46.994Z</time>
</trkpt>
<trkpt lat="32.6173200" lon="35.1257600">
<ele>210.149994</ele>
<time>2023-11-30T13:20:46.994Z</time>
</trkpt>
<trkpt lat="32.6173400" lon="35.1259000">
<ele>209.550003</ele>
<time>2023-11-30T13:20:46.994Z</time>
</trkpt>
<trkpt lat="32.6173800" lon="35.1259600">
<ele>209.339996</ele>
<time>2023-11-30T13:20:46.994Z</time>
</trkpt>
<trkpt lat="32.6174000" lon="35.1259900">
<ele>209.229996</ele>
<time>2023-11-30T13:20:46.994Z</time>
</trkpt>
<trkpt lat="32.6174200" lon="35.1260500">
<ele>208.800003</ele>
<time>2023-11-30T13:20:46.994Z</time>
</trkpt>
<trkpt lat="32.6174500" lon="35.1260900">
<ele>208.690002</ele>
<time>2023-11-30T13:20:46.994Z</time>
</trkpt>
<trkpt lat="32.6174900" lon="35.1261400">
<ele>208.579987</ele>
<time>2023-11-30T13:20:46.994Z</time>
</trkpt>
<trkpt lat="32.6176200" lon="35.1262800">
<ele>206.909988</ele>
<time>2023-11-30T13:20:46.994Z</time>
</trkpt>
<trkpt lat="32.6176600" lon="35.1263900">
<ele>205.409988</ele>
<time>2023-11-30T13:20:46.994Z</time>
</trkpt>
<trkpt lat="32.6177200" lon="35.1265000">
<ele>203.860001</ele>
<time>2023-11-30T13:20:46.994Z</time>
</trkpt>
<trkpt lat="32.6177700" lon="35.1266500">
<ele>201.349991</ele>
<time>2023-11-30T13:20:46.994Z</time>
</trkpt>
<trkpt lat="32.6178200" lon="35.1266600">
<ele>200.639999</ele>
<time>2023-11-30T13:20:46.994Z</time>
</trkpt>
<trkpt lat="32.6178600" lon="35.1266500">
<ele>200.369995</ele>
<time>2023-11-30T13:20:46.994Z</time>
</trkpt>
<trkpt lat="32.6179000" lon="35.1266200">
<ele>200.429993</ele>
<time>2023-11-30T13:20:46.994Z</time>
</trkpt>
<trkpt lat="32.6179200" lon="35.1265700">
<ele>201.029999</ele>
<time>2023-11-30T13:20:46.994Z</time>
</trkpt>
<trkpt lat="32.6179500" lon="35.1265100">
<ele>201.750000</ele>
<time>2023-11-30T13:20:46.994Z</time>
</trkpt>
<trkpt lat="32.6179600" lon="35.1264300">
<ele>203.000000</ele>
<time>2023-11-30T13:20:46.994Z</time>
</trkpt>
<trkpt lat="32.6179700" lon="35.1263700">
<ele>203.889999</ele>
<time>2023-11-30T13:20:46.994Z</time>
</trkpt>
<trkpt lat="32.6180300" lon="35.1261600">
<ele>206.479996</ele>
<time>2023-11-30T13:20:46.994Z</time>
</trkpt>
<trkpt lat="32.6180500" lon="35.1260200">
<ele>207.699997</ele>
<time>2023-11-30T13:20:46.994Z</time>
</trkpt>
<trkpt lat="32.6181400" lon="35.1257900">
<ele>208.960007</ele>
<time>2023-11-30T13:20:46.994Z</time>
</trkpt>
<trkpt lat="32.6181800" lon="35.1257700">
<ele>209.000000</ele>
<time>2023-11-30T13:20:46.994Z</time>
</trkpt>
<trkpt lat="32.6182800" lon="35.1257500">
<ele>208.559998</ele>
<time>2023-11-30T13:20:46.994Z</time>
</trkpt>
<trkpt lat="32.6183300" lon="35.1257400">
<ele>208.380005</ele>
<time>2023-11-30T13:20:46.994Z</time>
</trkpt>
<trkpt lat="32.6184900" lon="35.1257000">
<ele>209.919998</ele>
<time>2023-11-30T13:20:46.994Z</time>
</trkpt>
<trkpt lat="32.6185900" lon="35.1256900">
<ele>210.540009</ele>
<time>2023-11-30T13:20:46.994Z</time>
</trkpt>
<trkpt lat="32.6186600" lon="35.1256700">
<ele>211.149994</ele>
<time>2023-11-30T13:20:46.994Z</time>
</trkpt>
<trkpt lat="32.6186900" lon="35.1256500">
<ele>211.709991</ele>
<time>2023-11-30T13:20:46.994Z</time>
</trkpt>
<trkpt lat="32.6187000" lon="35.1255900">
<ele>213.370010</ele>
<time>2023-11-30T13:20:46.994Z</time>
</trkpt>
<trkpt lat="32.6186600" lon="35.1255600">
<ele>214.059998</ele>
<time>2023-11-30T13:20:46.994Z</time>
</trkpt>
<trkpt lat="32.6186000" lon="35.1255400">
<ele>214.130005</ele>
<time>2023-11-30T13:20:46.994Z</time>
</trkpt>
<trkpt lat="32.6185500" lon="35.1255200">
<ele>214.140015</ele>
<time>2023-11-30T13:20:46.994Z</time>
</trkpt>
<trkpt lat="32.6184900" lon="35.1255100">
<ele>213.979996</ele>
<time>2023-11-30T13:20:46.994Z</time>
</trkpt>
<trkpt lat="32.6184000" lon="35.1254900">
<ele>213.770004</ele>
<time>2023-11-30T13:20:46.994Z</time>
</trkpt>
<trkpt lat="32.6183600" lon="35.1254900">
<ele>213.589996</ele>
<time>2023-11-30T13:20:46.994Z</time>
</trkpt>
<trkpt lat="32.6183200" lon="35.1254900">
<ele>213.550003</ele>
<time>2023-11-30T13:20:46.994Z</time>
</trkpt>
<trkpt lat="32.6182700" lon="35.1255100">
<ele>213.670013</ele>
<time>2023-11-30T13:20:46.994Z</time>
</trkpt>
<trkpt lat="32.6182400" lon="35.1255100">
<ele>213.830002</ele>
<time>2023-11-30T13:20:46.994Z</time>
</trkpt>
<trkpt lat="32.6181800" lon="35.1255100">
<ele>214.149994</ele>
<time>2023-11-30T13:20:46.994Z</time>
</trkpt>
<trkpt lat="32.6181500" lon="35.1254800">
<ele>214.740005</ele>
<time>2023-11-30T13:20:46.994Z</time>
</trkpt>
<trkpt lat="32.6181400" lon="35.1254300">
<ele>215.539993</ele>
<time>2023-11-30T13:20:46.994Z</time>
</trkpt>
<trkpt lat="32.6181400" lon="35.1253700">
<ele>216.430008</ele>
<time>2023-11-30T13:20:46.994Z</time>
</trkpt>
<trkpt lat="32.6181500" lon="35.1253400">
<ele>216.750000</ele>
<time>2023-11-30T13:20:46.994Z</time>
</trkpt>
<trkpt lat="32.6181500" lon="35.1253000">
<ele>217.320007</ele>
<time>2023-11-30T13:20:46.994Z</time>
</trkpt>
<trkpt lat="32.6181600" lon="35.1252600">
<ele>217.619995</ele>
<time>2023-11-30T13:20:46.994Z</time>
</trkpt>
<trkpt lat="32.6181700" lon="35.1252100">
<ele>217.840012</ele>
<time>2023-11-30T13:20:46.994Z</time>
</trkpt>
<trkpt lat="32.6181800" lon="35.1251700">
<ele>217.979996</ele>
<time>2023-11-30T13:20:46.994Z</time>
</trkpt>
<trkpt lat="32.6182200" lon="35.1250800">
<ele>218.059998</ele>
<time>2023-11-30T13:20:46.994Z</time>
</trkpt>
<trkpt lat="32.6182600" lon="35.1250300">
<ele>217.840012</ele>
<time>2023-11-30T13:20:46.994Z</time>
</trkpt>
<trkpt lat="32.6182900" lon="35.1250000">
<ele>217.619995</ele>
<time>2023-11-30T13:20:46.994Z</time>
</trkpt>
<trkpt lat="32.6183600" lon="35.1249200">
<ele>217.070007</ele>
<time>2023-11-30T13:20:46.994Z</time>
</trkpt>
<trkpt lat="32.6184800" lon="35.1248200">
<ele>217.190002</ele>
<time>2023-11-30T13:20:46.994Z</time>
</trkpt>
<trkpt lat="32.6185100" lon="35.1248100">
<ele>217.200012</ele>
<time>2023-11-30T13:20:46.994Z</time>
</trkpt>
<trkpt lat="32.6186000" lon="35.1248000">
<ele>217.269989</ele>
<time>2023-11-30T13:20:46.994Z</time>
</trkpt>
<trkpt lat="32.6186300" lon="35.1248000">
<ele>217.399994</ele>
<time>2023-11-30T13:20:46.994Z</time>
</trkpt>
<trkpt lat="32.6186700" lon="35.1248100">
<ele>217.670013</ele>
<time>2023-11-30T13:20:46.994Z</time>
</trkpt>
<trkpt lat="32.6187300" lon="35.1248300">
<ele>218.079987</ele>
<time>2023-11-30T13:20:46.994Z</time>
</trkpt>
<trkpt lat="32.6188200" lon="35.1248500">
<ele>218.619995</ele>
<time>2023-11-30T13:20:46.994Z</time>
</trkpt>
<trkpt lat="32.6188800" lon="35.1249000">
<ele>218.959991</ele>
<time>2023-11-30T13:20:46.994Z</time>
</trkpt>
<trkpt lat="32.6189200" lon="35.1249100">
<ele>219.110001</ele>
<time>2023-11-30T13:20:46.994Z</time>
</trkpt>
<trkpt lat="32.6189500" lon="35.1249300">
<ele>219.220001</ele>
<time>2023-11-30T13:20:46.994Z</time>
</trkpt>
<trkpt lat="32.6190200" lon="35.1249900">
<ele>219.470001</ele>
<time>2023-11-30T13:20:46.994Z</time>
</trkpt>
<trkpt lat="32.6190800" lon="35.1251100">
<ele>218.199997</ele>
<time>2023-11-30T13:20:46.994Z</time>
</trkpt>
<trkpt lat="32.6191500" lon="35.1252400">
<ele>215.830002</ele>
<time>2023-11-30T13:20:46.994Z</time>
</trkpt>
<trkpt lat="32.6191900" lon="35.1253400">
<ele>213.260010</ele>
<time>2023-11-30T13:20:46.994Z</time>
</trkpt>
<trkpt lat="32.6192100" lon="35.1253900">
<ele>211.760010</ele>
<time>2023-11-30T13:20:46.994Z</time>
</trkpt>
<trkpt lat="32.6192400" lon="35.1254400">
<ele>209.979996</ele>
<time>2023-11-30T13:20:46.994Z</time>
</trkpt>
<trkpt lat="32.6192600" lon="35.1255400">
<ele>207.039993</ele>
<time>2023-11-30T13:20:46.994Z</time>
</trkpt>
<trkpt lat="32.6192800" lon="35.1255900">
<ele>205.470001</ele>
<time>2023-11-30T13:20:46.994Z</time>
</trkpt>
<trkpt lat="32.6192900" lon="35.1256700">
<ele>203.650009</ele>
<time>2023-11-30T13:20:46.994Z</time>
</trkpt>
<trkpt lat="32.6192900" lon="35.1257100">
<ele>202.869995</ele>
<time>2023-11-30T13:20:46.994Z</time>
</trkpt>
<trkpt lat="32.6193000" lon="35.1257400">
<ele>202.000000</ele>
<time>2023-11-30T13:20:46.994Z</time>
</trkpt>
<trkpt lat="32.6193100" lon="35.1258200">
<ele>200.139999</ele>
<time>2023-11-30T13:20:46.994Z</time>
</trkpt>
<trkpt lat="32.6193800" lon="35.1259900">
<ele>196.200012</ele>
<time>2023-11-30T13:20:46.994Z</time>
</trkpt>
<trkpt lat="32.6194100" lon="35.1260200">
<ele>195.309998</ele>
<time>2023-11-30T13:20:46.994Z</time>
</trkpt>
<trkpt lat="32.6194300" lon="35.1260400">
<ele>194.770004</ele>
<time>2023-11-30T13:20:46.994Z</time>
</trkpt>
<trkpt lat="32.6194700" lon="35.1261100">
<ele>193.359985</ele>
<time>2023-11-30T13:20:46.994Z</time>
</trkpt>
<trkpt lat="32.6195200" lon="35.1261500">
<ele>191.790009</ele>
<time>2023-11-30T13:20:46.994Z</time>
</trkpt>
<trkpt lat="32.6195700" lon="35.1262100">
<ele>190.250000</ele>
<time>2023-11-30T13:20:46.994Z</time>
</trkpt>
<trkpt lat="32.6195900" lon="35.1262300">
<ele>189.719986</ele>
<time>2023-11-30T13:20:46.994Z</time>
</trkpt>
<trkpt lat="32.6196500" lon="35.1262700">
<ele>188.370010</ele>
<time>2023-11-30T13:20:46.994Z</time>
</trkpt>
<trkpt lat="32.6196800" lon="35.1262800">
<ele>187.790009</ele>
<time>2023-11-30T13:20:46.994Z</time>
</trkpt>
<trkpt lat="32.6197400" lon="35.1263100">
<ele>186.550003</ele>
<time>2023-11-30T13:20:46.994Z</time>
</trkpt>
<trkpt lat="32.6197700" lon="35.1263300">
<ele>185.800003</ele>
<time>2023-11-30T13:20:46.994Z</time>
</trkpt>
<trkpt lat="32.6198000" lon="35.1263500">
<ele>185.039993</ele>
<time>2023-11-30T13:20:46.994Z</time>
</trkpt>
<trkpt lat="32.6198300" lon="35.1263700">
<ele>184.280014</ele>
<time>2023-11-30T13:20:46.994Z</time>
</trkpt>
<trkpt lat="32.6198900" lon="35.1264100">
<ele>183.029999</ele>
<time>2023-11-30T13:20:46.994Z</time>
</trkpt>
<trkpt lat="32.6199500" lon="35.1264600">
<ele>182.360001</ele>
<time>2023-11-30T13:20:46.994Z</time>
</trkpt>
<trkpt lat="32.6200100" lon="35.1265700">
<ele>183.239990</ele>
<time>2023-11-30T13:20:46.994Z</time>
</trkpt>
<trkpt lat="32.6200900" lon="35.1267700">
<ele>185.110001</ele>
<time>2023-11-30T13:20:46.994Z</time>
</trkpt>
<trkpt lat="32.6201100" lon="35.1268000">
<ele>185.080002</ele>
<time>2023-11-30T13:20:46.994Z</time>
</trkpt>
<trkpt lat="32.6201400" lon="35.1268300">
<ele>184.869995</ele>
<time>2023-11-30T13:20:46.994Z</time>
</trkpt>
<trkpt lat="32.6201900" lon="35.1268700">
<ele>184.330002</ele>
<time>2023-11-30T13:20:46.994Z</time>
</trkpt>
<trkpt lat="32.6202400" lon="35.1269300">
<ele>183.660004</ele>
<time>2023-11-30T13:20:46.994Z</time>
</trkpt>
<trkpt lat="32.6202700" lon="35.1270100">
<ele>183.380005</ele>
<time>2023-11-30T13:20:46.994Z</time>
</trkpt>
<trkpt lat="32.6202900" lon="35.1270500">
<ele>183.259995</ele>
<time>2023-11-30T13:20:46.994Z</time>
</trkpt>
<trkpt lat="32.6203400" lon="35.1271500">
<ele>183.230011</ele>
<time>2023-11-30T13:20:46.994Z</time>
</trkpt>
<trkpt lat="32.6203800" lon="35.1272400">
<ele>183.220001</ele>
<time>2023-11-30T13:20:46.994Z</time>
</trkpt>
<trkpt lat="32.6204500" lon="35.1273300">
<ele>182.279999</ele>
<time>2023-11-30T13:20:46.994Z</time>
</trkpt>
<trkpt lat="32.6204700" lon="35.1273600">
<ele>181.929993</ele>
<time>2023-11-30T13:20:46.994Z</time>
</trkpt>
<trkpt lat="32.6205400" lon="35.1273900">
<ele>180.970001</ele>
<time>2023-11-30T13:20:46.994Z</time>
</trkpt>
<trkpt lat="32.6205900" lon="35.1274200">
<ele>179.369995</ele>
<time>2023-11-30T13:20:46.994Z</time>
</trkpt>
<trkpt lat="32.6208300" lon="35.1276600">
<ele>170.069992</ele>
<time>2023-11-30T13:20:46.994Z</time>
</trkpt>
<trkpt lat="32.6208700" lon="35.1277000">
<ele>169.279999</ele>
<time>2023-11-30T13:20:46.994Z</time>
</trkpt>
<trkpt lat="32.6209100" lon="35.1277200">
<ele>168.460007</ele>
<time>2023-11-30T13:20:46.994Z</time>
</trkpt>
<trkpt lat="32.6209700" lon="35.1277700">
<ele>167.080002</ele>
<time>2023-11-30T13:20:46.994Z</time>
</trkpt>
<trkpt lat="32.6209900" lon="35.1278000">
<ele>166.340012</ele>
<time>2023-11-30T13:20:46.994Z</time>
</trkpt>
<trkpt lat="32.6210200" lon="35.1278600">
<ele>164.979996</ele>
<time>2023-11-30T13:20:46.994Z</time>
</trkpt>
<trkpt lat="32.6210300" lon="35.1278900">
<ele>164.419998</ele>
<time>2023-11-30T13:20:46.994Z</time>
</trkpt>
<trkpt lat="32.6210600" lon="35.1279600">
<ele>163.020004</ele>
<time>2023-11-30T13:20:46.994Z</time>
</trkpt>
<trkpt lat="32.6210700" lon="35.1280700">
<ele>161.750000</ele>
<time>2023-11-30T13:20:46.994Z</time>
</trkpt>
<trkpt lat="32.6211000" lon="35.1281900">
<ele>161.590012</ele>
<time>2023-11-30T13:20:46.994Z</time>
</trkpt>
<trkpt lat="32.6211200" lon="35.1282500">
<ele>161.509995</ele>
<time>2023-11-30T13:20:46.994Z</time>
</trkpt>
<trkpt lat="32.6211500" lon="35.1283500">
<ele>161.120010</ele>
<time>2023-11-30T13:20:46.994Z</time>
</trkpt>
<trkpt lat="32.6211600" lon="35.1283900">
<ele>160.809998</ele>
<time>2023-11-30T13:20:46.994Z</time>
</trkpt>
<trkpt lat="32.6211800" lon="35.1284100">
<ele>160.370010</ele>
<time>2023-11-30T13:20:46.994Z</time>
</trkpt>
<trkpt lat="32.6212300" lon="35.1284700">
<ele>159.360001</ele>
<time>2023-11-30T13:20:46.994Z</time>
</trkpt>
<trkpt lat="32.6212600" lon="35.1285400">
<ele>158.839996</ele>
<time>2023-11-30T13:20:46.994Z</time>
</trkpt>
<trkpt lat="32.6212800" lon="35.1286000">
<ele>158.559998</ele>
<time>2023-11-30T13:20:46.994Z</time>
</trkpt>
<trkpt lat="32.6212900" lon="35.1286800">
<ele>157.610001</ele>
<time>2023-11-30T13:20:46.994Z</time>
</trkpt>
<trkpt lat="32.6213000" lon="35.1287200">
<ele>156.960007</ele>
<time>2023-11-30T13:20:46.994Z</time>
</trkpt>
<trkpt lat="32.6213100" lon="35.1288500">
<ele>155.179993</ele>
<time>2023-11-30T13:20:46.994Z</time>
</trkpt>
<trkpt lat="32.6213400" lon="35.1290100">
<ele>153.029999</ele>
<time>2023-11-30T13:20:46.994Z</time>
</trkpt>
<trkpt lat="32.6213600" lon="35.1290600">
<ele>152.259995</ele>
<time>2023-11-30T13:20:46.994Z</time>
</trkpt>
<trkpt lat="32.6214000" lon="35.1291100">
<ele>151.220001</ele>
<time>2023-11-30T13:20:46.994Z</time>
</trkpt>
<trkpt lat="32.6214200" lon="35.1291500">
<ele>150.570007</ele>
<time>2023-11-30T13:20:46.994Z</time>
</trkpt>
<trkpt lat="32.6214400" lon="35.1291700">
<ele>150.029999</ele>
<time>2023-11-30T13:20:46.994Z</time>
</trkpt>
<trkpt lat="32.6214500" lon="35.1292000">
<ele>149.410004</ele>
<time>2023-11-30T13:20:46.994Z</time>
</trkpt>
<trkpt lat="32.6214800" lon="35.1292200">
<ele>148.649994</ele>
<time>2023-11-30T13:20:46.994Z</time>
</trkpt>
<trkpt lat="32.6216100" lon="35.1293000">
<ele>146.149994</ele>
<time>2023-11-30T13:20:46.994Z</time>
</trkpt>
<trkpt lat="32.6216600" lon="35.1293500">
<ele>145.399994</ele>
<time>2023-11-30T13:20:46.994Z</time>
</trkpt>
<trkpt lat="32.6217900" lon="35.1295200">
<ele>144.220001</ele>
<time>2023-11-30T13:20:46.994Z</time>
</trkpt>
<trkpt lat="32.6218100" lon="35.1295500">
<ele>144.130005</ele>
<time>2023-11-30T13:20:46.994Z</time>
</trkpt>
<trkpt lat="32.6218300" lon="35.1296700">
<ele>143.889999</ele>
<time>2023-11-30T13:20:46.994Z</time>
</trkpt>
<trkpt lat="32.6218800" lon="35.1297500">
<ele>144.000000</ele>
<time>2023-11-30T13:20:46.994Z</time>
</trkpt>
<trkpt lat="32.6219400" lon="35.1298500">
<ele>143.569992</ele>
<time>2023-11-30T13:20:46.994Z</time>
</trkpt>
<trkpt lat="32.6219900" lon="35.1299200">
<ele>142.039993</ele>
<time>2023-11-30T13:20:46.994Z</time>
</trkpt>
<trkpt lat="32.6220000" lon="35.1299900">
<ele>141.110001</ele>
<time>2023-11-30T13:20:46.994Z</time>
</trkpt>
<trkpt lat="32.6220100" lon="35.1300400">
<ele>139.690002</ele>
<time>2023-11-30T13:20:46.994Z</time>
</trkpt>
<trkpt lat="32.6220200" lon="35.1301000">
<ele>137.889999</ele>
<time>2023-11-30T13:20:46.994Z</time>
</trkpt>
<trkpt lat="32.6220300" lon="35.1301500">
<ele>136.429993</ele>
<time>2023-11-30T13:20:46.994Z</time>
</trkpt>
<trkpt lat="32.6221900" lon="35.1303000">
<ele>132.509995</ele>
<time>2023-11-30T13:20:46.994Z</time>
</trkpt>
<trkpt lat="32.6222200" lon="35.1303200">
<ele>132.089996</ele>
<time>2023-11-30T13:20:46.994Z</time>
</trkpt>
<trkpt lat="32.6222900" lon="35.1303000">
<ele>131.150009</ele>
<time>2023-11-30T13:20:46.994Z</time>
</trkpt>
<trkpt lat="32.6223700" lon="35.1302900">
<ele>129.660004</ele>
<time>2023-11-30T13:20:46.994Z</time>
</trkpt>
<trkpt lat="32.6224100" lon="35.1302800">
<ele>128.919998</ele>
<time>2023-11-30T13:20:46.994Z</time>
</trkpt>
<trkpt lat="32.6224300" lon="35.1302700">
<ele>128.559998</ele>
<time>2023-11-30T13:20:46.994Z</time>
</trkpt>
<trkpt lat="32.6224100" lon="35.1302700">
<ele>129.000000</ele>
<time>2023-11-30T13:20:46.994Z</time>
</trkpt>
<trkpt lat="32.6223600" lon="35.1302700">
<ele>130.089996</ele>
<time>2023-11-30T13:20:46.994Z</time>
</trkpt>
<trkpt lat="32.6223200" lon="35.1302900">
<ele>130.699997</ele>
<time>2023-11-30T13:20:46.994Z</time>
</trkpt>
<trkpt lat="32.6223000" lon="35.1303100">
<ele>130.789993</ele>
<time>2023-11-30T13:20:46.994Z</time>
</trkpt>
<trkpt lat="32.6222700" lon="35.1303200">
<ele>131.190002</ele>
<time>2023-11-30T13:20:46.994Z</time>
</trkpt>
<trkpt lat="32.6222400" lon="35.1303300">
<ele>131.550003</ele>
<time>2023-11-30T13:20:46.994Z</time>
</trkpt>
<trkpt lat="32.6222200" lon="35.1303700">
<ele>131.010010</ele>
<time>2023-11-30T13:20:46.994Z</time>
</trkpt>
<trkpt lat="32.6222100" lon="35.1304000">
<ele>130.339996</ele>
<time>2023-11-30T13:20:46.994Z</time>
</trkpt>
<trkpt lat="32.6221900" lon="35.1304400">
<ele>129.429993</ele>
<time>2023-11-30T13:20:46.994Z</time>
</trkpt>
<trkpt lat="32.6220000" lon="35.1306300">
<ele>125.339996</ele>
<time>2023-11-30T13:20:46.994Z</time>
</trkpt>
<trkpt lat="32.6219500" lon="35.1307100">
<ele>124.340004</ele>
<time>2023-11-30T13:20:46.994Z</time>
</trkpt>
<trkpt lat="32.6219200" lon="35.1307600">
<ele>123.619995</ele>
<time>2023-11-30T13:20:46.994Z</time>
</trkpt>
<trkpt lat="32.6219100" lon="35.1308700">
<ele>122.389999</ele>
<time>2023-11-30T13:20:46.994Z</time>
</trkpt>
<trkpt lat="32.6219100" lon="35.1309200">
<ele>121.889999</ele>
<time>2023-11-30T13:20:46.994Z</time>
</trkpt>
<trkpt lat="32.6219100" lon="35.1309800">
<ele>121.300003</ele>
<time>2023-11-30T13:20:46.994Z</time>
</trkpt>
<trkpt lat="32.6219200" lon="35.1310200">
<ele>120.930008</ele>
<time>2023-11-30T13:20:46.994Z</time>
</trkpt>
<trkpt lat="32.6219400" lon="35.1310600">
<ele>120.550003</ele>
<time>2023-11-30T13:20:46.994Z</time>
</trkpt>
<trkpt lat="32.6219700" lon="35.1310800">
<ele>120.340004</ele>
<time>2023-11-30T13:20:46.994Z</time>
</trkpt>
<trkpt lat="32.6221000" lon="35.1311000">
<ele>120.119995</ele>
<time>2023-11-30T13:20:46.994Z</time>
</trkpt>
<trkpt lat="32.6221400" lon="35.1311200">
<ele>119.889999</ele>
<time>2023-11-30T13:20:46.994Z</time>
</trkpt>
<trkpt lat="32.6221800" lon="35.1311500">
<ele>119.480003</ele>
<time>2023-11-30T13:20:46.994Z</time>
</trkpt>
<trkpt lat="32.6222100" lon="35.1311800">
<ele>119.029999</ele>
<time>2023-11-30T13:20:46.994Z</time>
</trkpt>
<trkpt lat="32.6223800" lon="35.1315000">
<ele>114.339996</ele>
<time>2023-11-30T13:20:46.994Z</time>
</trkpt>
<trkpt lat="32.6223800" lon="35.1315900">
<ele>113.459999</ele>
<time>2023-11-30T13:20:46.994Z</time>
</trkpt>
<trkpt lat="32.6223800" lon="35.1316900">
<ele>112.550003</ele>
<time>2023-11-30T13:20:46.994Z</time>
</trkpt>
<trkpt lat="32.6223700" lon="35.1317900">
<ele>111.739998</ele>
<time>2023-11-30T13:20:46.994Z</time>
</trkpt>
<trkpt lat="32.6222700" lon="35.1319700">
<ele>108.320000</ele>
<time>2023-11-30T13:20:46.994Z</time>
</trkpt>
<trkpt lat="32.6221600" lon="35.1321500">
<ele>102.610001</ele>
<time>2023-11-30T13:20:46.994Z</time>
</trkpt>
<trkpt lat="32.6220700" lon="35.1322200">
<ele>99.849998</ele>
<time>2023-11-30T13:20:46.994Z</time>
</trkpt>
<trkpt lat="32.6220200" lon="35.1322300">
<ele>99.040001</ele>
<time>2023-11-30T13:20:46.994Z</time>
</trkpt>
<trkpt lat="32.6219700" lon="35.1322300">
<ele>98.330002</ele>
<time>2023-11-30T13:20:46.994Z</time>
</trkpt>
<trkpt lat="32.6218500" lon="35.1322300">
<ele>98.290001</ele>
<time>2023-11-30T13:20:46.994Z</time>
</trkpt>
<trkpt lat="32.6217500" lon="35.1322300">
<ele>98.629997</ele>
<time>2023-11-30T13:20:46.994Z</time>
</trkpt>
<trkpt lat="32.6217000" lon="35.1322200">
<ele>98.919998</ele>
<time>2023-11-30T13:20:46.994Z</time>
</trkpt>
<trkpt lat="32.6216100" lon="35.1322000">
<ele>99.620003</ele>
<time>2023-11-30T13:20:46.994Z</time>
</trkpt>
<trkpt lat="32.6215700" lon="35.1321800">
<ele>100.159996</ele>
<time>2023-11-30T13:20:46.994Z</time>
</trkpt>
<trkpt lat="32.6214000" lon="35.1321700">
<ele>101.079994</ele>
<time>2023-11-30T13:20:46.994Z</time>
</trkpt>
<trkpt lat="32.6213600" lon="35.1321600">
<ele>101.190002</ele>
<time>2023-11-30T13:20:46.994Z</time>
</trkpt>
<trkpt lat="32.6212000" lon="35.1321600">
<ele>100.360001</ele>
<time>2023-11-30T13:20:46.994Z</time>
</trkpt>
<trkpt lat="32.6211500" lon="35.1321500">
<ele>100.250000</ele>
<time>2023-11-30T13:20:46.994Z</time>
</trkpt>
<trkpt lat="32.6210900" lon="35.1321500">
<ele>100.250000</ele>
<time>2023-11-30T13:20:46.994Z</time>
</trkpt>
<trkpt lat="32.6210300" lon="35.1321400">
<ele>100.919998</ele>
<time>2023-11-30T13:20:46.994Z</time>
</trkpt>
<trkpt lat="32.6209900" lon="35.1321200">
<ele>101.409996</ele>
<time>2023-11-30T13:20:46.994Z</time>
</trkpt>
<trkpt lat="32.6209400" lon="35.1321000">
<ele>101.869995</ele>
<time>2023-11-30T13:20:46.994Z</time>
</trkpt>
<trkpt lat="32.6208700" lon="35.1320900">
<ele>102.309998</ele>
<time>2023-11-30T13:20:46.994Z</time>
</trkpt>
<trkpt lat="32.6208300" lon="35.1320900">
<ele>102.580002</ele>
<time>2023-11-30T13:20:46.994Z</time>
</trkpt>
<trkpt lat="32.6208100" lon="35.1321000">
<ele>102.980003</ele>
<time>2023-11-30T13:20:46.994Z</time>
</trkpt>
<trkpt lat="32.6208000" lon="35.1321700">
<ele>103.410004</ele>
<time>2023-11-30T13:20:46.994Z</time>
</trkpt>
<trkpt lat="32.6208000" lon="35.1322100">
<ele>103.560005</ele>
<time>2023-11-30T13:20:46.994Z</time>
</trkpt>
<trkpt lat="32.6208400" lon="35.1322900">
<ele>103.399994</ele>
<time>2023-11-30T13:20:46.994Z</time>
</trkpt>
<trkpt lat="32.6208900" lon="35.1323100">
<ele>102.879997</ele>
<time>2023-11-30T13:20:46.994Z</time>
</trkpt>
<trkpt lat="32.6211600" lon="35.1323800">
<ele>100.479996</ele>
<time>2023-11-30T13:20:46.994Z</time>
</trkpt>
<trkpt lat="32.6212600" lon="35.1324400">
<ele>100.210007</ele>
<time>2023-11-30T13:20:46.994Z</time>
</trkpt>
<trkpt lat="32.6213100" lon="35.1324700">
<ele>99.839996</ele>
<time>2023-11-30T13:20:46.994Z</time>
</trkpt>
<trkpt lat="32.6213600" lon="35.1325100">
<ele>99.389999</ele>
<time>2023-11-30T13:20:46.994Z</time>
</trkpt>
<trkpt lat="32.6218000" lon="35.1329100">
<ele>98.939995</ele>
<time>2023-11-30T13:20:46.994Z</time>
</trkpt>
<trkpt lat="32.6218500" lon="35.1329600">
<ele>99.099998</ele>
<time>2023-11-30T13:20:46.994Z</time>
</trkpt>
<trkpt lat="32.6222200" lon="35.1335000">
<ele>94.629997</ele>
<time>2023-11-30T13:20:46.994Z</time>
</trkpt>
<trkpt lat="32.6223100" lon="35.1336400">
<ele>94.470001</ele>
<time>2023-11-30T13:20:46.994Z</time>
</trkpt>
<trkpt lat="32.6224500" lon="35.1339700">
<ele>94.409996</ele>
<time>2023-11-30T13:20:46.994Z</time>
</trkpt>
<trkpt lat="32.6225500" lon="35.1341300">
<ele>93.299995</ele>
<time>2023-11-30T13:20:46.994Z</time>
</trkpt>
<trkpt lat="32.6226000" lon="35.1342000">
<ele>92.280006</ele>
<time>2023-11-30T13:20:46.994Z</time>
</trkpt>
<trkpt lat="32.6228600" lon="35.1345100">
<ele>86.919998</ele>
<time>2023-11-30T13:20:46.994Z</time>
</trkpt>
<trkpt lat="32.6229200" lon="35.1345700">
<ele>86.599998</ele>
<time>2023-11-30T13:20:46.994Z</time>
</trkpt>
<trkpt lat="32.6233700" lon="35.1350500">
<ele>76.979996</ele>
<time>2023-11-30T13:20:46.994Z</time>
</trkpt>
<trkpt lat="32.6234500" lon="35.1350900">
<ele>75.989998</ele>
<time>2023-11-30T13:20:46.994Z</time>
</trkpt>
<trkpt lat="32.6234900" lon="35.1350900">
<ele>75.739998</ele>
<time>2023-11-30T13:20:46.994Z</time>
</trkpt>
<trkpt lat="32.6236000" lon="35.1350900">
<ele>75.070000</ele>
<time>2023-11-30T13:20:46.994Z</time>
</trkpt>
<trkpt lat="32.6237000" lon="35.1350700">
<ele>76.839996</ele>
<time>2023-11-30T13:20:46.994Z</time>
</trkpt>
<trkpt lat="32.6238500" lon="35.1350100">
<ele>80.870003</ele>
<time>2023-11-30T13:20:46.994Z</time>
</trkpt>
<trkpt lat="32.6239200" lon="35.1349700">
<ele>81.639999</ele>
<time>2023-11-30T13:20:46.994Z</time>
</trkpt>
<trkpt lat="32.6239700" lon="35.1349500">
<ele>80.910004</ele>
<time>2023-11-30T13:20:46.994Z</time>
</trkpt>
<trkpt lat="32.6241400" lon="35.1348100">
<ele>77.830002</ele>
<time>2023-11-30T13:20:46.994Z</time>
</trkpt>
<trkpt lat="32.6241600" lon="35.1347800">
<ele>77.340004</ele>
<time>2023-11-30T13:20:46.994Z</time>
</trkpt>
<trkpt lat="32.6242300" lon="35.1347100">
<ele>76.519997</ele>
<time>2023-11-30T13:20:46.994Z</time>
</trkpt>
<trkpt lat="32.6242700" lon="35.1346700">
<ele>76.120003</ele>
<time>2023-11-30T13:20:46.994Z</time>
</trkpt>
<trkpt lat="32.6243500" lon="35.1345700">
<ele>74.959999</ele>
<time>2023-11-30T13:20:46.994Z</time>
</trkpt>
<trkpt lat="32.6244600" lon="35.1344700">
<ele>73.080002</ele>
<time>2023-11-30T13:20:46.994Z</time>
</trkpt>
<trkpt lat="32.6246500" lon="35.1343500">
<ele>70.589996</ele>
<time>2023-11-30T13:20:46.994Z</time>
</trkpt>
<trkpt lat="32.6247100" lon="35.1342800">
<ele>69.339996</ele>
<time>2023-11-30T13:20:46.994Z</time>
</trkpt>
<trkpt lat="32.6247700" lon="35.1342100">
<ele>68.120003</ele>
<time>2023-11-30T13:20:46.994Z</time>
</trkpt>
<trkpt lat="32.6248500" lon="35.1341300">
<ele>66.820000</ele>
<time>2023-11-30T13:20:46.994Z</time>
</trkpt>
<trkpt lat="32.6251200" lon="35.1339100">
<ele>65.680000</ele>
<time>2023-11-30T13:20:46.994Z</time>
</trkpt>
<trkpt lat="32.6253700" lon="35.1337200">
<ele>68.830002</ele>
<time>2023-11-30T13:20:46.994Z</time>
</trkpt>
<trkpt lat="32.6254200" lon="35.1336800">
<ele>69.120003</ele>
<time>2023-11-30T13:20:46.994Z</time>
</trkpt>
<trkpt lat="32.6255900" lon="35.1335400">
<ele>70.489998</ele>
<time>2023-11-30T13:20:46.994Z</time>
</trkpt>
<trkpt lat="32.6256900" lon="35.1334600">
<ele>69.410004</ele>
<time>2023-11-30T13:20:46.994Z</time>
</trkpt>
<trkpt lat="32.6258600" lon="35.1333500">
<ele>65.939995</ele>
<time>2023-11-30T13:20:46.994Z</time>
</trkpt>
<trkpt lat="32.6260700" lon="35.1332100">
<ele>66.300003</ele>
<time>2023-11-30T13:20:46.994Z</time>
</trkpt>
<trkpt lat="32.6262800" lon="35.1331100">
<ele>61.610001</ele>
<time>2023-11-30T13:20:46.994Z</time>
</trkpt>
<trkpt lat="32.6264500" lon="35.1329900">
<ele>58.500000</ele>
<time>2023-11-30T13:20:46.994Z</time>
</trkpt>
<trkpt lat="32.6265600" lon="35.1329000">
<ele>57.789997</ele>
<time>2023-11-30T13:20:46.994Z</time>
</trkpt>
<trkpt lat="32.6267700" lon="35.1327200">
<ele>55.610001</ele>
<time>2023-11-30T13:20:46.994Z</time>
</trkpt>
<trkpt lat="32.6268300" lon="35.1327000">
<ele>54.980003</ele>
<time>2023-11-30T13:20:46.994Z</time>
</trkpt>
<trkpt lat="32.6268600" lon="35.1326800">
<ele>54.690002</ele>
<time>2023-11-30T13:20:46.994Z</time>
</trkpt>
<trkpt lat="32.6270200" lon="35.1326400">
<ele>52.950001</ele>
<time>2023-11-30T13:20:46.994Z</time>
</trkpt>
<trkpt lat="32.6270800" lon="35.1326200">
<ele>52.529999</ele>
<time>2023-11-30T13:20:46.994Z</time>
</trkpt>
<trkpt lat="32.6272000" lon="35.1325300">
<ele>51.330002</ele>
<time>2023-11-30T13:20:46.994Z</time>
</trkpt>
<trkpt lat="32.6273700" lon="35.1323700">
<ele>54.660000</ele>
<time>2023-11-30T13:20:46.994Z</time>
</trkpt>
<trkpt lat="32.6274800" lon="35.1321800">
<ele>57.660000</ele>
<time>2023-11-30T13:20:46.994Z</time>
</trkpt>
<trkpt lat="32.6275200" lon="35.1321300">
<ele>58.380001</ele>
<time>2023-11-30T13:20:46.994Z</time>
</trkpt>
<trkpt lat="32.6275800" lon="35.1319900">
<ele>59.959999</ele>
<time>2023-11-30T13:20:46.994Z</time>
</trkpt>
<trkpt lat="32.6276400" lon="35.1318500">
<ele>61.519997</ele>
<time>2023-11-30T13:20:46.994Z</time>
</trkpt>
<trkpt lat="32.6276500" lon="35.1318300">
<ele>61.720001</ele>
<time>2023-11-30T13:20:46.994Z</time>
</trkpt>
<trkpt lat="32.6276900" lon="35.1317800">
<ele>61.969997</ele>
<time>2023-11-30T13:20:46.994Z</time>
</trkpt>
<trkpt lat="32.6276900" lon="35.1317500">
<ele>62.400002</ele>
<time>2023-11-30T13:20:46.994Z</time>
</trkpt>
<trkpt lat="32.6276500" lon="35.1317100">
<ele>63.619999</ele>
<time>2023-11-30T13:20:46.994Z</time>
</trkpt>
<trkpt lat="32.6276300" lon="35.1316700">
<ele>64.599998</ele>
<time>2023-11-30T13:20:46.994Z</time>
</trkpt>
<trkpt lat="32.6276200" lon="35.1316300">
<ele>65.709999</ele>
<time>2023-11-30T13:20:46.994Z</time>
</trkpt>
<trkpt lat="32.6276200" lon="35.1315900">
<ele>66.650002</ele>
<time>2023-11-30T13:20:46.994Z</time>
</trkpt>
<trkpt lat="32.6276400" lon="35.1315500">
<ele>67.209999</ele>
<time>2023-11-30T13:20:46.994Z</time>
</trkpt>
<trkpt lat="32.6276900" lon="35.1315000">
<ele>67.370003</ele>
<time>2023-11-30T13:20:46.994Z</time>
</trkpt>
<trkpt lat="32.6277000" lon="35.1314500">
<ele>68.299995</ele>
<time>2023-11-30T13:20:46.994Z</time>
</trkpt>
<trkpt lat="32.6276900" lon="35.1313900">
<ele>69.870003</ele>
<time>2023-11-30T13:20:46.994Z</time>
</trkpt>
<trkpt lat="32.6276700" lon="35.1313700">
<ele>70.659996</ele>
<time>2023-11-30T13:20:46.994Z</time>
</trkpt>
<trkpt lat="32.6275900" lon="35.1313100">
<ele>73.180000</ele>
<time>2023-11-30T13:20:46.994Z</time>
</trkpt>
<trkpt lat="32.6275700" lon="35.1313000">
<ele>73.690002</ele>
<time>2023-11-30T13:20:46.994Z</time>
</trkpt>
<trkpt lat="32.6275200" lon="35.1312500">
<ele>75.180000</ele>
<time>2023-11-30T13:20:46.994Z</time>
</trkpt>
<trkpt lat="32.6275000" lon="35.1312000">
<ele>76.040001</ele>
<time>2023-11-30T13:20:46.994Z</time>
</trkpt>
<trkpt lat="32.6274700" lon="35.1311700">
<ele>76.360001</ele>
<time>2023-11-30T13:20:46.994Z</time>
</trkpt>
<trkpt lat="32.6274500" lon="35.1311500">
<ele>76.580002</ele>
<time>2023-11-30T13:20:46.994Z</time>
</trkpt>
<trkpt lat="32.6273800" lon="35.1310700">
<ele>77.529999</ele>
<time>2023-11-30T13:20:46.994Z</time>
</trkpt>
<trkpt lat="32.6273300" lon="35.1310100">
<ele>78.229996</ele>
<time>2023-11-30T13:20:46.994Z</time>
</trkpt>
<trkpt lat="32.6273100" lon="35.1309600">
<ele>78.800003</ele>
<time>2023-11-30T13:20:46.994Z</time>
</trkpt>
<trkpt lat="32.6272700" lon="35.1309200">
<ele>79.180008</ele>
<time>2023-11-30T13:20:46.994Z</time>
</trkpt>
<trkpt lat="32.6272300" lon="35.1308400">
<ele>79.960007</ele>
<time>2023-11-30T13:20:46.994Z</time>
</trkpt>
<trkpt lat="32.6272100" lon="35.1308100">
<ele>80.420006</ele>
<time>2023-11-30T13:20:46.994Z</time>
</trkpt>
<trkpt lat="32.6271900" lon="35.1307600">
<ele>81.320007</ele>
<time>2023-11-30T13:20:46.994Z</time>
</trkpt>
<trkpt lat="32.6271800" lon="35.1307200">
<ele>82.039993</ele>
<time>2023-11-30T13:20:46.994Z</time>
</trkpt>
<trkpt lat="32.6271700" lon="35.1306800">
<ele>82.760002</ele>
<time>2023-11-30T13:20:46.994Z</time>
</trkpt>
<trkpt lat="32.6271500" lon="35.1306000">
<ele>84.199997</ele>
<time>2023-11-30T13:20:46.994Z</time>
</trkpt>
<trkpt lat="32.6271300" lon="35.1305700">
<ele>84.739998</ele>
<time>2023-11-30T13:20:46.994Z</time>
</trkpt>
<trkpt lat="32.6270700" lon="35.1304700">
<ele>86.709999</ele>
<time>2023-11-30T13:20:46.994Z</time>
</trkpt>
<trkpt lat="32.6270400" lon="35.1304100">
<ele>87.959999</ele>
<time>2023-11-30T13:20:46.994Z</time>
</trkpt>
<trkpt lat="32.6269600" lon="35.1303000">
<ele>90.470001</ele>
<time>2023-11-30T13:20:46.994Z</time>
</trkpt>
<trkpt lat="32.6269300" lon="35.1302600">
<ele>91.070007</ele>
<time>2023-11-30T13:20:46.994Z</time>
</trkpt>
<trkpt lat="32.6268800" lon="35.1301800">
<ele>91.760002</ele>
<time>2023-11-30T13:20:46.994Z</time>
</trkpt>
<trkpt lat="32.6268500" lon="35.1301300">
<ele>92.320000</ele>
<time>2023-11-30T13:20:46.994Z</time>
</trkpt>
<trkpt lat="32.6267900" lon="35.1300700">
<ele>92.790001</ele>
<time>2023-11-30T13:20:46.994Z</time>
</trkpt>
<trkpt lat="32.6267400" lon="35.1300200">
<ele>93.329994</ele>
<time>2023-11-30T13:20:46.994Z</time>
</trkpt>
<trkpt lat="32.6266900" lon="35.1299900">
<ele>93.530006</ele>
<time>2023-11-30T13:20:46.994Z</time>
</trkpt>
<trkpt lat="32.6266200" lon="35.1299500">
<ele>94.209999</ele>
<time>2023-11-30T13:20:46.994Z</time>
</trkpt>
<trkpt lat="32.6265900" lon="35.1299300">
<ele>94.600006</ele>
<time>2023-11-30T13:20:46.994Z</time>
</trkpt>
<trkpt lat="32.6265100" lon="35.1298900">
<ele>95.159996</ele>
<time>2023-11-30T13:20:46.994Z</time>
</trkpt>
<trkpt lat="32.6263900" lon="35.1297900">
<ele>96.550003</ele>
<time>2023-11-30T13:20:46.994Z</time>
</trkpt>
<trkpt lat="32.6263100" lon="35.1296800">
<ele>96.880005</ele>
<time>2023-11-30T13:20:46.994Z</time>
</trkpt>
<trkpt lat="32.6262900" lon="35.1296300">
<ele>97.209999</ele>
<time>2023-11-30T13:20:46.994Z</time>
</trkpt>
<trkpt lat="32.6262600" lon="35.1295800">
<ele>97.460007</ele>
<time>2023-11-30T13:20:46.994Z</time>
</trkpt>
<trkpt lat="32.6262500" lon="35.1295500">
<ele>97.790001</ele>
<time>2023-11-30T13:20:46.994Z</time>
</trkpt>
<trkpt lat="32.6262100" lon="35.1294500">
<ele>98.969994</ele>
<time>2023-11-30T13:20:46.994Z</time>
</trkpt>
<trkpt lat="32.6261800" lon="35.1294100">
<ele>99.330002</ele>
<time>2023-11-30T13:20:46.994Z</time>
</trkpt>
<trkpt lat="32.6261100" lon="35.1292000">
<ele>102.370003</ele>
<time>2023-11-30T13:20:46.994Z</time>
</trkpt>
<trkpt lat="32.6260900" lon="35.1291400">
<ele>102.759995</ele>
<time>2023-11-30T13:20:46.994Z</time>
</trkpt>
<trkpt lat="32.6260800" lon="35.1290600">
<ele>103.410004</ele>
<time>2023-11-30T13:20:46.994Z</time>
</trkpt>
<trkpt lat="32.6260700" lon="35.1290000">
<ele>103.849998</ele>
<time>2023-11-30T13:20:46.994Z</time>
</trkpt>
<trkpt lat="32.6260600" lon="35.1289400">
<ele>104.309998</ele>
<time>2023-11-30T13:20:46.994Z</time>
</trkpt>
<trkpt lat="32.6260500" lon="35.1288900">
<ele>104.669998</ele>
<time>2023-11-30T13:20:46.994Z</time>
</trkpt>
<trkpt lat="32.6260500" lon="35.1288500">
<ele>104.570000</ele>
<time>2023-11-30T13:20:46.994Z</time>
</trkpt>
<trkpt lat="32.6260400" lon="35.1288100">
<ele>104.250000</ele>
<time>2023-11-30T13:20:46.994Z</time>
</trkpt>
<trkpt lat="32.6260300" lon="35.1287700">
<ele>103.940002</ele>
<time>2023-11-30T13:20:46.994Z</time>
</trkpt>
<trkpt lat="32.6260200" lon="35.1287200">
<ele>103.620003</ele>
<time>2023-11-30T13:20:46.994Z</time>
</trkpt>
<trkpt lat="32.6260200" lon="35.1286600">
<ele>103.480003</ele>
<time>2023-11-30T13:20:46.994Z</time>
</trkpt>
<trkpt lat="32.6260200" lon="35.1286100">
<ele>103.360001</ele>
<time>2023-11-30T13:20:46.994Z</time>
</trkpt>
<trkpt lat="32.6260300" lon="35.1285400">
<ele>103.539993</ele>
<time>2023-11-30T13:20:46.994Z</time>
</trkpt>
<trkpt lat="32.6260300" lon="35.1285000">
<ele>103.539993</ele>
<time>2023-11-30T13:20:46.994Z</time>
</trkpt>
<trkpt lat="32.6260400" lon="35.1284100">
<ele>103.720001</ele>
<time>2023-11-30T13:20:46.994Z</time>
</trkpt>
<trkpt lat="32.6260400" lon="35.1283400">
<ele>103.720001</ele>
<time>2023-11-30T13:20:46.994Z</time>
</trkpt>
<trkpt lat="32.6260300" lon="35.1282200">
<ele>104.480003</ele>
<time>2023-11-30T13:20:46.994Z</time>
</trkpt>
<trkpt lat="32.6260300" lon="35.1281600">
<ele>104.970001</ele>
<time>2023-11-30T13:20:46.994Z</time>
</trkpt>
<trkpt lat="32.6260300" lon="35.1280700">
<ele>105.710007</ele>
<time>2023-11-30T13:20:46.994Z</time>
</trkpt>
<trkpt lat="32.6260200" lon="35.1280300">
<ele>106.059998</ele>
<time>2023-11-30T13:20:46.994Z</time>
</trkpt>
<trkpt lat="32.6260200" lon="35.1279700">
<ele>106.920006</ele>
<time>2023-11-30T13:20:46.994Z</time>
</trkpt>
<trkpt lat="32.6260200" lon="35.1279300">
<ele>107.500000</ele>
<time>2023-11-30T13:20:46.994Z</time>
</trkpt>
<trkpt lat="32.6260300" lon="35.1278900">
<ele>108.220001</ele>
<time>2023-11-30T13:20:46.994Z</time>
</trkpt>
<trkpt lat="32.6260300" lon="35.1278600">
<ele>108.650002</ele>
<time>2023-11-30T13:20:46.994Z</time>
</trkpt>
<trkpt lat="32.6260400" lon="35.1276600">
<ele>110.930000</ele>
<time>2023-11-30T13:20:46.994Z</time>
</trkpt>
<trkpt lat="32.6260500" lon="35.1276000">
<ele>111.540001</ele>
<time>2023-11-30T13:20:46.994Z</time>
</trkpt>
<trkpt lat="32.6260500" lon="35.1275300">
<ele>112.100006</ele>
<time>2023-11-30T13:20:46.994Z</time>
</trkpt>
<trkpt lat="32.6260500" lon="35.1274900">
<ele>112.450005</ele>
<time>2023-11-30T13:20:46.994Z</time>
</trkpt>
<trkpt lat="32.6260500" lon="35.1274100">
<ele>113.310005</ele>
<time>2023-11-30T13:20:46.994Z</time>
</trkpt>
<trkpt lat="32.6260500" lon="35.1273600">
<ele>113.849998</ele>
<time>2023-11-30T13:20:46.994Z</time>
</trkpt>
<trkpt lat="32.6260500" lon="35.1273200">
<ele>114.279999</ele>
<time>2023-11-30T13:20:46.994Z</time>
</trkpt>
<trkpt lat="32.6260500" lon="35.1272800">
<ele>114.720001</ele>
<time>2023-11-30T13:20:46.994Z</time>
</trkpt>
<trkpt lat="32.6260600" lon="35.1271800">
<ele>115.959999</ele>
<time>2023-11-30T13:20:46.994Z</time>
</trkpt>
<trkpt lat="32.6260600" lon="35.1270400">
<ele>117.659996</ele>
<time>2023-11-30T13:20:46.994Z</time>
</trkpt>
<trkpt lat="32.6260700" lon="35.1270000">
<ele>118.190002</ele>
<time>2023-11-30T13:20:46.994Z</time>
</trkpt>
<trkpt lat="32.6260800" lon="35.1269700">
<ele>118.589996</ele>
<time>2023-11-30T13:20:46.994Z</time>
</trkpt>
<trkpt lat="32.6260900" lon="35.1269200">
<ele>119.099998</ele>
<time>2023-11-30T13:20:46.994Z</time>
</trkpt>
<trkpt lat="32.6260900" lon="35.1268900">
<ele>119.320000</ele>
<time>2023-11-30T13:20:46.994Z</time>
</trkpt>
<trkpt lat="32.6261000" lon="35.1268400">
<ele>119.709999</ele>
<time>2023-11-30T13:20:46.994Z</time>
</trkpt>
<trkpt lat="32.6261000" lon="35.1267900">
<ele>120.070000</ele>
<time>2023-11-30T13:20:46.994Z</time>
</trkpt>
<trkpt lat="32.6261000" lon="35.1267400">
<ele>120.430000</ele>
<time>2023-11-30T13:20:46.994Z</time>
</trkpt>
<trkpt lat="32.6261100" lon="35.1266800">
<ele>120.899994</ele>
<time>2023-11-30T13:20:46.994Z</time>
</trkpt>
<trkpt lat="32.6261200" lon="35.1266200">
<ele>121.860001</ele>
<time>2023-11-30T13:20:46.994Z</time>
</trkpt>
<trkpt lat="32.6261300" lon="35.1265600">
<ele>122.920006</ele>
<time>2023-11-30T13:20:46.994Z</time>
</trkpt>
<trkpt lat="32.6261300" lon="35.1265200">
<ele>123.479996</ele>
<time>2023-11-30T13:20:46.994Z</time>
</trkpt>
<trkpt lat="32.6261200" lon="35.1264700">
<ele>124.000000</ele>
<time>2023-11-30T13:20:46.994Z</time>
</trkpt>
<trkpt lat="32.6261100" lon="35.1264200">
<ele>124.549995</ele>
<time>2023-11-30T13:20:46.994Z</time>
</trkpt>
<trkpt lat="32.6261000" lon="35.1263700">
<ele>125.230003</ele>
<time>2023-11-30T13:20:46.994Z</time>
</trkpt>
<trkpt lat="32.6260600" lon="35.1262400">
<ele>126.959999</ele>
<time>2023-11-30T13:20:46.994Z</time>
</trkpt>
<trkpt lat="32.6260600" lon="35.1261000">
<ele>129.020004</ele>
<time>2023-11-30T13:20:46.994Z</time>
</trkpt>
<trkpt lat="32.6260900" lon="35.1260200">
<ele>130.589996</ele>
<time>2023-11-30T13:20:46.994Z</time>
</trkpt>
<trkpt lat="32.6261100" lon="35.1259900">
<ele>131.180008</ele>
<time>2023-11-30T13:20:46.994Z</time>
</trkpt>
<trkpt lat="32.6261200" lon="35.1259400">
<ele>132.029999</ele>
<time>2023-11-30T13:20:46.994Z</time>
</trkpt>
<trkpt lat="32.6261200" lon="35.1258700">
<ele>133.259995</ele>
<time>2023-11-30T13:20:46.994Z</time>
</trkpt>
<trkpt lat="32.6260500" lon="35.1258400">
<ele>133.869995</ele>
<time>2023-11-30T13:20:46.994Z</time>
</trkpt>
<trkpt lat="32.6260200" lon="35.1258300">
<ele>134.050003</ele>
<time>2023-11-30T13:20:46.994Z</time>
</trkpt>
<trkpt lat="32.6259700" lon="35.1258300">
<ele>134.050003</ele>
<time>2023-11-30T13:20:46.994Z</time>
</trkpt>
<trkpt lat="32.6259400" lon="35.1258300">
<ele>134.059998</ele>
<time>2023-11-30T13:20:46.994Z</time>
</trkpt>
<trkpt lat="32.6258700" lon="35.1258300">
<ele>134.059998</ele>
<time>2023-11-30T13:20:46.994Z</time>
</trkpt>
<trkpt lat="32.6258300" lon="35.1258300">
<ele>134.040009</ele>
<time>2023-11-30T13:20:46.994Z</time>
</trkpt>
<trkpt lat="32.6257900" lon="35.1258300">
<ele>133.750000</ele>
<time>2023-11-30T13:20:46.994Z</time>
</trkpt>
<trkpt lat="32.6257500" lon="35.1258300">
<ele>133.460007</ele>
<time>2023-11-30T13:20:46.994Z</time>
</trkpt>
<trkpt lat="32.6257200" lon="35.1258300">
<ele>133.250000</ele>
<time>2023-11-30T13:20:46.994Z</time>
</trkpt>
<trkpt lat="32.6256800" lon="35.1258300">
<ele>132.959991</ele>
<time>2023-11-30T13:20:46.994Z</time>
</trkpt>
<trkpt lat="32.6256500" lon="35.1258300">
<ele>132.750000</ele>
<time>2023-11-30T13:20:46.994Z</time>
</trkpt>
<trkpt lat="32.6255700" lon="35.1258300">
<ele>132.179993</ele>
<time>2023-11-30T13:20:46.994Z</time>
</trkpt>
<trkpt lat="32.6254900" lon="35.1258200">
<ele>132.759995</ele>
<time>2023-11-30T13:20:46.994Z</time>
</trkpt>
<trkpt lat="32.6253900" lon="35.1257800">
<ele>134.339996</ele>
<time>2023-11-30T13:20:46.994Z</time>
</trkpt>
<trkpt lat="32.6252700" lon="35.1256800">
<ele>137.339996</ele>
<time>2023-11-30T13:20:46.994Z</time>
</trkpt>
<trkpt lat="32.6251900" lon="35.1255600">
<ele>140.220001</ele>
<time>2023-11-30T13:20:46.994Z</time>
</trkpt>
<trkpt lat="32.6251300" lon="35.1254700">
<ele>142.239990</ele>
<time>2023-11-30T13:20:46.994Z</time>
</trkpt>
<trkpt lat="32.6251000" lon="35.1253600">
<ele>144.610001</ele>
<time>2023-11-30T13:20:46.994Z</time>
</trkpt>
<trkpt lat="32.6250900" lon="35.1253300">
<ele>145.279999</ele>
<time>2023-11-30T13:20:46.994Z</time>
</trkpt>
<trkpt lat="32.6250700" lon="35.1253100">
<ele>145.830002</ele>
<time>2023-11-30T13:20:46.994Z</time>
</trkpt>
<trkpt lat="32.6250100" lon="35.1252400">
<ele>146.529999</ele>
<time>2023-11-30T13:20:46.994Z</time>
</trkpt>
<trkpt lat="32.6249600" lon="35.1251500">
<ele>144.800003</ele>
<time>2023-11-30T13:20:46.994Z</time>
</trkpt>
<trkpt lat="32.6248600" lon="35.1249800">
<ele>142.630005</ele>
<time>2023-11-30T13:20:46.994Z</time>
</trkpt>
<trkpt lat="32.6248200" lon="35.1249100">
<ele>142.699997</ele>
<time>2023-11-30T13:20:46.994Z</time>
</trkpt>
<trkpt lat="32.6248000" lon="35.1248700">
<ele>142.779999</ele>
<time>2023-11-30T13:20:46.994Z</time>
</trkpt>
<trkpt lat="32.6246500" lon="35.1245800">
<ele>140.790009</ele>
<time>2023-11-30T13:20:46.994Z</time>
</trkpt>
<trkpt lat="32.6245800" lon="35.1243500">
<ele>139.570007</ele>
<time>2023-11-30T13:20:46.994Z</time>
</trkpt>
<trkpt lat="32.6245600" lon="35.1243100">
<ele>139.209991</ele>
<time>2023-11-30T13:20:46.994Z</time>
</trkpt>
<trkpt lat="32.6245500" lon="35.1242600">
<ele>139.289993</ele>
<time>2023-11-30T13:20:46.994Z</time>
</trkpt>
<trkpt lat="32.6245300" lon="35.1241300">
<ele>139.610001</ele>
<time>2023-11-30T13:20:46.994Z</time>
</trkpt>
<trkpt lat="32.6245200" lon="35.1240900">
<ele>139.500000</ele>
<time>2023-11-30T13:20:46.994Z</time>
</trkpt>
<trkpt lat="32.6245100" lon="35.1240200">
<ele>139.570007</ele>
<time>2023-11-30T13:20:46.994Z</time>
</trkpt>
<trkpt lat="32.6245000" lon="35.1239600">
<ele>139.639999</ele>
<time>2023-11-30T13:20:46.994Z</time>
</trkpt>
<trkpt lat="32.6244900" lon="35.1238400">
<ele>140.000000</ele>
<time>2023-11-30T13:20:46.994Z</time>
</trkpt>
<trkpt lat="32.6244900" lon="35.1238100">
<ele>140.099991</ele>
<time>2023-11-30T13:20:46.994Z</time>
</trkpt>
<trkpt lat="32.6244800" lon="35.1237500">
<ele>140.139999</ele>
<time>2023-11-30T13:20:46.994Z</time>
</trkpt>
<trkpt lat="32.6244700" lon="35.1236600">
<ele>140.279999</ele>
<time>2023-11-30T13:20:46.994Z</time>
</trkpt>
<trkpt lat="32.6244500" lon="35.1235600">
<ele>140.110001</ele>
<time>2023-11-30T13:20:46.994Z</time>
</trkpt>
<trkpt lat="32.6244200" lon="35.1232400">
<ele>139.110001</ele>
<time>2023-11-30T13:20:46.994Z</time>
</trkpt>
<trkpt lat="32.6244100" lon="35.1231900">
<ele>138.739990</ele>
<time>2023-11-30T13:20:46.994Z</time>
</trkpt>
<trkpt lat="32.6244000" lon="35.1228200">
<ele>138.909988</ele>
<time>2023-11-30T13:20:46.994Z</time>
</trkpt>
<trkpt lat="32.6243600" lon="35.1226300">
<ele>140.669998</ele>
<time>2023-11-30T13:20:46.994Z</time>
</trkpt>
<trkpt lat="32.6243300" lon="35.1225500">
<ele>141.289993</ele>
<time>2023-11-30T13:20:46.994Z</time>
</trkpt>
<trkpt lat="32.6242900" lon="35.1225000">
<ele>141.110001</ele>
<time>2023-11-30T13:20:46.994Z</time>
</trkpt>
<trkpt lat="32.6242300" lon="35.1224200">
<ele>141.259995</ele>
<time>2023-11-30T13:20:46.994Z</time>
</trkpt>
<trkpt lat="32.6241700" lon="35.1223100">
<ele>142.180008</ele>
<time>2023-11-30T13:20:46.994Z</time>
</trkpt>
<trkpt lat="32.6241400" lon="35.1222200">
<ele>143.169998</ele>
<time>2023-11-30T13:20:46.994Z</time>
</trkpt>
<trkpt lat="32.6241200" lon="35.1221800">
<ele>143.199997</ele>
<time>2023-11-30T13:20:46.994Z</time>
</trkpt>
<trkpt lat="32.6240900" lon="35.1221400">
<ele>142.830002</ele>
<time>2023-11-30T13:20:46.994Z</time>
</trkpt>
<trkpt lat="32.6240200" lon="35.1219700">
<ele>142.830002</ele>
<time>2023-11-30T13:20:46.994Z</time>
</trkpt>
<trkpt lat="32.6239800" lon="35.1218600">
<ele>142.610001</ele>
<time>2023-11-30T13:20:46.994Z</time>
</trkpt>
<trkpt lat="32.6239600" lon="35.1218300">
<ele>142.059998</ele>
<time>2023-11-30T13:20:46.994Z</time>
</trkpt>
<trkpt lat="32.6239300" lon="35.1217800">
<ele>141.160004</ele>
<time>2023-11-30T13:20:46.994Z</time>
</trkpt>
<trkpt lat="32.6239100" lon="35.1215800">
<ele>140.660004</ele>
<time>2023-11-30T13:20:46.994Z</time>
</trkpt>
<trkpt lat="32.6239000" lon="35.1214600">
<ele>139.289993</ele>
<time>2023-11-30T13:20:46.994Z</time>
</trkpt>
<trkpt lat="32.6239000" lon="35.1214100">
<ele>138.970001</ele>
<time>2023-11-30T13:20:46.994Z</time>
</trkpt>
<trkpt lat="32.6238900" lon="35.1213100">
<ele>138.650009</ele>
<time>2023-11-30T13:20:46.994Z</time>
</trkpt>
<trkpt lat="32.6238900" lon="35.1212500">
<ele>139.080002</ele>
<time>2023-11-30T13:20:46.994Z</time>
</trkpt>
<trkpt lat="32.6238900" lon="35.1212200">
<ele>139.289993</ele>
<time>2023-11-30T13:20:46.994Z</time>
</trkpt>
<trkpt lat="32.6239000" lon="35.1211700">
<ele>140.290009</ele>
<time>2023-11-30T13:20:46.994Z</time>
</trkpt>
<trkpt lat="32.6239000" lon="35.1211400">
<ele>140.490005</ele>
<time>2023-11-30T13:20:46.994Z</time>
</trkpt>
<trkpt lat="32.6239000" lon="35.1210900">
<ele>140.660004</ele>
<time>2023-11-30T13:20:46.994Z</time>
</trkpt>
<trkpt lat="32.6239200" lon="35.1210100">
<ele>141.699997</ele>
<time>2023-11-30T13:20:46.994Z</time>
</trkpt>
<trkpt lat="32.6239300" lon="35.1207400">
<ele>140.949997</ele>
<time>2023-11-30T13:20:46.994Z</time>
</trkpt>
<trkpt lat="32.6239400" lon="35.1207000">
<ele>140.979996</ele>
<time>2023-11-30T13:20:46.994Z</time>
</trkpt>
<trkpt lat="32.6239500" lon="35.1205600">
<ele>140.020004</ele>
<time>2023-11-30T13:20:46.994Z</time>
</trkpt>
<trkpt lat="32.6239600" lon="35.1204600">
<ele>139.440002</ele>
<time>2023-11-30T13:20:46.994Z</time>
</trkpt>
<trkpt lat="32.6239700" lon="35.1204000">
<ele>139.179993</ele>
<time>2023-11-30T13:20:46.994Z</time>
</trkpt>
<trkpt lat="32.6239800" lon="35.1203400">
<ele>138.889999</ele>
<time>2023-11-30T13:20:46.994Z</time>
</trkpt>
<trkpt lat="32.6240000" lon="35.1202800">
<ele>138.820007</ele>
<time>2023-11-30T13:20:46.994Z</time>
</trkpt>
<trkpt lat="32.6241100" lon="35.1197800">
<ele>133.709991</ele>
<time>2023-11-30T13:20:46.994Z</time>
</trkpt>
<trkpt lat="32.6241500" lon="35.1196100">
<ele>132.070007</ele>
<time>2023-11-30T13:20:46.994Z</time>
</trkpt>
<trkpt lat="32.6241800" lon="35.1195600">
<ele>132.199997</ele>
<time>2023-11-30T13:20:46.994Z</time>
</trkpt>
<trkpt lat="32.6243000" lon="35.1192600">
<ele>133.239990</ele>
<time>2023-11-30T13:20:46.994Z</time>
</trkpt>
<trkpt lat="32.6243600" lon="35.1191500">
<ele>134.179993</ele>
<time>2023-11-30T13:20:46.994Z</time>
</trkpt>
<trkpt lat="32.6243800" lon="35.1191200">
<ele>135.160004</ele>
<time>2023-11-30T13:20:46.994Z</time>
</trkpt>
<trkpt lat="32.6243800" lon="35.1190800">
<ele>136.089996</ele>
<time>2023-11-30T13:20:46.994Z</time>
</trkpt>
<trkpt lat="32.6243800" lon="35.1190300">
<ele>137.250000</ele>
<time>2023-11-30T13:20:46.994Z</time>
</trkpt>
<trkpt lat="32.6243600" lon="35.1189900">
<ele>137.989990</ele>
<time>2023-11-30T13:20:46.994Z</time>
</trkpt>
<trkpt lat="32.6243100" lon="35.1189900">
<ele>137.500000</ele>
<time>2023-11-30T13:20:46.994Z</time>
</trkpt>
<trkpt lat="32.6241400" lon="35.1191100">
<ele>132.370010</ele>
<time>2023-11-30T13:20:46.994Z</time>
</trkpt>
<trkpt lat="32.6241000" lon="35.1191400">
<ele>130.949997</ele>
<time>2023-11-30T13:20:46.994Z</time>
</trkpt>
<trkpt lat="32.6239800" lon="35.1192000">
<ele>128.470001</ele>
<time>2023-11-30T13:20:46.994Z</time>
</trkpt>
<trkpt lat="32.6239500" lon="35.1192300">
<ele>128.239990</ele>
<time>2023-11-30T13:20:46.994Z</time>
</trkpt>
<trkpt lat="32.6238700" lon="35.1192900">
<ele>127.940002</ele>
<time>2023-11-30T13:20:46.994Z</time>
</trkpt>
<trkpt lat="32.6237500" lon="35.1193800">
<ele>128.120010</ele>
<time>2023-11-30T13:20:46.994Z</time>
</trkpt>
<trkpt lat="32.6236800" lon="35.1194400">
<ele>127.520004</ele>
<time>2023-11-30T13:20:46.994Z</time>
</trkpt>
<trkpt lat="32.6235800" lon="35.1195300">
<ele>126.689995</ele>
<time>2023-11-30T13:20:46.994Z</time>
</trkpt>
<trkpt lat="32.6233300" lon="35.1197600">
<ele>126.719994</ele>
<time>2023-11-30T13:20:46.994Z</time>
</trkpt>
<trkpt lat="32.6231500" lon="35.1198600">
<ele>125.029999</ele>
<time>2023-11-30T13:20:46.994Z</time>
</trkpt>
<trkpt lat="32.6230900" lon="35.1198900">
<ele>124.199997</ele>
<time>2023-11-30T13:20:46.994Z</time>
</trkpt>
<trkpt lat="32.6229200" lon="35.1199300">
<ele>125.339996</ele>
<time>2023-11-30T13:20:46.994Z</time>
</trkpt>
<trkpt lat="32.6228100" lon="35.1199400">
<ele>126.689995</ele>
<time>2023-11-30T13:20:46.994Z</time>
</trkpt>
<trkpt lat="32.6227600" lon="35.1199400">
<ele>127.129997</ele>
<time>2023-11-30T13:20:46.994Z</time>
</trkpt>
<trkpt lat="32.6226200" lon="35.1199300">
<ele>127.230003</ele>
<time>2023-11-30T13:20:46.994Z</time>
</trkpt>
<trkpt lat="32.6225300" lon="35.1199200">
<ele>127.370003</ele>
<time>2023-11-30T13:20:46.994Z</time>
</trkpt>
<trkpt lat="32.6224300" lon="35.1198800">
<ele>129.289993</ele>
<time>2023-11-30T13:20:46.994Z</time>
</trkpt>
<trkpt lat="32.6223600" lon="35.1198600">
<ele>130.800003</ele>
<time>2023-11-30T13:20:46.994Z</time>
</trkpt>
<trkpt lat="32.6222500" lon="35.1198100">
<ele>134.119995</ele>
<time>2023-11-30T13:20:46.994Z</time>
</trkpt>
<trkpt lat="32.6221300" lon="35.1197500">
<ele>137.860001</ele>
<time>2023-11-30T13:20:46.994Z</time>
</trkpt>
<trkpt lat="32.6220300" lon="35.1196900">
<ele>141.279999</ele>
<time>2023-11-30T13:20:46.994Z</time>
</trkpt>
<trkpt lat="32.6219500" lon="35.1196400">
<ele>144.179993</ele>
<time>2023-11-30T13:20:46.994Z</time>
</trkpt>
<trkpt lat="32.6219100" lon="35.1196100">
<ele>145.440002</ele>
<time>2023-11-30T13:20:46.994Z</time>
</trkpt>
<trkpt lat="32.6218800" lon="35.1196000">
<ele>145.839996</ele>
<time>2023-11-30T13:20:46.994Z</time>
</trkpt>
<trkpt lat="32.6218400" lon="35.1195600">
<ele>147.419998</ele>
<time>2023-11-30T13:20:46.994Z</time>
</trkpt>
<trkpt lat="32.6217500" lon="35.1195100">
<ele>149.399994</ele>
<time>2023-11-30T13:20:46.994Z</time>
</trkpt>
<trkpt lat="32.6215500" lon="35.1193300">
<ele>154.229996</ele>
<time>2023-11-30T13:20:46.994Z</time>
</trkpt>
<trkpt lat="32.6214800" lon="35.1192400">
<ele>156.169998</ele>
<time>2023-11-30T13:20:46.994Z</time>
</trkpt>
<trkpt lat="32.6214200" lon="35.1191500">
<ele>158.120010</ele>
<time>2023-11-30T13:20:46.994Z</time>
</trkpt>
<trkpt lat="32.6213800" lon="35.1190900">
<ele>158.899994</ele>
<time>2023-11-30T13:20:46.994Z</time>
</trkpt>
<trkpt lat="32.6212200" lon="35.1189100">
<ele>157.489990</ele>
<time>2023-11-30T13:20:46.994Z</time>
</trkpt>
<trkpt lat="32.6212100" lon="35.1188800">
<ele>157.520004</ele>
<time>2023-11-30T13:20:46.994Z</time>
</trkpt>
<trkpt lat="32.6211800" lon="35.1188300">
<ele>157.000000</ele>
<time>2023-11-30T13:20:46.994Z</time>
</trkpt>
<trkpt lat="32.6211600" lon="35.1188100">
<ele>156.649994</ele>
<time>2023-11-30T13:20:46.994Z</time>
</trkpt>
<trkpt lat="32.6211400" lon="35.1187700">
<ele>156.449997</ele>
<time>2023-11-30T13:20:46.994Z</time>
</trkpt>
<trkpt lat="32.6211100" lon="35.1187100">
<ele>156.260010</ele>
<time>2023-11-30T13:20:46.994Z</time>
</trkpt>
<trkpt lat="32.6210700" lon="35.1186700">
<ele>155.619995</ele>
<time>2023-11-30T13:20:46.994Z</time>
</trkpt>
<trkpt lat="32.6210300" lon="35.1186100">
<ele>155.550003</ele>
<time>2023-11-30T13:20:46.994Z</time>
</trkpt>
<trkpt lat="32.6209900" lon="35.1185600">
<ele>155.529999</ele>
<time>2023-11-30T13:20:46.994Z</time>
</trkpt>
<trkpt lat="32.6209600" lon="35.1185200">
<ele>155.619995</ele>
<time>2023-11-30T13:20:46.994Z</time>
</trkpt>
<trkpt lat="32.6209300" lon="35.1185000">
<ele>155.460007</ele>
<time>2023-11-30T13:20:46.994Z</time>
</trkpt>
<trkpt lat="32.6208900" lon="35.1184200">
<ele>156.179993</ele>
<time>2023-11-30T13:20:46.994Z</time>
</trkpt>
<trkpt lat="32.6208700" lon="35.1183900">
<ele>156.430008</ele>
<time>2023-11-30T13:20:46.994Z</time>
</trkpt>
<trkpt lat="32.6208500" lon="35.1183600">
<ele>156.710007</ele>
<time>2023-11-30T13:20:46.994Z</time>
</trkpt>
<trkpt lat="32.6208200" lon="35.1183200">
<ele>156.620010</ele>
<time>2023-11-30T13:20:46.994Z</time>
</trkpt>
<trkpt lat="32.6208000" lon="35.1182900">
<ele>156.199997</ele>
<time>2023-11-30T13:20:46.994Z</time>
</trkpt>
<trkpt lat="32.6207800" lon="35.1182500">
<ele>155.949997</ele>
<time>2023-11-30T13:20:46.994Z</time>
</trkpt>
<trkpt lat="32.6207400" lon="35.1181700">
<ele>155.519989</ele>
<time>2023-11-30T13:20:46.994Z</time>
</trkpt>
<trkpt lat="32.6207000" lon="35.1180900">
<ele>155.160004</ele>
<time>2023-11-30T13:20:46.994Z</time>
</trkpt>
<trkpt lat="32.6206800" lon="35.1180700">
<ele>154.690002</ele>
<time>2023-11-30T13:20:46.994Z</time>
</trkpt>
<trkpt lat="32.6206400" lon="35.1179500">
<ele>153.959991</ele>
<time>2023-11-30T13:20:46.994Z</time>
</trkpt>
<trkpt lat="32.6206300" lon="35.1178700">
<ele>153.970001</ele>
<time>2023-11-30T13:20:46.994Z</time>
</trkpt>
<trkpt lat="32.6206100" lon="35.1178400">
<ele>153.240005</ele>
<time>2023-11-30T13:20:46.994Z</time>
</trkpt>
<trkpt lat="32.6206100" lon="35.1177900">
<ele>153.490005</ele>
<time>2023-11-30T13:20:46.994Z</time>
</trkpt>
<trkpt lat="32.6206100" lon="35.1176500">
<ele>153.550003</ele>
<time>2023-11-30T13:20:46.994Z</time>
</trkpt>
<trkpt lat="32.6206100" lon="35.1176000">
<ele>153.550003</ele>
<time>2023-11-30T13:20:46.994Z</time>
</trkpt>
<trkpt lat="32.6206200" lon="35.1175400">
<ele>154.020004</ele>
<time>2023-11-30T13:20:46.994Z</time>
</trkpt>
<trkpt lat="32.6206300" lon="35.1174800">
<ele>154.539993</ele>
<time>2023-11-30T13:20:46.994Z</time>
</trkpt>
<trkpt lat="32.6206400" lon="35.1174500">
<ele>155.080002</ele>
<time>2023-11-30T13:20:46.994Z</time>
</trkpt>
<trkpt lat="32.6206500" lon="35.1173900">
<ele>155.680008</ele>
<time>2023-11-30T13:20:46.994Z</time>
</trkpt>
<trkpt lat="32.6206700" lon="35.1172900">
<ele>156.799988</ele>
<time>2023-11-30T13:20:46.994Z</time>
</trkpt>
<trkpt lat="32.6206900" lon="35.1172100">
<ele>157.760010</ele>
<time>2023-11-30T13:20:46.994Z</time>
</trkpt>
<trkpt lat="32.6207000" lon="35.1171400">
<ele>157.940002</ele>
<time>2023-11-30T13:20:46.994Z</time>
</trkpt>
<trkpt lat="32.6207200" lon="35.1171100">
<ele>158.700012</ele>
<time>2023-11-30T13:20:46.994Z</time>
</trkpt>
<trkpt lat="32.6207200" lon="35.1170700">
<ele>158.559998</ele>
<time>2023-11-30T13:20:46.994Z</time>
</trkpt>
<trkpt lat="32.6207300" lon="35.1170400">
<ele>158.879990</ele>
<time>2023-11-30T13:20:46.994Z</time>
</trkpt>
<trkpt lat="32.6207400" lon="35.1169600">
<ele>159.020004</ele>
<time>2023-11-30T13:20:46.994Z</time>
</trkpt>
<trkpt lat="32.6207500" lon="35.1169100">
<ele>159.309998</ele>
<time>2023-11-30T13:20:46.994Z</time>
</trkpt>
<trkpt lat="32.6207700" lon="35.1167300">
<ele>159.669998</ele>
<time>2023-11-30T13:20:46.994Z</time>
</trkpt>
<trkpt lat="32.6207800" lon="35.1166800">
<ele>159.929993</ele>
<time>2023-11-30T13:20:46.994Z</time>
</trkpt>
<trkpt lat="32.6207800" lon="35.1166200">
<ele>160.600006</ele>
<time>2023-11-30T13:20:46.994Z</time>
</trkpt>
<trkpt lat="32.6207700" lon="35.1165300">
<ele>161.500000</ele>
<time>2023-11-30T13:20:46.994Z</time>
</trkpt>
<trkpt lat="32.6207700" lon="35.1164900">
<ele>162.089996</ele>
<time>2023-11-30T13:20:46.994Z</time>
</trkpt>
<trkpt lat="32.6207500" lon="35.1164100">
<ele>162.210007</ele>
<time>2023-11-30T13:20:46.994Z</time>
</trkpt>
<trkpt lat="32.6207500" lon="35.1163700">
<ele>162.559998</ele>
<time>2023-11-30T13:20:46.994Z</time>
</trkpt>
<trkpt lat="32.6207300" lon="35.1162900">
<ele>161.820007</ele>
<time>2023-11-30T13:20:46.994Z</time>
</trkpt>
<trkpt lat="32.6207200" lon="35.1162600">
<ele>161.449997</ele>
<time>2023-11-30T13:20:46.994Z</time>
</trkpt>
<trkpt lat="32.6207200" lon="35.1161800">
<ele>161.800003</ele>
<time>2023-11-30T13:20:46.994Z</time>
</trkpt>
<trkpt lat="32.6207100" lon="35.1161400">
<ele>161.529999</ele>
<time>2023-11-30T13:20:46.994Z</time>
</trkpt>
<trkpt lat="32.6207000" lon="35.1160600">
<ele>161.599991</ele>
<time>2023-11-30T13:20:46.994Z</time>
</trkpt>
<trkpt lat="32.6206900" lon="35.1160300">
<ele>161.400009</ele>
<time>2023-11-30T13:20:46.994Z</time>
</trkpt>
<trkpt lat="32.6206800" lon="35.1159800">
<ele>161.369995</ele>
<time>2023-11-30T13:20:46.994Z</time>
</trkpt>
<trkpt lat="32.6206600" lon="35.1158900">
<ele>161.300003</ele>
<time>2023-11-30T13:20:46.994Z</time>
</trkpt>
<trkpt lat="32.6206400" lon="35.1158300">
<ele>161.070007</ele>
<time>2023-11-30T13:20:46.994Z</time>
</trkpt>
<trkpt lat="32.6206300" lon="35.1157900">
<ele>161.110001</ele>
<time>2023-11-30T13:20:46.994Z</time>
</trkpt>
<trkpt lat="32.6206200" lon="35.1157400">
<ele>161.250015</ele>
<time>2023-11-30T13:20:46.994Z</time>
</trkpt>
<trkpt lat="32.6206100" lon="35.1156500">
<ele>161.809998</ele>
<time>2023-11-30T13:20:46.994Z</time>
</trkpt>
<trkpt lat="32.6205800" lon="35.1155400">
<ele>162.029999</ele>
<time>2023-11-30T13:20:46.994Z</time>
</trkpt>
<trkpt lat="32.6205600" lon="35.1154900">
<ele>162.100006</ele>
<time>2023-11-30T13:20:46.994Z</time>
</trkpt>
<trkpt lat="32.6205400" lon="35.1154500">
<ele>161.999985</ele>
<time>2023-11-30T13:20:46.994Z</time>
</trkpt>
<trkpt lat="32.6205200" lon="35.1153800">
<ele>162.409988</ele>
<time>2023-11-30T13:20:46.994Z</time>
</trkpt>
<trkpt lat="32.6204900" lon="35.1153400">
<ele>162.110001</ele>
<time>2023-11-30T13:20:46.994Z</time>
</trkpt>
<trkpt lat="32.6204700" lon="35.1152800">
<ele>162.500000</ele>
<time>2023-11-30T13:20:46.994Z</time>
</trkpt>
<trkpt lat="32.6204200" lon="35.1152100">
<ele>163.289993</ele>
<time>2023-11-30T13:20:46.994Z</time>
</trkpt>
<trkpt lat="32.6203700" lon="35.1151400">
<ele>164.119995</ele>
<time>2023-11-30T13:20:46.994Z</time>
</trkpt>
<trkpt lat="32.6203500" lon="35.1151000">
<ele>164.839996</ele>
<time>2023-11-30T13:20:46.994Z</time>
</trkpt>
<trkpt lat="32.6203200" lon="35.1150000">
<ele>167.220001</ele>
<time>2023-11-30T13:20:46.994Z</time>
</trkpt>
<trkpt lat="32.6203000" lon="35.1149400">
<ele>168.330002</ele>
<time>2023-11-30T13:20:46.994Z</time>
</trkpt>
<trkpt lat="32.6202800" lon="35.1149000">
<ele>168.940002</ele>
<time>2023-11-30T13:20:46.994Z</time>
</trkpt>
<trkpt lat="32.6201500" lon="35.1147600">
<ele>172.449997</ele>
<time>2023-11-30T13:20:46.994Z</time>
</trkpt>
<trkpt lat="32.6200900" lon="35.1147200">
<ele>173.369995</ele>
<time>2023-11-30T13:20:46.994Z</time>
</trkpt>
<trkpt lat="32.6200500" lon="35.1147000">
<ele>173.589996</ele>
<time>2023-11-30T13:20:46.994Z</time>
</trkpt>
<trkpt lat="32.6200500" lon="35.1146600">
<ele>174.339996</ele>
<time>2023-11-30T13:20:46.994Z</time>
</trkpt>
<trkpt lat="32.6201100" lon="35.1146500">
<ele>174.799988</ele>
<time>2023-11-30T13:20:46.994Z</time>
</trkpt>
<trkpt lat="32.6202100" lon="35.1146600">
<ele>175.050003</ele>
<time>2023-11-30T13:20:46.994Z</time>
</trkpt>
<trkpt lat="32.6202500" lon="35.1146700">
<ele>175.010010</ele>
<time>2023-11-30T13:20:46.994Z</time>
</trkpt>
<trkpt lat="32.6202900" lon="35.1146800">
<ele>175.149994</ele>
<time>2023-11-30T13:20:46.994Z</time>
</trkpt>
<trkpt lat="32.6203200" lon="35.1147000">
<ele>175.339996</ele>
<time>2023-11-30T13:20:46.994Z</time>
</trkpt>
<trkpt lat="32.6203500" lon="35.1147700">
<ele>174.269989</ele>
<time>2023-11-30T13:20:46.994Z</time>
</trkpt>
<trkpt lat="32.6203800" lon="35.1148300">
<ele>173.389999</ele>
<time>2023-11-30T13:20:46.994Z</time>
</trkpt>
<trkpt lat="32.6204100" lon="35.1148600">
<ele>173.360001</ele>
<time>2023-11-30T13:20:46.994Z</time>
</trkpt>
<trkpt lat="32.6204300" lon="35.1149000">
<ele>172.870010</ele>
<time>2023-11-30T13:20:46.994Z</time>
</trkpt>
<trkpt lat="32.6204600" lon="35.1149400">
<ele>172.690002</ele>
<time>2023-11-30T13:20:46.994Z</time>
</trkpt>
<trkpt lat="32.6204900" lon="35.1149700">
<ele>172.809998</ele>
<time>2023-11-30T13:20:46.994Z</time>
</trkpt>
<trkpt lat="32.6205300" lon="35.1150100">
<ele>172.939987</ele>
<time>2023-11-30T13:20:46.994Z</time>
</trkpt>
<trkpt lat="32.6205500" lon="35.1150400">
<ele>172.539993</ele>
<time>2023-11-30T13:20:46.994Z</time>
</trkpt>
<trkpt lat="32.6206000" lon="35.1151000">
<ele>172.110001</ele>
<time>2023-11-30T13:20:46.994Z</time>
</trkpt>
<trkpt lat="32.6206200" lon="35.1151200">
<ele>172.139999</ele>
<time>2023-11-30T13:20:46.994Z</time>
</trkpt>
<trkpt lat="32.6206800" lon="35.1151800">
<ele>172.469986</ele>
<time>2023-11-30T13:20:46.994Z</time>
</trkpt>
<trkpt lat="32.6207200" lon="35.1152200">
<ele>172.889999</ele>
<time>2023-11-30T13:20:46.994Z</time>
</trkpt>
<trkpt lat="32.6208100" lon="35.1153500">
<ele>173.559998</ele>
<time>2023-11-30T13:20:46.994Z</time>
</trkpt>
<trkpt lat="32.6208400" lon="35.1153900">
<ele>173.750015</ele>
<time>2023-11-30T13:20:46.994Z</time>
</trkpt>
<trkpt lat="32.6208700" lon="35.1154500">
<ele>173.320007</ele>
<time>2023-11-30T13:20:46.994Z</time>
</trkpt>
<trkpt lat="32.6209000" lon="35.1154900">
<ele>173.409988</ele>
<time>2023-11-30T13:20:46.994Z</time>
</trkpt>
<trkpt lat="32.6209300" lon="35.1155400">
<ele>173.409988</ele>
<time>2023-11-30T13:20:46.994Z</time>
</trkpt>
<trkpt lat="32.6209700" lon="35.1155700">
<ele>174.380005</ele>
<time>2023-11-30T13:20:46.994Z</time>
</trkpt>
<trkpt lat="32.6210000" lon="35.1156000">
<ele>175.270004</ele>
<time>2023-11-30T13:20:46.994Z</time>
</trkpt>
<trkpt lat="32.6210300" lon="35.1156400">
<ele>176.190002</ele>
<time>2023-11-30T13:20:46.994Z</time>
</trkpt>
<trkpt lat="32.6210700" lon="35.1156500">
<ele>177.569992</ele>
<time>2023-11-30T13:20:46.994Z</time>
</trkpt>
<trkpt lat="32.6210800" lon="35.1156100">
<ele>177.949997</ele>
<time>2023-11-30T13:20:46.994Z</time>
</trkpt>
<trkpt lat="32.6210600" lon="35.1155600">
<ele>177.339996</ele>
<time>2023-11-30T13:20:46.994Z</time>
</trkpt>
<trkpt lat="32.6210300" lon="35.1155200">
<ele>176.870010</ele>
<time>2023-11-30T13:20:46.994Z</time>
</trkpt>
<trkpt lat="32.6210200" lon="35.1154700">
<ele>177.280014</ele>
<time>2023-11-30T13:20:46.994Z</time>
</trkpt>
<trkpt lat="32.6210000" lon="35.1154400">
<ele>177.150009</ele>
<time>2023-11-30T13:20:46.994Z</time>
</trkpt>
<trkpt lat="32.6209500" lon="35.1153300">
<ele>177.629990</ele>
<time>2023-11-30T13:20:46.994Z</time>
</trkpt>
<trkpt lat="32.6209300" lon="35.1152300">
<ele>178.710007</ele>
<time>2023-11-30T13:20:46.994Z</time>
</trkpt>
<trkpt lat="32.6209100" lon="35.1152000">
<ele>178.750000</ele>
<time>2023-11-30T13:20:46.994Z</time>
</trkpt>
<trkpt lat="32.6209000" lon="35.1151700">
<ele>179.010010</ele>
<time>2023-11-30T13:20:46.994Z</time>
</trkpt>
<trkpt lat="32.6209000" lon="35.1151300">
<ele>179.590012</ele>
<time>2023-11-30T13:20:46.994Z</time>
</trkpt>
<trkpt lat="32.6208900" lon="35.1150500">
<ele>180.649994</ele>
<time>2023-11-30T13:20:46.994Z</time>
</trkpt>
<trkpt lat="32.6208900" lon="35.1150100">
<ele>181.260010</ele>
<time>2023-11-30T13:20:46.994Z</time>
</trkpt>
<trkpt lat="32.6208900" lon="35.1149400">
<ele>182.059998</ele>
<time>2023-11-30T13:20:46.994Z</time>
</trkpt>
<trkpt lat="32.6208900" lon="35.1148700">
<ele>182.809998</ele>
<time>2023-11-30T13:20:46.994Z</time>
</trkpt>
<trkpt lat="32.6208800" lon="35.1147100">
<ele>184.369995</ele>
<time>2023-11-30T13:20:46.994Z</time>
</trkpt>
<trkpt lat="32.6208800" lon="35.1146000">
<ele>184.629990</ele>
<time>2023-11-30T13:20:46.994Z</time>
</trkpt>
<trkpt lat="32.6208800" lon="35.1145500">
<ele>184.750000</ele>
<time>2023-11-30T13:20:46.994Z</time>
</trkpt>
<trkpt lat="32.6208900" lon="35.1145100">
<ele>184.859985</ele>
<time>2023-11-30T13:20:46.994Z</time>
</trkpt>
<trkpt lat="32.6209600" lon="35.1144700">
<ele>184.989990</ele>
<time>2023-11-30T13:20:46.994Z</time>
</trkpt>
<trkpt lat="32.6210300" lon="35.1144200">
<ele>184.989990</ele>
<time>2023-11-30T13:20:46.994Z</time>
</trkpt>
<trkpt lat="32.6211000" lon="35.1142900">
<ele>184.510010</ele>
<time>2023-11-30T13:20:46.994Z</time>
</trkpt>
<trkpt lat="32.6211000" lon="35.1142500">
<ele>184.380005</ele>
<time>2023-11-30T13:20:46.994Z</time>
</trkpt>
<trkpt lat="32.6211000" lon="35.1141700">
<ele>184.130005</ele>
<time>2023-11-30T13:20:46.994Z</time>
</trkpt>
<trkpt lat="32.6210700" lon="35.1140400">
<ele>185.490005</ele>
<time>2023-11-30T13:20:46.994Z</time>
</trkpt>
<trkpt lat="32.6210400" lon="35.1140200">
<ele>186.089996</ele>
<time>2023-11-30T13:20:46.994Z</time>
</trkpt>
<trkpt lat="32.6209600" lon="35.1139800">
<ele>187.709991</ele>
<time>2023-11-30T13:20:46.994Z</time>
</trkpt>
<trkpt lat="32.6208700" lon="35.1138900">
<ele>190.330002</ele>
<time>2023-11-30T13:20:46.994Z</time>
</trkpt>
<trkpt lat="32.6208300" lon="35.1138600">
<ele>191.510010</ele>
<time>2023-11-30T13:20:46.994Z</time>
</trkpt>
<trkpt lat="32.6208000" lon="35.1138100">
<ele>192.229996</ele>
<time>2023-11-30T13:20:46.994Z</time>
</trkpt>
<trkpt lat="32.6207700" lon="35.1137900">
<ele>192.389999</ele>
<time>2023-11-30T13:20:46.994Z</time>
</trkpt>
<trkpt lat="32.6207400" lon="35.1137700">
<ele>192.520004</ele>
<time>2023-11-30T13:20:46.994Z</time>
</trkpt>
<trkpt lat="32.6207000" lon="35.1137300">
<ele>192.830002</ele>
<time>2023-11-30T13:20:46.994Z</time>
</trkpt>
<trkpt lat="32.6206800" lon="35.1136600">
<ele>193.659988</ele>
<time>2023-11-30T13:20:46.994Z</time>
</trkpt>
<trkpt lat="32.6206200" lon="35.1135800">
<ele>194.029999</ele>
<time>2023-11-30T13:20:46.994Z</time>
</trkpt>
<trkpt lat="32.6206200" lon="35.1135200">
<ele>194.680008</ele>
<time>2023-11-30T13:20:46.994Z</time>
</trkpt>
<trkpt lat="32.6206500" lon="35.1134300">
<ele>195.979996</ele>
<time>2023-11-30T13:20:46.994Z</time>
</trkpt>
<trkpt lat="32.6206900" lon="35.1134200">
<ele>196.520004</ele>
<time>2023-11-30T13:20:46.994Z</time>
</trkpt>
<trkpt lat="32.6207600" lon="35.1134200">
<ele>197.270004</ele>
<time>2023-11-30T13:20:46.994Z</time>
</trkpt>
<trkpt lat="32.6208000" lon="35.1134100">
<ele>197.809998</ele>
<time>2023-11-30T13:20:46.994Z</time>
</trkpt>
<trkpt lat="32.6208300" lon="35.1133900">
<ele>198.349991</ele>
<time>2023-11-30T13:20:46.994Z</time>
</trkpt>
<trkpt lat="32.6208800" lon="35.1133600">
<ele>197.419998</ele>
<time>2023-11-30T13:20:46.994Z</time>
</trkpt>
<trkpt lat="32.6209500" lon="35.1133300">
<ele>195.649994</ele>
<time>2023-11-30T13:20:46.994Z</time>
</trkpt>
<trkpt lat="32.6210000" lon="35.1133100">
<ele>194.230011</ele>
<time>2023-11-30T13:20:46.994Z</time>
</trkpt>
<trkpt lat="32.6211000" lon="35.1132400">
<ele>191.330002</ele>
<time>2023-11-30T13:20:46.994Z</time>
</trkpt>
<trkpt lat="32.6211400" lon="35.1132000">
<ele>190.380005</ele>
<time>2023-11-30T13:20:46.994Z</time>
</trkpt>
<trkpt lat="32.6212300" lon="35.1131500">
<ele>188.430008</ele>
<time>2023-11-30T13:20:46.994Z</time>
</trkpt>
<trkpt lat="32.6213200" lon="35.1131000">
<ele>186.489990</ele>
<time>2023-11-30T13:20:46.994Z</time>
</trkpt>
<trkpt lat="32.6214200" lon="35.1130300">
<ele>184.940002</ele>
<time>2023-11-30T13:20:46.994Z</time>
</trkpt>
<trkpt lat="32.6214500" lon="35.1129500">
<ele>185.480011</ele>
<time>2023-11-30T13:20:46.994Z</time>
</trkpt>
<trkpt lat="32.6214700" lon="35.1129000">
<ele>185.800003</ele>
<time>2023-11-30T13:20:46.994Z</time>
</trkpt>
<trkpt lat="32.6215100" lon="35.1128600">
<ele>185.800003</ele>
<time>2023-11-30T13:20:46.994Z</time>
</trkpt>
<trkpt lat="32.6215400" lon="35.1128400">
<ele>185.699997</ele>
<time>2023-11-30T13:20:46.994Z</time>
</trkpt>
<trkpt lat="32.6217300" lon="35.1126200">
<ele>188.070007</ele>
<time>2023-11-30T13:20:46.994Z</time>
</trkpt>
<trkpt lat="32.6217300" lon="35.1125600">
<ele>189.149994</ele>
<time>2023-11-30T13:20:46.994Z</time>
</trkpt>
<trkpt lat="32.6216900" lon="35.1125300">
<ele>189.540009</ele>
<time>2023-11-30T13:20:46.994Z</time>
</trkpt>
<trkpt lat="32.6216400" lon="35.1125300">
<ele>190.180008</ele>
<time>2023-11-30T13:20:46.994Z</time>
</trkpt>
<trkpt lat="32.6216000" lon="35.1125500">
<ele>190.800003</ele>
<time>2023-11-30T13:20:46.994Z</time>
</trkpt>
<trkpt lat="32.6214600" lon="35.1126200">
<ele>192.180008</ele>
<time>2023-11-30T13:20:46.994Z</time>
</trkpt>
<trkpt lat="32.6214300" lon="35.1126400">
<ele>192.150009</ele>
<time>2023-11-30T13:20:46.994Z</time>
</trkpt>
<trkpt lat="32.6213700" lon="35.1126900">
<ele>191.600006</ele>
<time>2023-11-30T13:20:46.994Z</time>
</trkpt>
<trkpt lat="32.6213300" lon="35.1127000">
<ele>192.200012</ele>
<time>2023-11-30T13:20:46.994Z</time>
</trkpt>
<trkpt lat="32.6213000" lon="35.1127000">
<ele>192.909988</ele>
<time>2023-11-30T13:20:46.994Z</time>
</trkpt>
<trkpt lat="32.6213000" lon="35.1126600">
<ele>194.119995</ele>
<time>2023-11-30T13:20:46.994Z</time>
</trkpt>
<trkpt lat="32.6213400" lon="35.1125900">
<ele>195.569992</ele>
<time>2023-11-30T13:20:46.994Z</time>
</trkpt>
<trkpt lat="32.6213500" lon="35.1125500">
<ele>196.750000</ele>
<time>2023-11-30T13:20:46.994Z</time>
</trkpt>
<trkpt lat="32.6213700" lon="35.1124800">
<ele>198.570007</ele>
<time>2023-11-30T13:20:46.994Z</time>
</trkpt>
<trkpt lat="32.6214000" lon="35.1124100">
<ele>199.329987</ele>
<time>2023-11-30T13:20:46.994Z</time>
</trkpt>
<trkpt lat="32.6214200" lon="35.1123800">
<ele>199.360001</ele>
<time>2023-11-30T13:20:46.994Z</time>
</trkpt>
<trkpt lat="32.6214400" lon="35.1123500">
<ele>199.430008</ele>
<time>2023-11-30T13:20:46.994Z</time>
</trkpt>
<trkpt lat="32.6214500" lon="35.1122800">
<ele>200.549988</ele>
<time>2023-11-30T13:20:46.994Z</time>
</trkpt>
<trkpt lat="32.6214600" lon="35.1122300">
<ele>201.309998</ele>
<time>2023-11-30T13:20:46.994Z</time>
</trkpt>
<trkpt lat="32.6214900" lon="35.1122000">
<ele>201.040009</ele>
<time>2023-11-30T13:20:46.994Z</time>
</trkpt>
<trkpt lat="32.6215500" lon="35.1121900">
<ele>199.970001</ele>
<time>2023-11-30T13:20:46.994Z</time>
</trkpt>
<trkpt lat="32.6215900" lon="35.1121900">
<ele>199.190002</ele>
<time>2023-11-30T13:20:46.994Z</time>
</trkpt>
<trkpt lat="32.6216300" lon="35.1122000">
<ele>198.220001</ele>
<time>2023-11-30T13:20:46.994Z</time>
</trkpt>
<trkpt lat="32.6216400" lon="35.1122300">
<ele>197.389999</ele>
<time>2023-11-30T13:20:46.994Z</time>
</trkpt>
<trkpt lat="32.6216500" lon="35.1123000">
<ele>195.430008</ele>
<time>2023-11-30T13:20:46.994Z</time>
</trkpt>
<trkpt lat="32.6216700" lon="35.1123400">
<ele>194.040009</ele>
<time>2023-11-30T13:20:46.994Z</time>
</trkpt>
<trkpt lat="32.6216900" lon="35.1123600">
<ele>193.570007</ele>
<time>2023-11-30T13:20:46.994Z</time>
</trkpt>
<trkpt lat="32.6217500" lon="35.1123800">
<ele>193.189987</ele>
<time>2023-11-30T13:20:46.994Z</time>
</trkpt>
<trkpt lat="32.6218700" lon="35.1124400">
<ele>192.090012</ele>
<time>2023-11-30T13:20:46.994Z</time>
</trkpt>
<trkpt lat="32.6219200" lon="35.1124400">
<ele>192.229996</ele>
<time>2023-11-30T13:20:46.994Z</time>
</trkpt>
<trkpt lat="32.6220000" lon="35.1124500">
<ele>192.500015</ele>
<time>2023-11-30T13:20:46.994Z</time>
</trkpt>
<trkpt lat="32.6220300" lon="35.1124500">
<ele>192.730011</ele>
<time>2023-11-30T13:20:46.994Z</time>
</trkpt>
<trkpt lat="32.6220600" lon="35.1124400">
<ele>193.089996</ele>
<time>2023-11-30T13:20:46.994Z</time>
</trkpt>
<trkpt lat="32.6221000" lon="35.1124400">
<ele>193.369995</ele>
<time>2023-11-30T13:20:46.994Z</time>
</trkpt>
<trkpt lat="32.6221100" lon="35.1124000">
<ele>193.880005</ele>
<time>2023-11-30T13:20:46.994Z</time>
</trkpt>
<trkpt lat="32.6220900" lon="35.1123200">
<ele>194.759995</ele>
<time>2023-11-30T13:20:46.994Z</time>
</trkpt>
<trkpt lat="32.6220700" lon="35.1122900">
<ele>195.179993</ele>
<time>2023-11-30T13:20:46.994Z</time>
</trkpt>
<trkpt lat="32.6220500" lon="35.1122700">
<ele>195.529999</ele>
<time>2023-11-30T13:20:46.994Z</time>
</trkpt>
<trkpt lat="32.6219800" lon="35.1122100">
<ele>196.990005</ele>
<time>2023-11-30T13:20:46.994Z</time>
</trkpt>
<trkpt lat="32.6219600" lon="35.1122000">
<ele>197.309998</ele>
<time>2023-11-30T13:20:46.994Z</time>
</trkpt>
<trkpt lat="32.6219300" lon="35.1121500">
<ele>198.309998</ele>
<time>2023-11-30T13:20:46.994Z</time>
</trkpt>
<trkpt lat="32.6218700" lon="35.1121100">
<ele>199.130005</ele>
<time>2023-11-30T13:20:46.994Z</time>
</trkpt>
<trkpt lat="32.6217300" lon="35.1120600">
<ele>200.369995</ele>
<time>2023-11-30T13:20:46.994Z</time>
</trkpt>
<trkpt lat="32.6217100" lon="35.1120400">
<ele>200.829987</ele>
<time>2023-11-30T13:20:46.994Z</time>
</trkpt>
<trkpt lat="32.6216700" lon="35.1120100">
<ele>201.570007</ele>
<time>2023-11-30T13:20:46.994Z</time>
</trkpt>
<trkpt lat="32.6216300" lon="35.1119900">
<ele>202.260010</ele>
<time>2023-11-30T13:20:46.994Z</time>
</trkpt>
<trkpt lat="32.6215400" lon="35.1119200">
<ele>203.690002</ele>
<time>2023-11-30T13:20:46.994Z</time>
</trkpt>
<trkpt lat="32.6215200" lon="35.1119000">
<ele>203.909988</ele>
<time>2023-11-30T13:20:46.994Z</time>
</trkpt>
<trkpt lat="32.6215000" lon="35.1118600">
<ele>204.270004</ele>
<time>2023-11-30T13:20:46.994Z</time>
</trkpt>
<trkpt lat="32.6215000" lon="35.1118100">
<ele>204.659988</ele>
<time>2023-11-30T13:20:46.994Z</time>
</trkpt>
<trkpt lat="32.6215200" lon="35.1117700">
<ele>205.050003</ele>
<time>2023-11-30T13:20:46.994Z</time>
</trkpt>
<trkpt lat="32.6215600" lon="35.1117600">
<ele>205.279984</ele>
<time>2023-11-30T13:20:46.994Z</time>
</trkpt>
<trkpt lat="32.6215900" lon="35.1117500">
<ele>205.500000</ele>
<time>2023-11-30T13:20:46.994Z</time>
</trkpt>
<trkpt lat="32.6216300" lon="35.1117200">
<ele>206.039993</ele>
<time>2023-11-30T13:20:46.994Z</time>
</trkpt>
<trkpt lat="32.6216400" lon="35.1116800">
<ele>206.629990</ele>
<time>2023-11-30T13:20:46.994Z</time>
</trkpt>
<trkpt lat="32.6216400" lon="35.1116400">
<ele>207.270004</ele>
<time>2023-11-30T13:20:46.994Z</time>
</trkpt>
<trkpt lat="32.6215800" lon="35.1115200">
<ele>208.690002</ele>
<time>2023-11-30T13:20:46.994Z</time>
</trkpt>
<trkpt lat="32.6215400" lon="35.1115000">
<ele>208.539993</ele>
<time>2023-11-30T13:20:46.994Z</time>
</trkpt>
<trkpt lat="32.6214600" lon="35.1114600">
<ele>208.120010</ele>
<time>2023-11-30T13:20:46.994Z</time>
</trkpt>
<trkpt lat="32.6214200" lon="35.1114500">
<ele>207.740005</ele>
<time>2023-11-30T13:20:46.994Z</time>
</trkpt>
<trkpt lat="32.6213800" lon="35.1114300">
<ele>207.650009</ele>
<time>2023-11-30T13:20:46.994Z</time>
</trkpt>
<trkpt lat="32.6213100" lon="35.1113900">
<ele>208.839996</ele>
<time>2023-11-30T13:20:46.994Z</time>
</trkpt>
<trkpt lat="32.6212800" lon="35.1113700">
<ele>209.450012</ele>
<time>2023-11-30T13:20:46.994Z</time>
</trkpt>
<trkpt lat="32.6212300" lon="35.1112700">
<ele>211.059998</ele>
<time>2023-11-30T13:20:46.994Z</time>
</trkpt>
<trkpt lat="32.6211800" lon="35.1112500">
<ele>211.380005</ele>
<time>2023-11-30T13:20:46.994Z</time>
</trkpt>
<trkpt lat="32.6211600" lon="35.1112400">
<ele>211.479996</ele>
<time>2023-11-30T13:20:46.994Z</time>
</trkpt>
<trkpt lat="32.6211200" lon="35.1112400">
<ele>211.529984</ele>
<time>2023-11-30T13:20:46.994Z</time>
</trkpt>
<trkpt lat="32.6210700" lon="35.1112400">
<ele>211.440002</ele>
<time>2023-11-30T13:20:46.994Z</time>
</trkpt>
<trkpt lat="32.6209900" lon="35.1112400">
<ele>211.240005</ele>
<time>2023-11-30T13:20:46.994Z</time>
</trkpt>
<trkpt lat="32.6209600" lon="35.1112500">
<ele>211.230011</ele>
<time>2023-11-30T13:20:46.994Z</time>
</trkpt>
<trkpt lat="32.6207900" lon="35.1112500">
<ele>210.529999</ele>
<time>2023-11-30T13:20:46.994Z</time>
</trkpt>
<trkpt lat="32.6207100" lon="35.1112600">
<ele>209.779999</ele>
<time>2023-11-30T13:20:46.994Z</time>
</trkpt>
<trkpt lat="32.6206600" lon="35.1112700">
<ele>209.330002</ele>
<time>2023-11-30T13:20:46.994Z</time>
</trkpt>
<trkpt lat="32.6205700" lon="35.1113000">
<ele>208.530014</ele>
<time>2023-11-30T13:20:46.994Z</time>
</trkpt>
<trkpt lat="32.6204600" lon="35.1113200">
<ele>204.720001</ele>
<time>2023-11-30T13:20:46.994Z</time>
</trkpt>
<trkpt lat="32.6203800" lon="35.1113200">
<ele>201.550003</ele>
<time>2023-11-30T13:20:46.994Z</time>
</trkpt>
<trkpt lat="32.6202800" lon="35.1113300">
<ele>197.509995</ele>
<time>2023-11-30T13:20:46.994Z</time>
</trkpt>
<trkpt lat="32.6202400" lon="35.1113400">
<ele>196.990005</ele>
<time>2023-11-30T13:20:46.994Z</time>
</trkpt>
<trkpt lat="32.6202100" lon="35.1113500">
<ele>196.619995</ele>
<time>2023-11-30T13:20:46.994Z</time>
</trkpt>
<trkpt lat="32.6201700" lon="35.1113600">
<ele>196.119995</ele>
<time>2023-11-30T13:20:46.994Z</time>
</trkpt>
<trkpt lat="32.6201200" lon="35.1113700">
<ele>195.509995</ele>
<time>2023-11-30T13:20:46.994Z</time>
</trkpt>
<trkpt lat="32.6200700" lon="35.1113900">
<ele>194.749985</ele>
<time>2023-11-30T13:20:46.994Z</time>
</trkpt>
<trkpt lat="32.6200000" lon="35.1114200">
<ele>193.779999</ele>
<time>2023-11-30T13:20:46.994Z</time>
</trkpt>
<trkpt lat="32.6199400" lon="35.1114300">
<ele>194.320007</ele>
<time>2023-11-30T13:20:46.994Z</time>
</trkpt>
<trkpt lat="32.6198300" lon="35.1114400">
<ele>195.360001</ele>
<time>2023-11-30T13:20:46.994Z</time>
</trkpt>
<trkpt lat="32.6198000" lon="35.1114600">
<ele>195.459991</ele>
<time>2023-11-30T13:20:46.994Z</time>
</trkpt>
<trkpt lat="32.6197600" lon="35.1114800">
<ele>195.649994</ele>
<time>2023-11-30T13:20:46.994Z</time>
</trkpt>
<trkpt lat="32.6197000" lon="35.1115000">
<ele>195.339996</ele>
<time>2023-11-30T13:20:46.994Z</time>
</trkpt>
<trkpt lat="32.6196700" lon="35.1115600">
<ele>193.979996</ele>
<time>2023-11-30T13:20:46.994Z</time>
</trkpt>
<trkpt lat="32.6196700" lon="35.1116100">
<ele>193.369995</ele>
<time>2023-11-30T13:20:46.994Z</time>
</trkpt>
<trkpt lat="32.6197000" lon="35.1116600">
<ele>193.520004</ele>
<time>2023-11-30T13:20:46.994Z</time>
</trkpt>
<trkpt lat="32.6197800" lon="35.1117200">
<ele>192.479996</ele>
<time>2023-11-30T13:20:46.994Z</time>
</trkpt>
<trkpt lat="32.6197900" lon="35.1117500">
<ele>191.850006</ele>
<time>2023-11-30T13:20:46.994Z</time>
</trkpt>
<trkpt lat="32.6197900" lon="35.1118100">
<ele>190.660004</ele>
<time>2023-11-30T13:20:46.994Z</time>
</trkpt>
<trkpt lat="32.6197700" lon="35.1118600">
<ele>189.500000</ele>
<time>2023-11-30T13:20:46.994Z</time>
</trkpt>
<trkpt lat="32.6196800" lon="35.1119000">
<ele>187.309998</ele>
<time>2023-11-30T13:20:46.994Z</time>
</trkpt>
<trkpt lat="32.6196400" lon="35.1119100">
<ele>186.309998</ele>
<time>2023-11-30T13:20:46.994Z</time>
</trkpt>
<trkpt lat="32.6195800" lon="35.1119200">
<ele>184.969986</ele>
<time>2023-11-30T13:20:46.994Z</time>
</trkpt>
<trkpt lat="32.6194300" lon="35.1119900">
<ele>181.399994</ele>
<time>2023-11-30T13:20:46.994Z</time>
</trkpt>
<trkpt lat="32.6193700" lon="35.1120400">
<ele>180.340012</ele>
<time>2023-11-30T13:20:46.994Z</time>
</trkpt>
<trkpt lat="32.6193500" lon="35.1120500">
<ele>180.050003</ele>
<time>2023-11-30T13:20:46.994Z</time>
</trkpt>
<trkpt lat="32.6192800" lon="35.1120600">
<ele>179.319992</ele>
<time>2023-11-30T13:20:46.994Z</time>
</trkpt>
<trkpt lat="32.6192300" lon="35.1120600">
<ele>178.889999</ele>
<time>2023-11-30T13:20:46.994Z</time>
</trkpt>
<trkpt lat="32.6191200" lon="35.1120400">
<ele>179.019989</ele>
<time>2023-11-30T13:20:46.994Z</time>
</trkpt>
<trkpt lat="32.6190300" lon="35.1120000">
<ele>180.279999</ele>
<time>2023-11-30T13:20:46.994Z</time>
</trkpt>
<trkpt lat="32.6189700" lon="35.1119400">
<ele>181.499985</ele>
<time>2023-11-30T13:20:46.994Z</time>
</trkpt>
<trkpt lat="32.6189100" lon="35.1118500">
<ele>183.839996</ele>
<time>2023-11-30T13:20:46.994Z</time>
</trkpt>
<trkpt lat="32.6188600" lon="35.1116900">
<ele>187.129990</ele>
<time>2023-11-30T13:20:46.994Z</time>
</trkpt>
<trkpt lat="32.6188500" lon="35.1116200">
<ele>188.210007</ele>
<time>2023-11-30T13:20:46.994Z</time>
</trkpt>
<trkpt lat="32.6188400" lon="35.1115800">
<ele>188.690002</ele>
<time>2023-11-30T13:20:46.994Z</time>
</trkpt>
<trkpt lat="32.6188300" lon="35.1115000">
<ele>189.770004</ele>
<time>2023-11-30T13:20:46.994Z</time>
</trkpt>
<trkpt lat="32.6188200" lon="35.1113800">
<ele>191.340012</ele>
<time>2023-11-30T13:20:46.994Z</time>
</trkpt>
<trkpt lat="32.6188100" lon="35.1112900">
<ele>191.880005</ele>
<time>2023-11-30T13:20:46.994Z</time>
</trkpt>
<trkpt lat="32.6187800" lon="35.1110900">
<ele>192.410004</ele>
<time>2023-11-30T13:20:46.994Z</time>
</trkpt>
<trkpt lat="32.6187600" lon="35.1110200">
<ele>191.519989</ele>
<time>2023-11-30T13:20:46.994Z</time>
</trkpt>
<trkpt lat="32.6187500" lon="35.1109600">
<ele>190.960007</ele>
<time>2023-11-30T13:20:46.994Z</time>
</trkpt>
<trkpt lat="32.6187400" lon="35.1109200">
<ele>190.440002</ele>
<time>2023-11-30T13:20:46.994Z</time>
</trkpt>
<trkpt lat="32.6187300" lon="35.1108600">
<ele>189.820007</ele>
<time>2023-11-30T13:20:46.994Z</time>
</trkpt>
<trkpt lat="32.6187200" lon="35.1108200">
<ele>189.160004</ele>
<time>2023-11-30T13:20:46.994Z</time>
</trkpt>
<trkpt lat="32.6187000" lon="35.1107200">
<ele>187.309998</ele>
<time>2023-11-30T13:20:46.994Z</time>
</trkpt>
<trkpt lat="32.6186900" lon="35.1106600">
<ele>186.339996</ele>
<time>2023-11-30T13:20:46.994Z</time>
</trkpt>
<trkpt lat="32.6186800" lon="35.1105500">
<ele>184.949997</ele>
<time>2023-11-30T13:20:46.994Z</time>
</trkpt>
<trkpt lat="32.6186700" lon="35.1104800">
<ele>184.210007</ele>
<time>2023-11-30T13:20:46.994Z</time>
</trkpt>
<trkpt lat="32.6186700" lon="35.1104000">
<ele>183.690002</ele>
<time>2023-11-30T13:20:46.994Z</time>
</trkpt>
<trkpt lat="32.6186700" lon="35.1103500">
<ele>183.369995</ele>
<time>2023-11-30T13:20:46.994Z</time>
</trkpt>
<trkpt lat="32.6186600" lon="35.1103100">
<ele>182.800003</ele>
<time>2023-11-30T13:20:46.994Z</time>
</trkpt>
<trkpt lat="32.6186600" lon="35.1102400">
<ele>182.770004</ele>
<time>2023-11-30T13:20:46.994Z</time>
</trkpt>
<trkpt lat="32.6186600" lon="35.1102000">
<ele>182.959991</ele>
<time>2023-11-30T13:20:46.994Z</time>
</trkpt>
<trkpt lat="32.6186600" lon="35.1101500">
<ele>183.210007</ele>
<time>2023-11-30T13:20:46.994Z</time>
</trkpt>
<trkpt lat="32.6186600" lon="35.1100500">
<ele>183.690002</ele>
<time>2023-11-30T13:20:46.994Z</time>
</trkpt>
<trkpt lat="32.6186500" lon="35.1100100">
<ele>183.490005</ele>
<time>2023-11-30T13:20:46.994Z</time>
</trkpt>
<trkpt lat="32.6186400" lon="35.1099300">
<ele>183.340012</ele>
<time>2023-11-30T13:20:46.994Z</time>
</trkpt>
<trkpt lat="32.6186300" lon="35.1098100">
<ele>183.340012</ele>
<time>2023-11-30T13:20:46.994Z</time>
</trkpt>
<trkpt lat="32.6186200" lon="35.1097700">
<ele>183.129990</ele>
<time>2023-11-30T13:20:46.994Z</time>
</trkpt>
<trkpt lat="32.6186000" lon="35.1097100">
<ele>182.760010</ele>
<time>2023-11-30T13:20:46.994Z</time>
</trkpt>
<trkpt lat="32.6185900" lon="35.1096800">
<ele>182.569992</ele>
<time>2023-11-30T13:20:46.994Z</time>
</trkpt>
<trkpt lat="32.6185600" lon="35.1095900">
<ele>182.070007</ele>
<time>2023-11-30T13:20:46.994Z</time>
</trkpt>
<trkpt lat="32.6185600" lon="35.1095600">
<ele>182.110001</ele>
<time>2023-11-30T13:20:46.994Z</time>
</trkpt>
<trkpt lat="32.6185600" lon="35.1095200">
<ele>182.160004</ele>
<time>2023-11-30T13:20:46.994Z</time>
</trkpt>
<trkpt lat="32.6185600" lon="35.1094900">
<ele>182.199997</ele>
<time>2023-11-30T13:20:46.994Z</time>
</trkpt>
<trkpt lat="32.6185700" lon="35.1094400">
<ele>182.389999</ele>
<time>2023-11-30T13:20:46.994Z</time>
</trkpt>
<trkpt lat="32.6185900" lon="35.1094000">
<ele>182.549988</ele>
<time>2023-11-30T13:20:46.994Z</time>
</trkpt>
<trkpt lat="32.6186000" lon="35.1093700">
<ele>182.580002</ele>
<time>2023-11-30T13:20:46.994Z</time>
</trkpt>
<trkpt lat="32.6186100" lon="35.1092700">
<ele>182.360001</ele>
<time>2023-11-30T13:20:46.994Z</time>
</trkpt>
<trkpt lat="32.6186200" lon="35.1091800">
<ele>182.180008</ele>
<time>2023-11-30T13:20:46.994Z</time>
</trkpt>
<trkpt lat="32.6186300" lon="35.1091400">
<ele>182.180008</ele>
<time>2023-11-30T13:20:46.994Z</time>
</trkpt>
<trkpt lat="32.6186400" lon="35.1091000">
<ele>182.180008</ele>
<time>2023-11-30T13:20:46.994Z</time>
</trkpt>
<trkpt lat="32.6186700" lon="35.1090000">
<ele>182.249985</ele>
<time>2023-11-30T13:20:46.994Z</time>
</trkpt>
<trkpt lat="32.6187100" lon="35.1089400">
<ele>182.610001</ele>
<time>2023-11-30T13:20:46.994Z</time>
</trkpt>
<trkpt lat="32.6187700" lon="35.1088900">
<ele>183.290009</ele>
<time>2023-11-30T13:20:46.994Z</time>
</trkpt>
<trkpt lat="32.6188400" lon="35.1088600">
<ele>184.119995</ele>
<time>2023-11-30T13:20:46.994Z</time>
</trkpt>
<trkpt lat="32.6188600" lon="35.1088400">
<ele>184.270004</ele>
<time>2023-11-30T13:20:46.994Z</time>
</trkpt>
<trkpt lat="32.6189100" lon="35.1088300">
<ele>184.680008</ele>
<time>2023-11-30T13:20:46.994Z</time>
</trkpt>
<trkpt lat="32.6189800" lon="35.1088100">
<ele>184.949997</ele>
<time>2023-11-30T13:20:46.994Z</time>
</trkpt>
<trkpt lat="32.6190300" lon="35.1088000">
<ele>185.190002</ele>
<time>2023-11-30T13:20:46.994Z</time>
</trkpt>
<trkpt lat="32.6191200" lon="35.1087900">
<ele>185.710007</ele>
<time>2023-11-30T13:20:46.994Z</time>
</trkpt>
<trkpt lat="32.6192200" lon="35.1087700">
<ele>185.840012</ele>
<time>2023-11-30T13:20:46.994Z</time>
</trkpt>
<trkpt lat="32.6193000" lon="35.1087500">
<ele>185.520004</ele>
<time>2023-11-30T13:20:46.994Z</time>
</trkpt>
<trkpt lat="32.6193600" lon="35.1087400">
<ele>185.250000</ele>
<time>2023-11-30T13:20:46.994Z</time>
</trkpt>
<trkpt lat="32.6193900" lon="35.1087200">
<ele>185.020004</ele>
<time>2023-11-30T13:20:46.994Z</time>
</trkpt>
<trkpt lat="32.6195200" lon="35.1086900">
<ele>185.149994</ele>
<time>2023-11-30T13:20:46.994Z</time>
</trkpt>
<trkpt lat="32.6195700" lon="35.1086800">
<ele>185.520004</ele>
<time>2023-11-30T13:20:46.994Z</time>
</trkpt>
<trkpt lat="32.6196400" lon="35.1086600">
<ele>186.089996</ele>
<time>2023-11-30T13:20:46.994Z</time>
</trkpt>
<trkpt lat="32.6196800" lon="35.1086500">
<ele>186.470001</ele>
<time>2023-11-30T13:20:46.994Z</time>
</trkpt>
<trkpt lat="32.6197100" lon="35.1086400">
<ele>186.779999</ele>
<time>2023-11-30T13:20:46.994Z</time>
</trkpt>
<trkpt lat="32.6198000" lon="35.1086100">
<ele>188.110001</ele>
<time>2023-11-30T13:20:46.994Z</time>
</trkpt>
<trkpt lat="32.6198300" lon="35.1085900">
<ele>188.349991</ele>
<time>2023-11-30T13:20:46.994Z</time>
</trkpt>
<trkpt lat="32.6200100" lon="35.1085400">
<ele>190.619995</ele>
<time>2023-11-30T13:20:46.994Z</time>
</trkpt>
<trkpt lat="32.6200400" lon="35.1085300">
<ele>190.930008</ele>
<time>2023-11-30T13:20:46.994Z</time>
</trkpt>
<trkpt lat="32.6200900" lon="35.1085200">
<ele>191.430008</ele>
<time>2023-11-30T13:20:46.994Z</time>
</trkpt>
<trkpt lat="32.6201200" lon="35.1085100">
<ele>191.649994</ele>
<time>2023-11-30T13:20:46.994Z</time>
</trkpt>
<trkpt lat="32.6201700" lon="35.1085000">
<ele>192.039993</ele>
<time>2023-11-30T13:20:46.994Z</time>
</trkpt>
<trkpt lat="32.6202200" lon="35.1084900">
<ele>192.360001</ele>
<time>2023-11-30T13:20:46.994Z</time>
</trkpt>
<trkpt lat="32.6203500" lon="35.1084800">
<ele>192.150009</ele>
<time>2023-11-30T13:20:46.994Z</time>
</trkpt>
<trkpt lat="32.6203800" lon="35.1084700">
<ele>191.720001</ele>
<time>2023-11-30T13:20:46.994Z</time>
</trkpt>
<trkpt lat="32.6208100" lon="35.1084700">
<ele>186.800003</ele>
<time>2023-11-30T13:20:46.994Z</time>
</trkpt>
<trkpt lat="32.6208400" lon="35.1084700">
<ele>186.460007</ele>
<time>2023-11-30T13:20:46.994Z</time>
</trkpt>
<trkpt lat="32.6209000" lon="35.1084800">
<ele>186.610001</ele>
<time>2023-11-30T13:20:46.994Z</time>
</trkpt>
<trkpt lat="32.6209700" lon="35.1084900">
<ele>186.690002</ele>
<time>2023-11-30T13:20:46.994Z</time>
</trkpt>
<trkpt lat="32.6210300" lon="35.1085200">
<ele>186.870010</ele>
<time>2023-11-30T13:20:46.994Z</time>
</trkpt>
<trkpt lat="32.6210800" lon="35.1085300">
<ele>186.800003</ele>
<time>2023-11-30T13:20:46.994Z</time>
</trkpt>
<trkpt lat="32.6211500" lon="35.1085500">
<ele>187.060013</ele>
<time>2023-11-30T13:20:46.994Z</time>
</trkpt>
<trkpt lat="32.6212000" lon="35.1085600">
<ele>187.460007</ele>
<time>2023-11-30T13:20:46.994Z</time>
</trkpt>
<trkpt lat="32.6212400" lon="35.1085700">
<ele>187.779999</ele>
<time>2023-11-30T13:20:46.994Z</time>
</trkpt>
<trkpt lat="32.6214000" lon="35.1085800">
<ele>188.759995</ele>
<time>2023-11-30T13:20:46.994Z</time>
</trkpt>
<trkpt lat="32.6215400" lon="35.1086000">
<ele>187.279999</ele>
<time>2023-11-30T13:20:46.994Z</time>
</trkpt>
<trkpt lat="32.6216500" lon="35.1086500">
<ele>186.199997</ele>
<time>2023-11-30T13:20:46.994Z</time>
</trkpt>
<trkpt lat="32.6217200" lon="35.1087200">
<ele>186.079987</ele>
<time>2023-11-30T13:20:46.994Z</time>
</trkpt>
<trkpt lat="32.6217800" lon="35.1088000">
<ele>186.279999</ele>
<time>2023-11-30T13:20:46.994Z</time>
</trkpt>
<trkpt lat="32.6218200" lon="35.1088400">
<ele>186.449997</ele>
<time>2023-11-30T13:20:46.994Z</time>
</trkpt>
<trkpt lat="32.6218600" lon="35.1088700">
<ele>186.650009</ele>
<time>2023-11-30T13:20:46.994Z</time>
</trkpt>
<trkpt lat="32.6219400" lon="35.1089400">
<ele>186.270004</ele>
<time>2023-11-30T13:20:46.994Z</time>
</trkpt>
<trkpt lat="32.6219700" lon="35.1089700">
<ele>185.729996</ele>
<time>2023-11-30T13:20:46.994Z</time>
</trkpt>
<trkpt lat="32.6220200" lon="35.1090800">
<ele>184.270004</ele>
<time>2023-11-30T13:20:46.994Z</time>
</trkpt>
<trkpt lat="32.6220400" lon="35.1091300">
<ele>183.740005</ele>
<time>2023-11-30T13:20:46.994Z</time>
</trkpt>
<trkpt lat="32.6220600" lon="35.1091800">
<ele>183.750000</ele>
<time>2023-11-30T13:20:46.994Z</time>
</trkpt>
<trkpt lat="32.6221100" lon="35.1092000">
<ele>184.320007</ele>
<time>2023-11-30T13:20:46.994Z</time>
</trkpt>
<trkpt lat="32.6221600" lon="35.1092100">
<ele>184.569992</ele>
<time>2023-11-30T13:20:46.994Z</time>
</trkpt>
<trkpt lat="32.6221900" lon="35.1092000">
<ele>184.430008</ele>
<time>2023-11-30T13:20:46.994Z</time>
</trkpt>
<trkpt lat="32.6222400" lon="35.1091300">
<ele>184.580002</ele>
<time>2023-11-30T13:20:46.994Z</time>
</trkpt>
<trkpt lat="32.6222500" lon="35.1091000">
<ele>184.869995</ele>
<time>2023-11-30T13:20:46.994Z</time>
</trkpt>
<trkpt lat="32.6222600" lon="35.1090700">
<ele>185.099991</ele>
<time>2023-11-30T13:20:46.994Z</time>
</trkpt>
<trkpt lat="32.6222700" lon="35.1088800">
<ele>185.169998</ele>
<time>2023-11-30T13:20:46.994Z</time>
</trkpt>
<trkpt lat="32.6222800" lon="35.1088400">
<ele>185.209991</ele>
<time>2023-11-30T13:20:46.994Z</time>
</trkpt>
<trkpt lat="32.6223200" lon="35.1086700">
<ele>185.350006</ele>
<time>2023-11-30T13:20:46.994Z</time>
</trkpt>
<trkpt lat="32.6223300" lon="35.1085700">
<ele>184.979996</ele>
<time>2023-11-30T13:20:46.994Z</time>
</trkpt>
<trkpt lat="32.6223500" lon="35.1085100">
<ele>184.399994</ele>
<time>2023-11-30T13:20:46.994Z</time>
</trkpt>
<trkpt lat="32.6223600" lon="35.1084600">
<ele>183.870010</ele>
<time>2023-11-30T13:20:46.994Z</time>
</trkpt>
<trkpt lat="32.6223700" lon="35.1083100">
<ele>182.600006</ele>
<time>2023-11-30T13:20:46.994Z</time>
</trkpt>
<trkpt lat="32.6223800" lon="35.1082700">
<ele>182.820007</ele>
<time>2023-11-30T13:20:46.994Z</time>
</trkpt>
<trkpt lat="32.6224100" lon="35.1082200">
<ele>183.149994</ele>
<time>2023-11-30T13:20:46.994Z</time>
</trkpt>
<trkpt lat="32.6224600" lon="35.1081400">
<ele>183.930008</ele>
<time>2023-11-30T13:20:46.994Z</time>
</trkpt>
<trkpt lat="32.6224900" lon="35.1080900">
<ele>184.569992</ele>
<time>2023-11-30T13:20:46.994Z</time>
</trkpt>
<trkpt lat="32.6225300" lon="35.1080000">
<ele>184.900009</ele>
<time>2023-11-30T13:20:46.994Z</time>
</trkpt>
<trkpt lat="32.6225600" lon="35.1079500">
<ele>184.809998</ele>
<time>2023-11-30T13:20:46.994Z</time>
</trkpt>
<trkpt lat="32.6226700" lon="35.1078300">
<ele>184.470001</ele>
<time>2023-11-30T13:20:46.994Z</time>
</trkpt>
<trkpt lat="32.6226900" lon="35.1077900">
<ele>184.560013</ele>
<time>2023-11-30T13:20:46.994Z</time>
</trkpt>
<trkpt lat="32.6227300" lon="35.1077000">
<ele>184.809998</ele>
<time>2023-11-30T13:20:46.994Z</time>
</trkpt>
<trkpt lat="32.6227500" lon="35.1076500">
<ele>185.030014</ele>
<time>2023-11-30T13:20:46.994Z</time>
</trkpt>
<trkpt lat="32.6228000" lon="35.1075500">
<ele>185.200012</ele>
<time>2023-11-30T13:20:46.994Z</time>
</trkpt>
<trkpt lat="32.6228400" lon="35.1075100">
<ele>184.610001</ele>
<time>2023-11-30T13:20:46.994Z</time>
</trkpt>
<trkpt lat="32.6228800" lon="35.1074800">
<ele>183.619995</ele>
<time>2023-11-30T13:20:46.994Z</time>
</trkpt>
<trkpt lat="32.6229200" lon="35.1074600">
<ele>182.569992</ele>
<time>2023-11-30T13:20:46.994Z</time>
</trkpt>
<trkpt lat="32.6229900" lon="35.1074400">
<ele>180.819992</ele>
<time>2023-11-30T13:20:46.994Z</time>
</trkpt>
<trkpt lat="32.6231000" lon="35.1073700">
<ele>177.809998</ele>
<time>2023-11-30T13:20:46.994Z</time>
</trkpt>
<trkpt lat="32.6231500" lon="35.1073400">
<ele>176.520004</ele>
<time>2023-11-30T13:20:46.994Z</time>
</trkpt>
<trkpt lat="32.6232800" lon="35.1072600">
<ele>172.779999</ele>
<time>2023-11-30T13:20:46.994Z</time>
</trkpt>
<trkpt lat="32.6233200" lon="35.1072300">
<ele>171.430008</ele>
<time>2023-11-30T13:20:46.994Z</time>
</trkpt>
<trkpt lat="32.6235600" lon="35.1071600">
<ele>167.209991</ele>
<time>2023-11-30T13:20:46.994Z</time>
</trkpt>
<trkpt lat="32.6236700" lon="35.1071200">
<ele>165.400009</ele>
<time>2023-11-30T13:20:46.994Z</time>
</trkpt>
<trkpt lat="32.6237100" lon="35.1071200">
<ele>165.449997</ele>
<time>2023-11-30T13:20:46.994Z</time>
</trkpt>
<trkpt lat="32.6237400" lon="35.1071200">
<ele>165.489990</ele>
<time>2023-11-30T13:20:46.994Z</time>
</trkpt>
<trkpt lat="32.6237800" lon="35.1071200">
<ele>165.539993</ele>
<time>2023-11-30T13:20:46.994Z</time>
</trkpt>
<trkpt lat="32.6238200" lon="35.1071400">
<ele>166.259995</ele>
<time>2023-11-30T13:20:46.994Z</time>
</trkpt>
<trkpt lat="32.6238700" lon="35.1071400">
<ele>166.320007</ele>
<time>2023-11-30T13:20:46.994Z</time>
</trkpt>
<trkpt lat="32.6239400" lon="35.1071100">
<ele>164.959991</ele>
<time>2023-11-30T13:20:46.994Z</time>
</trkpt>
<trkpt lat="32.6239700" lon="35.1071000">
<ele>164.419998</ele>
<time>2023-11-30T13:20:46.994Z</time>
</trkpt>
<trkpt lat="32.6240000" lon="35.1070800">
<ele>163.600006</ele>
<time>2023-11-30T13:20:46.994Z</time>
</trkpt>
<trkpt lat="32.6240300" lon="35.1070700">
<ele>163.099991</ele>
<time>2023-11-30T13:20:46.994Z</time>
</trkpt>
<trkpt lat="32.6240600" lon="35.1070600">
<ele>162.620010</ele>
<time>2023-11-30T13:20:46.994Z</time>
</trkpt>
<trkpt lat="32.6241300" lon="35.1070400">
<ele>161.630005</ele>
<time>2023-11-30T13:20:46.994Z</time>
</trkpt>
<trkpt lat="32.6242100" lon="35.1070200">
<ele>159.559998</ele>
<time>2023-11-30T13:20:46.994Z</time>
</trkpt>
<trkpt lat="32.6243100" lon="35.1070100">
<ele>156.099991</ele>
<time>2023-11-30T13:20:46.994Z</time>
</trkpt>
<trkpt lat="32.6243500" lon="35.1070000">
<ele>154.460007</ele>
<time>2023-11-30T13:20:46.994Z</time>
</trkpt>
<trkpt lat="32.6244700" lon="35.1069800">
<ele>151.009995</ele>
<time>2023-11-30T13:20:46.994Z</time>
</trkpt>
<trkpt lat="32.6245600" lon="35.1069400">
<ele>151.460007</ele>
<time>2023-11-30T13:20:46.994Z</time>
</trkpt>
<trkpt lat="32.6247100" lon="35.1068600">
<ele>153.559998</ele>
<time>2023-11-30T13:20:46.994Z</time>
</trkpt>
<trkpt lat="32.6248200" lon="35.1068300">
<ele>152.729996</ele>
<time>2023-11-30T13:20:46.994Z</time>
</trkpt>
<trkpt lat="32.6248600" lon="35.1068100">
<ele>152.300003</ele>
<time>2023-11-30T13:20:46.994Z</time>
</trkpt>
<trkpt lat="32.6251000" lon="35.1067400">
<ele>151.529999</ele>
<time>2023-11-30T13:20:46.994Z</time>
</trkpt>
<trkpt lat="32.6252100" lon="35.1067000">
<ele>151.789993</ele>
<time>2023-11-30T13:20:46.994Z</time>
</trkpt>
<trkpt lat="32.6253200" lon="35.1066800">
<ele>152.139999</ele>
<time>2023-11-30T13:20:46.994Z</time>
</trkpt>
<trkpt lat="32.6254900" lon="35.1066400">
<ele>152.569992</ele>
<time>2023-11-30T13:20:46.994Z</time>
</trkpt>
<trkpt lat="32.6256000" lon="35.1066300">
<ele>152.960007</ele>
<time>2023-11-30T13:20:46.994Z</time>
</trkpt>
<trkpt lat="32.6258200" lon="35.1066000">
<ele>154.160004</ele>
<time>2023-11-30T13:20:46.994Z</time>
</trkpt>
<trkpt lat="32.6258500" lon="35.1065900">
<ele>154.589996</ele>
<time>2023-11-30T13:20:46.994Z</time>
</trkpt>
<trkpt lat="32.6259000" lon="35.1065700">
<ele>155.630005</ele>
<time>2023-11-30T13:20:46.994Z</time>
</trkpt>
<trkpt lat="32.6259700" lon="35.1065400">
<ele>157.140015</ele>
<time>2023-11-30T13:20:46.994Z</time>
</trkpt>
<trkpt lat="32.6260200" lon="35.1063800">
<ele>158.919998</ele>
<time>2023-11-30T13:20:46.994Z</time>
</trkpt>
<trkpt lat="32.6260700" lon="35.1062500">
<ele>158.259995</ele>
<time>2023-11-30T13:20:46.994Z</time>
</trkpt>
<trkpt lat="32.6261000" lon="35.1061900">
<ele>157.950012</ele>
<time>2023-11-30T13:20:46.994Z</time>
</trkpt>
<trkpt lat="32.6261100" lon="35.1061600">
<ele>157.690002</ele>
<time>2023-11-30T13:20:46.994Z</time>
</trkpt>
<trkpt lat="32.6261500" lon="35.1061100">
<ele>157.690002</ele>
<time>2023-11-30T13:20:46.994Z</time>
</trkpt>
<trkpt lat="32.6262200" lon="35.1060700">
<ele>158.550003</ele>
<time>2023-11-30T13:20:46.994Z</time>
</trkpt>
<trkpt lat="32.6262400" lon="35.1060100">
<ele>158.250000</ele>
<time>2023-11-30T13:20:46.994Z</time>
</trkpt>
<trkpt lat="32.6262300" lon="35.1059700">
<ele>157.690002</ele>
<time>2023-11-30T13:20:46.994Z</time>
</trkpt>
<trkpt lat="32.6261600" lon="35.1059700">
<ele>156.690002</ele>
<time>2023-11-30T13:20:46.994Z</time>
</trkpt>
<trkpt lat="32.6260500" lon="35.1060100">
<ele>155.309998</ele>
<time>2023-11-30T13:20:46.994Z</time>
</trkpt>
<trkpt lat="32.6258500" lon="35.1060800">
<ele>152.910004</ele>
<time>2023-11-30T13:20:46.994Z</time>
</trkpt>
<trkpt lat="32.6257600" lon="35.1060800">
<ele>151.339996</ele>
<time>2023-11-30T13:20:46.994Z</time>
</trkpt>
<trkpt lat="32.6257100" lon="35.1060900">
<ele>150.550003</ele>
<time>2023-11-30T13:20:46.994Z</time>
</trkpt>
<trkpt lat="32.6256700" lon="35.1061000">
<ele>149.940002</ele>
<time>2023-11-30T13:20:46.994Z</time>
</trkpt>
<trkpt lat="32.6255700" lon="35.1061000">
<ele>148.139999</ele>
<time>2023-11-30T13:20:46.994Z</time>
</trkpt>
<trkpt lat="32.6255200" lon="35.1061100">
<ele>147.729996</ele>
<time>2023-11-30T13:20:46.994Z</time>
</trkpt>
<trkpt lat="32.6254300" lon="35.1061300">
<ele>147.330002</ele>
<time>2023-11-30T13:20:46.994Z</time>
</trkpt>
<trkpt lat="32.6253300" lon="35.1061400">
<ele>146.770004</ele>
<time>2023-11-30T13:20:46.994Z</time>
</trkpt>
<trkpt lat="32.6252400" lon="35.1061300">
<ele>146.020004</ele>
<time>2023-11-30T13:20:46.994Z</time>
</trkpt>
<trkpt lat="32.6251000" lon="35.1061000">
<ele>144.600006</ele>
<time>2023-11-30T13:20:46.994Z</time>
</trkpt>
<trkpt lat="32.6250400" lon="35.1061000">
<ele>144.169998</ele>
<time>2023-11-30T13:20:46.994Z</time>
</trkpt>
<trkpt lat="32.6249900" lon="35.1061000">
<ele>143.919998</ele>
<time>2023-11-30T13:20:46.994Z</time>
</trkpt>
<trkpt lat="32.6248800" lon="35.1061000">
<ele>144.309998</ele>
<time>2023-11-30T13:20:46.994Z</time>
</trkpt>
<trkpt lat="32.6248400" lon="35.1061000">
<ele>144.460007</ele>
<time>2023-11-30T13:20:46.994Z</time>
</trkpt>
<trkpt lat="32.6248000" lon="35.1061000">
<ele>144.600006</ele>
<time>2023-11-30T13:20:46.994Z</time>
</trkpt>
<trkpt lat="32.6247700" lon="35.1061000">
<ele>144.710007</ele>
<time>2023-11-30T13:20:46.994Z</time>
</trkpt>
<trkpt lat="32.6247500" lon="35.1060600">
<ele>144.349991</ele>
<time>2023-11-30T13:20:46.994Z</time>
</trkpt>
<trkpt lat="32.6247500" lon="35.1060100">
<ele>143.809998</ele>
<time>2023-11-30T13:20:46.994Z</time>
</trkpt>
<trkpt lat="32.6247700" lon="35.1059400">
<ele>142.979996</ele>
<time>2023-11-30T13:20:46.994Z</time>
</trkpt>
<trkpt lat="32.6248000" lon="35.1059100">
<ele>142.550003</ele>
<time>2023-11-30T13:20:46.994Z</time>
</trkpt>
<trkpt lat="32.6249900" lon="35.1057900">
<ele>140.089996</ele>
<time>2023-11-30T13:20:46.994Z</time>
</trkpt>
<trkpt lat="32.6250200" lon="35.1057700">
<ele>139.860001</ele>
<time>2023-11-30T13:20:46.994Z</time>
</trkpt>
<trkpt lat="32.6250400" lon="35.1057500">
<ele>139.699997</ele>
<time>2023-11-30T13:20:46.994Z</time>
</trkpt>
<trkpt lat="32.6253600" lon="35.1055200">
<ele>142.250000</ele>
<time>2023-11-30T13:20:46.994Z</time>
</trkpt>
<trkpt lat="32.6253900" lon="35.1054900">
<ele>142.029999</ele>
<time>2023-11-30T13:20:46.994Z</time>
</trkpt>
<trkpt lat="32.6254600" lon="35.1053600">
<ele>140.449997</ele>
<time>2023-11-30T13:20:46.994Z</time>
</trkpt>
<trkpt lat="32.6254900" lon="35.1053100">
<ele>139.869995</ele>
<time>2023-11-30T13:20:46.994Z</time>
</trkpt>
<trkpt lat="32.6255300" lon="35.1052600">
<ele>139.230011</ele>
<time>2023-11-30T13:20:46.994Z</time>
</trkpt>
<trkpt lat="32.6255700" lon="35.1052200">
<ele>138.460007</ele>
<time>2023-11-30T13:20:46.994Z</time>
</trkpt>
<trkpt lat="32.6256100" lon="35.1052000">
<ele>138.339996</ele>
<time>2023-11-30T13:20:46.994Z</time>
</trkpt>
<trkpt lat="32.6256400" lon="35.1051800">
<ele>138.240005</ele>
<time>2023-11-30T13:20:46.994Z</time>
</trkpt>
<trkpt lat="32.6256500" lon="35.1051400">
<ele>137.550003</ele>
<time>2023-11-30T13:20:46.994Z</time>
</trkpt>
<trkpt lat="32.6255600" lon="35.1051200">
<ele>135.539993</ele>
<time>2023-11-30T13:20:46.994Z</time>
</trkpt>
<trkpt lat="32.6255300" lon="35.1051200">
<ele>135.339996</ele>
<time>2023-11-30T13:20:46.994Z</time>
</trkpt>
<trkpt lat="32.6254000" lon="35.1050900">
<ele>134.050003</ele>
<time>2023-11-30T13:20:46.994Z</time>
</trkpt>
<trkpt lat="32.6253600" lon="35.1050900">
<ele>133.910004</ele>
<time>2023-11-30T13:20:46.994Z</time>
</trkpt>
<trkpt lat="32.6253300" lon="35.1050900">
<ele>133.800003</ele>
<time>2023-11-30T13:20:46.994Z</time>
</trkpt>
<trkpt lat="32.6252500" lon="35.1050900">
<ele>133.389999</ele>
<time>2023-11-30T13:20:46.994Z</time>
</trkpt>
<trkpt lat="32.6251700" lon="35.1051100">
<ele>133.050003</ele>
<time>2023-11-30T13:20:46.994Z</time>
</trkpt>
<trkpt lat="32.6251200" lon="35.1051200">
<ele>132.779999</ele>
<time>2023-11-30T13:20:46.994Z</time>
</trkpt>
<trkpt lat="32.6249300" lon="35.1051200">
<ele>131.509995</ele>
<time>2023-11-30T13:20:46.994Z</time>
</trkpt>
<trkpt lat="32.6248600" lon="35.1051200">
<ele>131.289993</ele>
<time>2023-11-30T13:20:46.994Z</time>
</trkpt>
<trkpt lat="32.6248400" lon="35.1050900">
<ele>130.919998</ele>
<time>2023-11-30T13:20:46.994Z</time>
</trkpt>
<trkpt lat="32.6248500" lon="35.1049800">
<ele>129.839996</ele>
<time>2023-11-30T13:20:46.994Z</time>
</trkpt>
<trkpt lat="32.6249000" lon="35.1047100">
<ele>128.379990</ele>
<time>2023-11-30T13:20:46.994Z</time>
</trkpt>
<trkpt lat="32.6249200" lon="35.1046600">
<ele>127.950005</ele>
<time>2023-11-30T13:20:46.994Z</time>
</trkpt>
<trkpt lat="32.6249400" lon="35.1045800">
<ele>127.090004</ele>
<time>2023-11-30T13:20:46.994Z</time>
</trkpt>
<trkpt lat="32.6249600" lon="35.1045400">
<ele>126.800003</ele>
<time>2023-11-30T13:20:46.994Z</time>
</trkpt>
<trkpt lat="32.6249900" lon="35.1044600">
<ele>126.079994</ele>
<time>2023-11-30T13:20:46.994Z</time>
</trkpt>
<trkpt lat="32.6250300" lon="35.1043800">
<ele>125.169998</ele>
<time>2023-11-30T13:20:46.994Z</time>
</trkpt>
<trkpt lat="32.6250500" lon="35.1042400">
<ele>123.479996</ele>
<time>2023-11-30T13:20:46.994Z</time>
</trkpt>
<trkpt lat="32.6250600" lon="35.1041800">
<ele>122.720001</ele>
<time>2023-11-30T13:20:46.994Z</time>
</trkpt>
<trkpt lat="32.6250600" lon="35.1040900">
<ele>122.389999</ele>
<time>2023-11-30T13:20:46.994Z</time>
</trkpt>
<trkpt lat="32.6250700" lon="35.1040400">
<ele>122.150002</ele>
<time>2023-11-30T13:20:46.994Z</time>
</trkpt>
<trkpt lat="32.6250500" lon="35.1040000">
<ele>122.320000</ele>
<time>2023-11-30T13:20:46.994Z</time>
</trkpt>
<trkpt lat="32.6250400" lon="35.1039800">
<ele>122.419998</ele>
<time>2023-11-30T13:20:46.994Z</time>
</trkpt>
<trkpt lat="32.6250300" lon="35.1039400">
<ele>122.520004</ele>
<time>2023-11-30T13:20:46.994Z</time>
</trkpt>
<trkpt lat="32.6250200" lon="35.1038600">
<ele>122.020004</ele>
<time>2023-11-30T13:20:46.994Z</time>
</trkpt>
<trkpt lat="32.6250100" lon="35.1038300">
<ele>121.560005</ele>
<time>2023-11-30T13:20:46.994Z</time>
</trkpt>
<trkpt lat="32.6249300" lon="35.1037800">
<ele>120.040001</ele>
<time>2023-11-30T13:20:46.994Z</time>
</trkpt>
<trkpt lat="32.6249100" lon="35.1037600">
<ele>119.519997</ele>
<time>2023-11-30T13:20:46.994Z</time>
</trkpt>
<trkpt lat="32.6248800" lon="35.1037600">
<ele>119.290001</ele>
<time>2023-11-30T13:20:46.994Z</time>
</trkpt>
<trkpt lat="32.6248400" lon="35.1037500">
<ele>118.849998</ele>
<time>2023-11-30T13:20:46.994Z</time>
</trkpt>
<trkpt lat="32.6247800" lon="35.1037400">
<ele>118.309998</ele>
<time>2023-11-30T13:20:46.994Z</time>
</trkpt>
<trkpt lat="32.6247400" lon="35.1037200">
<ele>117.879997</ele>
<time>2023-11-30T13:20:46.994Z</time>
</trkpt>
<trkpt lat="32.6246800" lon="35.1036900">
<ele>117.940002</ele>
<time>2023-11-30T13:20:46.994Z</time>
</trkpt>
<trkpt lat="32.6245700" lon="35.1036400">
<ele>118.739998</ele>
<time>2023-11-30T13:20:46.994Z</time>
</trkpt>
<trkpt lat="32.6245000" lon="35.1036200">
<ele>119.410004</ele>
<time>2023-11-30T13:20:46.994Z</time>
</trkpt>
<trkpt lat="32.6244300" lon="35.1036000">
<ele>120.430000</ele>
<time>2023-11-30T13:20:46.994Z</time>
</trkpt>
<trkpt lat="32.6243800" lon="35.1035900">
<ele>121.650002</ele>
<time>2023-11-30T13:20:46.994Z</time>
</trkpt>
<trkpt lat="32.6243500" lon="35.1035700">
<ele>122.320000</ele>
<time>2023-11-30T13:20:46.994Z</time>
</trkpt>
<trkpt lat="32.6242400" lon="35.1035300">
<ele>124.229996</ele>
<time>2023-11-30T13:20:46.994Z</time>
</trkpt>
<trkpt lat="32.6242100" lon="35.1035100">
<ele>124.489998</ele>
<time>2023-11-30T13:20:46.994Z</time>
</trkpt>
<trkpt lat="32.6239300" lon="35.1034300">
<ele>127.960007</ele>
<time>2023-11-30T13:20:46.994Z</time>
</trkpt>
<trkpt lat="32.6239000" lon="35.1034100">
<ele>128.349991</ele>
<time>2023-11-30T13:20:46.994Z</time>
</trkpt>
<trkpt lat="32.6238500" lon="35.1033900">
<ele>128.889999</ele>
<time>2023-11-30T13:20:46.994Z</time>
</trkpt>
<trkpt lat="32.6238000" lon="35.1033700">
<ele>129.309998</ele>
<time>2023-11-30T13:20:46.994Z</time>
</trkpt>
<trkpt lat="32.6237800" lon="35.1033600">
<ele>129.440002</ele>
<time>2023-11-30T13:20:46.994Z</time>
</trkpt>
<trkpt lat="32.6237400" lon="35.1033300">
<ele>129.580002</ele>
<time>2023-11-30T13:20:46.994Z</time>
</trkpt>
<trkpt lat="32.6237300" lon="35.1033300">
<ele>129.690002</ele>
<time>2023-11-30T13:20:46.994Z</time>
</trkpt>
<trkpt lat="32.6237300" lon="35.1033300">
<ele>129.690002</ele>
<time>2023-11-30T13:20:46.994Z</time>
</trkpt>
<trkpt lat="32.6237500" lon="35.1032800">
<ele>129.020004</ele>
<time>2023-11-30T13:20:46.994Z</time>
</trkpt>
<trkpt lat="32.6236200" lon="35.1032200">
<ele>130.460007</ele>
<time>2023-11-30T13:20:46.994Z</time>
</trkpt>
<trkpt lat="32.6233100" lon="35.1029100">
<ele>132.059998</ele>
<time>2023-11-30T13:20:46.994Z</time>
</trkpt>
<trkpt lat="32.6231500" lon="35.1028000">
<ele>129.330002</ele>
<time>2023-11-30T13:20:46.994Z</time>
</trkpt>
<trkpt lat="32.6230700" lon="35.1026200">
<ele>129.279999</ele>
<time>2023-11-30T13:20:46.994Z</time>
</trkpt>
<trkpt lat="32.6232700" lon="35.1024000">
<ele>130.869995</ele>
<time>2023-11-30T13:20:46.994Z</time>
</trkpt>
<trkpt lat="32.6232500" lon="35.1023700">
<ele>130.699997</ele>
<time>2023-11-30T13:20:46.994Z</time>
</trkpt>
<trkpt lat="32.6232200" lon="35.1023100">
<ele>130.529999</ele>
<time>2023-11-30T13:20:46.994Z</time>
</trkpt>
<trkpt lat="32.6231600" lon="35.1022300">
<ele>130.869995</ele>
<time>2023-11-30T13:20:46.994Z</time>
</trkpt>
<trkpt lat="32.6230900" lon="35.1021000">
<ele>131.569992</ele>
<time>2023-11-30T13:20:46.994Z</time>
</trkpt>
<trkpt lat="32.6230700" lon="35.1020700">
<ele>131.820007</ele>
<time>2023-11-30T13:20:46.994Z</time>
</trkpt>
<trkpt lat="32.6230200" lon="35.1020000">
<ele>132.130005</ele>
<time>2023-11-30T13:20:46.994Z</time>
</trkpt>
<trkpt lat="32.6229700" lon="35.1019400">
<ele>132.610001</ele>
<time>2023-11-30T13:20:46.994Z</time>
</trkpt>
<trkpt lat="32.6228700" lon="35.1018600">
<ele>132.929993</ele>
<time>2023-11-30T13:20:46.994Z</time>
</trkpt>
<trkpt lat="32.6227600" lon="35.1017700">
<ele>132.589996</ele>
<time>2023-11-30T13:20:46.994Z</time>
</trkpt>
<trkpt lat="32.6226600" lon="35.1017200">
<ele>131.449997</ele>
<time>2023-11-30T13:20:46.994Z</time>
</trkpt>
<trkpt lat="32.6225700" lon="35.1016900">
<ele>130.610001</ele>
<time>2023-11-30T13:20:46.994Z</time>
</trkpt>
<trkpt lat="32.6224900" lon="35.1016900">
<ele>130.139999</ele>
<time>2023-11-30T13:20:46.994Z</time>
</trkpt>
<trkpt lat="32.6223200" lon="35.1017400">
<ele>130.529999</ele>
<time>2023-11-30T13:20:46.994Z</time>
</trkpt>
<trkpt lat="32.6221600" lon="35.1018200">
<ele>128.649994</ele>
<time>2023-11-30T13:20:46.994Z</time>
</trkpt>
<trkpt lat="32.6220200" lon="35.1017800">
<ele>128.339996</ele>
<time>2023-11-30T13:20:46.994Z</time>
</trkpt>
<trkpt lat="32.6217800" lon="35.1017200">
<ele>128.389999</ele>
<time>2023-11-30T13:20:46.994Z</time>
</trkpt>
<trkpt lat="32.6214600" lon="35.1016100">
<ele>134.860001</ele>
<time>2023-11-30T13:20:46.994Z</time>
</trkpt>
<trkpt lat="32.6210100" lon="35.1014100">
<ele>140.440002</ele>
<time>2023-11-30T13:20:46.994Z</time>
</trkpt>
<trkpt lat="32.6207800" lon="35.1013200">
<ele>141.959991</ele>
<time>2023-11-30T13:20:46.994Z</time>
</trkpt>
<trkpt lat="32.6205500" lon="35.1012600">
<ele>141.199997</ele>
<time>2023-11-30T13:20:46.994Z</time>
</trkpt>
<trkpt lat="32.6203300" lon="35.1011500">
<ele>141.699997</ele>
<time>2023-11-30T13:20:46.994Z</time>
</trkpt>
<trkpt lat="32.6203300" lon="35.1011500">
<ele>141.699997</ele>
<time>2023-11-30T13:20:46.994Z</time>
</trkpt>
<trkpt lat="32.6199800" lon="35.1010700">
<ele>142.600006</ele>
<time>2023-11-30T13:20:46.994Z</time>
</trkpt>
<trkpt lat="32.6197000" lon="35.1010100">
<ele>141.809998</ele>
<time>2023-11-30T13:20:46.994Z</time>
</trkpt>
<trkpt lat="32.6195700" lon="35.1009900">
<ele>142.009995</ele>
<time>2023-11-30T13:20:46.994Z</time>
</trkpt>
<trkpt lat="32.6194400" lon="35.1009500">
<ele>142.120010</ele>
<time>2023-11-30T13:20:46.994Z</time>
</trkpt>
<trkpt lat="32.6193600" lon="35.1008900">
<ele>141.559998</ele>
<time>2023-11-30T13:20:46.994Z</time>
</trkpt>
<trkpt lat="32.6192400" lon="35.1007300">
<ele>140.059998</ele>
<time>2023-11-30T13:20:46.994Z</time>
</trkpt>
<trkpt lat="32.6191800" lon="35.1005400">
<ele>139.199997</ele>
<time>2023-11-30T13:20:46.994Z</time>
</trkpt>
<trkpt lat="32.6191500" lon="35.1003600">
<ele>139.000000</ele>
<time>2023-11-30T13:20:46.994Z</time>
</trkpt>
<trkpt lat="32.6191600" lon="35.1001400">
<ele>139.460007</ele>
<time>2023-11-30T13:20:46.994Z</time>
</trkpt>
<trkpt lat="32.6191600" lon="35.0998700">
<ele>139.460007</ele>
<time>2023-11-30T13:20:46.994Z</time>
</trkpt>
<trkpt lat="32.6192000" lon="35.0997900">
<ele>139.750000</ele>
<time>2023-11-30T13:20:46.994Z</time>
</trkpt>
<trkpt lat="32.6192700" lon="35.0996300">
<ele>140.360001</ele>
<time>2023-11-30T13:20:46.994Z</time>
</trkpt>
<trkpt lat="32.6193500" lon="35.0994000">
<ele>140.869995</ele>
<time>2023-11-30T13:20:46.994Z</time>
</trkpt>
<trkpt lat="32.6194600" lon="35.0990200">
<ele>142.029999</ele>
<time>2023-11-30T13:20:46.994Z</time>
</trkpt>
<trkpt lat="32.6195400" lon="35.0987300">
<ele>146.809998</ele>
<time>2023-11-30T13:20:46.994Z</time>
</trkpt>
<trkpt lat="32.6196000" lon="35.0985800">
<ele>149.979996</ele>
<time>2023-11-30T13:20:46.994Z</time>
</trkpt>
<trkpt lat="32.6196300" lon="35.0983900">
<ele>150.479996</ele>
<time>2023-11-30T13:20:46.994Z</time>
</trkpt>
<trkpt lat="32.6196500" lon="35.0981900">
<ele>150.669998</ele>
<time>2023-11-30T13:20:46.994Z</time>
</trkpt>
<trkpt lat="32.6196700" lon="35.0980200">
<ele>150.979996</ele>
<time>2023-11-30T13:20:46.994Z</time>
</trkpt>
<trkpt lat="32.6196600" lon="35.0978000">
<ele>151.369995</ele>
<time>2023-11-30T13:20:46.994Z</time>
</trkpt>
<trkpt lat="32.6196000" lon="35.0974400">
<ele>149.800003</ele>
<time>2023-11-30T13:20:46.994Z</time>
</trkpt>
<trkpt lat="32.6195600" lon="35.0972900">
<ele>148.600006</ele>
<time>2023-11-30T13:20:46.994Z</time>
</trkpt>
<trkpt lat="32.6194700" lon="35.0964900">
<ele>147.850006</ele>
<time>2023-11-30T13:20:46.994Z</time>
</trkpt>
<trkpt lat="32.6195100" lon="35.0960700">
<ele>150.100006</ele>
<time>2023-11-30T13:20:46.994Z</time>
</trkpt>
<trkpt lat="32.6196100" lon="35.0956600">
<ele>149.879990</ele>
<time>2023-11-30T13:20:46.994Z</time>
</trkpt>
<trkpt lat="32.6196100" lon="35.0956600">
<ele>149.879990</ele>
<time>2023-11-30T13:20:46.994Z</time>
</trkpt>
<trkpt lat="32.6196100" lon="35.0956600">
<ele>149.879990</ele>
<time>2023-11-30T13:20:46.994Z</time>
</trkpt>
<trkpt lat="32.6196600" lon="35.0954300">
<ele>149.180008</ele>
<time>2023-11-30T13:20:46.994Z</time>
</trkpt>
<trkpt lat="32.6199600" lon="35.0949500">
<ele>147.679993</ele>
<time>2023-11-30T13:20:46.994Z</time>
</trkpt>
<trkpt lat="32.6203600" lon="35.0943500">
<ele>150.940002</ele>
<time>2023-11-30T13:20:46.994Z</time>
</trkpt>
<trkpt lat="32.6206800" lon="35.0938200">
<ele>152.319992</ele>
<time>2023-11-30T13:20:46.994Z</time>
</trkpt>
<trkpt lat="32.6206800" lon="35.0937000">
<ele>151.500000</ele>
<time>2023-11-30T13:20:46.994Z</time>
</trkpt>
<trkpt lat="32.6207700" lon="35.0934800">
<ele>151.389999</ele>
<time>2023-11-30T13:20:46.994Z</time>
</trkpt>
<trkpt lat="32.6207700" lon="35.0933500">
<ele>151.250000</ele>
<time>2023-11-30T13:20:46.994Z</time>
</trkpt>
<trkpt lat="32.6208500" lon="35.0931400">
<ele>151.639999</ele>
<time>2023-11-30T13:20:46.994Z</time>
</trkpt>
<trkpt lat="32.6209500" lon="35.0927100">
<ele>153.029999</ele>
<time>2023-11-30T13:20:46.994Z</time>
</trkpt>
<trkpt lat="32.6209900" lon="35.0924000">
<ele>156.929993</ele>
<time>2023-11-30T13:20:46.994Z</time>
</trkpt>
<trkpt lat="32.6210300" lon="35.0922800">
<ele>160.020004</ele>
<time>2023-11-30T13:20:46.994Z</time>
</trkpt>
<trkpt lat="32.6210300" lon="35.0922800">
<ele>160.020004</ele>
<time>2023-11-30T13:20:46.994Z</time>
</trkpt>
<trkpt lat="32.6210800" lon="35.0921400">
<ele>163.949997</ele>
<time>2023-11-30T13:20:46.994Z</time>
</trkpt>
<trkpt lat="32.6209900" lon="35.0920300">
<ele>164.849991</ele>
<time>2023-11-30T13:20:46.994Z</time>
</trkpt>
<trkpt lat="32.6209200" lon="35.0917800">
<ele>164.679993</ele>
<time>2023-11-30T13:20:46.994Z</time>
</trkpt>
<trkpt lat="32.6208800" lon="35.0915900">
<ele>163.969986</ele>
<time>2023-11-30T13:20:46.994Z</time>
</trkpt>
<trkpt lat="32.6208700" lon="35.0914900">
<ele>164.290009</ele>
<time>2023-11-30T13:20:46.994Z</time>
</trkpt>
<trkpt lat="32.6208000" lon="35.0913000">
<ele>164.039993</ele>
<time>2023-11-30T13:20:46.994Z</time>
</trkpt>
<trkpt lat="32.6208100" lon="35.0912400">
<ele>164.600006</ele>
<time>2023-11-30T13:20:46.994Z</time>
</trkpt>
<trkpt lat="32.6208500" lon="35.0912000">
<ele>165.740005</ele>
<time>2023-11-30T13:20:46.994Z</time>
</trkpt>
<trkpt lat="32.6208700" lon="35.0911300">
<ele>166.660004</ele>
<time>2023-11-30T13:20:46.994Z</time>
</trkpt>
<trkpt lat="32.6208700" lon="35.0911000">
<ele>166.830002</ele>
<time>2023-11-30T13:20:46.994Z</time>
</trkpt>
<trkpt lat="32.6208600" lon="35.0910600">
<ele>166.759995</ele>
<time>2023-11-30T13:20:46.994Z</time>
</trkpt>
<trkpt lat="32.6209000" lon="35.0910900">
<ele>167.520004</ele>
<time>2023-11-30T13:20:46.994Z</time>
</trkpt>
<trkpt lat="32.6209400" lon="35.0911500">
<ele>168.079987</ele>
<time>2023-11-30T13:20:46.994Z</time>
</trkpt>
<trkpt lat="32.6210000" lon="35.0913200">
<ele>168.549988</ele>
<time>2023-11-30T13:20:46.994Z</time>
</trkpt>
<trkpt lat="32.6210000" lon="35.0913200">
<ele>168.549988</ele>
<time>2023-11-30T13:20:46.994Z</time>
</trkpt>
<trkpt lat="32.6210100" lon="35.0913400">
<ele>168.690002</ele>
<time>2023-11-30T13:20:46.994Z</time>
</trkpt>
<trkpt lat="32.6208700" lon="35.0914900">
<ele>164.290009</ele>
<time>2023-11-30T13:20:46.994Z</time>
</trkpt>
<trkpt lat="32.6208800" lon="35.0915900">
<ele>163.969986</ele>
<time>2023-11-30T13:20:46.994Z</time>
</trkpt>
<trkpt lat="32.6210200" lon="35.0915500">
<ele>168.319992</ele>
<time>2023-11-30T13:20:46.994Z</time>
</trkpt>
<trkpt lat="32.6211400" lon="35.0914500">
<ele>171.580002</ele>
<time>2023-11-30T13:20:46.994Z</time>
</trkpt>
<trkpt lat="32.6211700" lon="35.0913800">
<ele>172.299988</ele>
<time>2023-11-30T13:20:46.994Z</time>
</trkpt>
<trkpt lat="32.6211700" lon="35.0913800">
<ele>172.299988</ele>
<time>2023-11-30T13:20:46.994Z</time>
</trkpt>
<trkpt lat="32.6212300" lon="35.0912100">
<ele>173.940002</ele>
<time>2023-11-30T13:20:46.994Z</time>
</trkpt>
<trkpt lat="32.6213200" lon="35.0909100">
<ele>175.399994</ele>
<time>2023-11-30T13:20:46.994Z</time>
</trkpt>
<trkpt lat="32.6213800" lon="35.0907200">
<ele>175.880005</ele>
<time>2023-11-30T13:20:46.994Z</time>
</trkpt>
<trkpt lat="32.6214400" lon="35.0906200">
<ele>176.740005</ele>
<time>2023-11-30T13:20:46.994Z</time>
</trkpt>
<trkpt lat="32.6216100" lon="35.0904200">
<ele>179.769989</ele>
<time>2023-11-30T13:20:46.994Z</time>
</trkpt>
<trkpt lat="32.6216600" lon="35.0903800">
<ele>180.550003</ele>
<time>2023-11-30T13:20:46.994Z</time>
</trkpt>
<trkpt lat="32.6217700" lon="35.0903000">
<ele>182.440002</ele>
<time>2023-11-30T13:20:46.994Z</time>
</trkpt>
<trkpt lat="32.6219800" lon="35.0902000">
<ele>186.010010</ele>
<time>2023-11-30T13:20:46.994Z</time>
</trkpt>
<trkpt lat="32.6221000" lon="35.0901100">
<ele>188.629990</ele>
<time>2023-11-30T13:20:46.994Z</time>
</trkpt>
<trkpt lat="32.6221400" lon="35.0900500">
<ele>189.470001</ele>
<time>2023-11-30T13:20:46.994Z</time>
</trkpt>
<trkpt lat="32.6222800" lon="35.0897700">
<ele>193.319992</ele>
<time>2023-11-30T13:20:46.994Z</time>
</trkpt>
<trkpt lat="32.6223000" lon="35.0896600">
<ele>193.800003</ele>
<time>2023-11-30T13:20:46.994Z</time>
</trkpt>
<trkpt lat="32.6223700" lon="35.0892400">
<ele>195.139999</ele>
<time>2023-11-30T13:20:46.994Z</time>
</trkpt>
<trkpt lat="32.6223700" lon="35.0891800">
<ele>195.130005</ele>
<time>2023-11-30T13:20:46.994Z</time>
</trkpt>
<trkpt lat="32.6224000" lon="35.0887800">
<ele>193.059998</ele>
<time>2023-11-30T13:20:46.994Z</time>
</trkpt>
<trkpt lat="32.6224000" lon="35.0887600">
<ele>192.909988</ele>
<time>2023-11-30T13:20:46.994Z</time>
</trkpt>
<trkpt lat="32.6224300" lon="35.0882300">
<ele>192.830002</ele>
<time>2023-11-30T13:20:46.994Z</time>
</trkpt>
<trkpt lat="32.6224400" lon="35.0881200">
<ele>193.089996</ele>
<time>2023-11-30T13:20:46.994Z</time>
</trkpt>
<trkpt lat="32.6225200" lon="35.0876400">
<ele>194.320007</ele>
<time>2023-11-30T13:20:46.994Z</time>
</trkpt>
<trkpt lat="32.6224600" lon="35.0873900">
<ele>195.040009</ele>
<time>2023-11-30T13:20:46.994Z</time>
</trkpt>
<trkpt lat="32.6224400" lon="35.0873200">
<ele>195.279999</ele>
<time>2023-11-30T13:20:46.994Z</time>
</trkpt>
<trkpt lat="32.6224800" lon="35.0868300">
<ele>197.889999</ele>
<time>2023-11-30T13:20:46.994Z</time>
</trkpt>
<trkpt lat="32.6224300" lon="35.0867100">
<ele>197.709991</ele>
<time>2023-11-30T13:20:46.994Z</time>
</trkpt>
<trkpt lat="32.6223400" lon="35.0865700">
<ele>196.930008</ele>
<time>2023-11-30T13:20:46.994Z</time>
</trkpt>
<trkpt lat="32.6222800" lon="35.0864000">
<ele>196.050003</ele>
<time>2023-11-30T13:20:46.994Z</time>
</trkpt>
<trkpt lat="32.6222100" lon="35.0863300">
<ele>195.550003</ele>
<time>2023-11-30T13:20:46.994Z</time>
</trkpt>
<trkpt lat="32.6221600" lon="35.0863400">
<ele>195.500000</ele>
<time>2023-11-30T13:20:46.994Z</time>
</trkpt>
<trkpt lat="32.6221500" lon="35.0863700">
<ele>195.639999</ele>
<time>2023-11-30T13:20:46.994Z</time>
</trkpt>
<trkpt lat="32.6221300" lon="35.0864400">
<ele>195.790009</ele>
<time>2023-11-30T13:20:46.994Z</time>
</trkpt>
<trkpt lat="32.6220900" lon="35.0865000">
<ele>195.730011</ele>
<time>2023-11-30T13:20:46.994Z</time>
</trkpt>
<trkpt lat="32.6220600" lon="35.0864900">
<ele>195.569992</ele>
<time>2023-11-30T13:20:46.994Z</time>
</trkpt>
<trkpt lat="32.6220600" lon="35.0864900">
<ele>195.569992</ele>
<time>2023-11-30T13:20:46.994Z</time>
</trkpt>
<trkpt lat="32.6220300" lon="35.0864800">
<ele>195.410004</ele>
<time>2023-11-30T13:20:46.994Z</time>
</trkpt>
<trkpt lat="32.6219600" lon="35.0865000">
<ele>195.080002</ele>
<time>2023-11-30T13:20:46.994Z</time>
</trkpt>
<trkpt lat="32.6219200" lon="35.0865400">
<ele>194.899994</ele>
<time>2023-11-30T13:20:46.994Z</time>
</trkpt>
<trkpt lat="32.6218800" lon="35.0865800">
<ele>194.680008</ele>
<time>2023-11-30T13:20:46.994Z</time>
</trkpt>
<trkpt lat="32.6218300" lon="35.0865500">
<ele>194.519989</ele>
<time>2023-11-30T13:20:46.994Z</time>
</trkpt>
<trkpt lat="32.6218200" lon="35.0864600">
<ele>194.770004</ele>
<time>2023-11-30T13:20:46.994Z</time>
</trkpt>
<trkpt lat="32.6216800" lon="35.0865000">
<ele>194.239990</ele>
<time>2023-11-30T13:20:46.994Z</time>
</trkpt>
<trkpt lat="32.6211100" lon="35.0871800">
<ele>192.000000</ele>
<time>2023-11-30T13:20:46.994Z</time>
</trkpt>
<trkpt lat="32.6207100" lon="35.0875100">
<ele>197.100006</ele>
<time>2023-11-30T13:20:46.994Z</time>
</trkpt>
<trkpt lat="32.6206400" lon="35.0875700">
<ele>197.850006</ele>
<time>2023-11-30T13:20:46.994Z</time>
</trkpt>
<trkpt lat="32.6205600" lon="35.0881300">
<ele>200.659988</ele>
<time>2023-11-30T13:20:46.994Z</time>
</trkpt>
<trkpt lat="32.6206700" lon="35.0887600">
<ele>193.300003</ele>
<time>2023-11-30T13:20:46.994Z</time>
</trkpt>
<trkpt lat="32.6206700" lon="35.0887600">
<ele>193.300003</ele>
<time>2023-11-30T13:20:46.994Z</time>
</trkpt>
<trkpt lat="32.6207600" lon="35.0893400">
<ele>183.299988</ele>
<time>2023-11-30T13:20:46.994Z</time>
</trkpt>
<trkpt lat="32.6205400" lon="35.0910100">
<ele>160.149994</ele>
<time>2023-11-30T13:20:46.994Z</time>
</trkpt>
<trkpt lat="32.6204900" lon="35.0911000">
<ele>159.360001</ele>
<time>2023-11-30T13:20:46.994Z</time>
</trkpt>
<trkpt lat="32.6204100" lon="35.0912800">
<ele>158.539993</ele>
<time>2023-11-30T13:20:46.994Z</time>
</trkpt>
<trkpt lat="32.6200300" lon="35.0918700">
<ele>154.240005</ele>
<time>2023-11-30T13:20:46.994Z</time>
</trkpt>
<trkpt lat="32.6199800" lon="35.0919600">
<ele>154.029999</ele>
<time>2023-11-30T13:20:46.994Z</time>
</trkpt>
<trkpt lat="32.6198800" lon="35.0921900">
<ele>152.710007</ele>
<time>2023-11-30T13:20:46.994Z</time>
</trkpt>
<trkpt lat="32.6198000" lon="35.0924000">
<ele>154.360001</ele>
<time>2023-11-30T13:20:46.994Z</time>
</trkpt>
<trkpt lat="32.6197100" lon="35.0930600">
<ele>159.250000</ele>
<time>2023-11-30T13:20:46.994Z</time>
</trkpt>
<trkpt lat="32.6196800" lon="35.0933000">
<ele>161.250015</ele>
<time>2023-11-30T13:20:46.994Z</time>
</trkpt>
<trkpt lat="32.6195500" lon="35.0936000">
<ele>157.699997</ele>
<time>2023-11-30T13:20:46.994Z</time>
</trkpt>
<trkpt lat="32.6188300" lon="35.0947500">
<ele>153.630005</ele>
<time>2023-11-30T13:20:46.994Z</time>
</trkpt>
<trkpt lat="32.6187900" lon="35.0949200">
<ele>152.750000</ele>
<time>2023-11-30T13:20:46.994Z</time>
</trkpt>
<trkpt lat="32.6188100" lon="35.0952200">
<ele>150.489990</ele>
<time>2023-11-30T13:20:46.994Z</time>
</trkpt>
<trkpt lat="32.6188500" lon="35.0956100">
<ele>148.389999</ele>
<time>2023-11-30T13:20:46.994Z</time>
</trkpt>
<trkpt lat="32.6187900" lon="35.0957800">
<ele>148.899994</ele>
<time>2023-11-30T13:20:46.994Z</time>
</trkpt>
<trkpt lat="32.6185800" lon="35.0961700">
<ele>150.820007</ele>
<time>2023-11-30T13:20:46.994Z</time>
</trkpt>
<trkpt lat="32.6185800" lon="35.0961700">
<ele>150.820007</ele>
<time>2023-11-30T13:20:46.994Z</time>
</trkpt>
<trkpt lat="32.6185500" lon="35.0962300">
<ele>150.680008</ele>
<time>2023-11-30T13:20:46.994Z</time>
</trkpt>
<trkpt lat="32.6185600" lon="35.0964000">
<ele>149.520004</ele>
<time>2023-11-30T13:20:46.994Z</time>
</trkpt>
<trkpt lat="32.6185800" lon="35.0964800">
<ele>149.039993</ele>
<time>2023-11-30T13:20:46.994Z</time>
</trkpt>
<trkpt lat="32.6185400" lon="35.0964700">
<ele>149.550003</ele>
<time>2023-11-30T13:20:46.994Z</time>
</trkpt>
<trkpt lat="32.6184800" lon="35.0965000">
<ele>150.199997</ele>
<time>2023-11-30T13:20:46.994Z</time>
</trkpt>
<trkpt lat="32.6184000" lon="35.0965400">
<ele>151.150009</ele>
<time>2023-11-30T13:20:46.994Z</time>
</trkpt>
<trkpt lat="32.6183400" lon="35.0965600">
<ele>151.910004</ele>
<time>2023-11-30T13:20:46.994Z</time>
</trkpt>
<trkpt lat="32.6183000" lon="35.0965700">
<ele>152.510010</ele>
<time>2023-11-30T13:20:46.994Z</time>
</trkpt>
<trkpt lat="32.6178500" lon="35.0963700">
<ele>156.550003</ele>
<time>2023-11-30T13:20:46.994Z</time>
</trkpt>
<trkpt lat="32.6174700" lon="35.0961500">
<ele>159.399994</ele>
<time>2023-11-30T13:20:46.994Z</time>
</trkpt>
<trkpt lat="32.6173100" lon="35.0961100">
<ele>161.410004</ele>
<time>2023-11-30T13:20:46.994Z</time>
</trkpt>
<trkpt lat="32.6171800" lon="35.0960500">
<ele>162.559998</ele>
<time>2023-11-30T13:20:46.994Z</time>
</trkpt>
<trkpt lat="32.6167700" lon="35.0959200">
<ele>168.529999</ele>
<time>2023-11-30T13:20:46.994Z</time>
</trkpt>
<trkpt lat="32.6165400" lon="35.0957600">
<ele>172.570007</ele>
<time>2023-11-30T13:20:46.994Z</time>
</trkpt>
<trkpt lat="32.6161900" lon="35.0952600">
<ele>176.250000</ele>
<time>2023-11-30T13:20:46.994Z</time>
</trkpt>
<trkpt lat="32.6158800" lon="35.0947500">
<ele>175.610001</ele>
<time>2023-11-30T13:20:46.994Z</time>
</trkpt>
<trkpt lat="32.6156800" lon="35.0944100">
<ele>179.930008</ele>
<time>2023-11-30T13:20:46.994Z</time>
</trkpt>
<trkpt lat="32.6155900" lon="35.0942500">
<ele>181.399994</ele>
<time>2023-11-30T13:20:46.994Z</time>
</trkpt>
<trkpt lat="32.6153400" lon="35.0938800">
<ele>186.089996</ele>
<time>2023-11-30T13:20:46.994Z</time>
</trkpt>
<trkpt lat="32.6152500" lon="35.0937100">
<ele>187.570007</ele>
<time>2023-11-30T13:20:46.994Z</time>
</trkpt>
<trkpt lat="32.6150000" lon="35.0933500">
<ele>191.819992</ele>
<time>2023-11-30T13:20:46.994Z</time>
</trkpt>
<trkpt lat="32.6149100" lon="35.0932700">
<ele>193.890015</ele>
<time>2023-11-30T13:20:46.994Z</time>
</trkpt>
<trkpt lat="32.6147900" lon="35.0931500">
<ele>196.070007</ele>
<time>2023-11-30T13:20:46.994Z</time>
</trkpt>
<trkpt lat="32.6147900" lon="35.0930300">
<ele>197.299988</ele>
<time>2023-11-30T13:20:46.994Z</time>
</trkpt>
<trkpt lat="32.6148500" lon="35.0929500">
<ele>198.309998</ele>
<time>2023-11-30T13:20:46.994Z</time>
</trkpt>
<trkpt lat="32.6148500" lon="35.0929500">
<ele>198.309998</ele>
<time>2023-11-30T13:20:46.994Z</time>
</trkpt>
<trkpt lat="32.6147900" lon="35.0930300">
<ele>197.299988</ele>
<time>2023-11-30T13:20:46.994Z</time>
</trkpt>
<trkpt lat="32.6147900" lon="35.0930800">
<ele>196.760010</ele>
<time>2023-11-30T13:20:46.994Z</time>
</trkpt>
<trkpt lat="32.6147900" lon="35.0930300">
<ele>197.299988</ele>
<time>2023-11-30T13:20:46.994Z</time>
</trkpt>
<trkpt lat="32.6147900" lon="35.0931500">
<ele>196.070007</ele>
<time>2023-11-30T13:20:46.994Z</time>
</trkpt>
<trkpt lat="32.6149100" lon="35.0932700">
<ele>193.890015</ele>
<time>2023-11-30T13:20:46.994Z</time>
</trkpt>
<trkpt lat="32.6150000" lon="35.0933500">
<ele>191.819992</ele>
<time>2023-11-30T13:20:46.994Z</time>
</trkpt>
<trkpt lat="32.6152500" lon="35.0937100">
<ele>187.570007</ele>
<time>2023-11-30T13:20:46.994Z</time>
</trkpt>
<trkpt lat="32.6153400" lon="35.0938800">
<ele>186.089996</ele>
<time>2023-11-30T13:20:46.994Z</time>
</trkpt>
<trkpt lat="32.6155900" lon="35.0942500">
<ele>181.399994</ele>
<time>2023-11-30T13:20:46.994Z</time>
</trkpt>
<trkpt lat="32.6156800" lon="35.0944100">
<ele>179.930008</ele>
<time>2023-11-30T13:20:46.994Z</time>
</trkpt>
<trkpt lat="32.6158800" lon="35.0947500">
<ele>175.610001</ele>
<time>2023-11-30T13:20:46.994Z</time>
</trkpt>
<trkpt lat="32.6161900" lon="35.0952600">
<ele>176.250000</ele>
<time>2023-11-30T13:20:46.994Z</time>
</trkpt>
<trkpt lat="32.6165400" lon="35.0957600">
<ele>172.570007</ele>
<time>2023-11-30T13:20:46.994Z</time>
</trkpt>
<trkpt lat="32.6167700" lon="35.0959200">
<ele>168.529999</ele>
<time>2023-11-30T13:20:46.994Z</time>
</trkpt>
<trkpt lat="32.6171800" lon="35.0960500">
<ele>162.559998</ele>
<time>2023-11-30T13:20:46.994Z</time>
</trkpt>
<trkpt lat="32.6173100" lon="35.0961100">
<ele>161.410004</ele>
<time>2023-11-30T13:20:46.994Z</time>
</trkpt>
<trkpt lat="32.6174700" lon="35.0961500">
<ele>159.399994</ele>
<time>2023-11-30T13:20:46.994Z</time>
</trkpt>
<trkpt lat="32.6178500" lon="35.0963700">
<ele>156.550003</ele>
<time>2023-11-30T13:20:46.994Z</time>
</trkpt>
<trkpt lat="32.6183000" lon="35.0965700">
<ele>152.510010</ele>
<time>2023-11-30T13:20:46.994Z</time>
</trkpt>
<trkpt lat="32.6184200" lon="35.0967300">
<ele>151.220001</ele>
<time>2023-11-30T13:20:46.994Z</time>
</trkpt>
<trkpt lat="32.6185200" lon="35.0968100">
<ele>149.819992</ele>
<time>2023-11-30T13:20:46.994Z</time>
</trkpt>
<trkpt lat="32.6186200" lon="35.0969500">
<ele>148.009995</ele>
<time>2023-11-30T13:20:46.994Z</time>
</trkpt>
<trkpt lat="32.6186600" lon="35.0970200">
<ele>148.449997</ele>
<time>2023-11-30T13:20:46.994Z</time>
</trkpt>
<trkpt lat="32.6187500" lon="35.0971500">
<ele>147.739990</ele>
<time>2023-11-30T13:20:46.994Z</time>
</trkpt>
<trkpt lat="32.6188400" lon="35.0972600">
<ele>145.589996</ele>
<time>2023-11-30T13:20:46.994Z</time>
</trkpt>
<trkpt lat="32.6188700" lon="35.0971600">
<ele>144.900009</ele>
<time>2023-11-30T13:20:46.994Z</time>
</trkpt>
<trkpt lat="32.6188800" lon="35.0971200">
<ele>144.919998</ele>
<time>2023-11-30T13:20:46.994Z</time>
</trkpt>
<trkpt lat="32.6189700" lon="35.0970200">
<ele>145.300003</ele>
<time>2023-11-30T13:20:46.994Z</time>
</trkpt>
<trkpt lat="32.6190900" lon="35.0969500">
<ele>145.930008</ele>
<time>2023-11-30T13:20:46.994Z</time>
</trkpt>
<trkpt lat="32.6193000" lon="35.0970400">
<ele>145.279999</ele>
<time>2023-11-30T13:20:46.994Z</time>
</trkpt>
<trkpt lat="32.6193400" lon="35.0970800">
<ele>145.270004</ele>
<time>2023-11-30T13:20:46.994Z</time>
</trkpt>
<trkpt lat="32.6194200" lon="35.0971600">
<ele>145.729996</ele>
<time>2023-11-30T13:20:46.994Z</time>
</trkpt>
<trkpt lat="32.6194800" lon="35.0972100">
<ele>146.759995</ele>
<time>2023-11-30T13:20:46.994Z</time>
</trkpt>
<trkpt lat="32.6195600" lon="35.0972900">
<ele>148.600006</ele>
<time>2023-11-30T13:20:46.994Z</time>
</trkpt>
<trkpt lat="32.6196000" lon="35.0974400">
<ele>149.800003</ele>
<time>2023-11-30T13:20:46.994Z</time>
</trkpt>
<trkpt lat="32.6196600" lon="35.0978000">
<ele>151.369995</ele>
<time>2023-11-30T13:20:46.994Z</time>
</trkpt>
<trkpt lat="32.6196700" lon="35.0980200">
<ele>150.979996</ele>
<time>2023-11-30T13:20:46.994Z</time>
</trkpt>
<trkpt lat="32.6196500" lon="35.0981900">
<ele>150.669998</ele>
<time>2023-11-30T13:20:46.994Z</time>
</trkpt>
<trkpt lat="32.6196300" lon="35.0983900">
<ele>150.479996</ele>
<time>2023-11-30T13:20:46.994Z</time>
</trkpt>
<trkpt lat="32.6196000" lon="35.0985800">
<ele>149.979996</ele>
<time>2023-11-30T13:20:46.994Z</time>
</trkpt>
<trkpt lat="32.6195400" lon="35.0987300">
<ele>146.809998</ele>
<time>2023-11-30T13:20:46.994Z</time>
</trkpt>
<trkpt lat="32.6194600" lon="35.0990200">
<ele>142.029999</ele>
<time>2023-11-30T13:20:46.994Z</time>
</trkpt>
<trkpt lat="32.6193500" lon="35.0994000">
<ele>140.869995</ele>
<time>2023-11-30T13:20:46.994Z</time>
</trkpt>
<trkpt lat="32.6192700" lon="35.0996300">
<ele>140.360001</ele>
<time>2023-11-30T13:20:46.994Z</time>
</trkpt>
<trkpt lat="32.6192000" lon="35.0997900">
<ele>139.750000</ele>
<time>2023-11-30T13:20:46.994Z</time>
</trkpt>
<trkpt lat="32.6191600" lon="35.0998700">
<ele>139.460007</ele>
<time>2023-11-30T13:20:46.994Z</time>
</trkpt>
<trkpt lat="32.6191600" lon="35.1001400">
<ele>139.460007</ele>
<time>2023-11-30T13:20:46.994Z</time>
</trkpt>
<trkpt lat="32.6191500" lon="35.1003600">
<ele>139.000000</ele>
<time>2023-11-30T13:20:46.994Z</time>
</trkpt>
<trkpt lat="32.6191800" lon="35.1005400">
<ele>139.199997</ele>
<time>2023-11-30T13:20:46.994Z</time>
</trkpt>
<trkpt lat="32.6192400" lon="35.1007300">
<ele>140.059998</ele>
<time>2023-11-30T13:20:46.994Z</time>
</trkpt>
<trkpt lat="32.6193600" lon="35.1008900">
<ele>141.559998</ele>
<time>2023-11-30T13:20:46.994Z</time>
</trkpt>
<trkpt lat="32.6194400" lon="35.1009500">
<ele>142.120010</ele>
<time>2023-11-30T13:20:46.994Z</time>
</trkpt>
<trkpt lat="32.6196100" lon="35.1010700">
<ele>140.960007</ele>
<time>2023-11-30T13:20:46.994Z</time>
</trkpt>
<trkpt lat="32.6198800" lon="35.1013100">
<ele>137.460007</ele>
<time>2023-11-30T13:20:46.994Z</time>
</trkpt>
<trkpt lat="32.6203100" lon="35.1014500">
<ele>135.130005</ele>
<time>2023-11-30T13:20:46.994Z</time>
</trkpt>
<trkpt lat="32.6207100" lon="35.1015200">
<ele>136.520004</ele>
<time>2023-11-30T13:20:46.994Z</time>
</trkpt>
<trkpt lat="32.6209400" lon="35.1015900">
<ele>135.490005</ele>
<time>2023-11-30T13:20:46.994Z</time>
</trkpt>
<trkpt lat="32.6212700" lon="35.1017400">
<ele>132.259995</ele>
<time>2023-11-30T13:20:46.994Z</time>
</trkpt>
<trkpt lat="32.6214900" lon="35.1018200">
<ele>128.320007</ele>
<time>2023-11-30T13:20:46.994Z</time>
</trkpt>
<trkpt lat="32.6218200" lon="35.1018000">
<ele>126.480003</ele>
<time>2023-11-30T13:20:46.994Z</time>
</trkpt>
<trkpt lat="32.6220200" lon="35.1017800">
<ele>128.339996</ele>
<time>2023-11-30T13:20:46.994Z</time>
</trkpt>
<trkpt lat="32.6221600" lon="35.1018200">
<ele>128.649994</ele>
<time>2023-11-30T13:20:46.994Z</time>
</trkpt>
<trkpt lat="32.6223200" lon="35.1017400">
<ele>130.529999</ele>
<time>2023-11-30T13:20:46.994Z</time>
</trkpt>
<trkpt lat="32.6224900" lon="35.1016900">
<ele>130.139999</ele>
<time>2023-11-30T13:20:46.994Z</time>
</trkpt>
<trkpt lat="32.6225700" lon="35.1016900">
<ele>130.610001</ele>
<time>2023-11-30T13:20:46.994Z</time>
</trkpt>
<trkpt lat="32.6226600" lon="35.1017200">
<ele>131.449997</ele>
<time>2023-11-30T13:20:46.994Z</time>
</trkpt>
<trkpt lat="32.6227600" lon="35.1017700">
<ele>132.589996</ele>
<time>2023-11-30T13:20:46.994Z</time>
</trkpt>
<trkpt lat="32.6228700" lon="35.1018600">
<ele>132.929993</ele>
<time>2023-11-30T13:20:46.994Z</time>
</trkpt>
<trkpt lat="32.6229700" lon="35.1019400">
<ele>132.610001</ele>
<time>2023-11-30T13:20:46.994Z</time>
</trkpt>
<trkpt lat="32.6230200" lon="35.1020000">
<ele>132.130005</ele>
<time>2023-11-30T13:20:46.994Z</time>
</trkpt>
<trkpt lat="32.6230700" lon="35.1020700">
<ele>131.820007</ele>
<time>2023-11-30T13:20:46.994Z</time>
</trkpt>
<trkpt lat="32.6230900" lon="35.1021000">
<ele>131.569992</ele>
<time>2023-11-30T13:20:46.994Z</time>
</trkpt>
<trkpt lat="32.6231600" lon="35.1022300">
<ele>130.869995</ele>
<time>2023-11-30T13:20:46.994Z</time>
</trkpt>
<trkpt lat="32.6232200" lon="35.1023100">
<ele>130.529999</ele>
<time>2023-11-30T13:20:46.994Z</time>
</trkpt>
<trkpt lat="32.6232500" lon="35.1023700">
<ele>130.699997</ele>
<time>2023-11-30T13:20:46.994Z</time>
</trkpt>
<trkpt lat="32.6232700" lon="35.1024000">
<ele>130.869995</ele>
<time>2023-11-30T13:20:46.994Z</time>
</trkpt>
<trkpt lat="32.6234300" lon="35.1024900">
<ele>130.500000</ele>
<time>2023-11-30T13:20:46.994Z</time>
</trkpt>
<trkpt lat="32.6235500" lon="35.1025300">
<ele>128.959991</ele>
<time>2023-11-30T13:20:46.994Z</time>
</trkpt>
<trkpt lat="32.6235400" lon="35.1025500">
<ele>129.160004</ele>
<time>2023-11-30T13:20:46.994Z</time>
</trkpt>
<trkpt lat="32.6236800" lon="35.1025500">
<ele>127.510002</ele>
<time>2023-11-30T13:20:46.994Z</time>
</trkpt>
<trkpt lat="32.6237300" lon="35.1025500">
<ele>127.019997</ele>
<time>2023-11-30T13:20:46.994Z</time>
</trkpt>
<trkpt lat="32.6238200" lon="35.1025500">
<ele>126.130005</ele>
<time>2023-11-30T13:20:46.994Z</time>
</trkpt>
<trkpt lat="32.6238500" lon="35.1025500">
<ele>125.840004</ele>
<time>2023-11-30T13:20:46.994Z</time>
</trkpt>
<trkpt lat="32.6240100" lon="35.1025500">
<ele>125.660004</ele>
<time>2023-11-30T13:20:46.994Z</time>
</trkpt>
<trkpt lat="32.6240700" lon="35.1025400">
<ele>125.939995</ele>
<time>2023-11-30T13:20:46.994Z</time>
</trkpt>
<trkpt lat="32.6241000" lon="35.1025300">
<ele>126.190002</ele>
<time>2023-11-30T13:20:46.994Z</time>
</trkpt>
<trkpt lat="32.6241300" lon="35.1025100">
<ele>126.669998</ele>
<time>2023-11-30T13:20:46.994Z</time>
</trkpt>
<trkpt lat="32.6241800" lon="35.1024900">
<ele>126.820000</ele>
<time>2023-11-30T13:20:46.994Z</time>
</trkpt>
<trkpt lat="32.6243800" lon="35.1024400">
<ele>125.260002</ele>
<time>2023-11-30T13:20:46.994Z</time>
</trkpt>
<trkpt lat="32.6244400" lon="35.1024200">
<ele>125.329994</ele>
<time>2023-11-30T13:20:46.994Z</time>
</trkpt>
<trkpt lat="32.6245400" lon="35.1023900">
<ele>123.639999</ele>
<time>2023-11-30T13:20:46.994Z</time>
</trkpt>
<trkpt lat="32.6246000" lon="35.1023800">
<ele>122.110001</ele>
<time>2023-11-30T13:20:46.994Z</time>
</trkpt>
<trkpt lat="32.6248200" lon="35.1023600">
<ele>116.049995</ele>
<time>2023-11-30T13:20:46.994Z</time>
</trkpt>
<trkpt lat="32.6249000" lon="35.1023600">
<ele>114.049995</ele>
<time>2023-11-30T13:20:46.994Z</time>
</trkpt>
<trkpt lat="32.6249900" lon="35.1023500">
<ele>112.330002</ele>
<time>2023-11-30T13:20:46.994Z</time>
</trkpt>
<trkpt lat="32.6250200" lon="35.1023500">
<ele>111.640007</ele>
<time>2023-11-30T13:20:46.994Z</time>
</trkpt>
<trkpt lat="32.6250700" lon="35.1023500">
<ele>110.489998</ele>
<time>2023-11-30T13:20:46.994Z</time>
</trkpt>
<trkpt lat="32.6255400" lon="35.1023500">
<ele>108.379997</ele>
<time>2023-11-30T13:20:46.994Z</time>
</trkpt>
<trkpt lat="32.6257400" lon="35.1023500">
<ele>114.100006</ele>
<time>2023-11-30T13:20:46.994Z</time>
</trkpt>
<trkpt lat="32.6259900" lon="35.1023300">
<ele>115.559998</ele>
<time>2023-11-30T13:20:46.994Z</time>
</trkpt>
<trkpt lat="32.6260300" lon="35.1023200">
<ele>115.250000</ele>
<time>2023-11-30T13:20:46.994Z</time>
</trkpt>
<trkpt lat="32.6261800" lon="35.1023000">
<ele>113.909996</ele>
<time>2023-11-30T13:20:46.994Z</time>
</trkpt>
<trkpt lat="32.6262600" lon="35.1022900">
<ele>113.020004</ele>
<time>2023-11-30T13:20:46.994Z</time>
</trkpt>
<trkpt lat="32.6264900" lon="35.1022800">
<ele>110.930000</ele>
<time>2023-11-30T13:20:46.994Z</time>
</trkpt>
<trkpt lat="32.6267000" lon="35.1022600">
<ele>110.229996</ele>
<time>2023-11-30T13:20:46.994Z</time>
</trkpt>
<trkpt lat="32.6267500" lon="35.1022600">
<ele>110.779999</ele>
<time>2023-11-30T13:20:46.994Z</time>
</trkpt>
<trkpt lat="32.6268400" lon="35.1022500">
<ele>111.960007</ele>
<time>2023-11-30T13:20:46.994Z</time>
</trkpt>
<trkpt lat="32.6269400" lon="35.1022500">
<ele>113.149994</ele>
<time>2023-11-30T13:20:46.994Z</time>
</trkpt>
<trkpt lat="32.6269900" lon="35.1022500">
<ele>113.330002</ele>
<time>2023-11-30T13:20:46.994Z</time>
</trkpt>
<trkpt lat="32.6271300" lon="35.1022600">
<ele>113.639999</ele>
<time>2023-11-30T13:20:46.994Z</time>
</trkpt>
<trkpt lat="32.6271700" lon="35.1022600">
<ele>113.800003</ele>
<time>2023-11-30T13:20:46.994Z</time>
</trkpt>
<trkpt lat="32.6273200" lon="35.1022600">
<ele>114.000000</ele>
<time>2023-11-30T13:20:46.994Z</time>
</trkpt>
<trkpt lat="32.6276200" lon="35.1022600">
<ele>115.300003</ele>
<time>2023-11-30T13:20:46.994Z</time>
</trkpt>
<trkpt lat="32.6277200" lon="35.1022500">
<ele>116.380005</ele>
<time>2023-11-30T13:20:46.994Z</time>
</trkpt>
<trkpt lat="32.6277600" lon="35.1022400">
<ele>116.809998</ele>
<time>2023-11-30T13:20:46.994Z</time>
</trkpt>
<trkpt lat="32.6278500" lon="35.1022100">
<ele>117.290001</ele>
<time>2023-11-30T13:20:46.994Z</time>
</trkpt>
<trkpt lat="32.6279400" lon="35.1021700">
<ele>117.659996</ele>
<time>2023-11-30T13:20:46.994Z</time>
</trkpt>
<trkpt lat="32.6279700" lon="35.1021600">
<ele>117.760002</ele>
<time>2023-11-30T13:20:46.994Z</time>
</trkpt>
<trkpt lat="32.6280000" lon="35.1021300">
<ele>117.869995</ele>
<time>2023-11-30T13:20:46.994Z</time>
</trkpt>
<trkpt lat="32.6282400" lon="35.1020100">
<ele>119.839996</ele>
<time>2023-11-30T13:20:46.994Z</time>
</trkpt>
<trkpt lat="32.6283200" lon="35.1019800">
<ele>120.729996</ele>
<time>2023-11-30T13:20:46.994Z</time>
</trkpt>
<trkpt lat="32.6283800" lon="35.1019500">
<ele>120.320007</ele>
<time>2023-11-30T13:20:46.994Z</time>
</trkpt>
<trkpt lat="32.6286200" lon="35.1018900">
<ele>117.910004</ele>
<time>2023-11-30T13:20:46.994Z</time>
</trkpt>
<trkpt lat="32.6286800" lon="35.1018700">
<ele>119.059998</ele>
<time>2023-11-30T13:20:46.994Z</time>
</trkpt>
<trkpt lat="32.6287100" lon="35.1018500">
<ele>119.779999</ele>
<time>2023-11-30T13:20:46.994Z</time>
</trkpt>
<trkpt lat="32.6287400" lon="35.1018400">
<ele>120.360001</ele>
<time>2023-11-30T13:20:46.994Z</time>
</trkpt>
<trkpt lat="32.6287700" lon="35.1018300">
<ele>120.940002</ele>
<time>2023-11-30T13:20:46.994Z</time>
</trkpt>
<trkpt lat="32.6290400" lon="35.1017800">
<ele>125.220001</ele>
<time>2023-11-30T13:20:46.994Z</time>
</trkpt>
<trkpt lat="32.6290900" lon="35.1017600">
<ele>126.070000</ele>
<time>2023-11-30T13:20:46.994Z</time>
</trkpt>
<trkpt lat="32.6291500" lon="35.1017500">
<ele>126.900002</ele>
<time>2023-11-30T13:20:46.994Z</time>
</trkpt>
<trkpt lat="32.6291800" lon="35.1017500">
<ele>127.190002</ele>
<time>2023-11-30T13:20:46.994Z</time>
</trkpt>
<trkpt lat="32.6292500" lon="35.1017400">
<ele>127.790001</ele>
<time>2023-11-30T13:20:46.994Z</time>
</trkpt>
<trkpt lat="32.6292800" lon="35.1017400">
<ele>128.000000</ele>
<time>2023-11-30T13:20:46.994Z</time>
</trkpt>
<trkpt lat="32.6293400" lon="35.1017400">
<ele>128.419998</ele>
<time>2023-11-30T13:20:46.994Z</time>
</trkpt>
<trkpt lat="32.6293900" lon="35.1017400">
<ele>128.770004</ele>
<time>2023-11-30T13:20:46.994Z</time>
</trkpt>
<trkpt lat="32.6294700" lon="35.1017500">
<ele>128.649994</ele>
<time>2023-11-30T13:20:46.994Z</time>
</trkpt>
<trkpt lat="32.6295000" lon="35.1017500">
<ele>128.360001</ele>
<time>2023-11-30T13:20:46.994Z</time>
</trkpt>
<trkpt lat="32.6295600" lon="35.1017500">
<ele>127.779999</ele>
<time>2023-11-30T13:20:46.994Z</time>
</trkpt>
<trkpt lat="32.6296200" lon="35.1017600">
<ele>126.959999</ele>
<time>2023-11-30T13:20:46.994Z</time>
</trkpt>
<trkpt lat="32.6296500" lon="35.1017600">
<ele>126.680000</ele>
<time>2023-11-30T13:20:46.994Z</time>
</trkpt>
<trkpt lat="32.6297100" lon="35.1017600">
<ele>126.099998</ele>
<time>2023-11-30T13:20:46.994Z</time>
</trkpt>
<trkpt lat="32.6297800" lon="35.1017700">
<ele>125.380005</ele>
<time>2023-11-30T13:20:46.994Z</time>
</trkpt>
<trkpt lat="32.6298200" lon="35.1017700">
<ele>125.099998</ele>
<time>2023-11-30T13:20:46.994Z</time>
</trkpt>
<trkpt lat="32.6298900" lon="35.1017600">
<ele>124.779999</ele>
<time>2023-11-30T13:20:46.994Z</time>
</trkpt>
<trkpt lat="32.6299600" lon="35.1017600">
<ele>124.279999</ele>
<time>2023-11-30T13:20:46.994Z</time>
</trkpt>
<trkpt lat="32.6300100" lon="35.1017500">
<ele>124.180000</ele>
<time>2023-11-30T13:20:46.994Z</time>
</trkpt>
<trkpt lat="32.6300800" lon="35.1017500">
<ele>124.729996</ele>
<time>2023-11-30T13:20:46.994Z</time>
</trkpt>
<trkpt lat="32.6301500" lon="35.1017500">
<ele>125.290001</ele>
<time>2023-11-30T13:20:46.994Z</time>
</trkpt>
<trkpt lat="32.6302300" lon="35.1017500">
<ele>125.919998</ele>
<time>2023-11-30T13:20:46.994Z</time>
</trkpt>
<trkpt lat="32.6303500" lon="35.1017700">
<ele>125.889999</ele>
<time>2023-11-30T13:20:46.994Z</time>
</trkpt>
<trkpt lat="32.6303800" lon="35.1017800">
<ele>125.660004</ele>
<time>2023-11-30T13:20:46.994Z</time>
</trkpt>
<trkpt lat="32.6304200" lon="35.1017900">
<ele>125.309998</ele>
<time>2023-11-30T13:20:46.994Z</time>
</trkpt>
<trkpt lat="32.6304700" lon="35.1018100">
<ele>124.729996</ele>
<time>2023-11-30T13:20:46.994Z</time>
</trkpt>
<trkpt lat="32.6305500" lon="35.1018500">
<ele>123.430000</ele>
<time>2023-11-30T13:20:46.994Z</time>
</trkpt>
<trkpt lat="32.6305900" lon="35.1018600">
<ele>122.320000</ele>
<time>2023-11-30T13:20:46.994Z</time>
</trkpt>
<trkpt lat="32.6306800" lon="35.1018900">
<ele>119.740005</ele>
<time>2023-11-30T13:20:46.994Z</time>
</trkpt>
<trkpt lat="32.6307700" lon="35.1019300">
<ele>117.419998</ele>
<time>2023-11-30T13:20:46.994Z</time>
</trkpt>
<trkpt lat="32.6308300" lon="35.1019400">
<ele>116.070007</ele>
<time>2023-11-30T13:20:46.994Z</time>
</trkpt>
<trkpt lat="32.6309300" lon="35.1019500">
<ele>115.660004</ele>
<time>2023-11-30T13:20:46.994Z</time>
</trkpt>
<trkpt lat="32.6309800" lon="35.1019500">
<ele>115.480003</ele>
<time>2023-11-30T13:20:46.994Z</time>
</trkpt>
<trkpt lat="32.6310800" lon="35.1019400">
<ele>115.099998</ele>
<time>2023-11-30T13:20:46.994Z</time>
</trkpt>
<trkpt lat="32.6311200" lon="35.1019300">
<ele>115.070000</ele>
<time>2023-11-30T13:20:46.994Z</time>
</trkpt>
<trkpt lat="32.6311900" lon="35.1018900">
<ele>115.719994</ele>
<time>2023-11-30T13:20:46.994Z</time>
</trkpt>
<trkpt lat="32.6313000" lon="35.1018000">
<ele>115.790001</ele>
<time>2023-11-30T13:20:46.994Z</time>
</trkpt>
<trkpt lat="32.6314000" lon="35.1017300">
<ele>115.330002</ele>
<time>2023-11-30T13:20:46.994Z</time>
</trkpt>
<trkpt lat="32.6315400" lon="35.1016300">
<ele>116.860001</ele>
<time>2023-11-30T13:20:46.994Z</time>
</trkpt>
<trkpt lat="32.6315800" lon="35.1016100">
<ele>117.440002</ele>
<time>2023-11-30T13:20:46.994Z</time>
</trkpt>
<trkpt lat="32.6316100" lon="35.1015900">
<ele>117.779999</ele>
<time>2023-11-30T13:20:46.994Z</time>
</trkpt>
<trkpt lat="32.6316400" lon="35.1015600">
<ele>117.959999</ele>
<time>2023-11-30T13:20:46.994Z</time>
</trkpt>
<trkpt lat="32.6318300" lon="35.1014600">
<ele>118.789993</ele>
<time>2023-11-30T13:20:46.994Z</time>
</trkpt>
<trkpt lat="32.6318600" lon="35.1014400">
<ele>118.820000</ele>
<time>2023-11-30T13:20:46.994Z</time>
</trkpt>
<trkpt lat="32.6319100" lon="35.1014100">
<ele>118.929993</ele>
<time>2023-11-30T13:20:46.994Z</time>
</trkpt>
<trkpt lat="32.6320000" lon="35.1013900">
<ele>120.810005</ele>
<time>2023-11-30T13:20:46.994Z</time>
</trkpt>
<trkpt lat="32.6320300" lon="35.1013800">
<ele>121.629997</ele>
<time>2023-11-30T13:20:46.994Z</time>
</trkpt>
<trkpt lat="32.6320600" lon="35.1013700">
<ele>122.400002</ele>
<time>2023-11-30T13:20:46.994Z</time>
</trkpt>
<trkpt lat="32.6321700" lon="35.1013600">
<ele>125.570000</ele>
<time>2023-11-30T13:20:46.994Z</time>
</trkpt>
<trkpt lat="32.6321900" lon="35.1013700">
<ele>126.450005</ele>
<time>2023-11-30T13:20:46.994Z</time>
</trkpt>
<trkpt lat="32.6322500" lon="35.1013700">
<ele>127.469994</ele>
<time>2023-11-30T13:20:46.994Z</time>
</trkpt>
<trkpt lat="32.6322900" lon="35.1013800">
<ele>127.759995</ele>
<time>2023-11-30T13:20:46.994Z</time>
</trkpt>
<trkpt lat="32.6323200" lon="35.1013800">
<ele>127.769997</ele>
<time>2023-11-30T13:20:46.994Z</time>
</trkpt>
<trkpt lat="32.6324100" lon="35.1014000">
<ele>128.080002</ele>
<time>2023-11-30T13:20:46.994Z</time>
</trkpt>
<trkpt lat="32.6324500" lon="35.1014100">
<ele>128.149994</ele>
<time>2023-11-30T13:20:46.994Z</time>
</trkpt>
<trkpt lat="32.6325000" lon="35.1014200">
<ele>128.220001</ele>
<time>2023-11-30T13:20:46.994Z</time>
</trkpt>
<trkpt lat="32.6325500" lon="35.1014300">
<ele>128.500000</ele>
<time>2023-11-30T13:20:46.994Z</time>
</trkpt>
<trkpt lat="32.6326200" lon="35.1014500">
<ele>128.970001</ele>
<time>2023-11-30T13:20:46.994Z</time>
</trkpt>
<trkpt lat="32.6326500" lon="35.1014600">
<ele>129.190002</ele>
<time>2023-11-30T13:20:46.994Z</time>
</trkpt>
<trkpt lat="32.6326900" lon="35.1014700">
<ele>129.470001</ele>
<time>2023-11-30T13:20:46.994Z</time>
</trkpt>
<trkpt lat="32.6327300" lon="35.1014800">
<ele>129.759995</ele>
<time>2023-11-30T13:20:46.994Z</time>
</trkpt>
<trkpt lat="32.6327700" lon="35.1014900">
<ele>130.050003</ele>
<time>2023-11-30T13:20:46.994Z</time>
</trkpt>
<trkpt lat="32.6329200" lon="35.1015000">
<ele>130.919998</ele>
<time>2023-11-30T13:20:46.994Z</time>
</trkpt>
<trkpt lat="32.6330200" lon="35.1015200">
<ele>131.389999</ele>
<time>2023-11-30T13:20:46.994Z</time>
</trkpt>
<trkpt lat="32.6330700" lon="35.1015300">
<ele>131.729996</ele>
<time>2023-11-30T13:20:46.994Z</time>
</trkpt>
<trkpt lat="32.6331100" lon="35.1015400">
<ele>132.380005</ele>
<time>2023-11-30T13:20:46.994Z</time>
</trkpt>
<trkpt lat="32.6331600" lon="35.1015500">
<ele>133.259995</ele>
<time>2023-11-30T13:20:46.994Z</time>
</trkpt>
<trkpt lat="32.6332000" lon="35.1015600">
<ele>134.029999</ele>
<time>2023-11-30T13:20:46.994Z</time>
</trkpt>
<trkpt lat="32.6332600" lon="35.1015600">
<ele>135.120010</ele>
<time>2023-11-30T13:20:46.994Z</time>
</trkpt>
<trkpt lat="32.6333200" lon="35.1015700">
<ele>136.360001</ele>
<time>2023-11-30T13:20:46.994Z</time>
</trkpt>
<trkpt lat="32.6333600" lon="35.1015900">
<ele>137.309998</ele>
<time>2023-11-30T13:20:46.994Z</time>
</trkpt>
<trkpt lat="32.6334000" lon="35.1016000">
<ele>138.059998</ele>
<time>2023-11-30T13:20:46.994Z</time>
</trkpt>
<trkpt lat="32.6334600" lon="35.1016100">
<ele>139.100006</ele>
<time>2023-11-30T13:20:46.994Z</time>
</trkpt>
<trkpt lat="32.6335000" lon="35.1016200">
<ele>139.830002</ele>
<time>2023-11-30T13:20:46.994Z</time>
</trkpt>
<trkpt lat="32.6335300" lon="35.1016300">
<ele>140.399994</ele>
<time>2023-11-30T13:20:46.994Z</time>
</trkpt>
<trkpt lat="32.6335900" lon="35.1016400">
<ele>141.400009</ele>
<time>2023-11-30T13:20:46.994Z</time>
</trkpt>
<trkpt lat="32.6336700" lon="35.1016500">
<ele>142.069992</ele>
<time>2023-11-30T13:20:46.994Z</time>
</trkpt>
<trkpt lat="32.6337200" lon="35.1016600">
<ele>142.350006</ele>
<time>2023-11-30T13:20:46.994Z</time>
</trkpt>
<trkpt lat="32.6337600" lon="35.1016600">
<ele>142.500000</ele>
<time>2023-11-30T13:20:46.994Z</time>
</trkpt>
<trkpt lat="32.6338500" lon="35.1016700">
<ele>142.889999</ele>
<time>2023-11-30T13:20:46.994Z</time>
</trkpt>
<trkpt lat="32.6338800" lon="35.1016700">
<ele>143.000000</ele>
<time>2023-11-30T13:20:46.994Z</time>
</trkpt>
<trkpt lat="32.6340600" lon="35.1017200">
<ele>143.130005</ele>
<time>2023-11-30T13:20:46.994Z</time>
</trkpt>
<trkpt lat="32.6341100" lon="35.1017300">
<ele>142.849991</ele>
<time>2023-11-30T13:20:46.994Z</time>
</trkpt>
<trkpt lat="32.6341400" lon="35.1017500">
<ele>142.360001</ele>
<time>2023-11-30T13:20:46.994Z</time>
</trkpt>
<trkpt lat="32.6341900" lon="35.1017600">
<ele>142.350006</ele>
<time>2023-11-30T13:20:46.994Z</time>
</trkpt>
<trkpt lat="32.6342300" lon="35.1017600">
<ele>142.970001</ele>
<time>2023-11-30T13:20:46.994Z</time>
</trkpt>
<trkpt lat="32.6343600" lon="35.1017800">
<ele>144.619995</ele>
<time>2023-11-30T13:20:46.994Z</time>
</trkpt>
<trkpt lat="32.6344100" lon="35.1017800">
<ele>145.410004</ele>
<time>2023-11-30T13:20:46.994Z</time>
</trkpt>
<trkpt lat="32.6344400" lon="35.1017900">
<ele>145.709991</ele>
<time>2023-11-30T13:20:46.994Z</time>
</trkpt>
<trkpt lat="32.6344900" lon="35.1018000">
<ele>146.000000</ele>
<time>2023-11-30T13:20:46.994Z</time>
</trkpt>
<trkpt lat="32.6345400" lon="35.1018100">
<ele>146.300003</ele>
<time>2023-11-30T13:20:46.994Z</time>
</trkpt>
<trkpt lat="32.6346000" lon="35.1018200">
<ele>146.729996</ele>
<time>2023-11-30T13:20:46.994Z</time>
</trkpt>
<trkpt lat="32.6346700" lon="35.1018300">
<ele>147.300003</ele>
<time>2023-11-30T13:20:46.994Z</time>
</trkpt>
<trkpt lat="32.6347200" lon="35.1018400">
<ele>147.729996</ele>
<time>2023-11-30T13:20:46.994Z</time>
</trkpt>
<trkpt lat="32.6347700" lon="35.1018600">
<ele>146.729996</ele>
<time>2023-11-30T13:20:46.994Z</time>
</trkpt>
<trkpt lat="32.6348500" lon="35.1018700">
<ele>145.149994</ele>
<time>2023-11-30T13:20:46.994Z</time>
</trkpt>
<trkpt lat="32.6349200" lon="35.1018800">
<ele>143.690002</ele>
<time>2023-11-30T13:20:46.994Z</time>
</trkpt>
<trkpt lat="32.6351100" lon="35.1018900">
<ele>142.150009</ele>
<time>2023-11-30T13:20:46.994Z</time>
</trkpt>
<trkpt lat="32.6351600" lon="35.1018900">
<ele>142.229996</ele>
<time>2023-11-30T13:20:46.994Z</time>
</trkpt>
<trkpt lat="32.6351900" lon="35.1019000">
<ele>142.290009</ele>
<time>2023-11-30T13:20:46.994Z</time>
</trkpt>
<trkpt lat="32.6352300" lon="35.1019000">
<ele>142.399994</ele>
<time>2023-11-30T13:20:46.994Z</time>
</trkpt>
<trkpt lat="32.6353000" lon="35.1019100">
<ele>142.869995</ele>
<time>2023-11-30T13:20:46.994Z</time>
</trkpt>
<trkpt lat="32.6353000" lon="35.1019500">
<ele>143.319992</ele>
<time>2023-11-30T13:20:46.994Z</time>
</trkpt>
<trkpt lat="32.6352800" lon="35.1019700">
<ele>143.389999</ele>
<time>2023-11-30T13:20:46.994Z</time>
</trkpt>
<trkpt lat="32.6352300" lon="35.1020200">
<ele>144.069992</ele>
<time>2023-11-30T13:20:46.994Z</time>
</trkpt>
<trkpt lat="32.6351800" lon="35.1020700">
<ele>145.220001</ele>
<time>2023-11-30T13:20:46.994Z</time>
</trkpt>
<trkpt lat="32.6351500" lon="35.1020900">
<ele>145.860001</ele>
<time>2023-11-30T13:20:46.994Z</time>
</trkpt>
<trkpt lat="32.6350600" lon="35.1021900">
<ele>149.819992</ele>
<time>2023-11-30T13:20:46.994Z</time>
</trkpt>
<trkpt lat="32.6349800" lon="35.1022900">
<ele>152.449997</ele>
<time>2023-11-30T13:20:46.994Z</time>
</trkpt>
<trkpt lat="32.6349200" lon="35.1023700">
<ele>152.119995</ele>
<time>2023-11-30T13:20:46.994Z</time>
</trkpt>
<trkpt lat="32.6348700" lon="35.1024300">
<ele>151.440002</ele>
<time>2023-11-30T13:20:46.994Z</time>
</trkpt>
<trkpt lat="32.6348400" lon="35.1024700">
<ele>150.889999</ele>
<time>2023-11-30T13:20:46.994Z</time>
</trkpt>
<trkpt lat="32.6347000" lon="35.1026400">
<ele>148.339996</ele>
<time>2023-11-30T13:20:46.994Z</time>
</trkpt>
<trkpt lat="32.6346700" lon="35.1026700">
<ele>148.190002</ele>
<time>2023-11-30T13:20:46.994Z</time>
</trkpt>
<trkpt lat="32.6346300" lon="35.1027100">
<ele>147.919998</ele>
<time>2023-11-30T13:20:46.994Z</time>
</trkpt>
<trkpt lat="32.6345700" lon="35.1027700">
<ele>147.360001</ele>
<time>2023-11-30T13:20:46.994Z</time>
</trkpt>
<trkpt lat="32.6345500" lon="35.1028000">
<ele>147.600006</ele>
<time>2023-11-30T13:20:46.994Z</time>
</trkpt>
<trkpt lat="32.6344700" lon="35.1029000">
<ele>148.559998</ele>
<time>2023-11-30T13:20:46.994Z</time>
</trkpt>
<trkpt lat="32.6344100" lon="35.1030100">
<ele>149.559998</ele>
<time>2023-11-30T13:20:46.994Z</time>
</trkpt>
<trkpt lat="32.6343500" lon="35.1030700">
<ele>149.460007</ele>
<time>2023-11-30T13:20:46.994Z</time>
</trkpt>
<trkpt lat="32.6343200" lon="35.1031100">
<ele>149.350006</ele>
<time>2023-11-30T13:20:46.994Z</time>
</trkpt>
<trkpt lat="32.6342800" lon="35.1031400">
<ele>148.949997</ele>
<time>2023-11-30T13:20:46.994Z</time>
</trkpt>
<trkpt lat="32.6342000" lon="35.1031900">
<ele>148.050003</ele>
<time>2023-11-30T13:20:46.994Z</time>
</trkpt>
<trkpt lat="32.6339900" lon="35.1034700">
<ele>147.620010</ele>
<time>2023-11-30T13:20:46.994Z</time>
</trkpt>
<trkpt lat="32.6338900" lon="35.1035500">
<ele>146.580002</ele>
<time>2023-11-30T13:20:46.994Z</time>
</trkpt>
<trkpt lat="32.6338000" lon="35.1036100">
<ele>146.669998</ele>
<time>2023-11-30T13:20:46.994Z</time>
</trkpt>
<trkpt lat="32.6337000" lon="35.1037100">
<ele>146.660004</ele>
<time>2023-11-30T13:20:46.994Z</time>
</trkpt>
<trkpt lat="32.6336700" lon="35.1037300">
<ele>146.479996</ele>
<time>2023-11-30T13:20:46.994Z</time>
</trkpt>
<trkpt lat="32.6336300" lon="35.1037800">
<ele>146.190002</ele>
<time>2023-11-30T13:20:46.994Z</time>
</trkpt>
<trkpt lat="32.6336100" lon="35.1038000">
<ele>145.990005</ele>
<time>2023-11-30T13:20:46.994Z</time>
</trkpt>
<trkpt lat="32.6335900" lon="35.1038500">
<ele>145.720001</ele>
<time>2023-11-30T13:20:46.994Z</time>
</trkpt>
<trkpt lat="32.6335800" lon="35.1038800">
<ele>145.559998</ele>
<time>2023-11-30T13:20:46.994Z</time>
</trkpt>
<trkpt lat="32.6335700" lon="35.1039900">
<ele>146.139999</ele>
<time>2023-11-30T13:20:46.994Z</time>
</trkpt>
<trkpt lat="32.6335600" lon="35.1040300">
<ele>146.279999</ele>
<time>2023-11-30T13:20:46.994Z</time>
</trkpt>
<trkpt lat="32.6335500" lon="35.1040600">
<ele>146.349991</ele>
<time>2023-11-30T13:20:46.994Z</time>
</trkpt>
<trkpt lat="32.6335400" lon="35.1041900">
<ele>147.150009</ele>
<time>2023-11-30T13:20:46.994Z</time>
</trkpt>
<trkpt lat="32.6335300" lon="35.1042400">
<ele>147.399994</ele>
<time>2023-11-30T13:20:46.994Z</time>
</trkpt>
<trkpt lat="32.6335300" lon="35.1042800">
<ele>147.720001</ele>
<time>2023-11-30T13:20:46.994Z</time>
</trkpt>
<trkpt lat="32.6335300" lon="35.1043100">
<ele>147.949997</ele>
<time>2023-11-30T13:20:46.994Z</time>
</trkpt>
<trkpt lat="32.6335300" lon="35.1044400">
<ele>148.970001</ele>
<time>2023-11-30T13:20:46.994Z</time>
</trkpt>
<trkpt lat="32.6335500" lon="35.1044800">
<ele>149.919998</ele>
<time>2023-11-30T13:20:46.994Z</time>
</trkpt>
<trkpt lat="32.6336100" lon="35.1044900">
<ele>150.149994</ele>
<time>2023-11-30T13:20:46.994Z</time>
</trkpt>
<trkpt lat="32.6336400" lon="35.1044900">
<ele>150.550003</ele>
<time>2023-11-30T13:20:46.994Z</time>
</trkpt>
<trkpt lat="32.6339300" lon="35.1045000">
<ele>154.300003</ele>
<time>2023-11-30T13:20:46.994Z</time>
</trkpt>
<trkpt lat="32.6339700" lon="35.1045100">
<ele>154.529999</ele>
<time>2023-11-30T13:20:46.994Z</time>
</trkpt>
<trkpt lat="32.6340700" lon="35.1046100">
<ele>154.010010</ele>
<time>2023-11-30T13:20:46.994Z</time>
</trkpt>
<trkpt lat="32.6341200" lon="35.1046800">
<ele>152.970001</ele>
<time>2023-11-30T13:20:46.994Z</time>
</trkpt>
<trkpt lat="32.6341500" lon="35.1047400">
<ele>151.880005</ele>
<time>2023-11-30T13:20:46.994Z</time>
</trkpt>
<trkpt lat="32.6342600" lon="35.1049800">
<ele>148.600006</ele>
<time>2023-11-30T13:20:46.994Z</time>
</trkpt>
<trkpt lat="32.6342900" lon="35.1050200">
<ele>148.319992</ele>
<time>2023-11-30T13:20:46.994Z</time>
</trkpt>
<trkpt lat="32.6343400" lon="35.1051100">
<ele>147.639999</ele>
<time>2023-11-30T13:20:46.994Z</time>
</trkpt>
<trkpt lat="32.6344300" lon="35.1052100">
<ele>146.080002</ele>
<time>2023-11-30T13:20:46.994Z</time>
</trkpt>
<trkpt lat="32.6345300" lon="35.1054100">
<ele>143.720001</ele>
<time>2023-11-30T13:20:46.994Z</time>
</trkpt>
<trkpt lat="32.6346300" lon="35.1056000">
<ele>142.720001</ele>
<time>2023-11-30T13:20:46.994Z</time>
</trkpt>
<trkpt lat="32.6346500" lon="35.1056400">
<ele>142.750000</ele>
<time>2023-11-30T13:20:46.994Z</time>
</trkpt>
<trkpt lat="32.6347300" lon="35.1057800">
<ele>142.199997</ele>
<time>2023-11-30T13:20:46.994Z</time>
</trkpt>
<trkpt lat="32.6347500" lon="35.1058300">
<ele>142.009995</ele>
<time>2023-11-30T13:20:46.994Z</time>
</trkpt>
<trkpt lat="32.6347700" lon="35.1058800">
<ele>142.139999</ele>
<time>2023-11-30T13:20:46.994Z</time>
</trkpt>
<trkpt lat="32.6347900" lon="35.1059200">
<ele>142.239990</ele>
<time>2023-11-30T13:20:46.994Z</time>
</trkpt>
<trkpt lat="32.6349000" lon="35.1061000">
<ele>142.350006</ele>
<time>2023-11-30T13:20:46.994Z</time>
</trkpt>
<trkpt lat="32.6349400" lon="35.1062100">
<ele>141.970001</ele>
<time>2023-11-30T13:20:46.994Z</time>
</trkpt>
<trkpt lat="32.6349600" lon="35.1062500">
<ele>141.580002</ele>
<time>2023-11-30T13:20:46.994Z</time>
</trkpt>
<trkpt lat="32.6350200" lon="35.1063200">
<ele>140.210007</ele>
<time>2023-11-30T13:20:46.994Z</time>
</trkpt>
<trkpt lat="32.6350500" lon="35.1063600">
<ele>139.489990</ele>
<time>2023-11-30T13:20:46.994Z</time>
</trkpt>
<trkpt lat="32.6351100" lon="35.1064800">
<ele>138.620010</ele>
<time>2023-11-30T13:20:46.994Z</time>
</trkpt>
<trkpt lat="32.6352900" lon="35.1068200">
<ele>130.400009</ele>
<time>2023-11-30T13:20:46.994Z</time>
</trkpt>
<trkpt lat="32.6353300" lon="35.1069100">
<ele>127.800003</ele>
<time>2023-11-30T13:20:46.994Z</time>
</trkpt>
<trkpt lat="32.6354400" lon="35.1070300">
<ele>123.489998</ele>
<time>2023-11-30T13:20:46.994Z</time>
</trkpt>
<trkpt lat="32.6355000" lon="35.1071300">
<ele>121.529999</ele>
<time>2023-11-30T13:20:46.994Z</time>
</trkpt>
<trkpt lat="32.6355700" lon="35.1072700">
<ele>119.399994</ele>
<time>2023-11-30T13:20:46.994Z</time>
</trkpt>
<trkpt lat="32.6356100" lon="35.1073400">
<ele>117.920006</ele>
<time>2023-11-30T13:20:46.994Z</time>
</trkpt>
<trkpt lat="32.6356600" lon="35.1074000">
<ele>116.110001</ele>
<time>2023-11-30T13:20:46.994Z</time>
</trkpt>
<trkpt lat="32.6358500" lon="35.1077600">
<ele>110.349998</ele>
<time>2023-11-30T13:20:46.994Z</time>
</trkpt>
<trkpt lat="32.6358700" lon="35.1078000">
<ele>109.830002</ele>
<time>2023-11-30T13:20:46.994Z</time>
</trkpt>
<trkpt lat="32.6359000" lon="35.1079600">
<ele>109.750000</ele>
<time>2023-11-30T13:20:46.994Z</time>
</trkpt>
<trkpt lat="32.6359400" lon="35.1081000">
<ele>108.639999</ele>
<time>2023-11-30T13:20:46.994Z</time>
</trkpt>
<trkpt lat="32.6359500" lon="35.1081600">
<ele>108.099998</ele>
<time>2023-11-30T13:20:46.994Z</time>
</trkpt>
<trkpt lat="32.6359500" lon="35.1082800">
<ele>107.779999</ele>
<time>2023-11-30T13:20:46.994Z</time>
</trkpt>
<trkpt lat="32.6359600" lon="35.1084000">
<ele>106.869995</ele>
<time>2023-11-30T13:20:46.994Z</time>
</trkpt>
<trkpt lat="32.6359600" lon="35.1084600">
<ele>106.439995</ele>
<time>2023-11-30T13:20:46.994Z</time>
</trkpt>
<trkpt lat="32.6359600" lon="35.1085900">
<ele>105.500000</ele>
<time>2023-11-30T13:20:46.994Z</time>
</trkpt>
<trkpt lat="32.6359600" lon="35.1087000">
<ele>104.709999</ele>
<time>2023-11-30T13:20:46.994Z</time>
</trkpt>
<trkpt lat="32.6359600" lon="35.1088100">
<ele>103.919998</ele>
<time>2023-11-30T13:20:46.994Z</time>
</trkpt>
<trkpt lat="32.6359600" lon="35.1089500">
<ele>102.350006</ele>
<time>2023-11-30T13:20:46.994Z</time>
</trkpt>
<trkpt lat="32.6359600" lon="35.1090300">
<ele>101.040001</ele>
<time>2023-11-30T13:20:46.994Z</time>
</trkpt>
<trkpt lat="32.6360000" lon="35.1090600">
<ele>99.489998</ele>
<time>2023-11-30T13:20:46.994Z</time>
</trkpt>
<trkpt lat="32.6360600" lon="35.1090500">
<ele>98.049995</ele>
<time>2023-11-30T13:20:46.994Z</time>
</trkpt>
<trkpt lat="32.6361000" lon="35.1090200">
<ele>97.409996</ele>
<time>2023-11-30T13:20:46.994Z</time>
</trkpt>
<trkpt lat="32.6362000" lon="35.1090100">
<ele>96.070000</ele>
<time>2023-11-30T13:20:46.994Z</time>
</trkpt>
<trkpt lat="32.6362300" lon="35.1090200">
<ele>95.580002</ele>
<time>2023-11-30T13:20:46.994Z</time>
</trkpt>
<trkpt lat="32.6362300" lon="35.1091000">
<ele>94.800003</ele>
<time>2023-11-30T13:20:46.994Z</time>
</trkpt>
<trkpt lat="32.6362200" lon="35.1091500">
<ele>94.389999</ele>
<time>2023-11-30T13:20:46.994Z</time>
</trkpt>
<trkpt lat="32.6362600" lon="35.1091800">
<ele>93.769997</ele>
<time>2023-11-30T13:20:46.994Z</time>
</trkpt>
<trkpt lat="32.6362800" lon="35.1091300">
<ele>94.070000</ele>
<time>2023-11-30T13:20:46.994Z</time>
</trkpt>
<trkpt lat="32.6363000" lon="35.1091400">
<ele>93.830002</ele>
<time>2023-11-30T13:20:46.994Z</time>
</trkpt>
<trkpt lat="32.6363700" lon="35.1091800">
<ele>93.029999</ele>
<time>2023-11-30T13:20:46.994Z</time>
</trkpt>
<trkpt lat="32.6364700" lon="35.1092300">
<ele>92.680000</ele>
<time>2023-11-30T13:20:46.994Z</time>
</trkpt>
<trkpt lat="32.6364700" lon="35.1092100">
<ele>92.779999</ele>
<time>2023-11-30T13:20:46.994Z</time>
</trkpt>
<trkpt lat="32.6364800" lon="35.1092000">
<ele>92.839996</ele>
<time>2023-11-30T13:20:46.994Z</time>
</trkpt>
<trkpt lat="32.6364800" lon="35.1092000">
<ele>92.839996</ele>
<time>2023-11-30T13:20:46.994Z</time>
</trkpt>
<trkpt lat="32.6364800" lon="35.1091900">
<ele>92.890007</ele>
<time>2023-11-30T13:20:46.994Z</time>
</trkpt>
<trkpt lat="32.6364900" lon="35.1092000">
<ele>92.849998</ele>
<time>2023-11-30T13:20:46.994Z</time>
</trkpt>
<trkpt lat="32.6365400" lon="35.1092200">
<ele>92.820000</ele>
<time>2023-11-30T13:20:46.994Z</time>
</trkpt>
<trkpt lat="32.6365800" lon="35.1092400">
<ele>92.839996</ele>
<time>2023-11-30T13:20:46.994Z</time>
</trkpt>
<trkpt lat="32.6366100" lon="35.1092600">
<ele>92.860001</ele>
<time>2023-11-30T13:20:46.994Z</time>
</trkpt>
<trkpt lat="32.6366700" lon="35.1093100">
<ele>93.060005</ele>
<time>2023-11-30T13:20:46.994Z</time>
</trkpt>
<trkpt lat="32.6366800" lon="35.1093200">
<ele>93.240005</ele>
<time>2023-11-30T13:20:46.994Z</time>
</trkpt>
<trkpt lat="32.6367100" lon="35.1093900">
<ele>93.779999</ele>
<time>2023-11-30T13:20:46.994Z</time>
</trkpt>
<trkpt lat="32.6367100" lon="35.1094700">
<ele>93.769997</ele>
<time>2023-11-30T13:20:46.994Z</time>
</trkpt>
<trkpt lat="32.6367000" lon="35.1095200">
<ele>93.570000</ele>
<time>2023-11-30T13:20:46.994Z</time>
</trkpt>
<trkpt lat="32.6366900" lon="35.1095600">
<ele>93.389999</ele>
<time>2023-11-30T13:20:46.994Z</time>
</trkpt>
<trkpt lat="32.6366500" lon="35.1096200">
<ele>92.839996</ele>
<time>2023-11-30T13:20:46.994Z</time>
</trkpt>
<trkpt lat="32.6365800" lon="35.1096600">
<ele>92.130005</ele>
<time>2023-11-30T13:20:46.994Z</time>
</trkpt>
<trkpt lat="32.6365200" lon="35.1097800">
<ele>91.010002</ele>
<time>2023-11-30T13:20:46.994Z</time>
</trkpt>
<trkpt lat="32.6365000" lon="35.1099200">
<ele>89.919998</ele>
<time>2023-11-30T13:20:46.994Z</time>
</trkpt>
<trkpt lat="32.6365000" lon="35.1099200">
<ele>89.919998</ele>
<time>2023-11-30T13:20:46.994Z</time>
</trkpt>
<trkpt lat="32.6364800" lon="35.1100500">
<ele>89.270004</ele>
<time>2023-11-30T13:20:46.994Z</time>
</trkpt>
<trkpt lat="32.6364600" lon="35.1103200">
<ele>88.930008</ele>
<time>2023-11-30T13:20:46.994Z</time>
</trkpt>
<trkpt lat="32.6364700" lon="35.1104300">
<ele>88.769997</ele>
<time>2023-11-30T13:20:46.994Z</time>
</trkpt>
<trkpt lat="32.6364700" lon="35.1104800">
<ele>88.699997</ele>
<time>2023-11-30T13:20:46.994Z</time>
</trkpt>
<trkpt lat="32.6364900" lon="35.1105700">
<ele>88.619995</ele>
<time>2023-11-30T13:20:46.994Z</time>
</trkpt>
<trkpt lat="32.6365100" lon="35.1106800">
<ele>87.979996</ele>
<time>2023-11-30T13:20:46.994Z</time>
</trkpt>
<trkpt lat="32.6365600" lon="35.1108000">
<ele>87.470001</ele>
<time>2023-11-30T13:20:46.994Z</time>
</trkpt>
<trkpt lat="32.6366400" lon="35.1109700">
<ele>86.380005</ele>
<time>2023-11-30T13:20:46.994Z</time>
</trkpt>
<trkpt lat="32.6366700" lon="35.1110800">
<ele>85.379997</ele>
<time>2023-11-30T13:20:46.994Z</time>
</trkpt>
<trkpt lat="32.6367000" lon="35.1111500">
<ele>84.919998</ele>
<time>2023-11-30T13:20:46.994Z</time>
</trkpt>
<trkpt lat="32.6367600" lon="35.1112300">
<ele>84.629997</ele>
<time>2023-11-30T13:20:46.994Z</time>
</trkpt>
<trkpt lat="32.6367900" lon="35.1113100">
<ele>83.910004</ele>
<time>2023-11-30T13:20:46.994Z</time>
</trkpt>
<trkpt lat="32.6368500" lon="35.1114300">
<ele>82.750000</ele>
<time>2023-11-30T13:20:46.994Z</time>
</trkpt>
<trkpt lat="32.6368100" lon="35.1114900">
<ele>81.040001</ele>
<time>2023-11-30T13:20:46.994Z</time>
</trkpt>
<trkpt lat="32.6365800" lon="35.1113600">
<ele>81.099998</ele>
<time>2023-11-30T13:20:46.994Z</time>
</trkpt>
<trkpt lat="32.6365000" lon="35.1114300">
<ele>79.989998</ele>
<time>2023-11-30T13:20:46.994Z</time>
</trkpt>
<trkpt lat="32.6365000" lon="35.1116900">
<ele>77.650002</ele>
<time>2023-11-30T13:20:46.994Z</time>
</trkpt>
<trkpt lat="32.6364900" lon="35.1118900">
<ele>78.150002</ele>
<time>2023-11-30T13:20:46.994Z</time>
</trkpt>
<trkpt lat="32.6364800" lon="35.1119500">
<ele>78.320000</ele>
<time>2023-11-30T13:20:46.994Z</time>
</trkpt>
<trkpt lat="32.6364800" lon="35.1120000">
<ele>78.079994</ele>
<time>2023-11-30T13:20:46.994Z</time>
</trkpt>
<trkpt lat="32.6363400" lon="35.1121800">
<ele>77.449997</ele>
<time>2023-11-30T13:20:46.994Z</time>
</trkpt>
<trkpt lat="32.6363300" lon="35.1124600">
<ele>79.779999</ele>
<time>2023-11-30T13:20:46.994Z</time>
</trkpt>
<trkpt lat="32.6364900" lon="35.1125400">
<ele>80.320000</ele>
<time>2023-11-30T13:20:46.994Z</time>
</trkpt>
<trkpt lat="32.6367100" lon="35.1124200">
<ele>78.000000</ele>
<time>2023-11-30T13:20:46.994Z</time>
</trkpt>
<trkpt lat="32.6368300" lon="35.1123700">
<ele>76.580002</ele>
<time>2023-11-30T13:20:46.994Z</time>
</trkpt>
<trkpt lat="32.6368300" lon="35.1123700">
<ele>76.580002</ele>
<time>2023-11-30T13:20:46.994Z</time>
</trkpt>
<trkpt lat="32.6369500" lon="35.1123800">
<ele>75.519997</ele>
<time>2023-11-30T13:20:46.994Z</time>
</trkpt>
<trkpt lat="32.6371500" lon="35.1124000">
<ele>73.889999</ele>
<time>2023-11-30T13:20:46.994Z</time>
</trkpt>
<trkpt lat="32.6374900" lon="35.1124500">
<ele>68.989998</ele>
<time>2023-11-30T13:20:46.994Z</time>
</trkpt>
<trkpt lat="32.6375400" lon="35.1124600">
<ele>68.979996</ele>
<time>2023-11-30T13:20:46.994Z</time>
</trkpt>
<trkpt lat="32.6377300" lon="35.1124700">
<ele>69.629997</ele>
<time>2023-11-30T13:20:46.994Z</time>
</trkpt>
<trkpt lat="32.6380800" lon="35.1125200">
<ele>70.400002</ele>
<time>2023-11-30T13:20:46.994Z</time>
</trkpt>
<trkpt lat="32.6381200" lon="35.1125400">
<ele>70.970001</ele>
<time>2023-11-30T13:20:46.994Z</time>
</trkpt>
<trkpt lat="32.6386100" lon="35.1126600">
<ele>72.699997</ele>
<time>2023-11-30T13:20:46.994Z</time>
</trkpt>
<trkpt lat="32.6387800" lon="35.1127000">
<ele>73.339996</ele>
<time>2023-11-30T13:20:46.994Z</time>
</trkpt>
<trkpt lat="32.6389300" lon="35.1128300">
<ele>72.660004</ele>
<time>2023-11-30T13:20:46.994Z</time>
</trkpt>
<trkpt lat="32.6389700" lon="35.1130000">
<ele>71.320000</ele>
<time>2023-11-30T13:20:46.994Z</time>
</trkpt>
<trkpt lat="32.6389800" lon="35.1130900">
<ele>71.049995</ele>
<time>2023-11-30T13:20:46.994Z</time>
</trkpt>
<trkpt lat="32.6390000" lon="35.1131800">
<ele>71.670006</ele>
<time>2023-11-30T13:20:46.994Z</time>
</trkpt>
<trkpt lat="32.6390200" lon="35.1133200">
<ele>72.330002</ele>
<time>2023-11-30T13:20:46.994Z</time>
</trkpt>
<trkpt lat="32.6390100" lon="35.1134200">
<ele>72.180000</ele>
<time>2023-11-30T13:20:46.994Z</time>
</trkpt>
<trkpt lat="32.6389600" lon="35.1135500">
<ele>71.279999</ele>
<time>2023-11-30T13:20:46.994Z</time>
</trkpt>
<trkpt lat="32.6389500" lon="35.1136200">
<ele>71.080002</ele>
<time>2023-11-30T13:20:46.994Z</time>
</trkpt>
<trkpt lat="32.6389500" lon="35.1136200">
<ele>71.080002</ele>
<time>2023-11-30T13:20:46.994Z</time>
</trkpt>
<trkpt lat="32.6389000" lon="35.1138100">
<ele>69.510002</ele>
<time>2023-11-30T13:20:46.994Z</time>
</trkpt>
<trkpt lat="32.6388900" lon="35.1139100">
<ele>69.099998</ele>
<time>2023-11-30T13:20:46.994Z</time>
</trkpt>
<trkpt lat="32.6388900" lon="35.1141800">
<ele>70.169998</ele>
<time>2023-11-30T13:20:46.994Z</time>
</trkpt>
<trkpt lat="32.6389100" lon="35.1143100">
<ele>71.930000</ele>
<time>2023-11-30T13:20:46.994Z</time>
</trkpt>
<trkpt lat="32.6389700" lon="35.1144500">
<ele>74.260002</ele>
<time>2023-11-30T13:20:46.994Z</time>
</trkpt>
<trkpt lat="32.6390500" lon="35.1145200">
<ele>76.159996</ele>
<time>2023-11-30T13:20:46.994Z</time>
</trkpt>
<trkpt lat="32.6390800" lon="35.1145900">
<ele>77.090004</ele>
<time>2023-11-30T13:20:46.994Z</time>
</trkpt>
<trkpt lat="32.6390900" lon="35.1146500">
<ele>77.659996</ele>
<time>2023-11-30T13:20:46.994Z</time>
</trkpt>
<trkpt lat="32.6391000" lon="35.1146700">
<ele>77.830002</ele>
<time>2023-11-30T13:20:46.994Z</time>
</trkpt>
<trkpt lat="32.6390900" lon="35.1147700">
<ele>78.930000</ele>
<time>2023-11-30T13:20:46.994Z</time>
</trkpt>
<trkpt lat="32.6392000" lon="35.1148400">
<ele>79.340004</ele>
<time>2023-11-30T13:20:46.994Z</time>
</trkpt>
<trkpt lat="32.6392000" lon="35.1148400">
<ele>79.340004</ele>
<time>2023-11-30T13:20:46.994Z</time>
</trkpt>
<trkpt lat="32.6393300" lon="35.1149200">
<ele>80.309998</ele>
<time>2023-11-30T13:20:46.994Z</time>
</trkpt>
<trkpt lat="32.6393300" lon="35.1149200">
<ele>80.309998</ele>
<time>2023-11-30T13:20:46.994Z</time>
</trkpt>
<trkpt lat="32.6393600" lon="35.1148400">
<ele>79.670006</ele>
<time>2023-11-30T13:20:46.994Z</time>
</trkpt>
<trkpt lat="32.6393600" lon="35.1148400">
<ele>79.670006</ele>
<time>2023-11-30T13:20:46.994Z</time>
</trkpt>
<trkpt lat="32.6393200" lon="35.1147500">
<ele>78.800003</ele>
<time>2023-11-30T13:20:46.994Z</time>
</trkpt>
<trkpt lat="32.6392000" lon="35.1146500">
<ele>77.770004</ele>
<time>2023-11-30T13:20:46.994Z</time>
</trkpt>
<trkpt lat="32.6390800" lon="35.1145900">
<ele>77.090004</ele>
<time>2023-11-30T13:20:46.994Z</time>
</trkpt>
<trkpt lat="32.6390500" lon="35.1145200">
<ele>76.159996</ele>
<time>2023-11-30T13:20:46.994Z</time>
</trkpt>
<trkpt lat="32.6389900" lon="35.1142300">
<ele>72.699997</ele>
<time>2023-11-30T13:20:46.994Z</time>
</trkpt>
<trkpt lat="32.6389900" lon="35.1142300">
<ele>72.699997</ele>
<time>2023-11-30T13:20:46.994Z</time>
</trkpt>
<trkpt lat="32.6391100" lon="35.1142500">
<ele>75.199997</ele>
<time>2023-11-30T13:20:46.994Z</time>
</trkpt>
<trkpt lat="32.6391900" lon="35.1143200">
<ele>76.349998</ele>
<time>2023-11-30T13:20:46.994Z</time>
</trkpt>
<trkpt lat="32.6392500" lon="35.1143600">
<ele>76.000000</ele>
<time>2023-11-30T13:20:46.994Z</time>
</trkpt>
<trkpt lat="32.6393600" lon="35.1143300">
<ele>74.909996</ele>
<time>2023-11-30T13:20:46.994Z</time>
</trkpt>
<trkpt lat="32.6394000" lon="35.1142600">
<ele>74.099998</ele>
<time>2023-11-30T13:20:46.994Z</time>
</trkpt>
<trkpt lat="32.6394300" lon="35.1141700">
<ele>73.180000</ele>
<time>2023-11-30T13:20:46.994Z</time>
</trkpt>
<trkpt lat="32.6394400" lon="35.1141300">
<ele>72.790001</ele>
<time>2023-11-30T13:20:46.994Z</time>
</trkpt>
<trkpt lat="32.6394400" lon="35.1141300">
<ele>72.790001</ele>
<time>2023-11-30T13:20:46.994Z</time>
</trkpt>
<trkpt lat="32.6394500" lon="35.1140900">
<ele>72.559998</ele>
<time>2023-11-30T13:20:46.994Z</time>
</trkpt>
<trkpt lat="32.6394800" lon="35.1139000">
<ele>72.209999</ele>
<time>2023-11-30T13:20:46.994Z</time>
</trkpt>
<trkpt lat="32.6395100" lon="35.1137800">
<ele>74.139999</ele>
<time>2023-11-30T13:20:46.994Z</time>
</trkpt>
<trkpt lat="32.6395100" lon="35.1136100">
<ele>75.709999</ele>
<time>2023-11-30T13:20:46.994Z</time>
</trkpt>
<trkpt lat="32.6396400" lon="35.1136400">
<ele>77.139999</ele>
<time>2023-11-30T13:20:46.994Z</time>
</trkpt>
<trkpt lat="32.6394000" lon="35.1129700">
<ele>77.779999</ele>
<time>2023-11-30T13:20:46.994Z</time>
</trkpt>
<trkpt lat="32.6392200" lon="35.1125700">
<ele>77.870003</ele>
<time>2023-11-30T13:20:46.994Z</time>
</trkpt>
<trkpt lat="32.6391000" lon="35.1124000">
<ele>78.839996</ele>
<time>2023-11-30T13:20:46.994Z</time>
</trkpt>
<trkpt lat="32.6389400" lon="35.1122500">
<ele>79.879997</ele>
<time>2023-11-30T13:20:46.994Z</time>
</trkpt>
<trkpt lat="32.6386800" lon="35.1121100">
<ele>80.160004</ele>
<time>2023-11-30T13:20:46.994Z</time>
</trkpt>
<trkpt lat="32.6386800" lon="35.1121100">
<ele>80.160004</ele>
<time>2023-11-30T13:20:46.994Z</time>
</trkpt>
<trkpt lat="32.6386400" lon="35.1120800">
<ele>80.079994</ele>
<time>2023-11-30T13:20:46.994Z</time>
</trkpt>
<trkpt lat="32.6384300" lon="35.1120000">
<ele>77.610001</ele>
<time>2023-11-30T13:20:46.994Z</time>
</trkpt>
<trkpt lat="32.6380700" lon="35.1118800">
<ele>71.959999</ele>
<time>2023-11-30T13:20:46.994Z</time>
</trkpt>
<trkpt lat="32.6379300" lon="35.1118000">
<ele>73.189995</ele>
<time>2023-11-30T13:20:46.994Z</time>
</trkpt>
<trkpt lat="32.6373200" lon="35.1112900">
<ele>87.989998</ele>
<time>2023-11-30T13:20:46.994Z</time>
</trkpt>
<trkpt lat="32.6370900" lon="35.1109700">
<ele>93.159996</ele>
<time>2023-11-30T13:20:46.994Z</time>
</trkpt>
<trkpt lat="32.6370300" lon="35.1107100">
<ele>95.180008</ele>
<time>2023-11-30T13:20:46.994Z</time>
</trkpt>
<trkpt lat="32.6369500" lon="35.1102900">
<ele>94.199997</ele>
<time>2023-11-30T13:20:46.994Z</time>
</trkpt>
<trkpt lat="32.6369300" lon="35.1101200">
<ele>94.310005</ele>
<time>2023-11-30T13:20:46.994Z</time>
</trkpt>
<trkpt lat="32.6369200" lon="35.1101000">
<ele>94.199997</ele>
<time>2023-11-30T13:20:46.994Z</time>
</trkpt>
<trkpt lat="32.6368600" lon="35.1099400">
<ele>93.980003</ele>
<time>2023-11-30T13:20:46.994Z</time>
</trkpt>
<trkpt lat="32.6368000" lon="35.1098300">
<ele>93.939995</ele>
<time>2023-11-30T13:20:46.994Z</time>
</trkpt>
<trkpt lat="32.6367700" lon="35.1097200">
<ele>94.489998</ele>
<time>2023-11-30T13:20:46.994Z</time>
</trkpt>
<trkpt lat="32.6367600" lon="35.1096600">
<ele>94.420006</ele>
<time>2023-11-30T13:20:46.994Z</time>
</trkpt>
<trkpt lat="32.6367600" lon="35.1096600">
<ele>94.420006</ele>
<time>2023-11-30T13:20:46.994Z</time>
</trkpt>
<trkpt lat="32.6367500" lon="35.1096200">
<ele>94.310005</ele>
<time>2023-11-30T13:20:46.994Z</time>
</trkpt>
<trkpt lat="32.6367000" lon="35.1095200">
<ele>93.570000</ele>
<time>2023-11-30T13:20:46.994Z</time>
</trkpt>
<trkpt lat="32.6367100" lon="35.1094700">
<ele>93.769997</ele>
<time>2023-11-30T13:20:46.994Z</time>
</trkpt>
<trkpt lat="32.6367100" lon="35.1093900">
<ele>93.779999</ele>
<time>2023-11-30T13:20:46.994Z</time>
</trkpt>
<trkpt lat="32.6366800" lon="35.1093200">
<ele>93.240005</ele>
<time>2023-11-30T13:20:46.994Z</time>
</trkpt>
<trkpt lat="32.6366700" lon="35.1093100">
<ele>93.060005</ele>
<time>2023-11-30T13:20:46.994Z</time>
</trkpt>
<trkpt lat="32.6366100" lon="35.1092600">
<ele>92.860001</ele>
<time>2023-11-30T13:20:46.994Z</time>
</trkpt>
<trkpt lat="32.6365800" lon="35.1092400">
<ele>92.839996</ele>
<time>2023-11-30T13:20:46.994Z</time>
</trkpt>
<trkpt lat="32.6365400" lon="35.1092200">
<ele>92.820000</ele>
<time>2023-11-30T13:20:46.994Z</time>
</trkpt>
<trkpt lat="32.6364900" lon="35.1092000">
<ele>92.849998</ele>
<time>2023-11-30T13:20:46.994Z</time>
</trkpt>
<trkpt lat="32.6364800" lon="35.1091900">
<ele>92.890007</ele>
<time>2023-11-30T13:20:46.994Z</time>
</trkpt>
<trkpt lat="32.6364800" lon="35.1092000">
<ele>92.839996</ele>
<time>2023-11-30T13:20:46.994Z</time>
</trkpt>
<trkpt lat="32.6364800" lon="35.1092000">
<ele>92.839996</ele>
<time>2023-11-30T13:20:46.994Z</time>
</trkpt>
<trkpt lat="32.6364700" lon="35.1092100">
<ele>92.779999</ele>
<time>2023-11-30T13:20:46.994Z</time>
</trkpt>
<trkpt lat="32.6364700" lon="35.1092300">
<ele>92.680000</ele>
<time>2023-11-30T13:20:46.994Z</time>
</trkpt>
<trkpt lat="32.6363700" lon="35.1091800">
<ele>93.029999</ele>
<time>2023-11-30T13:20:46.994Z</time>
</trkpt>
<trkpt lat="32.6363000" lon="35.1091400">
<ele>93.830002</ele>
<time>2023-11-30T13:20:46.994Z</time>
</trkpt>
<trkpt lat="32.6362800" lon="35.1091300">
<ele>94.070000</ele>
<time>2023-11-30T13:20:46.994Z</time>
</trkpt>
<trkpt lat="32.6363300" lon="35.1090300">
<ele>94.229996</ele>
<time>2023-11-30T13:20:46.994Z</time>
</trkpt>
<trkpt lat="32.6362800" lon="35.1089800">
<ele>95.250000</ele>
<time>2023-11-30T13:20:46.994Z</time>
</trkpt>
<trkpt lat="32.6362300" lon="35.1089100">
<ele>96.650002</ele>
<time>2023-11-30T13:20:46.994Z</time>
</trkpt>
<trkpt lat="32.6361900" lon="35.1088500">
<ele>97.780006</ele>
<time>2023-11-30T13:20:46.994Z</time>
</trkpt>
<trkpt lat="32.6361700" lon="35.1088500">
<ele>98.159996</ele>
<time>2023-11-30T13:20:46.994Z</time>
</trkpt>
<trkpt lat="32.6361100" lon="35.1088600">
<ele>99.239998</ele>
<time>2023-11-30T13:20:46.994Z</time>
</trkpt>
<trkpt lat="32.6360300" lon="35.1089400">
<ele>100.550003</ele>
<time>2023-11-30T13:20:46.994Z</time>
</trkpt>
<trkpt lat="32.6360200" lon="35.1090400">
<ele>99.269997</ele>
<time>2023-11-30T13:20:46.994Z</time>
</trkpt>
<trkpt lat="32.6361200" lon="35.1090600">
<ele>96.440002</ele>
<time>2023-11-30T13:20:46.994Z</time>
</trkpt>
</trkseg>
</trk>
</gpx>
